﻿<?xml version="1.0" encoding="UTF-8" standalone="no" ?>
<gpx xmlns="http://www.topografix.com/GPX/1/1" xmlns:gpxx="http://www.garmin.com/xmlschemas/GpxExtensions/v3" xmlns:gpxtpx="http://www.garmin.com/xmlschemas/TrackPointExtension/v1" creator="https://www.mapstogpx.com/strava" version="1.1" xmlns:xsi="http://www.w3.org/2001/XMLSchema-instance" xsi:schemaLocation="http://www.topografix.com/GPX/1/1 http://www.topografix.com/GPX/1/1/gpx.xsd http://www.garmin.com/xmlschemas/GpxExtensions/v3 http://www.garmin.com/xmlschemas/GpxExtensionsv3.xsd http://www.garmin.com/xmlschemas/TrackPointExtension/v1 http://www.garmin.com/xmlschemas/TrackPointExtensionv1.xsd" xmlns:gpxdata="http://www.cluetrust.com/XML/GPXDATA/1/0">
 <metadata>
  <name>Arkov</name>
  <author>
   <name></name>
   <link href="https://www.strava.com/activities/3346602053"/>
  </author>
  <link href="https://www.mapstogpx.com/strava" />
  <time>2021-12-23T18:33:01Z</time>
 </metadata>
 <trk>
  <name>Arkov</name>
  <link href="https://www.strava.com/activities/3346602053"/>
  <number>1</number>
  <trkseg>
   <trkpt lat="30.792282" lon="34.76881"><ele>523</ele><name>TP00001</name><time>2021-12-16T18:33:01Z</time></trkpt>
   <trkpt lat="30.792282" lon="34.768811"><ele>523.2</ele><name>TP00002</name><time>2021-12-16T18:33:02Z</time></trkpt>
   <trkpt lat="30.792305" lon="34.768789"><ele>521.8</ele><name>TP00003</name><time>2021-12-16T18:35:12Z</time></trkpt>
   <trkpt lat="30.792319" lon="34.768781"><ele>521.8</ele><name>TP00004</name><time>2021-12-16T18:35:13Z</time></trkpt>
   <trkpt lat="30.792334" lon="34.768758"><ele>521.8</ele><name>TP00005</name><time>2021-12-16T18:35:15Z</time></trkpt>
   <trkpt lat="30.792338" lon="34.768741"><ele>521.8</ele><name>TP00006</name><time>2021-12-16T18:35:16Z</time></trkpt>
   <trkpt lat="30.79236" lon="34.768699"><ele>521.6</ele><name>TP00007</name><time>2021-12-16T18:35:19Z</time></trkpt>
   <trkpt lat="30.792374" lon="34.768707"><ele>521.6</ele><name>TP00008</name><time>2021-12-16T18:35:20Z</time></trkpt>
   <trkpt lat="30.792389" lon="34.768742"><ele>521.4</ele><name>TP00009</name><time>2021-12-16T18:35:23Z</time></trkpt>
   <trkpt lat="30.792383" lon="34.768761"><ele>521.4</ele><name>TP00010</name><time>2021-12-16T18:35:25Z</time></trkpt>
   <trkpt lat="30.792379" lon="34.76877"><ele>521.4</ele><name>TP00011</name><time>2021-12-16T18:35:26Z</time></trkpt>
   <trkpt lat="30.792332" lon="34.768796"><ele>521.2</ele><name>TP00012</name><time>2021-12-16T18:35:34Z</time></trkpt>
   <trkpt lat="30.792311" lon="34.768817"><ele>521.2</ele><name>TP00013</name><time>2021-12-16T18:35:39Z</time></trkpt>
   <trkpt lat="30.792253" lon="34.768821"><ele>521.2</ele><name>TP00014</name><time>2021-12-16T18:35:46Z</time></trkpt>
   <trkpt lat="30.792241" lon="34.768814"><ele>521.2</ele><name>TP00015</name><time>2021-12-16T18:35:47Z</time></trkpt>
   <trkpt lat="30.792243" lon="34.768787"><ele>521.2</ele><name>TP00016</name><time>2021-12-16T18:35:50Z</time></trkpt>
   <trkpt lat="30.792214" lon="34.768666"><ele>520.8</ele><name>TP00017</name><time>2021-12-16T18:35:57Z</time></trkpt>
   <trkpt lat="30.792207" lon="34.768643"><ele>520.8</ele><name>TP00018</name><time>2021-12-16T18:35:58Z</time></trkpt>
   <trkpt lat="30.792164" lon="34.768563"><ele>520.8</ele><name>TP00019</name><time>2021-12-16T18:36:02Z</time></trkpt>
   <trkpt lat="30.792138" lon="34.76852"><ele>520.6</ele><name>TP00020</name><time>2021-12-16T18:36:04Z</time></trkpt>
   <trkpt lat="30.792121" lon="34.768509"><ele>520.6</ele><name>TP00021</name><time>2021-12-16T18:36:05Z</time></trkpt>
   <trkpt lat="30.792083" lon="34.768512"><ele>520.4</ele><name>TP00022</name><time>2021-12-16T18:36:07Z</time></trkpt>
   <trkpt lat="30.792059" lon="34.768513"><ele>520.2</ele><name>TP00023</name><time>2021-12-16T18:36:08Z</time></trkpt>
   <trkpt lat="30.792033" lon="34.768511"><ele>520.2</ele><name>TP00024</name><time>2021-12-16T18:36:09Z</time></trkpt>
   <trkpt lat="30.791882" lon="34.768467"><ele>519.8</ele><name>TP00025</name><time>2021-12-16T18:36:14Z</time></trkpt>
   <trkpt lat="30.791854" lon="34.768444"><ele>519.8</ele><name>TP00026</name><time>2021-12-16T18:36:15Z</time></trkpt>
   <trkpt lat="30.791799" lon="34.768336"><ele>519.4</ele><name>TP00027</name><time>2021-12-16T18:36:18Z</time></trkpt>
   <trkpt lat="30.79178" lon="34.768293"><ele>519.2</ele><name>TP00028</name><time>2021-12-16T18:36:19Z</time></trkpt>
   <trkpt lat="30.791743" lon="34.768202"><ele>519</ele><name>TP00029</name><time>2021-12-16T18:36:21Z</time></trkpt>
   <trkpt lat="30.791699" lon="34.76806"><ele>519</ele><name>TP00030</name><time>2021-12-16T18:36:24Z</time></trkpt>
   <trkpt lat="30.791682" lon="34.767936"><ele>519</ele><name>TP00031</name><time>2021-12-16T18:36:27Z</time></trkpt>
   <trkpt lat="30.79167" lon="34.7679"><ele>519</ele><name>TP00032</name><time>2021-12-16T18:36:28Z</time></trkpt>
   <trkpt lat="30.791634" lon="34.767843"><ele>519.4</ele><name>TP00033</name><time>2021-12-16T18:36:30Z</time></trkpt>
   <trkpt lat="30.791571" lon="34.767815"><ele>519.6</ele><name>TP00034</name><time>2021-12-16T18:36:32Z</time></trkpt>
   <trkpt lat="30.791367" lon="34.767811"><ele>520</ele><name>TP00035</name><time>2021-12-16T18:36:38Z</time></trkpt>
   <trkpt lat="30.791192" lon="34.767791"><ele>520.2</ele><name>TP00036</name><time>2021-12-16T18:36:43Z</time></trkpt>
   <trkpt lat="30.791164" lon="34.767766"><ele>520.2</ele><name>TP00037</name><time>2021-12-16T18:36:44Z</time></trkpt>
   <trkpt lat="30.791085" lon="34.767608"><ele>519.6</ele><name>TP00038</name><time>2021-12-16T18:36:48Z</time></trkpt>
   <trkpt lat="30.79104" lon="34.767481"><ele>519.6</ele><name>TP00039</name><time>2021-12-16T18:36:52Z</time></trkpt>
   <trkpt lat="30.791027" lon="34.767446"><ele>519.8</ele><name>TP00040</name><time>2021-12-16T18:36:53Z</time></trkpt>
   <trkpt lat="30.790983" lon="34.767206"><ele>519.2</ele><name>TP00041</name><time>2021-12-16T18:36:59Z</time></trkpt>
   <trkpt lat="30.79096" lon="34.766953"><ele>519.4</ele><name>TP00042</name><time>2021-12-16T18:37:05Z</time></trkpt>
   <trkpt lat="30.790971" lon="34.766712"><ele>519.8</ele><name>TP00043</name><time>2021-12-16T18:37:12Z</time></trkpt>
   <trkpt lat="30.790952" lon="34.766479"><ele>519.6</ele><name>TP00044</name><time>2021-12-16T18:37:18Z</time></trkpt>
   <trkpt lat="30.790908" lon="34.76618"><ele>519.8</ele><name>TP00045</name><time>2021-12-16T18:37:25Z</time></trkpt>
   <trkpt lat="30.790874" lon="34.766016"><ele>520</ele><name>TP00046</name><time>2021-12-16T18:37:29Z</time></trkpt>
   <trkpt lat="30.790868" lon="34.765902"><ele>520.4</ele><name>TP00047</name><time>2021-12-16T18:37:32Z</time></trkpt>
   <trkpt lat="30.790879" lon="34.765763"><ele>521</ele><name>TP00048</name><time>2021-12-16T18:37:36Z</time></trkpt>
   <trkpt lat="30.790887" lon="34.765677"><ele>521.4</ele><name>TP00049</name><time>2021-12-16T18:37:39Z</time></trkpt>
   <trkpt lat="30.790908" lon="34.765564"><ele>522.2</ele><name>TP00050</name><time>2021-12-16T18:37:43Z</time></trkpt>
   <trkpt lat="30.79092" lon="34.765484"><ele>522.4</ele><name>TP00051</name><time>2021-12-16T18:37:46Z</time></trkpt>
   <trkpt lat="30.790935" lon="34.765352"><ele>523.4</ele><name>TP00052</name><time>2021-12-16T18:37:51Z</time></trkpt>
   <trkpt lat="30.79094" lon="34.765295"><ele>523.4</ele><name>TP00053</name><time>2021-12-16T18:37:53Z</time></trkpt>
   <trkpt lat="30.790961" lon="34.765082"><ele>523.4</ele><name>TP00054</name><time>2021-12-16T18:38:00Z</time></trkpt>
   <trkpt lat="30.790999" lon="34.764839"><ele>524</ele><name>TP00055</name><time>2021-12-16T18:38:09Z</time></trkpt>
   <trkpt lat="30.791013" lon="34.764786"><ele>524.4</ele><name>TP00056</name><time>2021-12-16T18:38:11Z</time></trkpt>
   <trkpt lat="30.791041" lon="34.764642"><ele>525.2</ele><name>TP00057</name><time>2021-12-16T18:38:17Z</time></trkpt>
   <trkpt lat="30.791044" lon="34.764618"><ele>525.4</ele><name>TP00058</name><time>2021-12-16T18:38:18Z</time></trkpt>
   <trkpt lat="30.791053" lon="34.764509"><ele>526.2</ele><name>TP00059</name><time>2021-12-16T18:38:23Z</time></trkpt>
   <trkpt lat="30.791054" lon="34.76449"><ele>526.6</ele><name>TP00060</name><time>2021-12-16T18:38:24Z</time></trkpt>
   <trkpt lat="30.79106" lon="34.764384"><ele>527.4</ele><name>TP00061</name><time>2021-12-16T18:38:29Z</time></trkpt>
   <trkpt lat="30.791065" lon="34.76436"><ele>527.8</ele><name>TP00062</name><time>2021-12-16T18:38:30Z</time></trkpt>
   <trkpt lat="30.791071" lon="34.764321"><ele>528.2</ele><name>TP00063</name><time>2021-12-16T18:38:32Z</time></trkpt>
   <trkpt lat="30.791084" lon="34.764218"><ele>528.8</ele><name>TP00064</name><time>2021-12-16T18:38:37Z</time></trkpt>
   <trkpt lat="30.791095" lon="34.764153"><ele>528.8</ele><name>TP00065</name><time>2021-12-16T18:38:40Z</time></trkpt>
   <trkpt lat="30.791114" lon="34.764073"><ele>529.6</ele><name>TP00066</name><time>2021-12-16T18:38:44Z</time></trkpt>
   <trkpt lat="30.791132" lon="34.764008"><ele>529.6</ele><name>TP00067</name><time>2021-12-16T18:38:47Z</time></trkpt>
   <trkpt lat="30.791153" lon="34.76393"><ele>529.4</ele><name>TP00068</name><time>2021-12-16T18:38:50Z</time></trkpt>
   <trkpt lat="30.791209" lon="34.763775"><ele>529</ele><name>TP00069</name><time>2021-12-16T18:38:54Z</time></trkpt>
   <trkpt lat="30.791226" lon="34.763719"><ele>529</ele><name>TP00070</name><time>2021-12-16T18:38:55Z</time></trkpt>
   <trkpt lat="30.791334" lon="34.763377"><ele>528</ele><name>TP00071</name><time>2021-12-16T18:39:00Z</time></trkpt>
   <trkpt lat="30.791374" lon="34.763234"><ele>525.8</ele><name>TP00072</name><time>2021-12-16T18:39:02Z</time></trkpt>
   <trkpt lat="30.791392" lon="34.763164"><ele>524.4</ele><name>TP00073</name><time>2021-12-16T18:39:03Z</time></trkpt>
   <trkpt lat="30.791442" lon="34.762912"><ele>523.6</ele><name>TP00074</name><time>2021-12-16T18:39:07Z</time></trkpt>
   <trkpt lat="30.791446" lon="34.762802"><ele>523.4</ele><name>TP00075</name><time>2021-12-16T18:39:09Z</time></trkpt>
   <trkpt lat="30.791436" lon="34.762628"><ele>523.2</ele><name>TP00076</name><time>2021-12-16T18:39:12Z</time></trkpt>
   <trkpt lat="30.791423" lon="34.762383"><ele>525.4</ele><name>TP00077</name><time>2021-12-16T18:39:17Z</time></trkpt>
   <trkpt lat="30.791419" lon="34.762336"><ele>525.4</ele><name>TP00078</name><time>2021-12-16T18:39:18Z</time></trkpt>
   <trkpt lat="30.791408" lon="34.762234"><ele>525</ele><name>TP00079</name><time>2021-12-16T18:39:20Z</time></trkpt>
   <trkpt lat="30.791384" lon="34.762009"><ele>524.2</ele><name>TP00080</name><time>2021-12-16T18:39:24Z</time></trkpt>
   <trkpt lat="30.791373" lon="34.76182"><ele>523.2</ele><name>TP00081</name><time>2021-12-16T18:39:27Z</time></trkpt>
   <trkpt lat="30.791371" lon="34.761677"><ele>521.4</ele><name>TP00082</name><time>2021-12-16T18:39:29Z</time></trkpt>
   <trkpt lat="30.791375" lon="34.761603"><ele>520.8</ele><name>TP00083</name><time>2021-12-16T18:39:30Z</time></trkpt>
   <trkpt lat="30.791388" lon="34.761528"><ele>520.6</ele><name>TP00084</name><time>2021-12-16T18:39:31Z</time></trkpt>
   <trkpt lat="30.791402" lon="34.761449"><ele>520</ele><name>TP00085</name><time>2021-12-16T18:39:32Z</time></trkpt>
   <trkpt lat="30.791406" lon="34.761294"><ele>519.4</ele><name>TP00086</name><time>2021-12-16T18:39:34Z</time></trkpt>
   <trkpt lat="30.791377" lon="34.761141"><ele>519.2</ele><name>TP00087</name><time>2021-12-16T18:39:36Z</time></trkpt>
   <trkpt lat="30.791331" lon="34.760924"><ele>519.2</ele><name>TP00088</name><time>2021-12-16T18:39:39Z</time></trkpt>
   <trkpt lat="30.791313" lon="34.760785"><ele>519.2</ele><name>TP00089</name><time>2021-12-16T18:39:41Z</time></trkpt>
   <trkpt lat="30.791304" lon="34.760586"><ele>519</ele><name>TP00090</name><time>2021-12-16T18:39:44Z</time></trkpt>
   <trkpt lat="30.791293" lon="34.760522"><ele>519</ele><name>TP00091</name><time>2021-12-16T18:39:45Z</time></trkpt>
   <trkpt lat="30.791283" lon="34.760458"><ele>518.8</ele><name>TP00092</name><time>2021-12-16T18:39:46Z</time></trkpt>
   <trkpt lat="30.79126" lon="34.76033"><ele>519.6</ele><name>TP00093</name><time>2021-12-16T18:39:48Z</time></trkpt>
   <trkpt lat="30.791238" lon="34.760201"><ele>519.8</ele><name>TP00094</name><time>2021-12-16T18:39:50Z</time></trkpt>
   <trkpt lat="30.791211" lon="34.759993"><ele>518.4</ele><name>TP00095</name><time>2021-12-16T18:39:53Z</time></trkpt>
   <trkpt lat="30.791202" lon="34.75992"><ele>517.4</ele><name>TP00096</name><time>2021-12-16T18:39:54Z</time></trkpt>
   <trkpt lat="30.791193" lon="34.759847"><ele>516.2</ele><name>TP00097</name><time>2021-12-16T18:39:55Z</time></trkpt>
   <trkpt lat="30.791189" lon="34.759776"><ele>515.8</ele><name>TP00098</name><time>2021-12-16T18:39:56Z</time></trkpt>
   <trkpt lat="30.791175" lon="34.759634"><ele>515.4</ele><name>TP00099</name><time>2021-12-16T18:39:58Z</time></trkpt>
   <trkpt lat="30.791167" lon="34.759561"><ele>515.2</ele><name>TP00100</name><time>2021-12-16T18:39:59Z</time></trkpt>
   <trkpt lat="30.791154" lon="34.759487"><ele>515</ele><name>TP00101</name><time>2021-12-16T18:40:00Z</time></trkpt>
   <trkpt lat="30.791147" lon="34.75926"><ele>513.8</ele><name>TP00102</name><time>2021-12-16T18:40:03Z</time></trkpt>
   <trkpt lat="30.79116" lon="34.759186"><ele>513.4</ele><name>TP00103</name><time>2021-12-16T18:40:04Z</time></trkpt>
   <trkpt lat="30.791206" lon="34.758958"><ele>513.2</ele><name>TP00104</name><time>2021-12-16T18:40:07Z</time></trkpt>
   <trkpt lat="30.791237" lon="34.758811"><ele>513.6</ele><name>TP00105</name><time>2021-12-16T18:40:09Z</time></trkpt>
   <trkpt lat="30.791257" lon="34.758737"><ele>513.4</ele><name>TP00106</name><time>2021-12-16T18:40:10Z</time></trkpt>
   <trkpt lat="30.791369" lon="34.758474"><ele>512.8</ele><name>TP00107</name><time>2021-12-16T18:40:14Z</time></trkpt>
   <trkpt lat="30.791402" lon="34.758418"><ele>512.8</ele><name>TP00108</name><time>2021-12-16T18:40:15Z</time></trkpt>
   <trkpt lat="30.791472" lon="34.758305"><ele>512.6</ele><name>TP00109</name><time>2021-12-16T18:40:17Z</time></trkpt>
   <trkpt lat="30.791512" lon="34.758174"><ele>512.6</ele><name>TP00110</name><time>2021-12-16T18:40:19Z</time></trkpt>
   <trkpt lat="30.791536" lon="34.758057"><ele>512.2</ele><name>TP00111</name><time>2021-12-16T18:40:21Z</time></trkpt>
   <trkpt lat="30.791547" lon="34.757976"><ele>511.8</ele><name>TP00112</name><time>2021-12-16T18:40:23Z</time></trkpt>
   <trkpt lat="30.791543" lon="34.757907"><ele>511.6</ele><name>TP00113</name><time>2021-12-16T18:40:25Z</time></trkpt>
   <trkpt lat="30.791495" lon="34.757807"><ele>511.4</ele><name>TP00114</name><time>2021-12-16T18:40:28Z</time></trkpt>
   <trkpt lat="30.791356" lon="34.757678"><ele>511</ele><name>TP00115</name><time>2021-12-16T18:40:33Z</time></trkpt>
   <trkpt lat="30.791289" lon="34.757621"><ele>511</ele><name>TP00116</name><time>2021-12-16T18:40:36Z</time></trkpt>
   <trkpt lat="30.791274" lon="34.757595"><ele>510.6</ele><name>TP00117</name><time>2021-12-16T18:40:37Z</time></trkpt>
   <trkpt lat="30.791262" lon="34.757564"><ele>510.4</ele><name>TP00118</name><time>2021-12-16T18:40:38Z</time></trkpt>
   <trkpt lat="30.79125" lon="34.757415"><ele>509.6</ele><name>TP00119</name><time>2021-12-16T18:40:42Z</time></trkpt>
   <trkpt lat="30.791254" lon="34.757379"><ele>509.4</ele><name>TP00120</name><time>2021-12-16T18:40:43Z</time></trkpt>
   <trkpt lat="30.791311" lon="34.757222"><ele>508.6</ele><name>TP00121</name><time>2021-12-16T18:40:47Z</time></trkpt>
   <trkpt lat="30.791331" lon="34.757178"><ele>508.2</ele><name>TP00122</name><time>2021-12-16T18:40:48Z</time></trkpt>
   <trkpt lat="30.791449" lon="34.757043"><ele>508</ele><name>TP00123</name><time>2021-12-16T18:40:52Z</time></trkpt>
   <trkpt lat="30.791578" lon="34.75689"><ele>507.4</ele><name>TP00124</name><time>2021-12-16T18:40:57Z</time></trkpt>
   <trkpt lat="30.791727" lon="34.756658"><ele>507.6</ele><name>TP00125</name><time>2021-12-16T18:41:03Z</time></trkpt>
   <trkpt lat="30.791854" lon="34.756509"><ele>507.2</ele><name>TP00126</name><time>2021-12-16T18:41:07Z</time></trkpt>
   <trkpt lat="30.791964" lon="34.756419"><ele>507</ele><name>TP00127</name><time>2021-12-16T18:41:10Z</time></trkpt>
   <trkpt lat="30.792038" lon="34.756362"><ele>507.2</ele><name>TP00128</name><time>2021-12-16T18:41:12Z</time></trkpt>
   <trkpt lat="30.79216" lon="34.756299"><ele>507.4</ele><name>TP00129</name><time>2021-12-16T18:41:15Z</time></trkpt>
   <trkpt lat="30.79227" lon="34.75632"><ele>507.6</ele><name>TP00130</name><time>2021-12-16T18:41:18Z</time></trkpt>
   <trkpt lat="30.792303" lon="34.756325"><ele>507.6</ele><name>TP00131</name><time>2021-12-16T18:41:19Z</time></trkpt>
   <trkpt lat="30.792437" lon="34.756283"><ele>507.8</ele><name>TP00132</name><time>2021-12-16T18:41:23Z</time></trkpt>
   <trkpt lat="30.792628" lon="34.756152"><ele>507.6</ele><name>TP00133</name><time>2021-12-16T18:41:29Z</time></trkpt>
   <trkpt lat="30.792742" lon="34.756099"><ele>507.6</ele><name>TP00134</name><time>2021-12-16T18:41:33Z</time></trkpt>
   <trkpt lat="30.79279" lon="34.75608"><ele>507.6</ele><name>TP00135</name><time>2021-12-16T18:41:35Z</time></trkpt>
   <trkpt lat="30.79291" lon="34.756043"><ele>508</ele><name>TP00136</name><time>2021-12-16T18:41:42Z</time></trkpt>
   <trkpt lat="30.792908" lon="34.756046"><ele>508</ele><name>TP00137</name><time>2021-12-16T18:41:43Z</time></trkpt>
   <trkpt lat="30.792983" lon="34.756029"><ele>508</ele><name>TP00138</name><time>2021-12-16T18:41:50Z</time></trkpt>
   <trkpt lat="30.793037" lon="34.756017"><ele>507.8</ele><name>TP00139</name><time>2021-12-16T18:41:52Z</time></trkpt>
   <trkpt lat="30.793169" lon="34.755976"><ele>507.8</ele><name>TP00140</name><time>2021-12-16T18:41:57Z</time></trkpt>
   <trkpt lat="30.79335" lon="34.755857"><ele>507.4</ele><name>TP00141</name><time>2021-12-16T18:42:04Z</time></trkpt>
   <trkpt lat="30.793394" lon="34.755726"><ele>507.4</ele><name>TP00142</name><time>2021-12-16T18:42:09Z</time></trkpt>
   <trkpt lat="30.793436" lon="34.755598"><ele>506.6</ele><name>TP00143</name><time>2021-12-16T18:42:14Z</time></trkpt>
   <trkpt lat="30.793459" lon="34.755558"><ele>506.2</ele><name>TP00144</name><time>2021-12-16T18:42:16Z</time></trkpt>
   <trkpt lat="30.793524" lon="34.755486"><ele>505.4</ele><name>TP00145</name><time>2021-12-16T18:42:21Z</time></trkpt>
   <trkpt lat="30.793562" lon="34.755458"><ele>504.4</ele><name>TP00146</name><time>2021-12-16T18:42:23Z</time></trkpt>
   <trkpt lat="30.79358" lon="34.75544"><ele>504.2</ele><name>TP00147</name><time>2021-12-16T18:42:24Z</time></trkpt>
   <trkpt lat="30.7936" lon="34.755386"><ele>503.8</ele><name>TP00148</name><time>2021-12-16T18:42:26Z</time></trkpt>
   <trkpt lat="30.793597" lon="34.755363"><ele>503.6</ele><name>TP00149</name><time>2021-12-16T18:42:27Z</time></trkpt>
   <trkpt lat="30.793593" lon="34.755322"><ele>503.2</ele><name>TP00150</name><time>2021-12-16T18:42:31Z</time></trkpt>
   <trkpt lat="30.793643" lon="34.755207"><ele>505.8</ele><name>TP00151</name><time>2021-12-16T18:46:39Z</time></trkpt>
   <trkpt lat="30.793625" lon="34.755204"><ele>505.8</ele><name>TP00152</name><time>2021-12-16T18:46:42Z</time></trkpt>
   <trkpt lat="30.793609" lon="34.755203"><ele>506</ele><name>TP00153</name><time>2021-12-16T18:46:44Z</time></trkpt>
   <trkpt lat="30.793573" lon="34.755198"><ele>506</ele><name>TP00154</name><time>2021-12-16T18:46:48Z</time></trkpt>
   <trkpt lat="30.793562" lon="34.755202"><ele>506</ele><name>TP00155</name><time>2021-12-16T18:46:50Z</time></trkpt>
   <trkpt lat="30.793561" lon="34.755202"><ele>506.4</ele><name>TP00156</name><time>2021-12-16T18:46:52Z</time></trkpt>
   <trkpt lat="30.793591" lon="34.755194"><ele>506</ele><name>TP00157</name><time>2021-12-16T18:47:07Z</time></trkpt>
   <trkpt lat="30.793613" lon="34.755194"><ele>506.2</ele><name>TP00158</name><time>2021-12-16T18:47:08Z</time></trkpt>
   <trkpt lat="30.793671" lon="34.755199"><ele>506.2</ele><name>TP00159</name><time>2021-12-16T18:47:11Z</time></trkpt>
   <trkpt lat="30.793682" lon="34.755217"><ele>506.2</ele><name>TP00160</name><time>2021-12-16T18:47:12Z</time></trkpt>
   <trkpt lat="30.793695" lon="34.75523"><ele>506</ele><name>TP00161</name><time>2021-12-16T18:47:14Z</time></trkpt>
   <trkpt lat="30.793692" lon="34.755199"><ele>504</ele><name>TP00162</name><time>2021-12-16T18:47:22Z</time></trkpt>
   <trkpt lat="30.793688" lon="34.755209"><ele>504</ele><name>TP00163</name><time>2021-12-16T18:47:23Z</time></trkpt>
   <trkpt lat="30.793688" lon="34.755232"><ele>504.2</ele><name>TP00164</name><time>2021-12-16T18:47:24Z</time></trkpt>
   <trkpt lat="30.793692" lon="34.755247"><ele>504.4</ele><name>TP00165</name><time>2021-12-16T18:47:25Z</time></trkpt>
   <trkpt lat="30.793693" lon="34.755259"><ele>504.4</ele><name>TP00166</name><time>2021-12-16T18:47:26Z</time></trkpt>
   <trkpt lat="30.793688" lon="34.755267"><ele>504.4</ele><name>TP00167</name><time>2021-12-16T18:47:28Z</time></trkpt>
   <trkpt lat="30.793689" lon="34.755271"><ele>504.4</ele><name>TP00168</name><time>2021-12-16T18:47:29Z</time></trkpt>
   <trkpt lat="30.79374" lon="34.755305"><ele>504</ele><name>TP00169</name><time>2021-12-16T18:47:58Z</time></trkpt>
   <trkpt lat="30.793755" lon="34.755306"><ele>504.2</ele><name>TP00170</name><time>2021-12-16T18:47:59Z</time></trkpt>
   <trkpt lat="30.79381" lon="34.755306"><ele>504.4</ele><name>TP00171</name><time>2021-12-16T18:48:02Z</time></trkpt>
   <trkpt lat="30.793912" lon="34.755314"><ele>504.6</ele><name>TP00172</name><time>2021-12-16T18:48:07Z</time></trkpt>
   <trkpt lat="30.793932" lon="34.755318"><ele>504.6</ele><name>TP00173</name><time>2021-12-16T18:48:08Z</time></trkpt>
   <trkpt lat="30.794079" lon="34.755328"><ele>505</ele><name>TP00174</name><time>2021-12-16T18:48:15Z</time></trkpt>
   <trkpt lat="30.794099" lon="34.755327"><ele>505.2</ele><name>TP00175</name><time>2021-12-16T18:48:16Z</time></trkpt>
   <trkpt lat="30.794199" lon="34.75534"><ele>504.2</ele><name>TP00176</name><time>2021-12-16T18:48:21Z</time></trkpt>
   <trkpt lat="30.794345" lon="34.75538"><ele>504.4</ele><name>TP00177</name><time>2021-12-16T18:48:28Z</time></trkpt>
   <trkpt lat="30.794455" lon="34.755418"><ele>504</ele><name>TP00178</name><time>2021-12-16T18:48:33Z</time></trkpt>
   <trkpt lat="30.794474" lon="34.755423"><ele>503.8</ele><name>TP00179</name><time>2021-12-16T18:48:34Z</time></trkpt>
   <trkpt lat="30.794549" lon="34.755446"><ele>504.4</ele><name>TP00180</name><time>2021-12-16T18:48:39Z</time></trkpt>
   <trkpt lat="30.794575" lon="34.755455"><ele>504.4</ele><name>TP00181</name><time>2021-12-16T18:48:41Z</time></trkpt>
   <trkpt lat="30.794618" lon="34.755457"><ele>504.4</ele><name>TP00182</name><time>2021-12-16T18:48:45Z</time></trkpt>
   <trkpt lat="30.794632" lon="34.755459"><ele>504.4</ele><name>TP00183</name><time>2021-12-16T18:48:47Z</time></trkpt>
   <trkpt lat="30.794601" lon="34.755504"><ele>504.8</ele><name>TP00184</name><time>2021-12-16T18:50:53Z</time></trkpt>
   <trkpt lat="30.794609" lon="34.755521"><ele>505</ele><name>TP00185</name><time>2021-12-16T18:50:54Z</time></trkpt>
   <trkpt lat="30.794644" lon="34.755562"><ele>505</ele><name>TP00186</name><time>2021-12-16T18:50:57Z</time></trkpt>
   <trkpt lat="30.794675" lon="34.755577"><ele>504.8</ele><name>TP00187</name><time>2021-12-16T18:50:59Z</time></trkpt>
   <trkpt lat="30.794747" lon="34.755562"><ele>505.2</ele><name>TP00188</name><time>2021-12-16T18:51:03Z</time></trkpt>
   <trkpt lat="30.79477" lon="34.755561"><ele>505.2</ele><name>TP00189</name><time>2021-12-16T18:51:04Z</time></trkpt>
   <trkpt lat="30.79493" lon="34.755584"><ele>504.8</ele><name>TP00190</name><time>2021-12-16T18:51:10Z</time></trkpt>
   <trkpt lat="30.794999" lon="34.75561"><ele>505</ele><name>TP00191</name><time>2021-12-16T18:51:14Z</time></trkpt>
   <trkpt lat="30.794975" lon="34.755682"><ele>505.2</ele><name>TP00192</name><time>2021-12-16T18:52:51Z</time></trkpt>
   <trkpt lat="30.794967" lon="34.755689"><ele>505.2</ele><name>TP00193</name><time>2021-12-16T18:52:52Z</time></trkpt>
   <trkpt lat="30.794916" lon="34.755717"><ele>505.2</ele><name>TP00194</name><time>2021-12-16T18:52:58Z</time></trkpt>
   <trkpt lat="30.794872" lon="34.755762"><ele>505.2</ele><name>TP00195</name><time>2021-12-16T18:53:04Z</time></trkpt>
   <trkpt lat="30.79484" lon="34.755797"><ele>506.2</ele><name>TP00196</name><time>2021-12-16T18:53:09Z</time></trkpt>
   <trkpt lat="30.794819" lon="34.755822"><ele>507</ele><name>TP00197</name><time>2021-12-16T18:53:13Z</time></trkpt>
   <trkpt lat="30.794815" lon="34.75583"><ele>507.2</ele><name>TP00198</name><time>2021-12-16T18:53:14Z</time></trkpt>
   <trkpt lat="30.794793" lon="34.755854"><ele>507.6</ele><name>TP00199</name><time>2021-12-16T18:53:18Z</time></trkpt>
   <trkpt lat="30.794782" lon="34.755899"><ele>508</ele><name>TP00200</name><time>2021-12-16T18:53:23Z</time></trkpt>
   <trkpt lat="30.794779" lon="34.755907"><ele>508.2</ele><name>TP00201</name><time>2021-12-16T18:53:24Z</time></trkpt>
   <trkpt lat="30.794777" lon="34.755913"><ele>508.4</ele><name>TP00202</name><time>2021-12-16T18:53:25Z</time></trkpt>
   <trkpt lat="30.79476" lon="34.755939"><ele>508.8</ele><name>TP00203</name><time>2021-12-16T18:53:30Z</time></trkpt>
   <trkpt lat="30.794762" lon="34.75595"><ele>508.8</ele><name>TP00204</name><time>2021-12-16T18:53:31Z</time></trkpt>
   <trkpt lat="30.794788" lon="34.755987"><ele>509</ele><name>TP00205</name><time>2021-12-16T18:53:42Z</time></trkpt>
   <trkpt lat="30.794829" lon="34.756031"><ele>509.2</ele><name>TP00206</name><time>2021-12-16T18:53:45Z</time></trkpt>
   <trkpt lat="30.794924" lon="34.756127"><ele>509.2</ele><name>TP00207</name><time>2021-12-16T18:53:51Z</time></trkpt>
   <trkpt lat="30.795039" lon="34.756155"><ele>509</ele><name>TP00208</name><time>2021-12-16T18:53:56Z</time></trkpt>
   <trkpt lat="30.795131" lon="34.756147"><ele>509.4</ele><name>TP00209</name><time>2021-12-16T18:54:00Z</time></trkpt>
   <trkpt lat="30.795224" lon="34.756155"><ele>509.4</ele><name>TP00210</name><time>2021-12-16T18:54:04Z</time></trkpt>
   <trkpt lat="30.795396" lon="34.756166"><ele>508.8</ele><name>TP00211</name><time>2021-12-16T18:54:11Z</time></trkpt>
   <trkpt lat="30.79545" lon="34.756155"><ele>508.4</ele><name>TP00212</name><time>2021-12-16T18:54:13Z</time></trkpt>
   <trkpt lat="30.79555" lon="34.756136"><ele>507.2</ele><name>TP00213</name><time>2021-12-16T18:54:17Z</time></trkpt>
   <trkpt lat="30.795603" lon="34.756094"><ele>507</ele><name>TP00214</name><time>2021-12-16T18:54:19Z</time></trkpt>
   <trkpt lat="30.795649" lon="34.756029"><ele>506</ele><name>TP00215</name><time>2021-12-16T18:54:21Z</time></trkpt>
   <trkpt lat="30.795699" lon="34.755974"><ele>504.8</ele><name>TP00216</name><time>2021-12-16T18:54:24Z</time></trkpt>
   <trkpt lat="30.795721" lon="34.755938"><ele>504.6</ele><name>TP00217</name><time>2021-12-16T18:54:26Z</time></trkpt>
   <trkpt lat="30.795727" lon="34.755879"><ele>504.4</ele><name>TP00218</name><time>2021-12-16T18:54:29Z</time></trkpt>
   <trkpt lat="30.795722" lon="34.755836"><ele>504.6</ele><name>TP00219</name><time>2021-12-16T18:54:31Z</time></trkpt>
   <trkpt lat="30.795704" lon="34.755784"><ele>505</ele><name>TP00220</name><time>2021-12-16T18:54:34Z</time></trkpt>
   <trkpt lat="30.795709" lon="34.755748"><ele>505.6</ele><name>TP00221</name><time>2021-12-16T18:54:37Z</time></trkpt>
   <trkpt lat="30.795713" lon="34.755741"><ele>505.8</ele><name>TP00222</name><time>2021-12-16T18:54:38Z</time></trkpt>
   <trkpt lat="30.795713" lon="34.755732"><ele>506.2</ele><name>TP00223</name><time>2021-12-16T18:54:42Z</time></trkpt>
   <trkpt lat="30.795711" lon="34.755729"><ele>506.2</ele><name>TP00224</name><time>2021-12-16T18:54:43Z</time></trkpt>
   <trkpt lat="30.795671" lon="34.755746"><ele>506.2</ele><name>TP00225</name><time>2021-12-16T18:55:03Z</time></trkpt>
   <trkpt lat="30.795661" lon="34.755752"><ele>506</ele><name>TP00226</name><time>2021-12-16T18:55:04Z</time></trkpt>
   <trkpt lat="30.795654" lon="34.755756"><ele>506</ele><name>TP00227</name><time>2021-12-16T18:55:05Z</time></trkpt>
   <trkpt lat="30.795652" lon="34.755766"><ele>505.8</ele><name>TP00228</name><time>2021-12-16T18:55:07Z</time></trkpt>
   <trkpt lat="30.795624" lon="34.755762"><ele>505.8</ele><name>TP00229</name><time>2021-12-16T18:55:11Z</time></trkpt>
   <trkpt lat="30.795541" lon="34.755746"><ele>505.6</ele><name>TP00230</name><time>2021-12-16T18:55:20Z</time></trkpt>
   <trkpt lat="30.795523" lon="34.755729"><ele>506</ele><name>TP00231</name><time>2021-12-16T18:55:24Z</time></trkpt>
   <trkpt lat="30.795517" lon="34.755719"><ele>506</ele><name>TP00232</name><time>2021-12-16T18:55:27Z</time></trkpt>
   <trkpt lat="30.79551" lon="34.755696"><ele>506.2</ele><name>TP00233</name><time>2021-12-16T18:55:30Z</time></trkpt>
   <trkpt lat="30.795499" lon="34.755669"><ele>507.2</ele><name>TP00234</name><time>2021-12-16T18:55:34Z</time></trkpt>
   <trkpt lat="30.79548" lon="34.755657"><ele>507.8</ele><name>TP00235</name><time>2021-12-16T18:55:37Z</time></trkpt>
   <trkpt lat="30.795452" lon="34.755655"><ele>507.8</ele><name>TP00236</name><time>2021-12-16T18:55:40Z</time></trkpt>
   <trkpt lat="30.79541" lon="34.755646"><ele>507.6</ele><name>TP00237</name><time>2021-12-16T18:55:44Z</time></trkpt>
   <trkpt lat="30.795415" lon="34.755646"><ele>507.6</ele><name>TP00238</name><time>2021-12-16T18:55:46Z</time></trkpt>
   <trkpt lat="30.795455" lon="34.75565"><ele>507.6</ele><name>TP00239</name><time>2021-12-16T18:56:15Z</time></trkpt>
   <trkpt lat="30.795496" lon="34.755681"><ele>507.6</ele><name>TP00240</name><time>2021-12-16T18:56:18Z</time></trkpt>
   <trkpt lat="30.795512" lon="34.755709"><ele>507.6</ele><name>TP00241</name><time>2021-12-16T18:56:19Z</time></trkpt>
   <trkpt lat="30.795529" lon="34.755746"><ele>507.4</ele><name>TP00242</name><time>2021-12-16T18:56:21Z</time></trkpt>
   <trkpt lat="30.795584" lon="34.755784"><ele>506.2</ele><name>TP00243</name><time>2021-12-16T18:56:56Z</time></trkpt>
   <trkpt lat="30.795589" lon="34.755794"><ele>506.2</ele><name>TP00244</name><time>2021-12-16T18:56:57Z</time></trkpt>
   <trkpt lat="30.79561" lon="34.755804"><ele>506.2</ele><name>TP00245</name><time>2021-12-16T18:57:00Z</time></trkpt>
   <trkpt lat="30.795618" lon="34.755807"><ele>506.2</ele><name>TP00246</name><time>2021-12-16T18:57:01Z</time></trkpt>
   <trkpt lat="30.795665" lon="34.755797"><ele>506.4</ele><name>TP00247</name><time>2021-12-16T18:57:06Z</time></trkpt>
   <trkpt lat="30.795683" lon="34.755783"><ele>506.6</ele><name>TP00248</name><time>2021-12-16T18:57:08Z</time></trkpt>
   <trkpt lat="30.795698" lon="34.755768"><ele>506.8</ele><name>TP00249</name><time>2021-12-16T18:57:12Z</time></trkpt>
   <trkpt lat="30.795716" lon="34.755706"><ele>507.4</ele><name>TP00250</name><time>2021-12-16T18:57:17Z</time></trkpt>
   <trkpt lat="30.795729" lon="34.755668"><ele>507.8</ele><name>TP00251</name><time>2021-12-16T18:57:20Z</time></trkpt>
   <trkpt lat="30.795751" lon="34.755638"><ele>508.4</ele><name>TP00252</name><time>2021-12-16T18:57:23Z</time></trkpt>
   <trkpt lat="30.795794" lon="34.755592"><ele>509.4</ele><name>TP00253</name><time>2021-12-16T18:57:28Z</time></trkpt>
   <trkpt lat="30.795803" lon="34.755581"><ele>509.6</ele><name>TP00254</name><time>2021-12-16T18:57:29Z</time></trkpt>
   <trkpt lat="30.795846" lon="34.755524"><ele>510.6</ele><name>TP00255</name><time>2021-12-16T18:57:34Z</time></trkpt>
   <trkpt lat="30.795901" lon="34.755417"><ele>511.6</ele><name>TP00256</name><time>2021-12-16T18:57:41Z</time></trkpt>
   <trkpt lat="30.79591" lon="34.755404"><ele>511.8</ele><name>TP00257</name><time>2021-12-16T18:57:42Z</time></trkpt>
   <trkpt lat="30.79592" lon="34.755395"><ele>512</ele><name>TP00258</name><time>2021-12-16T18:57:43Z</time></trkpt>
   <trkpt lat="30.795923" lon="34.755393"><ele>512</ele><name>TP00259</name><time>2021-12-16T18:57:44Z</time></trkpt>
   <trkpt lat="30.795933" lon="34.755381"><ele>512.6</ele><name>TP00260</name><time>2021-12-16T18:57:49Z</time></trkpt>
   <trkpt lat="30.795937" lon="34.755378"><ele>512.6</ele><name>TP00261</name><time>2021-12-16T18:57:50Z</time></trkpt>
   <trkpt lat="30.795942" lon="34.755374"><ele>512.8</ele><name>TP00262</name><time>2021-12-16T18:57:52Z</time></trkpt>
   <trkpt lat="30.795959" lon="34.755354"><ele>513.2</ele><name>TP00263</name><time>2021-12-16T18:57:56Z</time></trkpt>
   <trkpt lat="30.795982" lon="34.755328"><ele>514</ele><name>TP00264</name><time>2021-12-16T18:58:01Z</time></trkpt>
   <trkpt lat="30.795993" lon="34.755314"><ele>514</ele><name>TP00265</name><time>2021-12-16T18:58:03Z</time></trkpt>
   <trkpt lat="30.796001" lon="34.755307"><ele>514.2</ele><name>TP00266</name><time>2021-12-16T18:58:04Z</time></trkpt>
   <trkpt lat="30.796013" lon="34.755294"><ele>514.8</ele><name>TP00267</name><time>2021-12-16T18:58:07Z</time></trkpt>
   <trkpt lat="30.796023" lon="34.755282"><ele>515.2</ele><name>TP00268</name><time>2021-12-16T18:58:09Z</time></trkpt>
   <trkpt lat="30.79603" lon="34.755272"><ele>515.4</ele><name>TP00269</name><time>2021-12-16T18:58:11Z</time></trkpt>
   <trkpt lat="30.796069" lon="34.755233"><ele>516.4</ele><name>TP00270</name><time>2021-12-16T18:58:18Z</time></trkpt>
   <trkpt lat="30.79608" lon="34.755219"><ele>516.6</ele><name>TP00271</name><time>2021-12-16T18:58:20Z</time></trkpt>
   <trkpt lat="30.796096" lon="34.755201"><ele>517.4</ele><name>TP00272</name><time>2021-12-16T18:58:23Z</time></trkpt>
   <trkpt lat="30.796103" lon="34.755184"><ele>517.8</ele><name>TP00273</name><time>2021-12-16T18:58:26Z</time></trkpt>
   <trkpt lat="30.796115" lon="34.755139"><ele>518.6</ele><name>TP00274</name><time>2021-12-16T18:58:32Z</time></trkpt>
   <trkpt lat="30.796118" lon="34.755109"><ele>519</ele><name>TP00275</name><time>2021-12-16T18:58:35Z</time></trkpt>
   <trkpt lat="30.796117" lon="34.755089"><ele>519.4</ele><name>TP00276</name><time>2021-12-16T18:58:38Z</time></trkpt>
   <trkpt lat="30.796121" lon="34.755032"><ele>520.2</ele><name>TP00277</name><time>2021-12-16T18:58:44Z</time></trkpt>
   <trkpt lat="30.796137" lon="34.754979"><ele>521.2</ele><name>TP00278</name><time>2021-12-16T18:58:49Z</time></trkpt>
   <trkpt lat="30.796139" lon="34.754968"><ele>521.2</ele><name>TP00279</name><time>2021-12-16T18:58:50Z</time></trkpt>
   <trkpt lat="30.796143" lon="34.754934"><ele>521.4</ele><name>TP00280</name><time>2021-12-16T18:58:53Z</time></trkpt>
   <trkpt lat="30.796138" lon="34.754913"><ele>521.6</ele><name>TP00281</name><time>2021-12-16T18:58:58Z</time></trkpt>
   <trkpt lat="30.796136" lon="34.754903"><ele>521.8</ele><name>TP00282</name><time>2021-12-16T18:58:59Z</time></trkpt>
   <trkpt lat="30.796145" lon="34.754776"><ele>522.2</ele><name>TP00283</name><time>2021-12-16T18:59:07Z</time></trkpt>
   <trkpt lat="30.796152" lon="34.754733"><ele>522.4</ele><name>TP00284</name><time>2021-12-16T18:59:09Z</time></trkpt>
   <trkpt lat="30.796174" lon="34.754618"><ele>522.4</ele><name>TP00285</name><time>2021-12-16T18:59:15Z</time></trkpt>
   <trkpt lat="30.796188" lon="34.754467"><ele>523.4</ele><name>TP00286</name><time>2021-12-16T18:59:23Z</time></trkpt>
   <trkpt lat="30.796192" lon="34.754372"><ele>524.2</ele><name>TP00287</name><time>2021-12-16T18:59:28Z</time></trkpt>
   <trkpt lat="30.796202" lon="34.754293"><ele>524.8</ele><name>TP00288</name><time>2021-12-16T18:59:32Z</time></trkpt>
   <trkpt lat="30.796206" lon="34.754218"><ele>525</ele><name>TP00289</name><time>2021-12-16T18:59:36Z</time></trkpt>
   <trkpt lat="30.796218" lon="34.754101"><ele>525.4</ele><name>TP00290</name><time>2021-12-16T18:59:43Z</time></trkpt>
   <trkpt lat="30.796235" lon="34.754013"><ele>525.8</ele><name>TP00291</name><time>2021-12-16T18:59:47Z</time></trkpt>
   <trkpt lat="30.796239" lon="34.753963"><ele>526</ele><name>TP00292</name><time>2021-12-16T18:59:49Z</time></trkpt>
   <trkpt lat="30.796241" lon="34.753769"><ele>526.2</ele><name>TP00293</name><time>2021-12-16T18:59:56Z</time></trkpt>
   <trkpt lat="30.796242" lon="34.753611"><ele>526.4</ele><name>TP00294</name><time>2021-12-16T19:00:03Z</time></trkpt>
   <trkpt lat="30.796256" lon="34.753451"><ele>526.8</ele><name>TP00295</name><time>2021-12-16T19:00:08Z</time></trkpt>
   <trkpt lat="30.796273" lon="34.753339"><ele>527.2</ele><name>TP00296</name><time>2021-12-16T19:00:12Z</time></trkpt>
   <trkpt lat="30.7963" lon="34.753271"><ele>528.2</ele><name>TP00297</name><time>2021-12-16T19:00:15Z</time></trkpt>
   <trkpt lat="30.796309" lon="34.75325"><ele>528.4</ele><name>TP00298</name><time>2021-12-16T19:00:16Z</time></trkpt>
   <trkpt lat="30.796383" lon="34.753166"><ele>528.8</ele><name>TP00299</name><time>2021-12-16T19:00:21Z</time></trkpt>
   <trkpt lat="30.796495" lon="34.753037"><ele>529.2</ele><name>TP00300</name><time>2021-12-16T19:00:28Z</time></trkpt>
   <trkpt lat="30.796605" lon="34.752909"><ele>529.6</ele><name>TP00301</name><time>2021-12-16T19:00:35Z</time></trkpt>
   <trkpt lat="30.796724" lon="34.752794"><ele>530</ele><name>TP00302</name><time>2021-12-16T19:00:42Z</time></trkpt>
   <trkpt lat="30.796863" lon="34.752628"><ele>530.4</ele><name>TP00303</name><time>2021-12-16T19:00:50Z</time></trkpt>
   <trkpt lat="30.796946" lon="34.752443"><ele>530.4</ele><name>TP00304</name><time>2021-12-16T19:00:57Z</time></trkpt>
   <trkpt lat="30.796988" lon="34.752339"><ele>530.6</ele><name>TP00305</name><time>2021-12-16T19:01:01Z</time></trkpt>
   <trkpt lat="30.797013" lon="34.752247"><ele>530.6</ele><name>TP00306</name><time>2021-12-16T19:01:04Z</time></trkpt>
   <trkpt lat="30.797056" lon="34.752077"><ele>531.2</ele><name>TP00307</name><time>2021-12-16T19:01:10Z</time></trkpt>
   <trkpt lat="30.797065" lon="34.75205"><ele>531.4</ele><name>TP00308</name><time>2021-12-16T19:01:11Z</time></trkpt>
   <trkpt lat="30.797121" lon="34.751885"><ele>531.8</ele><name>TP00309</name><time>2021-12-16T19:01:17Z</time></trkpt>
   <trkpt lat="30.797193" lon="34.75167"><ele>531.8</ele><name>TP00310</name><time>2021-12-16T19:01:24Z</time></trkpt>
   <trkpt lat="30.797231" lon="34.751571"><ele>531.4</ele><name>TP00311</name><time>2021-12-16T19:01:27Z</time></trkpt>
   <trkpt lat="30.797267" lon="34.751461"><ele>530.6</ele><name>TP00312</name><time>2021-12-16T19:01:30Z</time></trkpt>
   <trkpt lat="30.797278" lon="34.75142"><ele>530.4</ele><name>TP00313</name><time>2021-12-16T19:01:31Z</time></trkpt>
   <trkpt lat="30.797293" lon="34.751375"><ele>530.2</ele><name>TP00314</name><time>2021-12-16T19:01:32Z</time></trkpt>
   <trkpt lat="30.797365" lon="34.751211"><ele>530.4</ele><name>TP00315</name><time>2021-12-16T19:01:36Z</time></trkpt>
   <trkpt lat="30.797463" lon="34.75101"><ele>530.8</ele><name>TP00316</name><time>2021-12-16T19:01:42Z</time></trkpt>
   <trkpt lat="30.797595" lon="34.750829"><ele>530.8</ele><name>TP00317</name><time>2021-12-16T19:01:48Z</time></trkpt>
   <trkpt lat="30.797674" lon="34.750761"><ele>530.8</ele><name>TP00318</name><time>2021-12-16T19:01:50Z</time></trkpt>
   <trkpt lat="30.797706" lon="34.750703"><ele>530.6</ele><name>TP00319</name><time>2021-12-16T19:01:51Z</time></trkpt>
   <trkpt lat="30.797785" lon="34.750539"><ele>529.6</ele><name>TP00320</name><time>2021-12-16T19:01:54Z</time></trkpt>
   <trkpt lat="30.797846" lon="34.750473"><ele>530</ele><name>TP00321</name><time>2021-12-16T19:01:56Z</time></trkpt>
   <trkpt lat="30.797985" lon="34.750288"><ele>529.6</ele><name>TP00322</name><time>2021-12-16T19:02:02Z</time></trkpt>
   <trkpt lat="30.798038" lon="34.750127"><ele>530</ele><name>TP00323</name><time>2021-12-16T19:02:06Z</time></trkpt>
   <trkpt lat="30.79806" lon="34.750056"><ele>530.2</ele><name>TP00324</name><time>2021-12-16T19:02:08Z</time></trkpt>
   <trkpt lat="30.798074" lon="34.749862"><ele>530.4</ele><name>TP00325</name><time>2021-12-16T19:02:14Z</time></trkpt>
   <trkpt lat="30.798074" lon="34.749717"><ele>531.2</ele><name>TP00326</name><time>2021-12-16T19:02:19Z</time></trkpt>
   <trkpt lat="30.798076" lon="34.749665"><ele>531</ele><name>TP00327</name><time>2021-12-16T19:02:21Z</time></trkpt>
   <trkpt lat="30.798097" lon="34.749598"><ele>530.6</ele><name>TP00328</name><time>2021-12-16T19:02:24Z</time></trkpt>
   <trkpt lat="30.798115" lon="34.749579"><ele>531.2</ele><name>TP00329</name><time>2021-12-16T19:02:26Z</time></trkpt>
   <trkpt lat="30.798119" lon="34.749578"><ele>531.4</ele><name>TP00330</name><time>2021-12-16T19:02:27Z</time></trkpt>
   <trkpt lat="30.798164" lon="34.749557"><ele>531.6</ele><name>TP00331</name><time>2021-12-16T19:02:57Z</time></trkpt>
   <trkpt lat="30.798177" lon="34.74955"><ele>531.6</ele><name>TP00332</name><time>2021-12-16T19:02:58Z</time></trkpt>
   <trkpt lat="30.798195" lon="34.749539"><ele>531.8</ele><name>TP00333</name><time>2021-12-16T19:02:59Z</time></trkpt>
   <trkpt lat="30.798283" lon="34.74948"><ele>540.4</ele><name>TP00334</name><time>2021-12-16T19:03:03Z</time></trkpt>
   <trkpt lat="30.798333" lon="34.749443"><ele>531.6</ele><name>TP00335</name><time>2021-12-16T19:03:05Z</time></trkpt>
   <trkpt lat="30.798484" lon="34.74929"><ele>531.6</ele><name>TP00336</name><time>2021-12-16T19:03:12Z</time></trkpt>
   <trkpt lat="30.798555" lon="34.749145"><ele>531.8</ele><name>TP00337</name><time>2021-12-16T19:03:17Z</time></trkpt>
   <trkpt lat="30.798584" lon="34.749101"><ele>532.2</ele><name>TP00338</name><time>2021-12-16T19:03:19Z</time></trkpt>
   <trkpt lat="30.798597" lon="34.749079"><ele>532.4</ele><name>TP00339</name><time>2021-12-16T19:03:20Z</time></trkpt>
   <trkpt lat="30.798631" lon="34.749015"><ele>533.4</ele><name>TP00340</name><time>2021-12-16T19:03:23Z</time></trkpt>
   <trkpt lat="30.798639" lon="34.748994"><ele>533.6</ele><name>TP00341</name><time>2021-12-16T19:03:24Z</time></trkpt>
   <trkpt lat="30.798649" lon="34.748951"><ele>534</ele><name>TP00342</name><time>2021-12-16T19:03:26Z</time></trkpt>
   <trkpt lat="30.798677" lon="34.748859"><ele>534.6</ele><name>TP00343</name><time>2021-12-16T19:03:30Z</time></trkpt>
   <trkpt lat="30.798685" lon="34.748836"><ele>534.8</ele><name>TP00344</name><time>2021-12-16T19:03:31Z</time></trkpt>
   <trkpt lat="30.798703" lon="34.748793"><ele>535</ele><name>TP00345</name><time>2021-12-16T19:03:33Z</time></trkpt>
   <trkpt lat="30.79877" lon="34.748665"><ele>535.4</ele><name>TP00346</name><time>2021-12-16T19:03:39Z</time></trkpt>
   <trkpt lat="30.798784" lon="34.748644"><ele>535.6</ele><name>TP00347</name><time>2021-12-16T19:03:40Z</time></trkpt>
   <trkpt lat="30.798798" lon="34.748622"><ele>536</ele><name>TP00348</name><time>2021-12-16T19:03:41Z</time></trkpt>
   <trkpt lat="30.7989" lon="34.748487"><ele>536</ele><name>TP00349</name><time>2021-12-16T19:03:48Z</time></trkpt>
   <trkpt lat="30.798942" lon="34.748452"><ele>536</ele><name>TP00350</name><time>2021-12-16T19:03:51Z</time></trkpt>
   <trkpt lat="30.79895" lon="34.748453"><ele>536.2</ele><name>TP00351</name><time>2021-12-16T19:03:52Z</time></trkpt>
   <trkpt lat="30.798993" lon="34.748438"><ele>536.4</ele><name>TP00352</name><time>2021-12-16T19:04:00Z</time></trkpt>
   <trkpt lat="30.799058" lon="34.748395"><ele>536.4</ele><name>TP00353</name><time>2021-12-16T19:04:04Z</time></trkpt>
   <trkpt lat="30.799101" lon="34.74837"><ele>536.6</ele><name>TP00354</name><time>2021-12-16T19:04:06Z</time></trkpt>
   <trkpt lat="30.799187" lon="34.74832"><ele>537</ele><name>TP00355</name><time>2021-12-16T19:04:10Z</time></trkpt>
   <trkpt lat="30.799257" lon="34.74825"><ele>537</ele><name>TP00356</name><time>2021-12-16T19:04:13Z</time></trkpt>
   <trkpt lat="30.799411" lon="34.748082"><ele>536</ele><name>TP00357</name><time>2021-12-16T19:04:19Z</time></trkpt>
   <trkpt lat="30.799432" lon="34.748044"><ele>535.8</ele><name>TP00358</name><time>2021-12-16T19:04:20Z</time></trkpt>
   <trkpt lat="30.799456" lon="34.747901"><ele>535.6</ele><name>TP00359</name><time>2021-12-16T19:04:23Z</time></trkpt>
   <trkpt lat="30.799456" lon="34.74785"><ele>535.4</ele><name>TP00360</name><time>2021-12-16T19:04:24Z</time></trkpt>
   <trkpt lat="30.799457" lon="34.747747"><ele>535.6</ele><name>TP00361</name><time>2021-12-16T19:04:26Z</time></trkpt>
   <trkpt lat="30.799488" lon="34.747614"><ele>535.8</ele><name>TP00362</name><time>2021-12-16T19:04:29Z</time></trkpt>
   <trkpt lat="30.799576" lon="34.747558"><ele>536.4</ele><name>TP00363</name><time>2021-12-16T19:04:33Z</time></trkpt>
   <trkpt lat="30.799605" lon="34.747557"><ele>536.6</ele><name>TP00364</name><time>2021-12-16T19:04:34Z</time></trkpt>
   <trkpt lat="30.799703" lon="34.747559"><ele>537</ele><name>TP00365</name><time>2021-12-16T19:04:37Z</time></trkpt>
   <trkpt lat="30.79977" lon="34.747567"><ele>537</ele><name>TP00366</name><time>2021-12-16T19:04:39Z</time></trkpt>
   <trkpt lat="30.800027" lon="34.747606"><ele>536.4</ele><name>TP00367</name><time>2021-12-16T19:04:47Z</time></trkpt>
   <trkpt lat="30.800219" lon="34.747592"><ele>537.2</ele><name>TP00368</name><time>2021-12-16T19:04:54Z</time></trkpt>
   <trkpt lat="30.800366" lon="34.747555"><ele>538.2</ele><name>TP00369</name><time>2021-12-16T19:05:00Z</time></trkpt>
   <trkpt lat="30.800502" lon="34.747493"><ele>539.2</ele><name>TP00370</name><time>2021-12-16T19:05:06Z</time></trkpt>
   <trkpt lat="30.800654" lon="34.747357"><ele>539.4</ele><name>TP00371</name><time>2021-12-16T19:05:13Z</time></trkpt>
   <trkpt lat="30.800752" lon="34.747199"><ele>539.8</ele><name>TP00372</name><time>2021-12-16T19:05:20Z</time></trkpt>
   <trkpt lat="30.800817" lon="34.747024"><ele>540.2</ele><name>TP00373</name><time>2021-12-16T19:05:27Z</time></trkpt>
   <trkpt lat="30.800914" lon="34.746956"><ele>539.8</ele><name>TP00374</name><time>2021-12-16T19:05:32Z</time></trkpt>
   <trkpt lat="30.801123" lon="34.746893"><ele>539.2</ele><name>TP00375</name><time>2021-12-16T19:05:39Z</time></trkpt>
   <trkpt lat="30.801185" lon="34.746798"><ele>539.6</ele><name>TP00376</name><time>2021-12-16T19:05:43Z</time></trkpt>
   <trkpt lat="30.801246" lon="34.746627"><ele>540.4</ele><name>TP00377</name><time>2021-12-16T19:05:49Z</time></trkpt>
   <trkpt lat="30.80127" lon="34.746482"><ele>540.8</ele><name>TP00378</name><time>2021-12-16T19:05:54Z</time></trkpt>
   <trkpt lat="30.801242" lon="34.746437"><ele>540.8</ele><name>TP00379</name><time>2021-12-16T19:05:56Z</time></trkpt>
   <trkpt lat="30.801188" lon="34.746368"><ele>540.8</ele><name>TP00380</name><time>2021-12-16T19:05:59Z</time></trkpt>
   <trkpt lat="30.801096" lon="34.746252"><ele>541.6</ele><name>TP00381</name><time>2021-12-16T19:06:04Z</time></trkpt>
   <trkpt lat="30.801058" lon="34.74621"><ele>542</ele><name>TP00382</name><time>2021-12-16T19:06:06Z</time></trkpt>
   <trkpt lat="30.80097" lon="34.746078"><ele>542.2</ele><name>TP00383</name><time>2021-12-16T19:06:12Z</time></trkpt>
   <trkpt lat="30.800953" lon="34.746033"><ele>542.6</ele><name>TP00384</name><time>2021-12-16T19:06:14Z</time></trkpt>
   <trkpt lat="30.800936" lon="34.745984"><ele>543</ele><name>TP00385</name><time>2021-12-16T19:06:17Z</time></trkpt>
   <trkpt lat="30.800926" lon="34.745951"><ele>543.2</ele><name>TP00386</name><time>2021-12-16T19:07:05Z</time></trkpt>
   <trkpt lat="30.800917" lon="34.74593"><ele>543.4</ele><name>TP00387</name><time>2021-12-16T19:07:06Z</time></trkpt>
   <trkpt lat="30.800909" lon="34.745906"><ele>543.8</ele><name>TP00388</name><time>2021-12-16T19:07:07Z</time></trkpt>
   <trkpt lat="30.800891" lon="34.745865"><ele>544.2</ele><name>TP00389</name><time>2021-12-16T19:07:09Z</time></trkpt>
   <trkpt lat="30.800881" lon="34.745843"><ele>544.4</ele><name>TP00390</name><time>2021-12-16T19:07:10Z</time></trkpt>
   <trkpt lat="30.800855" lon="34.745781"><ele>544.8</ele><name>TP00391</name><time>2021-12-16T19:07:13Z</time></trkpt>
   <trkpt lat="30.800839" lon="34.745754"><ele>545</ele><name>TP00392</name><time>2021-12-16T19:07:15Z</time></trkpt>
   <trkpt lat="30.800825" lon="34.745735"><ele>545.4</ele><name>TP00393</name><time>2021-12-16T19:07:17Z</time></trkpt>
   <trkpt lat="30.800794" lon="34.745697"><ele>545.6</ele><name>TP00394</name><time>2021-12-16T19:07:20Z</time></trkpt>
   <trkpt lat="30.800781" lon="34.745646"><ele>545.6</ele><name>TP00395</name><time>2021-12-16T19:07:22Z</time></trkpt>
   <trkpt lat="30.800789" lon="34.745563"><ele>545.8</ele><name>TP00396</name><time>2021-12-16T19:07:25Z</time></trkpt>
   <trkpt lat="30.800823" lon="34.745465"><ele>545.6</ele><name>TP00397</name><time>2021-12-16T19:07:28Z</time></trkpt>
   <trkpt lat="30.800829" lon="34.745417"><ele>545.4</ele><name>TP00398</name><time>2021-12-16T19:07:29Z</time></trkpt>
   <trkpt lat="30.800768" lon="34.745273"><ele>545.2</ele><name>TP00399</name><time>2021-12-16T19:07:33Z</time></trkpt>
   <trkpt lat="30.800654" lon="34.74505"><ele>546</ele><name>TP00400</name><time>2021-12-16T19:07:40Z</time></trkpt>
   <trkpt lat="30.800632" lon="34.744814"><ele>546.2</ele><name>TP00401</name><time>2021-12-16T19:07:47Z</time></trkpt>
   <trkpt lat="30.800619" lon="34.744702"><ele>547</ele><name>TP00402</name><time>2021-12-16T19:07:51Z</time></trkpt>
   <trkpt lat="30.800609" lon="34.744666"><ele>547.4</ele><name>TP00403</name><time>2021-12-16T19:07:53Z</time></trkpt>
   <trkpt lat="30.800583" lon="34.744621"><ele>547.8</ele><name>TP00404</name><time>2021-12-16T19:07:57Z</time></trkpt>
   <trkpt lat="30.800547" lon="34.744582"><ele>548.2</ele><name>TP00405</name><time>2021-12-16T19:08:37Z</time></trkpt>
   <trkpt lat="30.800533" lon="34.744566"><ele>548</ele><name>TP00406</name><time>2021-12-16T19:08:38Z</time></trkpt>
   <trkpt lat="30.800478" lon="34.744517"><ele>548.2</ele><name>TP00407</name><time>2021-12-16T19:08:41Z</time></trkpt>
   <trkpt lat="30.80046" lon="34.744504"><ele>548.2</ele><name>TP00408</name><time>2021-12-16T19:08:42Z</time></trkpt>
   <trkpt lat="30.800344" lon="34.7444"><ele>548.4</ele><name>TP00409</name><time>2021-12-16T19:08:48Z</time></trkpt>
   <trkpt lat="30.800252" lon="34.744232"><ele>548.2</ele><name>TP00410</name><time>2021-12-16T19:08:54Z</time></trkpt>
   <trkpt lat="30.800181" lon="34.744097"><ele>547</ele><name>TP00411</name><time>2021-12-16T19:08:58Z</time></trkpt>
   <trkpt lat="30.800127" lon="34.744031"><ele>547</ele><name>TP00412</name><time>2021-12-16T19:09:00Z</time></trkpt>
   <trkpt lat="30.800102" lon="34.743992"><ele>546.6</ele><name>TP00413</name><time>2021-12-16T19:09:01Z</time></trkpt>
   <trkpt lat="30.800048" lon="34.743861"><ele>546.2</ele><name>TP00414</name><time>2021-12-16T19:09:04Z</time></trkpt>
   <trkpt lat="30.800002" lon="34.743662"><ele>547</ele><name>TP00415</name><time>2021-12-16T19:09:09Z</time></trkpt>
   <trkpt lat="30.799952" lon="34.74349"><ele>547.2</ele><name>TP00416</name><time>2021-12-16T19:09:14Z</time></trkpt>
   <trkpt lat="30.799912" lon="34.743344"><ele>547.4</ele><name>TP00417</name><time>2021-12-16T19:09:19Z</time></trkpt>
   <trkpt lat="30.799973" lon="34.743225"><ele>547.6</ele><name>TP00418</name><time>2021-12-16T19:09:23Z</time></trkpt>
   <trkpt lat="30.800033" lon="34.743046"><ele>548</ele><name>TP00419</name><time>2021-12-16T19:09:29Z</time></trkpt>
   <trkpt lat="30.800032" lon="34.742912"><ele>548.4</ele><name>TP00420</name><time>2021-12-16T19:09:34Z</time></trkpt>
   <trkpt lat="30.800035" lon="34.742883"><ele>548.4</ele><name>TP00421</name><time>2021-12-16T19:09:35Z</time></trkpt>
   <trkpt lat="30.800069" lon="34.742786"><ele>548.6</ele><name>TP00422</name><time>2021-12-16T19:09:39Z</time></trkpt>
   <trkpt lat="30.800085" lon="34.74274"><ele>548.6</ele><name>TP00423</name><time>2021-12-16T19:09:41Z</time></trkpt>
   <trkpt lat="30.800136" lon="34.742612"><ele>549</ele><name>TP00424</name><time>2021-12-16T19:09:46Z</time></trkpt>
   <trkpt lat="30.800154" lon="34.742561"><ele>549.2</ele><name>TP00425</name><time>2021-12-16T19:09:48Z</time></trkpt>
   <trkpt lat="30.800161" lon="34.742428"><ele>550.2</ele><name>TP00426</name><time>2021-12-16T19:09:53Z</time></trkpt>
   <trkpt lat="30.800159" lon="34.742402"><ele>550.2</ele><name>TP00427</name><time>2021-12-16T19:09:54Z</time></trkpt>
   <trkpt lat="30.800136" lon="34.742279"><ele>550.8</ele><name>TP00428</name><time>2021-12-16T19:09:59Z</time></trkpt>
   <trkpt lat="30.80013" lon="34.742255"><ele>551.4</ele><name>TP00429</name><time>2021-12-16T19:10:00Z</time></trkpt>
   <trkpt lat="30.800125" lon="34.742179"><ele>551.8</ele><name>TP00430</name><time>2021-12-16T19:10:03Z</time></trkpt>
   <trkpt lat="30.800143" lon="34.742061"><ele>552.4</ele><name>TP00431</name><time>2021-12-16T19:10:08Z</time></trkpt>
   <trkpt lat="30.800148" lon="34.742039"><ele>552.4</ele><name>TP00432</name><time>2021-12-16T19:10:09Z</time></trkpt>
   <trkpt lat="30.800147" lon="34.741886"><ele>552.6</ele><name>TP00433</name><time>2021-12-16T19:10:15Z</time></trkpt>
   <trkpt lat="30.80007" lon="34.741721"><ele>552.4</ele><name>TP00434</name><time>2021-12-16T19:10:22Z</time></trkpt>
   <trkpt lat="30.800039" lon="34.741649"><ele>551.8</ele><name>TP00435</name><time>2021-12-16T19:10:25Z</time></trkpt>
   <trkpt lat="30.800008" lon="34.741561"><ele>551.2</ele><name>TP00436</name><time>2021-12-16T19:10:28Z</time></trkpt>
   <trkpt lat="30.799909" lon="34.741423"><ele>550.8</ele><name>TP00437</name><time>2021-12-16T19:10:33Z</time></trkpt>
   <trkpt lat="30.799834" lon="34.741335"><ele>552</ele><name>TP00438</name><time>2021-12-16T19:10:37Z</time></trkpt>
   <trkpt lat="30.799813" lon="34.741311"><ele>552.2</ele><name>TP00439</name><time>2021-12-16T19:10:38Z</time></trkpt>
   <trkpt lat="30.79974" lon="34.74121"><ele>551.6</ele><name>TP00440</name><time>2021-12-16T19:10:43Z</time></trkpt>
   <trkpt lat="30.799652" lon="34.741158"><ele>551.6</ele><name>TP00441</name><time>2021-12-16T19:10:47Z</time></trkpt>
   <trkpt lat="30.799612" lon="34.74113"><ele>551.8</ele><name>TP00442</name><time>2021-12-16T19:10:49Z</time></trkpt>
   <trkpt lat="30.79955" lon="34.741073"><ele>552</ele><name>TP00443</name><time>2021-12-16T19:10:52Z</time></trkpt>
   <trkpt lat="30.799524" lon="34.741058"><ele>552</ele><name>TP00444</name><time>2021-12-16T19:10:53Z</time></trkpt>
   <trkpt lat="30.79941" lon="34.740984"><ele>552.4</ele><name>TP00445</name><time>2021-12-16T19:10:57Z</time></trkpt>
   <trkpt lat="30.799245" lon="34.740834"><ele>553</ele><name>TP00446</name><time>2021-12-16T19:11:04Z</time></trkpt>
   <trkpt lat="30.799223" lon="34.740818"><ele>553</ele><name>TP00447</name><time>2021-12-16T19:11:05Z</time></trkpt>
   <trkpt lat="30.799125" lon="34.740762"><ele>553.4</ele><name>TP00448</name><time>2021-12-16T19:11:09Z</time></trkpt>
   <trkpt lat="30.798943" lon="34.740647"><ele>553.2</ele><name>TP00449</name><time>2021-12-16T19:11:16Z</time></trkpt>
   <trkpt lat="30.798818" lon="34.740613"><ele>554.2</ele><name>TP00450</name><time>2021-12-16T19:11:21Z</time></trkpt>
   <trkpt lat="30.798797" lon="34.740615"><ele>554.2</ele><name>TP00451</name><time>2021-12-16T19:11:22Z</time></trkpt>
   <trkpt lat="30.798642" lon="34.740595"><ele>554.2</ele><name>TP00452</name><time>2021-12-16T19:11:28Z</time></trkpt>
   <trkpt lat="30.798512" lon="34.740495"><ele>554</ele><name>TP00453</name><time>2021-12-16T19:11:33Z</time></trkpt>
   <trkpt lat="30.79838" lon="34.740463"><ele>554.2</ele><name>TP00454</name><time>2021-12-16T19:11:38Z</time></trkpt>
   <trkpt lat="30.798247" lon="34.740418"><ele>555.2</ele><name>TP00455</name><time>2021-12-16T19:11:44Z</time></trkpt>
   <trkpt lat="30.798227" lon="34.740407"><ele>555.4</ele><name>TP00456</name><time>2021-12-16T19:11:45Z</time></trkpt>
   <trkpt lat="30.798157" lon="34.740409"><ele>556.6</ele><name>TP00457</name><time>2021-12-16T19:11:49Z</time></trkpt>
   <trkpt lat="30.798142" lon="34.740409"><ele>556.8</ele><name>TP00458</name><time>2021-12-16T19:11:50Z</time></trkpt>
   <trkpt lat="30.798078" lon="34.740399"><ele>557.6</ele><name>TP00459</name><time>2021-12-16T19:11:54Z</time></trkpt>
   <trkpt lat="30.798014" lon="34.740391"><ele>558.2</ele><name>TP00460</name><time>2021-12-16T19:11:58Z</time></trkpt>
   <trkpt lat="30.797983" lon="34.740397"><ele>558.8</ele><name>TP00461</name><time>2021-12-16T19:12:00Z</time></trkpt>
   <trkpt lat="30.797899" lon="34.740405"><ele>559.6</ele><name>TP00462</name><time>2021-12-16T19:12:05Z</time></trkpt>
   <trkpt lat="30.797867" lon="34.740406"><ele>559.8</ele><name>TP00463</name><time>2021-12-16T19:12:07Z</time></trkpt>
   <trkpt lat="30.797854" lon="34.740403"><ele>560</ele><name>TP00464</name><time>2021-12-16T19:12:08Z</time></trkpt>
   <trkpt lat="30.797829" lon="34.74038"><ele>560.4</ele><name>TP00465</name><time>2021-12-16T19:12:10Z</time></trkpt>
   <trkpt lat="30.797819" lon="34.740345"><ele>560.8</ele><name>TP00466</name><time>2021-12-16T19:12:12Z</time></trkpt>
   <trkpt lat="30.797828" lon="34.740312"><ele>561.2</ele><name>TP00467</name><time>2021-12-16T19:12:14Z</time></trkpt>
   <trkpt lat="30.797841" lon="34.74028"><ele>561.8</ele><name>TP00468</name><time>2021-12-16T19:12:16Z</time></trkpt>
   <trkpt lat="30.797846" lon="34.74026"><ele>561.8</ele><name>TP00469</name><time>2021-12-16T19:12:17Z</time></trkpt>
   <trkpt lat="30.797847" lon="34.740209"><ele>562.2</ele><name>TP00470</name><time>2021-12-16T19:12:20Z</time></trkpt>
   <trkpt lat="30.797865" lon="34.740138"><ele>563</ele><name>TP00471</name><time>2021-12-16T19:12:25Z</time></trkpt>
   <trkpt lat="30.797876" lon="34.740105"><ele>563.4</ele><name>TP00472</name><time>2021-12-16T19:12:27Z</time></trkpt>
   <trkpt lat="30.797916" lon="34.740028"><ele>564</ele><name>TP00473</name><time>2021-12-16T19:12:33Z</time></trkpt>
   <trkpt lat="30.797929" lon="34.740003"><ele>564.4</ele><name>TP00474</name><time>2021-12-16T19:12:35Z</time></trkpt>
   <trkpt lat="30.797938" lon="34.739929"><ele>565</ele><name>TP00475</name><time>2021-12-16T19:12:40Z</time></trkpt>
   <trkpt lat="30.797938" lon="34.739899"><ele>565.2</ele><name>TP00476</name><time>2021-12-16T19:12:42Z</time></trkpt>
   <trkpt lat="30.797926" lon="34.73979"><ele>564.8</ele><name>TP00477</name><time>2021-12-16T19:12:48Z</time></trkpt>
   <trkpt lat="30.797935" lon="34.739708"><ele>564.4</ele><name>TP00478</name><time>2021-12-16T19:12:50Z</time></trkpt>
   <trkpt lat="30.79793" lon="34.739652"><ele>564.2</ele><name>TP00479</name><time>2021-12-16T19:12:51Z</time></trkpt>
   <trkpt lat="30.797939" lon="34.739514"><ele>564</ele><name>TP00480</name><time>2021-12-16T19:12:54Z</time></trkpt>
   <trkpt lat="30.797955" lon="34.739489"><ele>564</ele><name>TP00481</name><time>2021-12-16T19:12:55Z</time></trkpt>
   <trkpt lat="30.797969" lon="34.739473"><ele>564</ele><name>TP00482</name><time>2021-12-16T19:12:56Z</time></trkpt>
   <trkpt lat="30.798055" lon="34.739384"><ele>563.8</ele><name>TP00483</name><time>2021-12-16T19:13:02Z</time></trkpt>
   <trkpt lat="30.798187" lon="34.739275"><ele>564.2</ele><name>TP00484</name><time>2021-12-16T19:13:09Z</time></trkpt>
   <trkpt lat="30.798314" lon="34.739172"><ele>564.4</ele><name>TP00485</name><time>2021-12-16T19:13:16Z</time></trkpt>
   <trkpt lat="30.798424" lon="34.73907"><ele>564.6</ele><name>TP00486</name><time>2021-12-16T19:13:23Z</time></trkpt>
   <trkpt lat="30.798475" lon="34.739004"><ele>565.2</ele><name>TP00487</name><time>2021-12-16T19:13:27Z</time></trkpt>
   <trkpt lat="30.798519" lon="34.738934"><ele>565.8</ele><name>TP00488</name><time>2021-12-16T19:13:31Z</time></trkpt>
   <trkpt lat="30.79856" lon="34.73882"><ele>566.2</ele><name>TP00489</name><time>2021-12-16T19:13:36Z</time></trkpt>
   <trkpt lat="30.798581" lon="34.738696"><ele>566.4</ele><name>TP00490</name><time>2021-12-16T19:13:41Z</time></trkpt>
   <trkpt lat="30.798587" lon="34.738618"><ele>566.8</ele><name>TP00491</name><time>2021-12-16T19:13:44Z</time></trkpt>
   <trkpt lat="30.798582" lon="34.738413"><ele>567.4</ele><name>TP00492</name><time>2021-12-16T19:13:52Z</time></trkpt>
   <trkpt lat="30.798581" lon="34.73833"><ele>567.8</ele><name>TP00493</name><time>2021-12-16T19:13:55Z</time></trkpt>
   <trkpt lat="30.798608" lon="34.738275"><ele>568.2</ele><name>TP00494</name><time>2021-12-16T19:13:57Z</time></trkpt>
   <trkpt lat="30.798635" lon="34.738245"><ele>568.4</ele><name>TP00495</name><time>2021-12-16T19:13:58Z</time></trkpt>
   <trkpt lat="30.79873" lon="34.738076"><ele>568.2</ele><name>TP00496</name><time>2021-12-16T19:14:03Z</time></trkpt>
   <trkpt lat="30.798749" lon="34.737946"><ele>568.4</ele><name>TP00497</name><time>2021-12-16T19:14:08Z</time></trkpt>
   <trkpt lat="30.798818" lon="34.737806"><ele>569</ele><name>TP00498</name><time>2021-12-16T19:14:15Z</time></trkpt>
   <trkpt lat="30.79883" lon="34.737792"><ele>569</ele><name>TP00499</name><time>2021-12-16T19:14:16Z</time></trkpt>
   <trkpt lat="30.798839" lon="34.737779"><ele>569</ele><name>TP00500</name><time>2021-12-16T19:14:17Z</time></trkpt>
   <trkpt lat="30.798842" lon="34.737771"><ele>569</ele><name>TP00501</name><time>2021-12-16T19:14:18Z</time></trkpt>
   <trkpt lat="30.798863" lon="34.737748"><ele>569.4</ele><name>TP00502</name><time>2021-12-16T19:15:39Z</time></trkpt>
   <trkpt lat="30.798876" lon="34.737733"><ele>569.4</ele><name>TP00503</name><time>2021-12-16T19:15:40Z</time></trkpt>
   <trkpt lat="30.798899" lon="34.737695"><ele>569.2</ele><name>TP00504</name><time>2021-12-16T19:15:42Z</time></trkpt>
   <trkpt lat="30.79891" lon="34.737678"><ele>569</ele><name>TP00505</name><time>2021-12-16T19:15:43Z</time></trkpt>
   <trkpt lat="30.798933" lon="34.737639"><ele>569</ele><name>TP00506</name><time>2021-12-16T19:15:45Z</time></trkpt>
   <trkpt lat="30.798961" lon="34.737579"><ele>569.4</ele><name>TP00507</name><time>2021-12-16T19:15:48Z</time></trkpt>
   <trkpt lat="30.798989" lon="34.737527"><ele>569.8</ele><name>TP00508</name><time>2021-12-16T19:15:51Z</time></trkpt>
   <trkpt lat="30.799056" lon="34.737418"><ele>569.4</ele><name>TP00509</name><time>2021-12-16T19:15:57Z</time></trkpt>
   <trkpt lat="30.79913" lon="34.737308"><ele>569.8</ele><name>TP00510</name><time>2021-12-16T19:16:03Z</time></trkpt>
   <trkpt lat="30.799141" lon="34.737292"><ele>570</ele><name>TP00511</name><time>2021-12-16T19:16:04Z</time></trkpt>
   <trkpt lat="30.799231" lon="34.737169"><ele>570</ele><name>TP00512</name><time>2021-12-16T19:16:11Z</time></trkpt>
   <trkpt lat="30.799339" lon="34.737074"><ele>570.2</ele><name>TP00513</name><time>2021-12-16T19:16:17Z</time></trkpt>
   <trkpt lat="30.799494" lon="34.736967"><ele>570.2</ele><name>TP00514</name><time>2021-12-16T19:16:24Z</time></trkpt>
   <trkpt lat="30.799682" lon="34.736835"><ele>570.6</ele><name>TP00515</name><time>2021-12-16T19:16:32Z</time></trkpt>
   <trkpt lat="30.799827" lon="34.736735"><ele>571</ele><name>TP00516</name><time>2021-12-16T19:16:38Z</time></trkpt>
   <trkpt lat="30.799851" lon="34.736716"><ele>571.2</ele><name>TP00517</name><time>2021-12-16T19:16:39Z</time></trkpt>
   <trkpt lat="30.79998" lon="34.736622"><ele>571.6</ele><name>TP00518</name><time>2021-12-16T19:16:45Z</time></trkpt>
   <trkpt lat="30.800152" lon="34.73659"><ele>571.8</ele><name>TP00519</name><time>2021-12-16T19:16:52Z</time></trkpt>
   <trkpt lat="30.800295" lon="34.736561"><ele>572.2</ele><name>TP00520</name><time>2021-12-16T19:16:58Z</time></trkpt>
   <trkpt lat="30.800338" lon="34.736542"><ele>572.2</ele><name>TP00521</name><time>2021-12-16T19:17:00Z</time></trkpt>
   <trkpt lat="30.800448" lon="34.7365"><ele>572.4</ele><name>TP00522</name><time>2021-12-16T19:17:06Z</time></trkpt>
   <trkpt lat="30.800566" lon="34.736496"><ele>572.6</ele><name>TP00523</name><time>2021-12-16T19:17:11Z</time></trkpt>
   <trkpt lat="30.800581" lon="34.736475"><ele>572.8</ele><name>TP00524</name><time>2021-12-16T19:17:12Z</time></trkpt>
   <trkpt lat="30.800599" lon="34.736433"><ele>573.2</ele><name>TP00525</name><time>2021-12-16T19:17:14Z</time></trkpt>
   <trkpt lat="30.800614" lon="34.736328"><ele>573.2</ele><name>TP00526</name><time>2021-12-16T19:17:18Z</time></trkpt>
   <trkpt lat="30.800619" lon="34.736245"><ele>573.4</ele><name>TP00527</name><time>2021-12-16T19:17:21Z</time></trkpt>
   <trkpt lat="30.800632" lon="34.736137"><ele>573.6</ele><name>TP00528</name><time>2021-12-16T19:17:25Z</time></trkpt>
   <trkpt lat="30.80065" lon="34.736066"><ele>574.4</ele><name>TP00529</name><time>2021-12-16T19:17:28Z</time></trkpt>
   <trkpt lat="30.80068" lon="34.735985"><ele>575.2</ele><name>TP00530</name><time>2021-12-16T19:17:32Z</time></trkpt>
   <trkpt lat="30.800693" lon="34.735946"><ele>575.6</ele><name>TP00531</name><time>2021-12-16T19:17:34Z</time></trkpt>
   <trkpt lat="30.800715" lon="34.735887"><ele>576.8</ele><name>TP00532</name><time>2021-12-16T19:17:37Z</time></trkpt>
   <trkpt lat="30.800743" lon="34.735817"><ele>577.4</ele><name>TP00533</name><time>2021-12-16T19:17:41Z</time></trkpt>
   <trkpt lat="30.800766" lon="34.735761"><ele>578</ele><name>TP00534</name><time>2021-12-16T19:17:44Z</time></trkpt>
   <trkpt lat="30.800795" lon="34.735681"><ele>578.8</ele><name>TP00535</name><time>2021-12-16T19:17:48Z</time></trkpt>
   <trkpt lat="30.800828" lon="34.735603"><ele>579.4</ele><name>TP00536</name><time>2021-12-16T19:17:52Z</time></trkpt>
   <trkpt lat="30.800864" lon="34.735516"><ele>579.6</ele><name>TP00537</name><time>2021-12-16T19:17:56Z</time></trkpt>
   <trkpt lat="30.800915" lon="34.735389"><ele>579.6</ele><name>TP00538</name><time>2021-12-16T19:18:02Z</time></trkpt>
   <trkpt lat="30.80095" lon="34.735279"><ele>579.4</ele><name>TP00539</name><time>2021-12-16T19:18:06Z</time></trkpt>
   <trkpt lat="30.801015" lon="34.73512"><ele>580.2</ele><name>TP00540</name><time>2021-12-16T19:18:13Z</time></trkpt>
   <trkpt lat="30.801038" lon="34.735079"><ele>580.4</ele><name>TP00541</name><time>2021-12-16T19:18:15Z</time></trkpt>
   <trkpt lat="30.801089" lon="34.734946"><ele>581.2</ele><name>TP00542</name><time>2021-12-16T19:18:21Z</time></trkpt>
   <trkpt lat="30.801105" lon="34.734912"><ele>581.2</ele><name>TP00543</name><time>2021-12-16T19:18:22Z</time></trkpt>
   <trkpt lat="30.801173" lon="34.734764"><ele>579.4</ele><name>TP00544</name><time>2021-12-16T19:18:25Z</time></trkpt>
   <trkpt lat="30.801246" lon="34.734601"><ele>578.2</ele><name>TP00545</name><time>2021-12-16T19:18:28Z</time></trkpt>
   <trkpt lat="30.801313" lon="34.734475"><ele>578.6</ele><name>TP00546</name><time>2021-12-16T19:18:31Z</time></trkpt>
   <trkpt lat="30.801372" lon="34.734381"><ele>579.4</ele><name>TP00547</name><time>2021-12-16T19:18:34Z</time></trkpt>
   <trkpt lat="30.801432" lon="34.734295"><ele>580</ele><name>TP00548</name><time>2021-12-16T19:18:37Z</time></trkpt>
   <trkpt lat="30.801524" lon="34.734107"><ele>579.6</ele><name>TP00549</name><time>2021-12-16T19:18:42Z</time></trkpt>
   <trkpt lat="30.801538" lon="34.734062"><ele>579.6</ele><name>TP00550</name><time>2021-12-16T19:18:43Z</time></trkpt>
   <trkpt lat="30.801611" lon="34.733791"><ele>579.6</ele><name>TP00551</name><time>2021-12-16T19:18:49Z</time></trkpt>
   <trkpt lat="30.801664" lon="34.733436"><ele>579.4</ele><name>TP00552</name><time>2021-12-16T19:18:56Z</time></trkpt>
   <trkpt lat="30.801688" lon="34.733012"><ele>579.2</ele><name>TP00553</name><time>2021-12-16T19:19:04Z</time></trkpt>
   <trkpt lat="30.801675" lon="34.732632"><ele>580.2</ele><name>TP00554</name><time>2021-12-16T19:19:11Z</time></trkpt>
   <trkpt lat="30.801632" lon="34.732351"><ele>580.4</ele><name>TP00555</name><time>2021-12-16T19:19:17Z</time></trkpt>
   <trkpt lat="30.80162" lon="34.732306"><ele>580.4</ele><name>TP00556</name><time>2021-12-16T19:19:18Z</time></trkpt>
   <trkpt lat="30.801607" lon="34.732259"><ele>580.2</ele><name>TP00557</name><time>2021-12-16T19:19:19Z</time></trkpt>
   <trkpt lat="30.801596" lon="34.732213"><ele>580.4</ele><name>TP00558</name><time>2021-12-16T19:19:20Z</time></trkpt>
   <trkpt lat="30.801575" lon="34.732123"><ele>580.4</ele><name>TP00559</name><time>2021-12-16T19:19:22Z</time></trkpt>
   <trkpt lat="30.801567" lon="34.732087"><ele>580.6</ele><name>TP00560</name><time>2021-12-16T19:19:23Z</time></trkpt>
   <trkpt lat="30.801558" lon="34.732057"><ele>581</ele><name>TP00561</name><time>2021-12-16T19:19:24Z</time></trkpt>
   <trkpt lat="30.801536" lon="34.731972"><ele>582.2</ele><name>TP00562</name><time>2021-12-16T19:19:27Z</time></trkpt>
   <trkpt lat="30.801517" lon="34.731876"><ele>582.8</ele><name>TP00563</name><time>2021-12-16T19:19:31Z</time></trkpt>
   <trkpt lat="30.801502" lon="34.731712"><ele>582.8</ele><name>TP00564</name><time>2021-12-16T19:19:35Z</time></trkpt>
   <trkpt lat="30.801495" lon="34.731522"><ele>582</ele><name>TP00565</name><time>2021-12-16T19:19:41Z</time></trkpt>
   <trkpt lat="30.801502" lon="34.731368"><ele>583</ele><name>TP00566</name><time>2021-12-16T19:19:47Z</time></trkpt>
   <trkpt lat="30.801489" lon="34.731203"><ele>583.2</ele><name>TP00567</name><time>2021-12-16T19:19:53Z</time></trkpt>
   <trkpt lat="30.801434" lon="34.731101"><ele>583.8</ele><name>TP00568</name><time>2021-12-16T19:19:58Z</time></trkpt>
   <trkpt lat="30.801432" lon="34.731101"><ele>584.2</ele><name>TP00569</name><time>2021-12-16T19:20:00Z</time></trkpt>
   <trkpt lat="30.801426" lon="34.731079"><ele>584.4</ele><name>TP00570</name><time>2021-12-16T19:20:09Z</time></trkpt>
   <trkpt lat="30.80143" lon="34.731081"><ele>584.4</ele><name>TP00571</name><time>2021-12-16T19:20:10Z</time></trkpt>
   <trkpt lat="30.801435" lon="34.731041"><ele>584.2</ele><name>TP00572</name><time>2021-12-16T19:21:00Z</time></trkpt>
   <trkpt lat="30.801435" lon="34.731024"><ele>584</ele><name>TP00573</name><time>2021-12-16T19:21:01Z</time></trkpt>
   <trkpt lat="30.801421" lon="34.730922"><ele>583.6</ele><name>TP00574</name><time>2021-12-16T19:21:05Z</time></trkpt>
   <trkpt lat="30.801367" lon="34.73076"><ele>584.2</ele><name>TP00575</name><time>2021-12-16T19:21:11Z</time></trkpt>
   <trkpt lat="30.801329" lon="34.730696"><ele>584.6</ele><name>TP00576</name><time>2021-12-16T19:21:14Z</time></trkpt>
   <trkpt lat="30.801256" lon="34.730592"><ele>585</ele><name>TP00577</name><time>2021-12-16T19:21:19Z</time></trkpt>
   <trkpt lat="30.801166" lon="34.73048"><ele>585.4</ele><name>TP00578</name><time>2021-12-16T19:21:24Z</time></trkpt>
   <trkpt lat="30.801149" lon="34.730464"><ele>585.4</ele><name>TP00579</name><time>2021-12-16T19:21:25Z</time></trkpt>
   <trkpt lat="30.801101" lon="34.730408"><ele>585.6</ele><name>TP00580</name><time>2021-12-16T19:21:28Z</time></trkpt>
   <trkpt lat="30.801053" lon="34.730322"><ele>585.8</ele><name>TP00581</name><time>2021-12-16T19:21:31Z</time></trkpt>
   <trkpt lat="30.800968" lon="34.730207"><ele>586.2</ele><name>TP00582</name><time>2021-12-16T19:21:36Z</time></trkpt>
   <trkpt lat="30.800855" lon="34.730107"><ele>586.6</ele><name>TP00583</name><time>2021-12-16T19:21:41Z</time></trkpt>
   <trkpt lat="30.800839" lon="34.730093"><ele>586.6</ele><name>TP00584</name><time>2021-12-16T19:21:42Z</time></trkpt>
   <trkpt lat="30.800762" lon="34.729971"><ele>587.2</ele><name>TP00585</name><time>2021-12-16T19:21:48Z</time></trkpt>
   <trkpt lat="30.800652" lon="34.729834"><ele>587.2</ele><name>TP00586</name><time>2021-12-16T19:21:54Z</time></trkpt>
   <trkpt lat="30.800622" lon="34.729647"><ele>587</ele><name>TP00587</name><time>2021-12-16T19:22:00Z</time></trkpt>
   <trkpt lat="30.800521" lon="34.729485"><ele>587</ele><name>TP00588</name><time>2021-12-16T19:22:05Z</time></trkpt>
   <trkpt lat="30.80035" lon="34.729293"><ele>587.2</ele><name>TP00589</name><time>2021-12-16T19:22:12Z</time></trkpt>
   <trkpt lat="30.800293" lon="34.729258"><ele>587.4</ele><name>TP00590</name><time>2021-12-16T19:22:14Z</time></trkpt>
   <trkpt lat="30.800204" lon="34.729229"><ele>587.6</ele><name>TP00591</name><time>2021-12-16T19:22:17Z</time></trkpt>
   <trkpt lat="30.799978" lon="34.729152"><ele>588.2</ele><name>TP00592</name><time>2021-12-16T19:22:25Z</time></trkpt>
   <trkpt lat="30.799893" lon="34.729126"><ele>588.4</ele><name>TP00593</name><time>2021-12-16T19:22:28Z</time></trkpt>
   <trkpt lat="30.79978" lon="34.729091"><ele>588.6</ele><name>TP00594</name><time>2021-12-16T19:22:32Z</time></trkpt>
   <trkpt lat="30.799583" lon="34.729007"><ele>589.4</ele><name>TP00595</name><time>2021-12-16T19:22:39Z</time></trkpt>
   <trkpt lat="30.799557" lon="34.72899"><ele>589.6</ele><name>TP00596</name><time>2021-12-16T19:22:40Z</time></trkpt>
   <trkpt lat="30.799353" lon="34.728853"><ele>589.4</ele><name>TP00597</name><time>2021-12-16T19:22:48Z</time></trkpt>
   <trkpt lat="30.799199" lon="34.72872"><ele>589.6</ele><name>TP00598</name><time>2021-12-16T19:22:54Z</time></trkpt>
   <trkpt lat="30.799054" lon="34.728494"><ele>590.4</ele><name>TP00599</name><time>2021-12-16T19:23:02Z</time></trkpt>
   <trkpt lat="30.798907" lon="34.728339"><ele>591</ele><name>TP00600</name><time>2021-12-16T19:23:09Z</time></trkpt>
   <trkpt lat="30.798741" lon="34.728221"><ele>591.8</ele><name>TP00601</name><time>2021-12-16T19:23:15Z</time></trkpt>
   <trkpt lat="30.79865" lon="34.728169"><ele>593</ele><name>TP00602</name><time>2021-12-16T19:23:19Z</time></trkpt>
   <trkpt lat="30.798563" lon="34.728131"><ele>593.6</ele><name>TP00603</name><time>2021-12-16T19:23:23Z</time></trkpt>
   <trkpt lat="30.798503" lon="34.728107"><ele>594</ele><name>TP00604</name><time>2021-12-16T19:23:26Z</time></trkpt>
   <trkpt lat="30.798415" lon="34.728066"><ele>594</ele><name>TP00605</name><time>2021-12-16T19:23:30Z</time></trkpt>
   <trkpt lat="30.798264" lon="34.727999"><ele>594.6</ele><name>TP00606</name><time>2021-12-16T19:23:37Z</time></trkpt>
   <trkpt lat="30.798129" lon="34.727921"><ele>594.8</ele><name>TP00607</name><time>2021-12-16T19:23:43Z</time></trkpt>
   <trkpt lat="30.798048" lon="34.727893"><ele>595.2</ele><name>TP00608</name><time>2021-12-16T19:23:46Z</time></trkpt>
   <trkpt lat="30.798023" lon="34.727892"><ele>595.4</ele><name>TP00609</name><time>2021-12-16T19:23:47Z</time></trkpt>
   <trkpt lat="30.797918" lon="34.727866"><ele>596.4</ele><name>TP00610</name><time>2021-12-16T19:23:52Z</time></trkpt>
   <trkpt lat="30.797885" lon="34.727846"><ele>596.8</ele><name>TP00611</name><time>2021-12-16T19:23:54Z</time></trkpt>
   <trkpt lat="30.797853" lon="34.727829"><ele>597.4</ele><name>TP00612</name><time>2021-12-16T19:23:56Z</time></trkpt>
   <trkpt lat="30.797802" lon="34.727791"><ele>598.4</ele><name>TP00613</name><time>2021-12-16T19:24:00Z</time></trkpt>
   <trkpt lat="30.797792" lon="34.727782"><ele>598.8</ele><name>TP00614</name><time>2021-12-16T19:24:01Z</time></trkpt>
   <trkpt lat="30.797764" lon="34.727773"><ele>599</ele><name>TP00615</name><time>2021-12-16T19:24:03Z</time></trkpt>
   <trkpt lat="30.79772" lon="34.72775"><ele>599.6</ele><name>TP00616</name><time>2021-12-16T19:24:06Z</time></trkpt>
   <trkpt lat="30.797617" lon="34.727712"><ele>600.4</ele><name>TP00617</name><time>2021-12-16T19:24:13Z</time></trkpt>
   <trkpt lat="30.797585" lon="34.727705"><ele>600.6</ele><name>TP00618</name><time>2021-12-16T19:24:15Z</time></trkpt>
   <trkpt lat="30.797459" lon="34.727688"><ele>600.6</ele><name>TP00619</name><time>2021-12-16T19:24:23Z</time></trkpt>
   <trkpt lat="30.797352" lon="34.727667"><ele>601.6</ele><name>TP00620</name><time>2021-12-16T19:24:30Z</time></trkpt>
   <trkpt lat="30.797339" lon="34.727666"><ele>601.6</ele><name>TP00621</name><time>2021-12-16T19:24:31Z</time></trkpt>
   <trkpt lat="30.797284" lon="34.727658"><ele>602.6</ele><name>TP00622</name><time>2021-12-16T19:24:35Z</time></trkpt>
   <trkpt lat="30.797269" lon="34.727652"><ele>602.8</ele><name>TP00623</name><time>2021-12-16T19:24:36Z</time></trkpt>
   <trkpt lat="30.797254" lon="34.72765"><ele>603</ele><name>TP00624</name><time>2021-12-16T19:24:37Z</time></trkpt>
   <trkpt lat="30.797167" lon="34.727639"><ele>603.8</ele><name>TP00625</name><time>2021-12-16T19:24:43Z</time></trkpt>
   <trkpt lat="30.797102" lon="34.727622"><ele>604.8</ele><name>TP00626</name><time>2021-12-16T19:24:48Z</time></trkpt>
   <trkpt lat="30.797071" lon="34.727617"><ele>605.4</ele><name>TP00627</name><time>2021-12-16T19:24:50Z</time></trkpt>
   <trkpt lat="30.797" lon="34.727606"><ele>606</ele><name>TP00628</name><time>2021-12-16T19:24:55Z</time></trkpt>
   <trkpt lat="30.796986" lon="34.727601"><ele>606</ele><name>TP00629</name><time>2021-12-16T19:24:56Z</time></trkpt>
   <trkpt lat="30.796899" lon="34.727586"><ele>606.6</ele><name>TP00630</name><time>2021-12-16T19:25:02Z</time></trkpt>
   <trkpt lat="30.796841" lon="34.727574"><ele>607.2</ele><name>TP00631</name><time>2021-12-16T19:25:06Z</time></trkpt>
   <trkpt lat="30.796811" lon="34.727566"><ele>607.6</ele><name>TP00632</name><time>2021-12-16T19:25:08Z</time></trkpt>
   <trkpt lat="30.796706" lon="34.727526"><ele>608.2</ele><name>TP00633</name><time>2021-12-16T19:25:15Z</time></trkpt>
   <trkpt lat="30.796689" lon="34.727523"><ele>608.4</ele><name>TP00634</name><time>2021-12-16T19:25:16Z</time></trkpt>
   <trkpt lat="30.796611" lon="34.727525"><ele>609</ele><name>TP00635</name><time>2021-12-16T19:25:21Z</time></trkpt>
   <trkpt lat="30.796552" lon="34.727536"><ele>609.4</ele><name>TP00636</name><time>2021-12-16T19:25:25Z</time></trkpt>
   <trkpt lat="30.796504" lon="34.727538"><ele>609.8</ele><name>TP00637</name><time>2021-12-16T19:25:28Z</time></trkpt>
   <trkpt lat="30.79646" lon="34.727525"><ele>610.6</ele><name>TP00638</name><time>2021-12-16T19:25:31Z</time></trkpt>
   <trkpt lat="30.7964" lon="34.727517"><ele>611.4</ele><name>TP00639</name><time>2021-12-16T19:25:35Z</time></trkpt>
   <trkpt lat="30.796353" lon="34.727524"><ele>611.8</ele><name>TP00640</name><time>2021-12-16T19:25:38Z</time></trkpt>
   <trkpt lat="30.796303" lon="34.727535"><ele>612.4</ele><name>TP00641</name><time>2021-12-16T19:25:41Z</time></trkpt>
   <trkpt lat="30.796258" lon="34.72754"><ele>612.8</ele><name>TP00642</name><time>2021-12-16T19:25:44Z</time></trkpt>
   <trkpt lat="30.796217" lon="34.727554"><ele>613.2</ele><name>TP00643</name><time>2021-12-16T19:25:47Z</time></trkpt>
   <trkpt lat="30.796179" lon="34.727566"><ele>613.4</ele><name>TP00644</name><time>2021-12-16T19:25:50Z</time></trkpt>
   <trkpt lat="30.796147" lon="34.727593"><ele>613.6</ele><name>TP00645</name><time>2021-12-16T19:25:53Z</time></trkpt>
   <trkpt lat="30.796124" lon="34.727613"><ele>614</ele><name>TP00646</name><time>2021-12-16T19:25:55Z</time></trkpt>
   <trkpt lat="30.796114" lon="34.727627"><ele>614.2</ele><name>TP00647</name><time>2021-12-16T19:25:56Z</time></trkpt>
   <trkpt lat="30.796102" lon="34.727635"><ele>614.2</ele><name>TP00648</name><time>2021-12-16T19:25:57Z</time></trkpt>
   <trkpt lat="30.796089" lon="34.727638"><ele>614.4</ele><name>TP00649</name><time>2021-12-16T19:25:58Z</time></trkpt>
   <trkpt lat="30.796062" lon="34.727636"><ele>615</ele><name>TP00650</name><time>2021-12-16T19:26:00Z</time></trkpt>
   <trkpt lat="30.796038" lon="34.727621"><ele>616</ele><name>TP00651</name><time>2021-12-16T19:26:03Z</time></trkpt>
   <trkpt lat="30.796031" lon="34.727609"><ele>616.2</ele><name>TP00652</name><time>2021-12-16T19:26:04Z</time></trkpt>
   <trkpt lat="30.796009" lon="34.72759"><ele>616.6</ele><name>TP00653</name><time>2021-12-16T19:26:06Z</time></trkpt>
   <trkpt lat="30.795973" lon="34.727576"><ele>617.2</ele><name>TP00654</name><time>2021-12-16T19:26:09Z</time></trkpt>
   <trkpt lat="30.795963" lon="34.727574"><ele>617.6</ele><name>TP00655</name><time>2021-12-16T19:26:10Z</time></trkpt>
   <trkpt lat="30.795883" lon="34.727548"><ele>618.2</ele><name>TP00656</name><time>2021-12-16T19:26:17Z</time></trkpt>
   <trkpt lat="30.795874" lon="34.727546"><ele>618.6</ele><name>TP00657</name><time>2021-12-16T19:26:18Z</time></trkpt>
   <trkpt lat="30.795801" lon="34.727545"><ele>619.6</ele><name>TP00658</name><time>2021-12-16T19:26:24Z</time></trkpt>
   <trkpt lat="30.79579" lon="34.727542"><ele>620</ele><name>TP00659</name><time>2021-12-16T19:26:25Z</time></trkpt>
   <trkpt lat="30.795739" lon="34.727542"><ele>621</ele><name>TP00660</name><time>2021-12-16T19:26:30Z</time></trkpt>
   <trkpt lat="30.795731" lon="34.727548"><ele>621.2</ele><name>TP00661</name><time>2021-12-16T19:26:31Z</time></trkpt>
   <trkpt lat="30.795698" lon="34.727613"><ele>621.8</ele><name>TP00662</name><time>2021-12-16T19:26:37Z</time></trkpt>
   <trkpt lat="30.795683" lon="34.727635"><ele>622</ele><name>TP00663</name><time>2021-12-16T19:26:39Z</time></trkpt>
   <trkpt lat="30.795648" lon="34.727695"><ele>622.8</ele><name>TP00664</name><time>2021-12-16T19:26:44Z</time></trkpt>
   <trkpt lat="30.795637" lon="34.727699"><ele>623.2</ele><name>TP00665</name><time>2021-12-16T19:26:45Z</time></trkpt>
   <trkpt lat="30.795607" lon="34.727677"><ele>623.6</ele><name>TP00666</name><time>2021-12-16T19:26:49Z</time></trkpt>
   <trkpt lat="30.795592" lon="34.727644"><ele>623.6</ele><name>TP00667</name><time>2021-12-16T19:26:52Z</time></trkpt>
   <trkpt lat="30.79559" lon="34.727633"><ele>623.6</ele><name>TP00668</name><time>2021-12-16T19:26:53Z</time></trkpt>
   <trkpt lat="30.795606" lon="34.727595"><ele>623.6</ele><name>TP00669</name><time>2021-12-16T19:26:56Z</time></trkpt>
   <trkpt lat="30.795609" lon="34.727582"><ele>623.6</ele><name>TP00670</name><time>2021-12-16T19:26:57Z</time></trkpt>
   <trkpt lat="30.795613" lon="34.727531"><ele>623.4</ele><name>TP00671</name><time>2021-12-16T19:27:01Z</time></trkpt>
   <trkpt lat="30.795605" lon="34.727514"><ele>623.4</ele><name>TP00672</name><time>2021-12-16T19:27:03Z</time></trkpt>
   <trkpt lat="30.795623" lon="34.727366"><ele>623.4</ele><name>TP00673</name><time>2021-12-16T19:28:34Z</time></trkpt>
   <trkpt lat="30.795628" lon="34.727349"><ele>623.4</ele><name>TP00674</name><time>2021-12-16T19:28:35Z</time></trkpt>
   <trkpt lat="30.795656" lon="34.727312"><ele>623.4</ele><name>TP00675</name><time>2021-12-16T19:28:38Z</time></trkpt>
   <trkpt lat="30.795698" lon="34.727261"><ele>624</ele><name>TP00676</name><time>2021-12-16T19:28:41Z</time></trkpt>
   <trkpt lat="30.795702" lon="34.72724"><ele>624.2</ele><name>TP00677</name><time>2021-12-16T19:28:42Z</time></trkpt>
   <trkpt lat="30.795698" lon="34.727186"><ele>624.2</ele><name>TP00678</name><time>2021-12-16T19:28:45Z</time></trkpt>
   <trkpt lat="30.795698" lon="34.727121"><ele>624.4</ele><name>TP00679</name><time>2021-12-16T19:28:48Z</time></trkpt>
   <trkpt lat="30.795698" lon="34.727075"><ele>624.6</ele><name>TP00680</name><time>2021-12-16T19:28:50Z</time></trkpt>
   <trkpt lat="30.795711" lon="34.726913"><ele>624.4</ele><name>TP00681</name><time>2021-12-16T19:28:57Z</time></trkpt>
   <trkpt lat="30.795729" lon="34.726779"><ele>624.8</ele><name>TP00682</name><time>2021-12-16T19:29:03Z</time></trkpt>
   <trkpt lat="30.795742" lon="34.726644"><ele>625</ele><name>TP00683</name><time>2021-12-16T19:29:09Z</time></trkpt>
   <trkpt lat="30.795732" lon="34.726584"><ele>625.4</ele><name>TP00684</name><time>2021-12-16T19:29:12Z</time></trkpt>
   <trkpt lat="30.795728" lon="34.726513"><ele>625.6</ele><name>TP00685</name><time>2021-12-16T19:29:15Z</time></trkpt>
   <trkpt lat="30.795729" lon="34.726453"><ele>625.8</ele><name>TP00686</name><time>2021-12-16T19:29:18Z</time></trkpt>
   <trkpt lat="30.795729" lon="34.72641"><ele>626</ele><name>TP00687</name><time>2021-12-16T19:29:20Z</time></trkpt>
   <trkpt lat="30.79573" lon="34.726339"><ele>626</ele><name>TP00688</name><time>2021-12-16T19:29:23Z</time></trkpt>
   <trkpt lat="30.795731" lon="34.72625"><ele>626.4</ele><name>TP00689</name><time>2021-12-16T19:29:27Z</time></trkpt>
   <trkpt lat="30.795747" lon="34.726133"><ele>626.8</ele><name>TP00690</name><time>2021-12-16T19:29:33Z</time></trkpt>
   <trkpt lat="30.795761" lon="34.726073"><ele>627</ele><name>TP00691</name><time>2021-12-16T19:29:36Z</time></trkpt>
   <trkpt lat="30.795756" lon="34.725953"><ele>626.6</ele><name>TP00692</name><time>2021-12-16T19:29:41Z</time></trkpt>
   <trkpt lat="30.795725" lon="34.725777"><ele>626.6</ele><name>TP00693</name><time>2021-12-16T19:29:46Z</time></trkpt>
   <trkpt lat="30.795693" lon="34.725555"><ele>626</ele><name>TP00694</name><time>2021-12-16T19:29:52Z</time></trkpt>
   <trkpt lat="30.795669" lon="34.725433"><ele>625.4</ele><name>TP00695</name><time>2021-12-16T19:29:55Z</time></trkpt>
   <trkpt lat="30.795657" lon="34.725302"><ele>624.8</ele><name>TP00696</name><time>2021-12-16T19:29:58Z</time></trkpt>
   <trkpt lat="30.79567" lon="34.725067"><ele>626.4</ele><name>TP00697</name><time>2021-12-16T19:30:04Z</time></trkpt>
   <trkpt lat="30.795693" lon="34.724885"><ele>626.8</ele><name>TP00698</name><time>2021-12-16T19:30:09Z</time></trkpt>
   <trkpt lat="30.795716" lon="34.724708"><ele>627</ele><name>TP00699</name><time>2021-12-16T19:30:15Z</time></trkpt>
   <trkpt lat="30.79572" lon="34.724681"><ele>627</ele><name>TP00700</name><time>2021-12-16T19:30:16Z</time></trkpt>
   <trkpt lat="30.795743" lon="34.724569"><ele>627.2</ele><name>TP00701</name><time>2021-12-16T19:30:21Z</time></trkpt>
   <trkpt lat="30.795758" lon="34.724457"><ele>627.4</ele><name>TP00702</name><time>2021-12-16T19:30:26Z</time></trkpt>
   <trkpt lat="30.795771" lon="34.724424"><ele>627.8</ele><name>TP00703</name><time>2021-12-16T19:30:28Z</time></trkpt>
   <trkpt lat="30.795781" lon="34.72436"><ele>628.2</ele><name>TP00704</name><time>2021-12-16T19:30:31Z</time></trkpt>
   <trkpt lat="30.795812" lon="34.724193"><ele>628.2</ele><name>TP00705</name><time>2021-12-16T19:30:38Z</time></trkpt>
   <trkpt lat="30.795831" lon="34.724148"><ele>628.4</ele><name>TP00706</name><time>2021-12-16T19:30:40Z</time></trkpt>
   <trkpt lat="30.795862" lon="34.724064"><ele>629.8</ele><name>TP00707</name><time>2021-12-16T19:30:44Z</time></trkpt>
   <trkpt lat="30.795848" lon="34.724007"><ele>631</ele><name>TP00708</name><time>2021-12-16T19:30:47Z</time></trkpt>
   <trkpt lat="30.795844" lon="34.723962"><ele>631.2</ele><name>TP00709</name><time>2021-12-16T19:30:49Z</time></trkpt>
   <trkpt lat="30.795829" lon="34.723847"><ele>630.8</ele><name>TP00710</name><time>2021-12-16T19:30:54Z</time></trkpt>
   <trkpt lat="30.795829" lon="34.723833"><ele>630.8</ele><name>TP00711</name><time>2021-12-16T19:30:55Z</time></trkpt>
   <trkpt lat="30.795846" lon="34.723756"><ele>630.6</ele><name>TP00712</name><time>2021-12-16T19:30:59Z</time></trkpt>
   <trkpt lat="30.795862" lon="34.7237"><ele>630.6</ele><name>TP00713</name><time>2021-12-16T19:31:02Z</time></trkpt>
   <trkpt lat="30.795869" lon="34.723643"><ele>630.8</ele><name>TP00714</name><time>2021-12-16T19:31:05Z</time></trkpt>
   <trkpt lat="30.795863" lon="34.723616"><ele>631</ele><name>TP00715</name><time>2021-12-16T19:31:07Z</time></trkpt>
   <trkpt lat="30.795851" lon="34.723623"><ele>630.8</ele><name>TP00716</name><time>2021-12-16T19:31:15Z</time></trkpt>
   <trkpt lat="30.795853" lon="34.723619"><ele>631.2</ele><name>TP00717</name><time>2021-12-16T19:31:17Z</time></trkpt>
   <trkpt lat="30.795856" lon="34.723608"><ele>631.2</ele><name>TP00718</name><time>2021-12-16T19:31:18Z</time></trkpt>
   <trkpt lat="30.795857" lon="34.723596"><ele>631.2</ele><name>TP00719</name><time>2021-12-16T19:31:19Z</time></trkpt>
   <trkpt lat="30.795858" lon="34.723515"><ele>631.2</ele><name>TP00720</name><time>2021-12-16T19:31:25Z</time></trkpt>
   <trkpt lat="30.79585" lon="34.723499"><ele>631.4</ele><name>TP00721</name><time>2021-12-16T19:31:27Z</time></trkpt>
   <trkpt lat="30.795843" lon="34.723474"><ele>631</ele><name>TP00722</name><time>2021-12-16T19:31:31Z</time></trkpt>
   <trkpt lat="30.795842" lon="34.723411"><ele>631.6</ele><name>TP00723</name><time>2021-12-16T19:31:35Z</time></trkpt>
   <trkpt lat="30.795841" lon="34.723388"><ele>631.8</ele><name>TP00724</name><time>2021-12-16T19:31:37Z</time></trkpt>
   <trkpt lat="30.795832" lon="34.723333"><ele>631.6</ele><name>TP00725</name><time>2021-12-16T19:31:40Z</time></trkpt>
   <trkpt lat="30.795841" lon="34.723246"><ele>631.6</ele><name>TP00726</name><time>2021-12-16T19:31:45Z</time></trkpt>
   <trkpt lat="30.795845" lon="34.723231"><ele>631.6</ele><name>TP00727</name><time>2021-12-16T19:31:46Z</time></trkpt>
   <trkpt lat="30.795853" lon="34.723154"><ele>631.8</ele><name>TP00728</name><time>2021-12-16T19:31:50Z</time></trkpt>
   <trkpt lat="30.795843" lon="34.723115"><ele>631.8</ele><name>TP00729</name><time>2021-12-16T19:31:52Z</time></trkpt>
   <trkpt lat="30.795823" lon="34.723052"><ele>632.2</ele><name>TP00730</name><time>2021-12-16T19:31:56Z</time></trkpt>
   <trkpt lat="30.795826" lon="34.723043"><ele>632.2</ele><name>TP00731</name><time>2021-12-16T19:31:57Z</time></trkpt>
   <trkpt lat="30.795827" lon="34.72304"><ele>632.4</ele><name>TP00732</name><time>2021-12-16T19:31:58Z</time></trkpt>
   <trkpt lat="30.795832" lon="34.72303"><ele>632.4</ele><name>TP00733</name><time>2021-12-16T19:32:02Z</time></trkpt>
   <trkpt lat="30.795834" lon="34.722949"><ele>632</ele><name>TP00734</name><time>2021-12-16T19:32:07Z</time></trkpt>
   <trkpt lat="30.79586" lon="34.722884"><ele>632.2</ele><name>TP00735</name><time>2021-12-16T19:32:11Z</time></trkpt>
   <trkpt lat="30.795864" lon="34.722822"><ele>632.6</ele><name>TP00736</name><time>2021-12-16T19:32:14Z</time></trkpt>
   <trkpt lat="30.795856" lon="34.722802"><ele>632.8</ele><name>TP00737</name><time>2021-12-16T19:32:15Z</time></trkpt>
   <trkpt lat="30.795845" lon="34.722788"><ele>632.8</ele><name>TP00738</name><time>2021-12-16T19:32:16Z</time></trkpt>
   <trkpt lat="30.795825" lon="34.722742"><ele>633.2</ele><name>TP00739</name><time>2021-12-16T19:32:19Z</time></trkpt>
   <trkpt lat="30.795815" lon="34.722703"><ele>633</ele><name>TP00740</name><time>2021-12-16T19:32:21Z</time></trkpt>
   <trkpt lat="30.79581" lon="34.722592"><ele>632.6</ele><name>TP00741</name><time>2021-12-16T19:32:27Z</time></trkpt>
   <trkpt lat="30.795832" lon="34.722483"><ele>631.8</ele><name>TP00742</name><time>2021-12-16T19:32:33Z</time></trkpt>
   <trkpt lat="30.795838" lon="34.722467"><ele>631.6</ele><name>TP00743</name><time>2021-12-16T19:32:34Z</time></trkpt>
   <trkpt lat="30.795854" lon="34.722423"><ele>631.6</ele><name>TP00744</name><time>2021-12-16T19:32:37Z</time></trkpt>
   <trkpt lat="30.795864" lon="34.722393"><ele>631.6</ele><name>TP00745</name><time>2021-12-16T19:32:51Z</time></trkpt>
   <trkpt lat="30.795868" lon="34.722381"><ele>631.6</ele><name>TP00746</name><time>2021-12-16T19:32:53Z</time></trkpt>
   <trkpt lat="30.795869" lon="34.722378"><ele>631.6</ele><name>TP00747</name><time>2021-12-16T19:32:54Z</time></trkpt>
   <trkpt lat="30.795884" lon="34.722326"><ele>631</ele><name>TP00748</name><time>2021-12-16T19:33:02Z</time></trkpt>
   <trkpt lat="30.795895" lon="34.722282"><ele>630.4</ele><name>TP00749</name><time>2021-12-16T19:33:05Z</time></trkpt>
   <trkpt lat="30.795907" lon="34.72224"><ele>630.2</ele><name>TP00750</name><time>2021-12-16T19:33:07Z</time></trkpt>
   <trkpt lat="30.795968" lon="34.722156"><ele>629.4</ele><name>TP00751</name><time>2021-12-16T19:33:13Z</time></trkpt>
   <trkpt lat="30.795999" lon="34.722148"><ele>629.2</ele><name>TP00752</name><time>2021-12-16T19:33:15Z</time></trkpt>
   <trkpt lat="30.796036" lon="34.722137"><ele>628.8</ele><name>TP00753</name><time>2021-12-16T19:33:18Z</time></trkpt>
   <trkpt lat="30.796043" lon="34.722135"><ele>629</ele><name>TP00754</name><time>2021-12-16T19:33:19Z</time></trkpt>
   <trkpt lat="30.796099" lon="34.72212"><ele>629.4</ele><name>TP00755</name><time>2021-12-16T19:34:39Z</time></trkpt>
   <trkpt lat="30.796108" lon="34.722123"><ele>629.4</ele><name>TP00756</name><time>2021-12-16T19:34:40Z</time></trkpt>
   <trkpt lat="30.796129" lon="34.722111"><ele>629.4</ele><name>TP00757</name><time>2021-12-16T19:34:42Z</time></trkpt>
   <trkpt lat="30.796134" lon="34.722102"><ele>629.2</ele><name>TP00758</name><time>2021-12-16T19:34:43Z</time></trkpt>
   <trkpt lat="30.796131" lon="34.722092"><ele>629.2</ele><name>TP00759</name><time>2021-12-16T19:34:44Z</time></trkpt>
   <trkpt lat="30.796125" lon="34.722079"><ele>629.2</ele><name>TP00760</name><time>2021-12-16T19:34:45Z</time></trkpt>
   <trkpt lat="30.796109" lon="34.722043"><ele>629.2</ele><name>TP00761</name><time>2021-12-16T19:34:47Z</time></trkpt>
   <trkpt lat="30.796096" lon="34.722022"><ele>629.4</ele><name>TP00762</name><time>2021-12-16T19:34:48Z</time></trkpt>
   <trkpt lat="30.796087" lon="34.721979"><ele>629.6</ele><name>TP00763</name><time>2021-12-16T19:34:50Z</time></trkpt>
   <trkpt lat="30.796082" lon="34.721959"><ele>629.8</ele><name>TP00764</name><time>2021-12-16T19:34:51Z</time></trkpt>
   <trkpt lat="30.796071" lon="34.72192"><ele>630.2</ele><name>TP00765</name><time>2021-12-16T19:34:53Z</time></trkpt>
   <trkpt lat="30.79602" lon="34.72177"><ele>630.6</ele><name>TP00766</name><time>2021-12-16T19:35:00Z</time></trkpt>
   <trkpt lat="30.79598" lon="34.721684"><ele>631</ele><name>TP00767</name><time>2021-12-16T19:35:04Z</time></trkpt>
   <trkpt lat="30.795958" lon="34.721653"><ele>631</ele><name>TP00768</name><time>2021-12-16T19:35:06Z</time></trkpt>
   <trkpt lat="30.795948" lon="34.721633"><ele>631</ele><name>TP00769</name><time>2021-12-16T19:35:07Z</time></trkpt>
   <trkpt lat="30.795877" lon="34.721517"><ele>631.4</ele><name>TP00770</name><time>2021-12-16T19:35:14Z</time></trkpt>
   <trkpt lat="30.795864" lon="34.721462"><ele>631.4</ele><name>TP00771</name><time>2021-12-16T19:35:17Z</time></trkpt>
   <trkpt lat="30.795855" lon="34.721351"><ele>631.6</ele><name>TP00772</name><time>2021-12-16T19:35:23Z</time></trkpt>
   <trkpt lat="30.79584" lon="34.721318"><ele>631.8</ele><name>TP00773</name><time>2021-12-16T19:35:25Z</time></trkpt>
   <trkpt lat="30.795828" lon="34.721253"><ele>632.2</ele><name>TP00774</name><time>2021-12-16T19:35:29Z</time></trkpt>
   <trkpt lat="30.795839" lon="34.721175"><ele>632.6</ele><name>TP00775</name><time>2021-12-16T19:35:33Z</time></trkpt>
   <trkpt lat="30.795835" lon="34.721155"><ele>632.6</ele><name>TP00776</name><time>2021-12-16T19:35:34Z</time></trkpt>
   <trkpt lat="30.795831" lon="34.721137"><ele>632.8</ele><name>TP00777</name><time>2021-12-16T19:35:35Z</time></trkpt>
   <trkpt lat="30.795819" lon="34.721099"><ele>633.2</ele><name>TP00778</name><time>2021-12-16T19:35:37Z</time></trkpt>
   <trkpt lat="30.795798" lon="34.721028"><ele>633.8</ele><name>TP00779</name><time>2021-12-16T19:35:41Z</time></trkpt>
   <trkpt lat="30.795776" lon="34.720959"><ele>634.4</ele><name>TP00780</name><time>2021-12-16T19:35:45Z</time></trkpt>
   <trkpt lat="30.795746" lon="34.720827"><ele>634.8</ele><name>TP00781</name><time>2021-12-16T19:35:53Z</time></trkpt>
   <trkpt lat="30.795742" lon="34.72081"><ele>634.8</ele><name>TP00782</name><time>2021-12-16T19:35:54Z</time></trkpt>
   <trkpt lat="30.795705" lon="34.720704"><ele>635.8</ele><name>TP00783</name><time>2021-12-16T19:36:00Z</time></trkpt>
   <trkpt lat="30.795694" lon="34.720686"><ele>636.2</ele><name>TP00784</name><time>2021-12-16T19:36:01Z</time></trkpt>
   <trkpt lat="30.795663" lon="34.720629"><ele>637</ele><name>TP00785</name><time>2021-12-16T19:36:05Z</time></trkpt>
   <trkpt lat="30.795638" lon="34.720595"><ele>637.6</ele><name>TP00786</name><time>2021-12-16T19:36:08Z</time></trkpt>
   <trkpt lat="30.795603" lon="34.72053"><ele>638</ele><name>TP00787</name><time>2021-12-16T19:36:13Z</time></trkpt>
   <trkpt lat="30.795602" lon="34.720497"><ele>638.2</ele><name>TP00788</name><time>2021-12-16T19:36:15Z</time></trkpt>
   <trkpt lat="30.795621" lon="34.720399"><ele>638.8</ele><name>TP00789</name><time>2021-12-16T19:36:21Z</time></trkpt>
   <trkpt lat="30.795627" lon="34.720382"><ele>638.8</ele><name>TP00790</name><time>2021-12-16T19:36:22Z</time></trkpt>
   <trkpt lat="30.795635" lon="34.720353"><ele>639.2</ele><name>TP00791</name><time>2021-12-16T19:36:24Z</time></trkpt>
   <trkpt lat="30.795622" lon="34.720289"><ele>640.2</ele><name>TP00792</name><time>2021-12-16T19:36:28Z</time></trkpt>
   <trkpt lat="30.79562" lon="34.720272"><ele>640.4</ele><name>TP00793</name><time>2021-12-16T19:36:29Z</time></trkpt>
   <trkpt lat="30.79565" lon="34.720243"><ele>640.8</ele><name>TP00794</name><time>2021-12-16T19:36:32Z</time></trkpt>
   <trkpt lat="30.795675" lon="34.720225"><ele>641</ele><name>TP00795</name><time>2021-12-16T19:36:34Z</time></trkpt>
   <trkpt lat="30.795689" lon="34.72022"><ele>641.2</ele><name>TP00796</name><time>2021-12-16T19:36:35Z</time></trkpt>
   <trkpt lat="30.795701" lon="34.720215"><ele>641.2</ele><name>TP00797</name><time>2021-12-16T19:36:36Z</time></trkpt>
   <trkpt lat="30.795734" lon="34.72018"><ele>641.2</ele><name>TP00798</name><time>2021-12-16T19:36:40Z</time></trkpt>
   <trkpt lat="30.795781" lon="34.720126"><ele>642.4</ele><name>TP00799</name><time>2021-12-16T19:36:57Z</time></trkpt>
   <trkpt lat="30.795798" lon="34.720103"><ele>642.6</ele><name>TP00800</name><time>2021-12-16T19:36:59Z</time></trkpt>
   <trkpt lat="30.795803" lon="34.72009"><ele>642.8</ele><name>TP00801</name><time>2021-12-16T19:37:00Z</time></trkpt>
   <trkpt lat="30.795806" lon="34.720077"><ele>643</ele><name>TP00802</name><time>2021-12-16T19:37:01Z</time></trkpt>
   <trkpt lat="30.795814" lon="34.720056"><ele>643.8</ele><name>TP00803</name><time>2021-12-16T19:37:06Z</time></trkpt>
   <trkpt lat="30.795819" lon="34.720045"><ele>643.8</ele><name>TP00804</name><time>2021-12-16T19:37:07Z</time></trkpt>
   <trkpt lat="30.795894" lon="34.719937"><ele>644.6</ele><name>TP00805</name><time>2021-12-16T19:37:15Z</time></trkpt>
   <trkpt lat="30.795921" lon="34.719921"><ele>644.6</ele><name>TP00806</name><time>2021-12-16T19:37:17Z</time></trkpt>
   <trkpt lat="30.795966" lon="34.719907"><ele>644.6</ele><name>TP00807</name><time>2021-12-16T19:37:20Z</time></trkpt>
   <trkpt lat="30.79598" lon="34.7199"><ele>644.8</ele><name>TP00808</name><time>2021-12-16T19:37:21Z</time></trkpt>
   <trkpt lat="30.795998" lon="34.71987"><ele>645.2</ele><name>TP00809</name><time>2021-12-16T19:37:24Z</time></trkpt>
   <trkpt lat="30.796029" lon="34.719802"><ele>645.4</ele><name>TP00810</name><time>2021-12-16T19:37:28Z</time></trkpt>
   <trkpt lat="30.796042" lon="34.719776"><ele>645.4</ele><name>TP00811</name><time>2021-12-16T19:37:30Z</time></trkpt>
   <trkpt lat="30.7961" lon="34.719741"><ele>645.6</ele><name>TP00812</name><time>2021-12-16T19:37:35Z</time></trkpt>
   <trkpt lat="30.796125" lon="34.71973"><ele>645.8</ele><name>TP00813</name><time>2021-12-16T19:37:37Z</time></trkpt>
   <trkpt lat="30.796157" lon="34.719696"><ele>645.6</ele><name>TP00814</name><time>2021-12-16T19:37:40Z</time></trkpt>
   <trkpt lat="30.79618" lon="34.719683"><ele>645.6</ele><name>TP00815</name><time>2021-12-16T19:37:42Z</time></trkpt>
   <trkpt lat="30.796208" lon="34.719683"><ele>646</ele><name>TP00816</name><time>2021-12-16T19:37:44Z</time></trkpt>
   <trkpt lat="30.796222" lon="34.719685"><ele>646.2</ele><name>TP00817</name><time>2021-12-16T19:37:45Z</time></trkpt>
   <trkpt lat="30.796254" lon="34.719669"><ele>646.6</ele><name>TP00818</name><time>2021-12-16T19:37:48Z</time></trkpt>
   <trkpt lat="30.79627" lon="34.719654"><ele>646.8</ele><name>TP00819</name><time>2021-12-16T19:37:50Z</time></trkpt>
   <trkpt lat="30.796284" lon="34.719639"><ele>646.6</ele><name>TP00820</name><time>2021-12-16T19:37:52Z</time></trkpt>
   <trkpt lat="30.796281" lon="34.719595"><ele>646.2</ele><name>TP00821</name><time>2021-12-16T19:38:20Z</time></trkpt>
   <trkpt lat="30.796282" lon="34.719573"><ele>646.2</ele><name>TP00822</name><time>2021-12-16T19:38:21Z</time></trkpt>
   <trkpt lat="30.796284" lon="34.719553"><ele>645.8</ele><name>TP00823</name><time>2021-12-16T19:38:22Z</time></trkpt>
   <trkpt lat="30.796301" lon="34.719491"><ele>645</ele><name>TP00824</name><time>2021-12-16T19:38:25Z</time></trkpt>
   <trkpt lat="30.796309" lon="34.719473"><ele>644.8</ele><name>TP00825</name><time>2021-12-16T19:38:26Z</time></trkpt>
   <trkpt lat="30.79636" lon="34.719347"><ele>645.4</ele><name>TP00826</name><time>2021-12-16T19:38:33Z</time></trkpt>
   <trkpt lat="30.796375" lon="34.719291"><ele>646</ele><name>TP00827</name><time>2021-12-16T19:38:36Z</time></trkpt>
   <trkpt lat="30.796408" lon="34.719221"><ele>646.8</ele><name>TP00828</name><time>2021-12-16T19:38:40Z</time></trkpt>
   <trkpt lat="30.796452" lon="34.719167"><ele>647.2</ele><name>TP00829</name><time>2021-12-16T19:38:44Z</time></trkpt>
   <trkpt lat="30.796463" lon="34.719155"><ele>647.2</ele><name>TP00830</name><time>2021-12-16T19:38:45Z</time></trkpt>
   <trkpt lat="30.796546" lon="34.719098"><ele>648</ele><name>TP00831</name><time>2021-12-16T19:38:51Z</time></trkpt>
   <trkpt lat="30.796597" lon="34.719075"><ele>648.2</ele><name>TP00832</name><time>2021-12-16T19:38:54Z</time></trkpt>
   <trkpt lat="30.796652" lon="34.719045"><ele>648.4</ele><name>TP00833</name><time>2021-12-16T19:38:57Z</time></trkpt>
   <trkpt lat="30.796751" lon="34.718992"><ele>648.4</ele><name>TP00834</name><time>2021-12-16T19:39:04Z</time></trkpt>
   <trkpt lat="30.796835" lon="34.718915"><ele>648.8</ele><name>TP00835</name><time>2021-12-16T19:39:12Z</time></trkpt>
   <trkpt lat="30.796851" lon="34.718811"><ele>649</ele><name>TP00836</name><time>2021-12-16T19:39:17Z</time></trkpt>
   <trkpt lat="30.796887" lon="34.718651"><ele>648.2</ele><name>TP00837</name><time>2021-12-16T19:39:22Z</time></trkpt>
   <trkpt lat="30.796951" lon="34.718606"><ele>648.4</ele><name>TP00838</name><time>2021-12-16T19:39:25Z</time></trkpt>
   <trkpt lat="30.796972" lon="34.718603"><ele>648.4</ele><name>TP00839</name><time>2021-12-16T19:39:26Z</time></trkpt>
   <trkpt lat="30.797113" lon="34.718574"><ele>648.6</ele><name>TP00840</name><time>2021-12-16T19:39:32Z</time></trkpt>
   <trkpt lat="30.797162" lon="34.718549"><ele>648.4</ele><name>TP00841</name><time>2021-12-16T19:39:34Z</time></trkpt>
   <trkpt lat="30.797277" lon="34.718433"><ele>649.4</ele><name>TP00842</name><time>2021-12-16T19:39:40Z</time></trkpt>
   <trkpt lat="30.797293" lon="34.718418"><ele>649.6</ele><name>TP00843</name><time>2021-12-16T19:39:41Z</time></trkpt>
   <trkpt lat="30.797378" lon="34.718367"><ele>650.6</ele><name>TP00844</name><time>2021-12-16T19:39:46Z</time></trkpt>
   <trkpt lat="30.797413" lon="34.718348"><ele>650.8</ele><name>TP00845</name><time>2021-12-16T19:39:48Z</time></trkpt>
   <trkpt lat="30.797464" lon="34.718288"><ele>651.6</ele><name>TP00846</name><time>2021-12-16T19:39:52Z</time></trkpt>
   <trkpt lat="30.797473" lon="34.718271"><ele>651.8</ele><name>TP00847</name><time>2021-12-16T19:39:53Z</time></trkpt>
   <trkpt lat="30.797481" lon="34.718255"><ele>652</ele><name>TP00848</name><time>2021-12-16T19:39:54Z</time></trkpt>
   <trkpt lat="30.797517" lon="34.718163"><ele>653</ele><name>TP00849</name><time>2021-12-16T19:39:59Z</time></trkpt>
   <trkpt lat="30.797533" lon="34.718127"><ele>653.2</ele><name>TP00850</name><time>2021-12-16T19:40:01Z</time></trkpt>
   <trkpt lat="30.797609" lon="34.718014"><ele>653.8</ele><name>TP00851</name><time>2021-12-16T19:40:08Z</time></trkpt>
   <trkpt lat="30.797628" lon="34.717979"><ele>654.2</ele><name>TP00852</name><time>2021-12-16T19:40:10Z</time></trkpt>
   <trkpt lat="30.79768" lon="34.717923"><ele>654.6</ele><name>TP00853</name><time>2021-12-16T19:40:14Z</time></trkpt>
   <trkpt lat="30.797772" lon="34.717878"><ele>655</ele><name>TP00854</name><time>2021-12-16T19:40:20Z</time></trkpt>
   <trkpt lat="30.797851" lon="34.71785"><ele>655.2</ele><name>TP00855</name><time>2021-12-16T19:40:25Z</time></trkpt>
   <trkpt lat="30.797902" lon="34.717832"><ele>655.4</ele><name>TP00856</name><time>2021-12-16T19:40:28Z</time></trkpt>
   <trkpt lat="30.797999" lon="34.717807"><ele>655.8</ele><name>TP00857</name><time>2021-12-16T19:40:34Z</time></trkpt>
   <trkpt lat="30.798017" lon="34.717804"><ele>655.8</ele><name>TP00858</name><time>2021-12-16T19:40:35Z</time></trkpt>
   <trkpt lat="30.798052" lon="34.717789"><ele>656.2</ele><name>TP00859</name><time>2021-12-16T19:40:37Z</time></trkpt>
   <trkpt lat="30.79807" lon="34.71778"><ele>656.4</ele><name>TP00860</name><time>2021-12-16T19:40:38Z</time></trkpt>
   <trkpt lat="30.798097" lon="34.717756"><ele>656.4</ele><name>TP00861</name><time>2021-12-16T19:40:40Z</time></trkpt>
   <trkpt lat="30.798106" lon="34.71774"><ele>656.4</ele><name>TP00862</name><time>2021-12-16T19:40:41Z</time></trkpt>
   <trkpt lat="30.798148" lon="34.717607"><ele>656.4</ele><name>TP00863</name><time>2021-12-16T19:40:47Z</time></trkpt>
   <trkpt lat="30.798237" lon="34.717375"><ele>655</ele><name>TP00864</name><time>2021-12-16T19:40:53Z</time></trkpt>
   <trkpt lat="30.798299" lon="34.717204"><ele>655.2</ele><name>TP00865</name><time>2021-12-16T19:40:57Z</time></trkpt>
   <trkpt lat="30.798333" lon="34.717089"><ele>654.8</ele><name>TP00866</name><time>2021-12-16T19:41:00Z</time></trkpt>
   <trkpt lat="30.798447" lon="34.716907"><ele>655.8</ele><name>TP00867</name><time>2021-12-16T19:41:06Z</time></trkpt>
   <trkpt lat="30.798469" lon="34.716884"><ele>656.2</ele><name>TP00868</name><time>2021-12-16T19:41:07Z</time></trkpt>
   <trkpt lat="30.798531" lon="34.716786"><ele>656.6</ele><name>TP00869</name><time>2021-12-16T19:41:11Z</time></trkpt>
   <trkpt lat="30.798595" lon="34.716717"><ele>657.2</ele><name>TP00870</name><time>2021-12-16T19:41:15Z</time></trkpt>
   <trkpt lat="30.798603" lon="34.716707"><ele>657.4</ele><name>TP00871</name><time>2021-12-16T19:41:16Z</time></trkpt>
   <trkpt lat="30.798606" lon="34.716706"><ele>657.4</ele><name>TP00872</name><time>2021-12-16T19:41:17Z</time></trkpt>
   <trkpt lat="30.798634" lon="34.716654"><ele>656.4</ele><name>TP00873</name><time>2021-12-16T19:42:41Z</time></trkpt>
   <trkpt lat="30.79864" lon="34.716631"><ele>656.4</ele><name>TP00874</name><time>2021-12-16T19:42:42Z</time></trkpt>
   <trkpt lat="30.79865" lon="34.71658"><ele>656.2</ele><name>TP00875</name><time>2021-12-16T19:42:44Z</time></trkpt>
   <trkpt lat="30.798676" lon="34.716502"><ele>656</ele><name>TP00876</name><time>2021-12-16T19:42:47Z</time></trkpt>
   <trkpt lat="30.798681" lon="34.716476"><ele>656</ele><name>TP00877</name><time>2021-12-16T19:42:48Z</time></trkpt>
   <trkpt lat="30.798679" lon="34.716402"><ele>655.6</ele><name>TP00878</name><time>2021-12-16T19:42:51Z</time></trkpt>
   <trkpt lat="30.798673" lon="34.716377"><ele>655.6</ele><name>TP00879</name><time>2021-12-16T19:42:52Z</time></trkpt>
   <trkpt lat="30.798692" lon="34.716238"><ele>656</ele><name>TP00880</name><time>2021-12-16T19:42:57Z</time></trkpt>
   <trkpt lat="30.798719" lon="34.716091"><ele>656.6</ele><name>TP00881</name><time>2021-12-16T19:43:03Z</time></trkpt>
   <trkpt lat="30.79872" lon="34.716038"><ele>657.2</ele><name>TP00882</name><time>2021-12-16T19:43:05Z</time></trkpt>
   <trkpt lat="30.798718" lon="34.716011"><ele>657.2</ele><name>TP00883</name><time>2021-12-16T19:43:06Z</time></trkpt>
   <trkpt lat="30.798693" lon="34.715892"><ele>657</ele><name>TP00884</name><time>2021-12-16T19:43:11Z</time></trkpt>
   <trkpt lat="30.798636" lon="34.715795"><ele>657.2</ele><name>TP00885</name><time>2021-12-16T19:43:15Z</time></trkpt>
   <trkpt lat="30.798609" lon="34.715756"><ele>657.4</ele><name>TP00886</name><time>2021-12-16T19:43:17Z</time></trkpt>
   <trkpt lat="30.798562" lon="34.715632"><ele>657</ele><name>TP00887</name><time>2021-12-16T19:43:22Z</time></trkpt>
   <trkpt lat="30.798587" lon="34.71549"><ele>656.6</ele><name>TP00888</name><time>2021-12-16T19:43:27Z</time></trkpt>
   <trkpt lat="30.798694" lon="34.715417"><ele>657</ele><name>TP00889</name><time>2021-12-16T19:43:33Z</time></trkpt>
   <trkpt lat="30.798876" lon="34.715355"><ele>657.2</ele><name>TP00890</name><time>2021-12-16T19:43:42Z</time></trkpt>
   <trkpt lat="30.798977" lon="34.715263"><ele>657.2</ele><name>TP00891</name><time>2021-12-16T19:43:48Z</time></trkpt>
   <trkpt lat="30.798975" lon="34.715139"><ele>657.2</ele><name>TP00892</name><time>2021-12-16T19:43:53Z</time></trkpt>
   <trkpt lat="30.798956" lon="34.714874"><ele>656.2</ele><name>TP00893</name><time>2021-12-16T19:44:00Z</time></trkpt>
   <trkpt lat="30.798968" lon="34.714727"><ele>655.8</ele><name>TP00894</name><time>2021-12-16T19:44:03Z</time></trkpt>
   <trkpt lat="30.798975" lon="34.714617"><ele>654.8</ele><name>TP00895</name><time>2021-12-16T19:44:05Z</time></trkpt>
   <trkpt lat="30.798971" lon="34.714557"><ele>654.6</ele><name>TP00896</name><time>2021-12-16T19:44:06Z</time></trkpt>
   <trkpt lat="30.798896" lon="34.714403"><ele>654.4</ele><name>TP00897</name><time>2021-12-16T19:44:09Z</time></trkpt>
   <trkpt lat="30.798788" lon="34.714287"><ele>653.8</ele><name>TP00898</name><time>2021-12-16T19:44:12Z</time></trkpt>
   <trkpt lat="30.798764" lon="34.714249"><ele>653.6</ele><name>TP00899</name><time>2021-12-16T19:44:13Z</time></trkpt>
   <trkpt lat="30.79876" lon="34.71418"><ele>653.4</ele><name>TP00900</name><time>2021-12-16T19:44:15Z</time></trkpt>
   <trkpt lat="30.79877" lon="34.714157"><ele>653.2</ele><name>TP00901</name><time>2021-12-16T19:44:16Z</time></trkpt>
   <trkpt lat="30.798796" lon="34.714163"><ele>653.4</ele><name>TP00902</name><time>2021-12-16T19:44:17Z</time></trkpt>
   <trkpt lat="30.798846" lon="34.714176"><ele>653.4</ele><name>TP00903</name><time>2021-12-16T19:44:19Z</time></trkpt>
   <trkpt lat="30.798955" lon="34.714211"><ele>653.8</ele><name>TP00904</name><time>2021-12-16T19:44:23Z</time></trkpt>
   <trkpt lat="30.79904" lon="34.714244"><ele>653.4</ele><name>TP00905</name><time>2021-12-16T19:44:26Z</time></trkpt>
   <trkpt lat="30.799277" lon="34.714334"><ele>653.2</ele><name>TP00906</name><time>2021-12-16T19:44:34Z</time></trkpt>
   <trkpt lat="30.799472" lon="34.714405"><ele>653.2</ele><name>TP00907</name><time>2021-12-16T19:44:40Z</time></trkpt>
   <trkpt lat="30.799713" lon="34.714485"><ele>653</ele><name>TP00908</name><time>2021-12-16T19:44:47Z</time></trkpt>
   <trkpt lat="30.79993" lon="34.714564"><ele>653.6</ele><name>TP00909</name><time>2021-12-16T19:44:53Z</time></trkpt>
   <trkpt lat="30.800003" lon="34.714594"><ele>653.4</ele><name>TP00910</name><time>2021-12-16T19:44:55Z</time></trkpt>
   <trkpt lat="30.800261" lon="34.714694"><ele>654.2</ele><name>TP00911</name><time>2021-12-16T19:45:03Z</time></trkpt>
   <trkpt lat="30.800323" lon="34.714718"><ele>654.6</ele><name>TP00912</name><time>2021-12-16T19:45:05Z</time></trkpt>
   <trkpt lat="30.800509" lon="34.714788"><ele>655.4</ele><name>TP00913</name><time>2021-12-16T19:45:11Z</time></trkpt>
   <trkpt lat="30.80057" lon="34.714804"><ele>655.6</ele><name>TP00914</name><time>2021-12-16T19:45:13Z</time></trkpt>
   <trkpt lat="30.8006" lon="34.714814"><ele>655.8</ele><name>TP00915</name><time>2021-12-16T19:45:14Z</time></trkpt>
   <trkpt lat="30.80069" lon="34.714843"><ele>656</ele><name>TP00916</name><time>2021-12-16T19:45:17Z</time></trkpt>
   <trkpt lat="30.80092" lon="34.714921"><ele>656.4</ele><name>TP00917</name><time>2021-12-16T19:45:25Z</time></trkpt>
   <trkpt lat="30.801164" lon="34.715016"><ele>656.8</ele><name>TP00918</name><time>2021-12-16T19:45:33Z</time></trkpt>
   <trkpt lat="30.801388" lon="34.7151"><ele>657.6</ele><name>TP00919</name><time>2021-12-16T19:45:41Z</time></trkpt>
   <trkpt lat="30.80157" lon="34.715166"><ele>657.6</ele><name>TP00920</name><time>2021-12-16T19:45:49Z</time></trkpt>
   <trkpt lat="30.801681" lon="34.715206"><ele>657.2</ele><name>TP00921</name><time>2021-12-16T19:45:55Z</time></trkpt>
   <trkpt lat="30.801779" lon="34.715245"><ele>657.6</ele><name>TP00922</name><time>2021-12-16T19:45:59Z</time></trkpt>
   <trkpt lat="30.80185" lon="34.715269"><ele>657.6</ele><name>TP00923</name><time>2021-12-16T19:46:02Z</time></trkpt>
   <trkpt lat="30.802003" lon="34.715334"><ele>657.8</ele><name>TP00924</name><time>2021-12-16T19:46:08Z</time></trkpt>
   <trkpt lat="30.802214" lon="34.715412"><ele>657.8</ele><name>TP00925</name><time>2021-12-16T19:46:16Z</time></trkpt>
   <trkpt lat="30.802322" lon="34.715519"><ele>658</ele><name>TP00926</name><time>2021-12-16T19:46:21Z</time></trkpt>
   <trkpt lat="30.802308" lon="34.71564"><ele>658.8</ele><name>TP00927</name><time>2021-12-16T19:46:25Z</time></trkpt>
   <trkpt lat="30.802307" lon="34.715711"><ele>660</ele><name>TP00928</name><time>2021-12-16T19:46:28Z</time></trkpt>
   <trkpt lat="30.802311" lon="34.715731"><ele>660.2</ele><name>TP00929</name><time>2021-12-16T19:46:29Z</time></trkpt>
   <trkpt lat="30.802314" lon="34.715781"><ele>660.2</ele><name>TP00930</name><time>2021-12-16T19:46:32Z</time></trkpt>
   <trkpt lat="30.80232" lon="34.715804"><ele>660.2</ele><name>TP00931</name><time>2021-12-16T19:46:34Z</time></trkpt>
   <trkpt lat="30.802329" lon="34.715812"><ele>660</ele><name>TP00932</name><time>2021-12-16T19:46:35Z</time></trkpt>
   <trkpt lat="30.802367" lon="34.71585"><ele>660</ele><name>TP00933</name><time>2021-12-16T19:46:39Z</time></trkpt>
   <trkpt lat="30.802397" lon="34.7159"><ele>660.4</ele><name>TP00934</name><time>2021-12-16T19:46:44Z</time></trkpt>
   <trkpt lat="30.802409" lon="34.715911"><ele>660.4</ele><name>TP00935</name><time>2021-12-16T19:46:46Z</time></trkpt>
   <trkpt lat="30.802417" lon="34.715911"><ele>660.4</ele><name>TP00936</name><time>2021-12-16T19:46:47Z</time></trkpt>
   <trkpt lat="30.802458" lon="34.715876"><ele>660.2</ele><name>TP00937</name><time>2021-12-16T19:46:50Z</time></trkpt>
   <trkpt lat="30.802497" lon="34.71578"><ele>659.8</ele><name>TP00938</name><time>2021-12-16T19:46:54Z</time></trkpt>
   <trkpt lat="30.802531" lon="34.715748"><ele>659.8</ele><name>TP00939</name><time>2021-12-16T19:46:56Z</time></trkpt>
   <trkpt lat="30.802583" lon="34.715686"><ele>659.2</ele><name>TP00940</name><time>2021-12-16T19:47:00Z</time></trkpt>
   <trkpt lat="30.802592" lon="34.715676"><ele>659.2</ele><name>TP00941</name><time>2021-12-16T19:47:01Z</time></trkpt>
   <trkpt lat="30.802633" lon="34.71569"><ele>659.2</ele><name>TP00942</name><time>2021-12-16T19:47:04Z</time></trkpt>
   <trkpt lat="30.802698" lon="34.715724"><ele>660</ele><name>TP00943</name><time>2021-12-16T19:47:08Z</time></trkpt>
   <trkpt lat="30.802754" lon="34.715742"><ele>660.2</ele><name>TP00944</name><time>2021-12-16T19:47:11Z</time></trkpt>
   <trkpt lat="30.802883" lon="34.715786"><ele>660.4</ele><name>TP00945</name><time>2021-12-16T19:47:19Z</time></trkpt>
   <trkpt lat="30.802923" lon="34.715812"><ele>660.4</ele><name>TP00946</name><time>2021-12-16T19:47:22Z</time></trkpt>
   <trkpt lat="30.802988" lon="34.715819"><ele>660.2</ele><name>TP00947</name><time>2021-12-16T19:47:26Z</time></trkpt>
   <trkpt lat="30.803014" lon="34.715761"><ele>659.2</ele><name>TP00948</name><time>2021-12-16T19:47:29Z</time></trkpt>
   <trkpt lat="30.803037" lon="34.715763"><ele>658.8</ele><name>TP00949</name><time>2021-12-16T19:47:30Z</time></trkpt>
   <trkpt lat="30.803098" lon="34.715787"><ele>658.2</ele><name>TP00950</name><time>2021-12-16T19:47:32Z</time></trkpt>
   <trkpt lat="30.803241" lon="34.715862"><ele>658</ele><name>TP00951</name><time>2021-12-16T19:47:37Z</time></trkpt>
   <trkpt lat="30.803305" lon="34.715889"><ele>658.2</ele><name>TP00952</name><time>2021-12-16T19:47:39Z</time></trkpt>
   <trkpt lat="30.803534" lon="34.716015"><ele>657.6</ele><name>TP00953</name><time>2021-12-16T19:47:47Z</time></trkpt>
   <trkpt lat="30.803584" lon="34.716046"><ele>657.6</ele><name>TP00954</name><time>2021-12-16T19:47:49Z</time></trkpt>
   <trkpt lat="30.803702" lon="34.716129"><ele>657.8</ele><name>TP00955</name><time>2021-12-16T19:47:53Z</time></trkpt>
   <trkpt lat="30.803854" lon="34.716234"><ele>657.2</ele><name>TP00956</name><time>2021-12-16T19:47:58Z</time></trkpt>
   <trkpt lat="30.803919" lon="34.716284"><ele>657</ele><name>TP00957</name><time>2021-12-16T19:48:00Z</time></trkpt>
   <trkpt lat="30.803981" lon="34.716332"><ele>656.8</ele><name>TP00958</name><time>2021-12-16T19:48:02Z</time></trkpt>
   <trkpt lat="30.804013" lon="34.716355"><ele>656.6</ele><name>TP00959</name><time>2021-12-16T19:48:03Z</time></trkpt>
   <trkpt lat="30.804112" lon="34.71643"><ele>656.2</ele><name>TP00960</name><time>2021-12-16T19:48:06Z</time></trkpt>
   <trkpt lat="30.804146" lon="34.716461"><ele>656.2</ele><name>TP00961</name><time>2021-12-16T19:48:07Z</time></trkpt>
   <trkpt lat="30.804313" lon="34.716627"><ele>656.2</ele><name>TP00962</name><time>2021-12-16T19:48:12Z</time></trkpt>
   <trkpt lat="30.804513" lon="34.71685"><ele>655.4</ele><name>TP00963</name><time>2021-12-16T19:48:18Z</time></trkpt>
   <trkpt lat="30.804541" lon="34.716889"><ele>655.2</ele><name>TP00964</name><time>2021-12-16T19:48:19Z</time></trkpt>
   <trkpt lat="30.804693" lon="34.71709"><ele>654.4</ele><name>TP00965</name><time>2021-12-16T19:48:24Z</time></trkpt>
   <trkpt lat="30.804753" lon="34.717173"><ele>654</ele><name>TP00966</name><time>2021-12-16T19:48:26Z</time></trkpt>
   <trkpt lat="30.804919" lon="34.717422"><ele>653.4</ele><name>TP00967</name><time>2021-12-16T19:48:32Z</time></trkpt>
   <trkpt lat="30.805019" lon="34.717586"><ele>652.6</ele><name>TP00968</name><time>2021-12-16T19:48:36Z</time></trkpt>
   <trkpt lat="30.805039" lon="34.717623"><ele>652</ele><name>TP00969</name><time>2021-12-16T19:48:37Z</time></trkpt>
   <trkpt lat="30.805083" lon="34.717702"><ele>651.6</ele><name>TP00970</name><time>2021-12-16T19:48:39Z</time></trkpt>
   <trkpt lat="30.805152" lon="34.717835"><ele>651</ele><name>TP00971</name><time>2021-12-16T19:48:42Z</time></trkpt>
   <trkpt lat="30.805255" lon="34.718036"><ele>650.4</ele><name>TP00972</name><time>2021-12-16T19:48:46Z</time></trkpt>
   <trkpt lat="30.805308" lon="34.71814"><ele>650</ele><name>TP00973</name><time>2021-12-16T19:48:48Z</time></trkpt>
   <trkpt lat="30.805356" lon="34.718236"><ele>649.4</ele><name>TP00974</name><time>2021-12-16T19:48:50Z</time></trkpt>
   <trkpt lat="30.805392" lon="34.71833"><ele>648.8</ele><name>TP00975</name><time>2021-12-16T19:48:52Z</time></trkpt>
   <trkpt lat="30.805411" lon="34.71838"><ele>648.6</ele><name>TP00976</name><time>2021-12-16T19:48:53Z</time></trkpt>
   <trkpt lat="30.805525" lon="34.718634"><ele>647.6</ele><name>TP00977</name><time>2021-12-16T19:48:58Z</time></trkpt>
   <trkpt lat="30.805548" lon="34.718687"><ele>647.4</ele><name>TP00978</name><time>2021-12-16T19:48:59Z</time></trkpt>
   <trkpt lat="30.805595" lon="34.718796"><ele>646.8</ele><name>TP00979</name><time>2021-12-16T19:49:01Z</time></trkpt>
   <trkpt lat="30.805618" lon="34.718852"><ele>646.6</ele><name>TP00980</name><time>2021-12-16T19:49:02Z</time></trkpt>
   <trkpt lat="30.805688" lon="34.719018"><ele>646.2</ele><name>TP00981</name><time>2021-12-16T19:49:05Z</time></trkpt>
   <trkpt lat="30.80571" lon="34.719074"><ele>646</ele><name>TP00982</name><time>2021-12-16T19:49:06Z</time></trkpt>
   <trkpt lat="30.805734" lon="34.71913"><ele>645.8</ele><name>TP00983</name><time>2021-12-16T19:49:07Z</time></trkpt>
   <trkpt lat="30.805785" lon="34.719241"><ele>645.4</ele><name>TP00984</name><time>2021-12-16T19:49:09Z</time></trkpt>
   <trkpt lat="30.805889" lon="34.719477"><ele>644.8</ele><name>TP00985</name><time>2021-12-16T19:49:13Z</time></trkpt>
   <trkpt lat="30.805944" lon="34.719593"><ele>644.4</ele><name>TP00986</name><time>2021-12-16T19:49:15Z</time></trkpt>
   <trkpt lat="30.806073" lon="34.719889"><ele>643.6</ele><name>TP00987</name><time>2021-12-16T19:49:20Z</time></trkpt>
   <trkpt lat="30.806099" lon="34.719947"><ele>643.6</ele><name>TP00988</name><time>2021-12-16T19:49:21Z</time></trkpt>
   <trkpt lat="30.806155" lon="34.720073"><ele>643.2</ele><name>TP00989</name><time>2021-12-16T19:49:23Z</time></trkpt>
   <trkpt lat="30.806314" lon="34.720446"><ele>642.2</ele><name>TP00990</name><time>2021-12-16T19:49:29Z</time></trkpt>
   <trkpt lat="30.806343" lon="34.720508"><ele>642</ele><name>TP00991</name><time>2021-12-16T19:49:30Z</time></trkpt>
   <trkpt lat="30.806425" lon="34.720686"><ele>641.8</ele><name>TP00992</name><time>2021-12-16T19:49:33Z</time></trkpt>
   <trkpt lat="30.8065" lon="34.720861"><ele>640.8</ele><name>TP00993</name><time>2021-12-16T19:49:36Z</time></trkpt>
   <trkpt lat="30.806526" lon="34.720923"><ele>640.4</ele><name>TP00994</name><time>2021-12-16T19:49:37Z</time></trkpt>
   <trkpt lat="30.806611" lon="34.721106"><ele>639.8</ele><name>TP00995</name><time>2021-12-16T19:49:40Z</time></trkpt>
   <trkpt lat="30.806749" lon="34.721346"><ele>639.2</ele><name>TP00996</name><time>2021-12-16T19:49:44Z</time></trkpt>
   <trkpt lat="30.806938" lon="34.721642"><ele>638.6</ele><name>TP00997</name><time>2021-12-16T19:49:49Z</time></trkpt>
   <trkpt lat="30.807009" lon="34.721747"><ele>638.4</ele><name>TP00998</name><time>2021-12-16T19:49:51Z</time></trkpt>
   <trkpt lat="30.807276" lon="34.722067"><ele>637.8</ele><name>TP00999</name><time>2021-12-16T19:49:58Z</time></trkpt>
   <trkpt lat="30.807351" lon="34.722147"><ele>637.6</ele><name>TP01000</name><time>2021-12-16T19:50:00Z</time></trkpt>
   <trkpt lat="30.807385" lon="34.722192"><ele>637.4</ele><name>TP01001</name><time>2021-12-16T19:50:01Z</time></trkpt>
   <trkpt lat="30.807415" lon="34.722297"><ele>637.2</ele><name>TP01002</name><time>2021-12-16T19:50:03Z</time></trkpt>
   <trkpt lat="30.807394" lon="34.722412"><ele>637.2</ele><name>TP01003</name><time>2021-12-16T19:50:05Z</time></trkpt>
   <trkpt lat="30.807374" lon="34.722461"><ele>637.2</ele><name>TP01004</name><time>2021-12-16T19:50:06Z</time></trkpt>
   <trkpt lat="30.807353" lon="34.722506"><ele>637.4</ele><name>TP01005</name><time>2021-12-16T19:50:07Z</time></trkpt>
   <trkpt lat="30.807325" lon="34.722586"><ele>638</ele><name>TP01006</name><time>2021-12-16T19:50:09Z</time></trkpt>
   <trkpt lat="30.807309" lon="34.722654"><ele>638.4</ele><name>TP01007</name><time>2021-12-16T19:50:11Z</time></trkpt>
   <trkpt lat="30.807302" lon="34.722683"><ele>638.8</ele><name>TP01008</name><time>2021-12-16T19:50:12Z</time></trkpt>
   <trkpt lat="30.807291" lon="34.722737"><ele>639.2</ele><name>TP01009</name><time>2021-12-16T19:50:14Z</time></trkpt>
   <trkpt lat="30.807277" lon="34.722807"><ele>640.2</ele><name>TP01010</name><time>2021-12-16T19:50:17Z</time></trkpt>
   <trkpt lat="30.807267" lon="34.722857"><ele>641</ele><name>TP01011</name><time>2021-12-16T19:50:19Z</time></trkpt>
   <trkpt lat="30.807265" lon="34.722883"><ele>641.2</ele><name>TP01012</name><time>2021-12-16T19:50:20Z</time></trkpt>
   <trkpt lat="30.807261" lon="34.722986"><ele>642</ele><name>TP01013</name><time>2021-12-16T19:50:24Z</time></trkpt>
   <trkpt lat="30.807263" lon="34.723014"><ele>642.2</ele><name>TP01014</name><time>2021-12-16T19:50:25Z</time></trkpt>
   <trkpt lat="30.807264" lon="34.723042"><ele>642.2</ele><name>TP01015</name><time>2021-12-16T19:50:26Z</time></trkpt>
   <trkpt lat="30.807298" lon="34.723182"><ele>642.2</ele><name>TP01016</name><time>2021-12-16T19:50:32Z</time></trkpt>
   <trkpt lat="30.807377" lon="34.723304"><ele>641.8</ele><name>TP01017</name><time>2021-12-16T19:50:38Z</time></trkpt>
   <trkpt lat="30.807491" lon="34.723399"><ele>642</ele><name>TP01018</name><time>2021-12-16T19:50:44Z</time></trkpt>
   <trkpt lat="30.807512" lon="34.72341"><ele>642.2</ele><name>TP01019</name><time>2021-12-16T19:50:45Z</time></trkpt>
   <trkpt lat="30.807624" lon="34.723454"><ele>642.2</ele><name>TP01020</name><time>2021-12-16T19:50:50Z</time></trkpt>
   <trkpt lat="30.807761" lon="34.723507"><ele>642.2</ele><name>TP01021</name><time>2021-12-16T19:50:56Z</time></trkpt>
   <trkpt lat="30.807922" lon="34.723561"><ele>642.2</ele><name>TP01022</name><time>2021-12-16T19:51:03Z</time></trkpt>
   <trkpt lat="30.808058" lon="34.723607"><ele>642</ele><name>TP01023</name><time>2021-12-16T19:51:09Z</time></trkpt>
   <trkpt lat="30.808179" lon="34.723644"><ele>642.6</ele><name>TP01024</name><time>2021-12-16T19:51:15Z</time></trkpt>
   <trkpt lat="30.808281" lon="34.723693"><ele>643</ele><name>TP01025</name><time>2021-12-16T19:51:20Z</time></trkpt>
   <trkpt lat="30.808346" lon="34.723721"><ele>643.2</ele><name>TP01026</name><time>2021-12-16T19:51:23Z</time></trkpt>
   <trkpt lat="30.80852" lon="34.723793"><ele>644</ele><name>TP01027</name><time>2021-12-16T19:51:31Z</time></trkpt>
   <trkpt lat="30.808541" lon="34.723802"><ele>644</ele><name>TP01028</name><time>2021-12-16T19:51:32Z</time></trkpt>
   <trkpt lat="30.808683" lon="34.723872"><ele>644.6</ele><name>TP01029</name><time>2021-12-16T19:51:39Z</time></trkpt>
   <trkpt lat="30.808845" lon="34.723937"><ele>645</ele><name>TP01030</name><time>2021-12-16T19:51:46Z</time></trkpt>
   <trkpt lat="30.80887" lon="34.723947"><ele>645.2</ele><name>TP01031</name><time>2021-12-16T19:51:47Z</time></trkpt>
   <trkpt lat="30.80902" lon="34.724005"><ele>644.2</ele><name>TP01032</name><time>2021-12-16T19:51:52Z</time></trkpt>
   <trkpt lat="30.809054" lon="34.724014"><ele>644.2</ele><name>TP01033</name><time>2021-12-16T19:51:53Z</time></trkpt>
   <trkpt lat="30.809089" lon="34.72402"><ele>644</ele><name>TP01034</name><time>2021-12-16T19:51:54Z</time></trkpt>
   <trkpt lat="30.809194" lon="34.724036"><ele>643.6</ele><name>TP01035</name><time>2021-12-16T19:51:57Z</time></trkpt>
   <trkpt lat="30.809243" lon="34.72405"><ele>643.6</ele><name>TP01036</name><time>2021-12-16T19:51:59Z</time></trkpt>
   <trkpt lat="30.809252" lon="34.724063"><ele>643.4</ele><name>TP01037</name><time>2021-12-16T19:52:00Z</time></trkpt>
   <trkpt lat="30.809277" lon="34.724096"><ele>643.4</ele><name>TP01038</name><time>2021-12-16T19:52:03Z</time></trkpt>
   <trkpt lat="30.809292" lon="34.724087"><ele>643</ele><name>TP01039</name><time>2021-12-16T19:52:05Z</time></trkpt>
   <trkpt lat="30.809288" lon="34.724052"><ele>642.8</ele><name>TP01040</name><time>2021-12-16T19:52:08Z</time></trkpt>
   <trkpt lat="30.809279" lon="34.724041"><ele>642.8</ele><name>TP01041</name><time>2021-12-16T19:52:09Z</time></trkpt>
   <trkpt lat="30.809255" lon="34.724029"><ele>642.8</ele><name>TP01042</name><time>2021-12-16T19:52:11Z</time></trkpt>
   <trkpt lat="30.809212" lon="34.724006"><ele>642.8</ele><name>TP01043</name><time>2021-12-16T19:52:15Z</time></trkpt>
   <trkpt lat="30.80919" lon="34.724004"><ele>642.8</ele><name>TP01044</name><time>2021-12-16T19:52:17Z</time></trkpt>
   <trkpt lat="30.809157" lon="34.724021"><ele>642.8</ele><name>TP01045</name><time>2021-12-16T19:52:20Z</time></trkpt>
   <trkpt lat="30.80918" lon="34.724029"><ele>642.8</ele><name>TP01046</name><time>2021-12-16T19:52:24Z</time></trkpt>
   <trkpt lat="30.809186" lon="34.724021"><ele>642.8</ele><name>TP01047</name><time>2021-12-16T19:52:25Z</time></trkpt>
   <trkpt lat="30.809242" lon="34.724051"><ele>642.8</ele><name>TP01048</name><time>2021-12-16T19:53:31Z</time></trkpt>
   <trkpt lat="30.809259" lon="34.724059"><ele>642.8</ele><name>TP01049</name><time>2021-12-16T19:53:32Z</time></trkpt>
   <trkpt lat="30.809303" lon="34.724075"><ele>643</ele><name>TP01050</name><time>2021-12-16T19:53:34Z</time></trkpt>
   <trkpt lat="30.809392" lon="34.7241"><ele>643.2</ele><name>TP01051</name><time>2021-12-16T19:53:38Z</time></trkpt>
   <trkpt lat="30.809522" lon="34.724137"><ele>643.4</ele><name>TP01052</name><time>2021-12-16T19:53:44Z</time></trkpt>
   <trkpt lat="30.809593" lon="34.724171"><ele>643.6</ele><name>TP01053</name><time>2021-12-16T19:53:48Z</time></trkpt>
   <trkpt lat="30.809646" lon="34.724198"><ele>643.8</ele><name>TP01054</name><time>2021-12-16T19:53:51Z</time></trkpt>
   <trkpt lat="30.809723" lon="34.724239"><ele>644</ele><name>TP01055</name><time>2021-12-16T19:53:55Z</time></trkpt>
   <trkpt lat="30.809784" lon="34.724265"><ele>644.4</ele><name>TP01056</name><time>2021-12-16T19:53:58Z</time></trkpt>
   <trkpt lat="30.809843" lon="34.724286"><ele>644.6</ele><name>TP01057</name><time>2021-12-16T19:54:01Z</time></trkpt>
   <trkpt lat="30.809904" lon="34.724312"><ele>645</ele><name>TP01058</name><time>2021-12-16T19:54:04Z</time></trkpt>
   <trkpt lat="30.809924" lon="34.724315"><ele>645</ele><name>TP01059</name><time>2021-12-16T19:54:05Z</time></trkpt>
   <trkpt lat="30.810002" lon="34.724323"><ele>645.6</ele><name>TP01060</name><time>2021-12-16T19:54:09Z</time></trkpt>
   <trkpt lat="30.81002" lon="34.724323"><ele>645.6</ele><name>TP01061</name><time>2021-12-16T19:54:10Z</time></trkpt>
   <trkpt lat="30.810094" lon="34.724313"><ele>646.4</ele><name>TP01062</name><time>2021-12-16T19:54:14Z</time></trkpt>
   <trkpt lat="30.810129" lon="34.724308"><ele>646.8</ele><name>TP01063</name><time>2021-12-16T19:54:16Z</time></trkpt>
   <trkpt lat="30.810233" lon="34.724297"><ele>647.8</ele><name>TP01064</name><time>2021-12-16T19:54:21Z</time></trkpt>
   <trkpt lat="30.810326" lon="34.724297"><ele>648.8</ele><name>TP01065</name><time>2021-12-16T19:54:26Z</time></trkpt>
   <trkpt lat="30.81036" lon="34.7243"><ele>649</ele><name>TP01066</name><time>2021-12-16T19:54:28Z</time></trkpt>
   <trkpt lat="30.810485" lon="34.724336"><ele>649.8</ele><name>TP01067</name><time>2021-12-16T19:54:35Z</time></trkpt>
   <trkpt lat="30.810554" lon="34.724373"><ele>649.8</ele><name>TP01068</name><time>2021-12-16T19:54:39Z</time></trkpt>
   <trkpt lat="30.810615" lon="34.72443"><ele>650.2</ele><name>TP01069</name><time>2021-12-16T19:54:43Z</time></trkpt>
   <trkpt lat="30.810692" lon="34.7245"><ele>651</ele><name>TP01070</name><time>2021-12-16T19:54:48Z</time></trkpt>
   <trkpt lat="30.810729" lon="34.724543"><ele>651.4</ele><name>TP01071</name><time>2021-12-16T19:54:51Z</time></trkpt>
   <trkpt lat="30.810761" lon="34.724594"><ele>652</ele><name>TP01072</name><time>2021-12-16T19:54:54Z</time></trkpt>
   <trkpt lat="30.810788" lon="34.724652"><ele>652.4</ele><name>TP01073</name><time>2021-12-16T19:54:57Z</time></trkpt>
   <trkpt lat="30.810816" lon="34.724765"><ele>653</ele><name>TP01074</name><time>2021-12-16T19:55:02Z</time></trkpt>
   <trkpt lat="30.81082" lon="34.724787"><ele>653</ele><name>TP01075</name><time>2021-12-16T19:55:03Z</time></trkpt>
   <trkpt lat="30.810855" lon="34.724968"><ele>653.2</ele><name>TP01076</name><time>2021-12-16T19:55:11Z</time></trkpt>
   <trkpt lat="30.810903" lon="34.72509"><ele>654</ele><name>TP01077</name><time>2021-12-16T19:55:17Z</time></trkpt>
   <trkpt lat="30.810919" lon="34.725127"><ele>654.2</ele><name>TP01078</name><time>2021-12-16T19:55:19Z</time></trkpt>
   <trkpt lat="30.810958" lon="34.725227"><ele>655</ele><name>TP01079</name><time>2021-12-16T19:55:24Z</time></trkpt>
   <trkpt lat="30.810994" lon="34.725299"><ele>655.6</ele><name>TP01080</name><time>2021-12-16T19:55:28Z</time></trkpt>
   <trkpt lat="30.81101" lon="34.725339"><ele>656</ele><name>TP01081</name><time>2021-12-16T19:55:30Z</time></trkpt>
   <trkpt lat="30.811032" lon="34.725397"><ele>656.4</ele><name>TP01082</name><time>2021-12-16T19:55:33Z</time></trkpt>
   <trkpt lat="30.81106" lon="34.725486"><ele>656.4</ele><name>TP01083</name><time>2021-12-16T19:55:37Z</time></trkpt>
   <trkpt lat="30.81109" lon="34.725676"><ele>656.6</ele><name>TP01084</name><time>2021-12-16T19:55:45Z</time></trkpt>
   <trkpt lat="30.811102" lon="34.725769"><ele>656</ele><name>TP01085</name><time>2021-12-16T19:55:50Z</time></trkpt>
   <trkpt lat="30.811103" lon="34.725782"><ele>656</ele><name>TP01086</name><time>2021-12-16T19:55:51Z</time></trkpt>
   <trkpt lat="30.811105" lon="34.725815"><ele>656</ele><name>TP01087</name><time>2021-12-16T19:55:53Z</time></trkpt>
   <trkpt lat="30.811108" lon="34.725907"><ele>655.6</ele><name>TP01088</name><time>2021-12-16T19:55:57Z</time></trkpt>
   <trkpt lat="30.81111" lon="34.725932"><ele>655.6</ele><name>TP01089</name><time>2021-12-16T19:55:58Z</time></trkpt>
   <trkpt lat="30.811113" lon="34.726013"><ele>655.6</ele><name>TP01090</name><time>2021-12-16T19:56:01Z</time></trkpt>
   <trkpt lat="30.811125" lon="34.726124"><ele>655.4</ele><name>TP01091</name><time>2021-12-16T19:56:05Z</time></trkpt>
   <trkpt lat="30.811144" lon="34.726216"><ele>655.2</ele><name>TP01092</name><time>2021-12-16T19:56:08Z</time></trkpt>
   <trkpt lat="30.811156" lon="34.726318"><ele>655.2</ele><name>TP01093</name><time>2021-12-16T19:56:11Z</time></trkpt>
   <trkpt lat="30.811161" lon="34.726473"><ele>654.8</ele><name>TP01094</name><time>2021-12-16T19:56:16Z</time></trkpt>
   <trkpt lat="30.811172" lon="34.726572"><ele>654.8</ele><name>TP01095</name><time>2021-12-16T19:56:19Z</time></trkpt>
   <trkpt lat="30.811173" lon="34.726866"><ele>654.6</ele><name>TP01096</name><time>2021-12-16T19:56:28Z</time></trkpt>
   <trkpt lat="30.811154" lon="34.726962"><ele>654.4</ele><name>TP01097</name><time>2021-12-16T19:56:31Z</time></trkpt>
   <trkpt lat="30.811106" lon="34.727018"><ele>654.4</ele><name>TP01098</name><time>2021-12-16T19:56:33Z</time></trkpt>
   <trkpt lat="30.811015" lon="34.727115"><ele>654.4</ele><name>TP01099</name><time>2021-12-16T19:56:36Z</time></trkpt>
   <trkpt lat="30.810949" lon="34.72719"><ele>653.8</ele><name>TP01100</name><time>2021-12-16T19:56:38Z</time></trkpt>
   <trkpt lat="30.810913" lon="34.727224"><ele>653.6</ele><name>TP01101</name><time>2021-12-16T19:56:39Z</time></trkpt>
   <trkpt lat="30.810844" lon="34.727282"><ele>653.8</ele><name>TP01102</name><time>2021-12-16T19:56:41Z</time></trkpt>
   <trkpt lat="30.810711" lon="34.727382"><ele>654.2</ele><name>TP01103</name><time>2021-12-16T19:56:45Z</time></trkpt>
   <trkpt lat="30.810679" lon="34.727411"><ele>653.8</ele><name>TP01104</name><time>2021-12-16T19:56:46Z</time></trkpt>
   <trkpt lat="30.810619" lon="34.727475"><ele>652.6</ele><name>TP01105</name><time>2021-12-16T19:56:48Z</time></trkpt>
   <trkpt lat="30.810549" lon="34.727548"><ele>652.8</ele><name>TP01106</name><time>2021-12-16T19:56:50Z</time></trkpt>
   <trkpt lat="30.810491" lon="34.727623"><ele>652.2</ele><name>TP01107</name><time>2021-12-16T19:56:52Z</time></trkpt>
   <trkpt lat="30.810434" lon="34.727718"><ele>651.4</ele><name>TP01108</name><time>2021-12-16T19:56:55Z</time></trkpt>
   <trkpt lat="30.810417" lon="34.727832"><ele>651</ele><name>TP01109</name><time>2021-12-16T19:57:00Z</time></trkpt>
   <trkpt lat="30.810424" lon="34.727845"><ele>651</ele><name>TP01110</name><time>2021-12-16T19:57:01Z</time></trkpt>
   <trkpt lat="30.810471" lon="34.727862"><ele>651.4</ele><name>TP01111</name><time>2021-12-16T19:57:05Z</time></trkpt>
   <trkpt lat="30.810548" lon="34.72785"><ele>652</ele><name>TP01112</name><time>2021-12-16T19:57:10Z</time></trkpt>
   <trkpt lat="30.810572" lon="34.727934"><ele>651.6</ele><name>TP01113</name><time>2021-12-16T19:57:15Z</time></trkpt>
   <trkpt lat="30.810637" lon="34.728062"><ele>652.2</ele><name>TP01114</name><time>2021-12-16T19:57:21Z</time></trkpt>
   <trkpt lat="30.810639" lon="34.728144"><ele>652.8</ele><name>TP01115</name><time>2021-12-16T19:57:26Z</time></trkpt>
   <trkpt lat="30.810555" lon="34.728174"><ele>653.2</ele><name>TP01116</name><time>2021-12-16T19:57:30Z</time></trkpt>
   <trkpt lat="30.810532" lon="34.728155"><ele>653.8</ele><name>TP01117</name><time>2021-12-16T19:57:32Z</time></trkpt>
   <trkpt lat="30.810525" lon="34.72814"><ele>654.2</ele><name>TP01118</name><time>2021-12-16T19:57:33Z</time></trkpt>
   <trkpt lat="30.810518" lon="34.728129"><ele>654.6</ele><name>TP01119</name><time>2021-12-16T19:57:34Z</time></trkpt>
   <trkpt lat="30.810486" lon="34.728139"><ele>655.2</ele><name>TP01120</name><time>2021-12-16T20:00:51Z</time></trkpt>
   <trkpt lat="30.810476" lon="34.728135"><ele>655.2</ele><name>TP01121</name><time>2021-12-16T20:00:52Z</time></trkpt>
   <trkpt lat="30.810462" lon="34.728133"><ele>655.8</ele><name>TP01122</name><time>2021-12-16T20:00:56Z</time></trkpt>
   <trkpt lat="30.810474" lon="34.728126"><ele>655.4</ele><name>TP01123</name><time>2021-12-16T20:01:18Z</time></trkpt>
   <trkpt lat="30.810468" lon="34.728121"><ele>655.4</ele><name>TP01124</name><time>2021-12-16T20:01:19Z</time></trkpt>
   <trkpt lat="30.810456" lon="34.728119"><ele>655.6</ele><name>TP01125</name><time>2021-12-16T20:01:21Z</time></trkpt>
   <trkpt lat="30.810451" lon="34.728116"><ele>655.6</ele><name>TP01126</name><time>2021-12-16T20:01:22Z</time></trkpt>
   <trkpt lat="30.810474" lon="34.728094"><ele>655</ele><name>TP01127</name><time>2021-12-16T20:01:32Z</time></trkpt>
   <trkpt lat="30.810521" lon="34.728064"><ele>654.6</ele><name>TP01128</name><time>2021-12-16T20:01:35Z</time></trkpt>
   <trkpt lat="30.81055" lon="34.728071"><ele>654</ele><name>TP01129</name><time>2021-12-16T20:01:36Z</time></trkpt>
   <trkpt lat="30.81057" lon="34.728104"><ele>653</ele><name>TP01130</name><time>2021-12-16T20:01:38Z</time></trkpt>
   <trkpt lat="30.810577" lon="34.728114"><ele>652.8</ele><name>TP01131</name><time>2021-12-16T20:01:39Z</time></trkpt>
   <trkpt lat="30.810592" lon="34.728113"><ele>652.2</ele><name>TP01132</name><time>2021-12-16T20:01:54Z</time></trkpt>
   <trkpt lat="30.810592" lon="34.728127"><ele>652.2</ele><name>TP01133</name><time>2021-12-16T20:01:56Z</time></trkpt>
   <trkpt lat="30.810588" lon="34.728168"><ele>652.4</ele><name>TP01134</name><time>2021-12-16T20:01:59Z</time></trkpt>
   <trkpt lat="30.810608" lon="34.728206"><ele>652.4</ele><name>TP01135</name><time>2021-12-16T20:02:04Z</time></trkpt>
   <trkpt lat="30.810613" lon="34.728198"><ele>652.4</ele><name>TP01136</name><time>2021-12-16T20:02:05Z</time></trkpt>
   <trkpt lat="30.810598" lon="34.728169"><ele>652.4</ele><name>TP01137</name><time>2021-12-16T20:02:10Z</time></trkpt>
   <trkpt lat="30.810588" lon="34.728153"><ele>651.6</ele><name>TP01138</name><time>2021-12-16T20:02:24Z</time></trkpt>
   <trkpt lat="30.810591" lon="34.728176"><ele>651.6</ele><name>TP01139</name><time>2021-12-16T20:02:29Z</time></trkpt>
   <trkpt lat="30.810541" lon="34.728157"><ele>652.8</ele><name>TP01140</name><time>2021-12-16T20:02:32Z</time></trkpt>
   <trkpt lat="30.81053" lon="34.728126"><ele>653.4</ele><name>TP01141</name><time>2021-12-16T20:02:34Z</time></trkpt>
   <trkpt lat="30.810519" lon="34.728109"><ele>653.6</ele><name>TP01142</name><time>2021-12-16T20:02:35Z</time></trkpt>
   <trkpt lat="30.810489" lon="34.728117"><ele>653.8</ele><name>TP01143</name><time>2021-12-16T20:02:42Z</time></trkpt>
   <trkpt lat="30.810486" lon="34.72812"><ele>653.6</ele><name>TP01144</name><time>2021-12-16T20:02:43Z</time></trkpt>
   <trkpt lat="30.810479" lon="34.728118"><ele>653.4</ele><name>TP01145</name><time>2021-12-16T20:02:48Z</time></trkpt>
   <trkpt lat="30.810479" lon="34.728119"><ele>653.6</ele><name>TP01146</name><time>2021-12-16T20:02:49Z</time></trkpt>
   <trkpt lat="30.810478" lon="34.728108"><ele>653</ele><name>TP01147</name><time>2021-12-16T20:03:22Z</time></trkpt>
   <trkpt lat="30.810489" lon="34.728126"><ele>653</ele><name>TP01148</name><time>2021-12-16T20:03:23Z</time></trkpt>
   <trkpt lat="30.810501" lon="34.728148"><ele>653</ele><name>TP01149</name><time>2021-12-16T20:03:24Z</time></trkpt>
   <trkpt lat="30.810542" lon="34.728236"><ele>652.6</ele><name>TP01150</name><time>2021-12-16T20:03:26Z</time></trkpt>
   <trkpt lat="30.810559" lon="34.728284"><ele>652</ele><name>TP01151</name><time>2021-12-16T20:03:27Z</time></trkpt>
   <trkpt lat="30.810552" lon="34.728307"><ele>651</ele><name>TP01152</name><time>2021-12-16T20:03:28Z</time></trkpt>
   <trkpt lat="30.810537" lon="34.728315"><ele>650.4</ele><name>TP01153</name><time>2021-12-16T20:03:29Z</time></trkpt>
   <trkpt lat="30.810522" lon="34.728313"><ele>650</ele><name>TP01154</name><time>2021-12-16T20:03:30Z</time></trkpt>
   <trkpt lat="30.810514" lon="34.728302"><ele>649.6</ele><name>TP01155</name><time>2021-12-16T20:03:31Z</time></trkpt>
   <trkpt lat="30.810515" lon="34.728283"><ele>649.6</ele><name>TP01156</name><time>2021-12-16T20:03:33Z</time></trkpt>
   <trkpt lat="30.810533" lon="34.728271"><ele>649.6</ele><name>TP01157</name><time>2021-12-16T20:03:40Z</time></trkpt>
   <trkpt lat="30.810577" lon="34.72824"><ele>649.6</ele><name>TP01158</name><time>2021-12-16T20:03:44Z</time></trkpt>
   <trkpt lat="30.810607" lon="34.728196"><ele>649.8</ele><name>TP01159</name><time>2021-12-16T20:03:47Z</time></trkpt>
   <trkpt lat="30.810587" lon="34.72817"><ele>650</ele><name>TP01160</name><time>2021-12-16T20:03:49Z</time></trkpt>
   <trkpt lat="30.810527" lon="34.728139"><ele>651</ele><name>TP01161</name><time>2021-12-16T20:03:52Z</time></trkpt>
   <trkpt lat="30.81052" lon="34.728125"><ele>651.6</ele><name>TP01162</name><time>2021-12-16T20:03:53Z</time></trkpt>
   <trkpt lat="30.810509" lon="34.728099"><ele>652.4</ele><name>TP01163</name><time>2021-12-16T20:03:55Z</time></trkpt>
   <trkpt lat="30.810502" lon="34.728091"><ele>652.4</ele><name>TP01164</name><time>2021-12-16T20:03:56Z</time></trkpt>
   <trkpt lat="30.810493" lon="34.728104"><ele>651.8</ele><name>TP01165</name><time>2021-12-16T20:04:01Z</time></trkpt>
   <trkpt lat="30.810493" lon="34.728107"><ele>651.8</ele><name>TP01166</name><time>2021-12-16T20:04:02Z</time></trkpt>
   <trkpt lat="30.810516" lon="34.728143"><ele>651.4</ele><name>TP01167</name><time>2021-12-16T20:04:12Z</time></trkpt>
   <trkpt lat="30.810557" lon="34.728214"><ele>651.2</ele><name>TP01168</name><time>2021-12-16T20:04:14Z</time></trkpt>
   <trkpt lat="30.810564" lon="34.728252"><ele>650.8</ele><name>TP01169</name><time>2021-12-16T20:04:15Z</time></trkpt>
   <trkpt lat="30.810564" lon="34.728292"><ele>649.4</ele><name>TP01170</name><time>2021-12-16T20:04:17Z</time></trkpt>
   <trkpt lat="30.81052" lon="34.728308"><ele>649.2</ele><name>TP01171</name><time>2021-12-16T20:04:55Z</time></trkpt>
   <trkpt lat="30.810507" lon="34.728318"><ele>649.2</ele><name>TP01172</name><time>2021-12-16T20:04:56Z</time></trkpt>
   <trkpt lat="30.810492" lon="34.728328"><ele>649.2</ele><name>TP01173</name><time>2021-12-16T20:04:57Z</time></trkpt>
   <trkpt lat="30.810421" lon="34.728372"><ele>649</ele><name>TP01174</name><time>2021-12-16T20:05:00Z</time></trkpt>
   <trkpt lat="30.8104" lon="34.728376"><ele>648.8</ele><name>TP01175</name><time>2021-12-16T20:05:01Z</time></trkpt>
   <trkpt lat="30.810389" lon="34.728372"><ele>648.4</ele><name>TP01176</name><time>2021-12-16T20:05:02Z</time></trkpt>
   <trkpt lat="30.810347" lon="34.728372"><ele>648.4</ele><name>TP01177</name><time>2021-12-16T20:05:27Z</time></trkpt>
   <trkpt lat="30.810327" lon="34.728377"><ele>648.4</ele><name>TP01178</name><time>2021-12-16T20:05:28Z</time></trkpt>
   <trkpt lat="30.810255" lon="34.728405"><ele>647.8</ele><name>TP01179</name><time>2021-12-16T20:05:30Z</time></trkpt>
   <trkpt lat="30.810207" lon="34.728414"><ele>647.4</ele><name>TP01180</name><time>2021-12-16T20:05:31Z</time></trkpt>
   <trkpt lat="30.810155" lon="34.728414"><ele>647.2</ele><name>TP01181</name><time>2021-12-16T20:05:32Z</time></trkpt>
   <trkpt lat="30.810048" lon="34.728413"><ele>647</ele><name>TP01182</name><time>2021-12-16T20:05:34Z</time></trkpt>
   <trkpt lat="30.809935" lon="34.728422"><ele>647</ele><name>TP01183</name><time>2021-12-16T20:05:36Z</time></trkpt>
   <trkpt lat="30.809828" lon="34.728433"><ele>646.4</ele><name>TP01184</name><time>2021-12-16T20:05:38Z</time></trkpt>
   <trkpt lat="30.809782" lon="34.728446"><ele>646.2</ele><name>TP01185</name><time>2021-12-16T20:05:39Z</time></trkpt>
   <trkpt lat="30.809625" lon="34.728476"><ele>646.2</ele><name>TP01186</name><time>2021-12-16T20:05:43Z</time></trkpt>
   <trkpt lat="30.809466" lon="34.72854"><ele>646</ele><name>TP01187</name><time>2021-12-16T20:05:48Z</time></trkpt>
   <trkpt lat="30.809414" lon="34.728556"><ele>645.8</ele><name>TP01188</name><time>2021-12-16T20:05:50Z</time></trkpt>
   <trkpt lat="30.809366" lon="34.728575"><ele>645.6</ele><name>TP01189</name><time>2021-12-16T20:05:53Z</time></trkpt>
   <trkpt lat="30.809329" lon="34.728595"><ele>646.4</ele><name>TP01190</name><time>2021-12-16T20:06:20Z</time></trkpt>
   <trkpt lat="30.809324" lon="34.728604"><ele>646.4</ele><name>TP01191</name><time>2021-12-16T20:06:21Z</time></trkpt>
   <trkpt lat="30.809318" lon="34.72861"><ele>646.2</ele><name>TP01192</name><time>2021-12-16T20:06:22Z</time></trkpt>
   <trkpt lat="30.809313" lon="34.728622"><ele>646.8</ele><name>TP01193</name><time>2021-12-16T20:06:27Z</time></trkpt>
   <trkpt lat="30.809311" lon="34.728623"><ele>647</ele><name>TP01194</name><time>2021-12-16T20:06:28Z</time></trkpt>
   <trkpt lat="30.809307" lon="34.728618"><ele>647</ele><name>TP01195</name><time>2021-12-16T20:06:31Z</time></trkpt>
   <trkpt lat="30.809309" lon="34.728615"><ele>647</ele><name>TP01196</name><time>2021-12-16T20:06:33Z</time></trkpt>
   <trkpt lat="30.809338" lon="34.728534"><ele>654</ele><name>TP01197</name><time>2021-12-16T20:10:15Z</time></trkpt>
   <trkpt lat="30.809343" lon="34.728548"><ele>654.2</ele><name>TP01198</name><time>2021-12-16T20:10:16Z</time></trkpt>
   <trkpt lat="30.809394" lon="34.728622"><ele>654.2</ele><name>TP01199</name><time>2021-12-16T20:10:24Z</time></trkpt>
   <trkpt lat="30.809415" lon="34.728677"><ele>654.4</ele><name>TP01200</name><time>2021-12-16T20:10:28Z</time></trkpt>
   <trkpt lat="30.809415" lon="34.728707"><ele>653.6</ele><name>TP01201</name><time>2021-12-16T20:10:34Z</time></trkpt>
   <trkpt lat="30.80941" lon="34.728745"><ele>653.8</ele><name>TP01202</name><time>2021-12-16T20:10:36Z</time></trkpt>
   <trkpt lat="30.809393" lon="34.728794"><ele>654.4</ele><name>TP01203</name><time>2021-12-16T20:10:38Z</time></trkpt>
   <trkpt lat="30.809377" lon="34.728858"><ele>654.8</ele><name>TP01204</name><time>2021-12-16T20:10:40Z</time></trkpt>
   <trkpt lat="30.809349" lon="34.728978"><ele>653.8</ele><name>TP01205</name><time>2021-12-16T20:10:43Z</time></trkpt>
   <trkpt lat="30.809319" lon="34.729062"><ele>653.2</ele><name>TP01206</name><time>2021-12-16T20:10:45Z</time></trkpt>
   <trkpt lat="30.809294" lon="34.729106"><ele>652.8</ele><name>TP01207</name><time>2021-12-16T20:10:46Z</time></trkpt>
   <trkpt lat="30.809218" lon="34.729218"><ele>652.2</ele><name>TP01208</name><time>2021-12-16T20:10:49Z</time></trkpt>
   <trkpt lat="30.809159" lon="34.729298"><ele>651.4</ele><name>TP01209</name><time>2021-12-16T20:10:51Z</time></trkpt>
   <trkpt lat="30.809123" lon="34.729339"><ele>650.8</ele><name>TP01210</name><time>2021-12-16T20:10:52Z</time></trkpt>
   <trkpt lat="30.809038" lon="34.729412"><ele>650.2</ele><name>TP01211</name><time>2021-12-16T20:10:54Z</time></trkpt>
   <trkpt lat="30.808962" lon="34.729496"><ele>648.8</ele><name>TP01212</name><time>2021-12-16T20:10:56Z</time></trkpt>
   <trkpt lat="30.808914" lon="34.729615"><ele>647.4</ele><name>TP01213</name><time>2021-12-16T20:10:58Z</time></trkpt>
   <trkpt lat="30.808883" lon="34.729682"><ele>646.6</ele><name>TP01214</name><time>2021-12-16T20:10:59Z</time></trkpt>
   <trkpt lat="30.808848" lon="34.72975"><ele>646</ele><name>TP01215</name><time>2021-12-16T20:11:00Z</time></trkpt>
   <trkpt lat="30.80877" lon="34.729885"><ele>644</ele><name>TP01216</name><time>2021-12-16T20:11:02Z</time></trkpt>
   <trkpt lat="30.808733" lon="34.729955"><ele>643.2</ele><name>TP01217</name><time>2021-12-16T20:11:03Z</time></trkpt>
   <trkpt lat="30.808697" lon="34.730032"><ele>642.8</ele><name>TP01218</name><time>2021-12-16T20:11:04Z</time></trkpt>
   <trkpt lat="30.808579" lon="34.730242"><ele>641.8</ele><name>TP01219</name><time>2021-12-16T20:11:07Z</time></trkpt>
   <trkpt lat="30.808544" lon="34.730312"><ele>641</ele><name>TP01220</name><time>2021-12-16T20:11:08Z</time></trkpt>
   <trkpt lat="30.808513" lon="34.730388"><ele>640.4</ele><name>TP01221</name><time>2021-12-16T20:11:09Z</time></trkpt>
   <trkpt lat="30.808466" lon="34.730611"><ele>639.4</ele><name>TP01222</name><time>2021-12-16T20:11:12Z</time></trkpt>
   <trkpt lat="30.80845" lon="34.730713"><ele>639.4</ele><name>TP01223</name><time>2021-12-16T20:11:14Z</time></trkpt>
   <trkpt lat="30.808425" lon="34.7308"><ele>639</ele><name>TP01224</name><time>2021-12-16T20:11:16Z</time></trkpt>
   <trkpt lat="30.808403" lon="34.730872"><ele>638.6</ele><name>TP01225</name><time>2021-12-16T20:11:18Z</time></trkpt>
   <trkpt lat="30.80837" lon="34.73096"><ele>638.6</ele><name>TP01226</name><time>2021-12-16T20:11:21Z</time></trkpt>
   <trkpt lat="30.808333" lon="34.73098"><ele>638</ele><name>TP01227</name><time>2021-12-16T20:11:23Z</time></trkpt>
   <trkpt lat="30.808302" lon="34.730977"><ele>637.8</ele><name>TP01228</name><time>2021-12-16T20:11:25Z</time></trkpt>
   <trkpt lat="30.808241" lon="34.730972"><ele>637.4</ele><name>TP01229</name><time>2021-12-16T20:11:29Z</time></trkpt>
   <trkpt lat="30.808201" lon="34.731002"><ele>637.2</ele><name>TP01230</name><time>2021-12-16T20:11:31Z</time></trkpt>
   <trkpt lat="30.808169" lon="34.731044"><ele>637.2</ele><name>TP01231</name><time>2021-12-16T20:11:33Z</time></trkpt>
   <trkpt lat="30.808122" lon="34.731091"><ele>635.2</ele><name>TP01232</name><time>2021-12-16T20:11:48Z</time></trkpt>
   <trkpt lat="30.808111" lon="34.731102"><ele>635.2</ele><name>TP01233</name><time>2021-12-16T20:11:49Z</time></trkpt>
   <trkpt lat="30.808025" lon="34.731243"><ele>633.4</ele><name>TP01234</name><time>2021-12-16T20:11:54Z</time></trkpt>
   <trkpt lat="30.808009" lon="34.731289"><ele>633</ele><name>TP01235</name><time>2021-12-16T20:11:55Z</time></trkpt>
   <trkpt lat="30.808" lon="34.73134"><ele>632.4</ele><name>TP01236</name><time>2021-12-16T20:11:56Z</time></trkpt>
   <trkpt lat="30.807988" lon="34.731442"><ele>631.8</ele><name>TP01237</name><time>2021-12-16T20:11:58Z</time></trkpt>
   <trkpt lat="30.807912" lon="34.731542"><ele>632.6</ele><name>TP01238</name><time>2021-12-16T20:12:01Z</time></trkpt>
   <trkpt lat="30.807881" lon="34.731566"><ele>632.6</ele><name>TP01239</name><time>2021-12-16T20:12:02Z</time></trkpt>
   <trkpt lat="30.807832" lon="34.7316"><ele>631.8</ele><name>TP01240</name><time>2021-12-16T20:12:04Z</time></trkpt>
   <trkpt lat="30.807783" lon="34.731619"><ele>629.2</ele><name>TP01241</name><time>2021-12-16T20:12:19Z</time></trkpt>
   <trkpt lat="30.807757" lon="34.731655"><ele>628.8</ele><name>TP01242</name><time>2021-12-16T20:12:22Z</time></trkpt>
   <trkpt lat="30.807714" lon="34.731728"><ele>628</ele><name>TP01243</name><time>2021-12-16T20:12:26Z</time></trkpt>
   <trkpt lat="30.807708" lon="34.731738"><ele>627.6</ele><name>TP01244</name><time>2021-12-16T20:12:27Z</time></trkpt>
   <trkpt lat="30.807682" lon="34.731783"><ele>627.4</ele><name>TP01245</name><time>2021-12-16T20:12:31Z</time></trkpt>
   <trkpt lat="30.807668" lon="34.731802"><ele>626.6</ele><name>TP01246</name><time>2021-12-16T20:12:34Z</time></trkpt>
   <trkpt lat="30.807656" lon="34.731815"><ele>626.4</ele><name>TP01247</name><time>2021-12-16T20:12:35Z</time></trkpt>
   <trkpt lat="30.807577" lon="34.731949"><ele>626.4</ele><name>TP01248</name><time>2021-12-16T20:12:41Z</time></trkpt>
   <trkpt lat="30.807538" lon="34.732034"><ele>625.6</ele><name>TP01249</name><time>2021-12-16T20:12:44Z</time></trkpt>
   <trkpt lat="30.80754" lon="34.732042"><ele>625.2</ele><name>TP01250</name><time>2021-12-16T20:12:46Z</time></trkpt>
   <trkpt lat="30.807523" lon="34.732093"><ele>625.2</ele><name>TP01251</name><time>2021-12-16T20:13:00Z</time></trkpt>
   <trkpt lat="30.807501" lon="34.732143"><ele>625.4</ele><name>TP01252</name><time>2021-12-16T20:13:02Z</time></trkpt>
   <trkpt lat="30.807426" lon="34.732226"><ele>624.8</ele><name>TP01253</name><time>2021-12-16T20:13:06Z</time></trkpt>
   <trkpt lat="30.80741" lon="34.732242"><ele>624.4</ele><name>TP01254</name><time>2021-12-16T20:13:07Z</time></trkpt>
   <trkpt lat="30.8074" lon="34.732251"><ele>624</ele><name>TP01255</name><time>2021-12-16T20:13:08Z</time></trkpt>
   <trkpt lat="30.80739" lon="34.732254"><ele>623</ele><name>TP01256</name><time>2021-12-16T20:13:15Z</time></trkpt>
   <trkpt lat="30.807389" lon="34.732256"><ele>623</ele><name>TP01257</name><time>2021-12-16T20:13:16Z</time></trkpt>
   <trkpt lat="30.807387" lon="34.732258"><ele>623</ele><name>TP01258</name><time>2021-12-16T20:13:17Z</time></trkpt>
   <trkpt lat="30.807356" lon="34.732283"><ele>623.2</ele><name>TP01259</name><time>2021-12-16T20:13:26Z</time></trkpt>
   <trkpt lat="30.807319" lon="34.732332"><ele>622.8</ele><name>TP01260</name><time>2021-12-16T20:13:30Z</time></trkpt>
   <trkpt lat="30.807306" lon="34.732349"><ele>622.6</ele><name>TP01261</name><time>2021-12-16T20:13:31Z</time></trkpt>
   <trkpt lat="30.807238" lon="34.732432"><ele>622.6</ele><name>TP01262</name><time>2021-12-16T20:13:35Z</time></trkpt>
   <trkpt lat="30.807163" lon="34.732505"><ele>622.2</ele><name>TP01263</name><time>2021-12-16T20:13:38Z</time></trkpt>
   <trkpt lat="30.807133" lon="34.732518"><ele>621.6</ele><name>TP01264</name><time>2021-12-16T20:13:39Z</time></trkpt>
   <trkpt lat="30.807109" lon="34.732527"><ele>621.2</ele><name>TP01265</name><time>2021-12-16T20:13:40Z</time></trkpt>
   <trkpt lat="30.807086" lon="34.732534"><ele>620.6</ele><name>TP01266</name><time>2021-12-16T20:13:41Z</time></trkpt>
   <trkpt lat="30.80696" lon="34.732537"><ele>619.6</ele><name>TP01267</name><time>2021-12-16T20:13:46Z</time></trkpt>
   <trkpt lat="30.806731" lon="34.73253"><ele>619.6</ele><name>TP01268</name><time>2021-12-16T20:13:53Z</time></trkpt>
   <trkpt lat="30.806697" lon="34.73254"><ele>619.4</ele><name>TP01269</name><time>2021-12-16T20:13:54Z</time></trkpt>
   <trkpt lat="30.806547" lon="34.732567"><ele>618.2</ele><name>TP01270</name><time>2021-12-16T20:13:58Z</time></trkpt>
   <trkpt lat="30.80651" lon="34.73258"><ele>617.6</ele><name>TP01271</name><time>2021-12-16T20:13:59Z</time></trkpt>
   <trkpt lat="30.806406" lon="34.732593"><ele>617</ele><name>TP01272</name><time>2021-12-16T20:14:02Z</time></trkpt>
   <trkpt lat="30.806342" lon="34.732587"><ele>616.4</ele><name>TP01273</name><time>2021-12-16T20:14:04Z</time></trkpt>
   <trkpt lat="30.806236" lon="34.732575"><ele>615.8</ele><name>TP01274</name><time>2021-12-16T20:14:07Z</time></trkpt>
   <trkpt lat="30.806159" lon="34.732571"><ele>615.6</ele><name>TP01275</name><time>2021-12-16T20:14:09Z</time></trkpt>
   <trkpt lat="30.805985" lon="34.732567"><ele>615.2</ele><name>TP01276</name><time>2021-12-16T20:14:13Z</time></trkpt>
   <trkpt lat="30.805898" lon="34.732544"><ele>614.6</ele><name>TP01277</name><time>2021-12-16T20:14:15Z</time></trkpt>
   <trkpt lat="30.80582" lon="34.732512"><ele>614</ele><name>TP01278</name><time>2021-12-16T20:14:17Z</time></trkpt>
   <trkpt lat="30.805744" lon="34.732474"><ele>613.4</ele><name>TP01279</name><time>2021-12-16T20:14:19Z</time></trkpt>
   <trkpt lat="30.805675" lon="34.732436"><ele>612.8</ele><name>TP01280</name><time>2021-12-16T20:14:21Z</time></trkpt>
   <trkpt lat="30.805509" lon="34.732335"><ele>612.8</ele><name>TP01281</name><time>2021-12-16T20:14:26Z</time></trkpt>
   <trkpt lat="30.805477" lon="34.732326"><ele>612.8</ele><name>TP01282</name><time>2021-12-16T20:14:27Z</time></trkpt>
   <trkpt lat="30.805372" lon="34.732313"><ele>613.4</ele><name>TP01283</name><time>2021-12-16T20:14:30Z</time></trkpt>
   <trkpt lat="30.805251" lon="34.732299"><ele>613.6</ele><name>TP01284</name><time>2021-12-16T20:14:33Z</time></trkpt>
   <trkpt lat="30.805096" lon="34.732301"><ele>612.2</ele><name>TP01285</name><time>2021-12-16T20:14:37Z</time></trkpt>
   <trkpt lat="30.805074" lon="34.732303"><ele>611.6</ele><name>TP01286</name><time>2021-12-16T20:14:38Z</time></trkpt>
   <trkpt lat="30.805068" lon="34.732303"><ele>611.4</ele><name>TP01287</name><time>2021-12-16T20:14:39Z</time></trkpt>
   <trkpt lat="30.805029" lon="34.732317"><ele>611</ele><name>TP01288</name><time>2021-12-16T20:15:24Z</time></trkpt>
   <trkpt lat="30.805008" lon="34.732326"><ele>611.2</ele><name>TP01289</name><time>2021-12-16T20:15:25Z</time></trkpt>
   <trkpt lat="30.804926" lon="34.732366"><ele>610.8</ele><name>TP01290</name><time>2021-12-16T20:15:28Z</time></trkpt>
   <trkpt lat="30.804886" lon="34.732383"><ele>610.8</ele><name>TP01291</name><time>2021-12-16T20:15:29Z</time></trkpt>
   <trkpt lat="30.804846" lon="34.732401"><ele>610.4</ele><name>TP01292</name><time>2021-12-16T20:15:30Z</time></trkpt>
   <trkpt lat="30.804802" lon="34.732425"><ele>610</ele><name>TP01293</name><time>2021-12-16T20:15:31Z</time></trkpt>
   <trkpt lat="30.804663" lon="34.732508"><ele>610.4</ele><name>TP01294</name><time>2021-12-16T20:15:34Z</time></trkpt>
   <trkpt lat="30.80461" lon="34.73253"><ele>610.6</ele><name>TP01295</name><time>2021-12-16T20:15:35Z</time></trkpt>
   <trkpt lat="30.804559" lon="34.732545"><ele>610.4</ele><name>TP01296</name><time>2021-12-16T20:15:36Z</time></trkpt>
   <trkpt lat="30.804404" lon="34.732559"><ele>609.6</ele><name>TP01297</name><time>2021-12-16T20:15:39Z</time></trkpt>
   <trkpt lat="30.804295" lon="34.732567"><ele>609</ele><name>TP01298</name><time>2021-12-16T20:15:41Z</time></trkpt>
   <trkpt lat="30.804126" lon="34.732565"><ele>608.2</ele><name>TP01299</name><time>2021-12-16T20:15:44Z</time></trkpt>
   <trkpt lat="30.804078" lon="34.732586"><ele>608</ele><name>TP01300</name><time>2021-12-16T20:15:45Z</time></trkpt>
   <trkpt lat="30.804035" lon="34.732617"><ele>607.6</ele><name>TP01301</name><time>2021-12-16T20:15:46Z</time></trkpt>
   <trkpt lat="30.803952" lon="34.732762"><ele>607</ele><name>TP01302</name><time>2021-12-16T20:15:49Z</time></trkpt>
   <trkpt lat="30.803946" lon="34.73282"><ele>606.4</ele><name>TP01303</name><time>2021-12-16T20:15:50Z</time></trkpt>
   <trkpt lat="30.803957" lon="34.732939"><ele>605.8</ele><name>TP01304</name><time>2021-12-16T20:15:52Z</time></trkpt>
   <trkpt lat="30.803955" lon="34.733002"><ele>605.8</ele><name>TP01305</name><time>2021-12-16T20:15:53Z</time></trkpt>
   <trkpt lat="30.803936" lon="34.733118"><ele>605</ele><name>TP01306</name><time>2021-12-16T20:15:55Z</time></trkpt>
   <trkpt lat="30.803907" lon="34.733225"><ele>604.2</ele><name>TP01307</name><time>2021-12-16T20:15:57Z</time></trkpt>
   <trkpt lat="30.803871" lon="34.733422"><ele>604.4</ele><name>TP01308</name><time>2021-12-16T20:16:01Z</time></trkpt>
   <trkpt lat="30.80388" lon="34.733471"><ele>604.4</ele><name>TP01309</name><time>2021-12-16T20:16:02Z</time></trkpt>
   <trkpt lat="30.803896" lon="34.733577"><ele>604.4</ele><name>TP01310</name><time>2021-12-16T20:16:04Z</time></trkpt>
   <trkpt lat="30.8039" lon="34.733783"><ele>604.2</ele><name>TP01311</name><time>2021-12-16T20:16:08Z</time></trkpt>
   <trkpt lat="30.803891" lon="34.733827"><ele>604.4</ele><name>TP01312</name><time>2021-12-16T20:16:09Z</time></trkpt>
   <trkpt lat="30.803844" lon="34.73402"><ele>604.4</ele><name>TP01313</name><time>2021-12-16T20:16:13Z</time></trkpt>
   <trkpt lat="30.803766" lon="34.734352"><ele>603.8</ele><name>TP01314</name><time>2021-12-16T20:16:20Z</time></trkpt>
   <trkpt lat="30.803751" lon="34.734447"><ele>603.6</ele><name>TP01315</name><time>2021-12-16T20:16:22Z</time></trkpt>
   <trkpt lat="30.803758" lon="34.734639"><ele>603.2</ele><name>TP01316</name><time>2021-12-16T20:16:26Z</time></trkpt>
   <trkpt lat="30.803767" lon="34.734785"><ele>602.8</ele><name>TP01317</name><time>2021-12-16T20:16:29Z</time></trkpt>
   <trkpt lat="30.803775" lon="34.734835"><ele>602.6</ele><name>TP01318</name><time>2021-12-16T20:16:30Z</time></trkpt>
   <trkpt lat="30.803787" lon="34.734936"><ele>601.6</ele><name>TP01319</name><time>2021-12-16T20:16:32Z</time></trkpt>
   <trkpt lat="30.803798" lon="34.735076"><ele>602.2</ele><name>TP01320</name><time>2021-12-16T20:16:35Z</time></trkpt>
   <trkpt lat="30.803792" lon="34.735212"><ele>602.2</ele><name>TP01321</name><time>2021-12-16T20:16:38Z</time></trkpt>
   <trkpt lat="30.803771" lon="34.735368"><ele>602.6</ele><name>TP01322</name><time>2021-12-16T20:16:42Z</time></trkpt>
   <trkpt lat="30.803717" lon="34.735547"><ele>602.6</ele><name>TP01323</name><time>2021-12-16T20:16:47Z</time></trkpt>
   <trkpt lat="30.803642" lon="34.735782"><ele>603.4</ele><name>TP01324</name><time>2021-12-16T20:16:54Z</time></trkpt>
   <trkpt lat="30.803584" lon="34.736039"><ele>603.6</ele><name>TP01325</name><time>2021-12-16T20:17:02Z</time></trkpt>
   <trkpt lat="30.803577" lon="34.736071"><ele>603.6</ele><name>TP01326</name><time>2021-12-16T20:17:03Z</time></trkpt>
   <trkpt lat="30.803561" lon="34.736224"><ele>604.4</ele><name>TP01327</name><time>2021-12-16T20:17:08Z</time></trkpt>
   <trkpt lat="30.803559" lon="34.736347"><ele>604.6</ele><name>TP01328</name><time>2021-12-16T20:17:12Z</time></trkpt>
   <trkpt lat="30.803567" lon="34.736412"><ele>604.8</ele><name>TP01329</name><time>2021-12-16T20:17:14Z</time></trkpt>
   <trkpt lat="30.803571" lon="34.736603"><ele>605</ele><name>TP01330</name><time>2021-12-16T20:17:21Z</time></trkpt>
   <trkpt lat="30.803545" lon="34.73661"><ele>605</ele><name>TP01331</name><time>2021-12-16T20:17:23Z</time></trkpt>
   <trkpt lat="30.803484" lon="34.736594"><ele>605</ele><name>TP01332</name><time>2021-12-16T20:17:48Z</time></trkpt>
   <trkpt lat="30.803468" lon="34.736593"><ele>605.2</ele><name>TP01333</name><time>2021-12-16T20:17:49Z</time></trkpt>
   <trkpt lat="30.803424" lon="34.736583"><ele>605</ele><name>TP01334</name><time>2021-12-16T20:17:51Z</time></trkpt>
   <trkpt lat="30.803375" lon="34.736554"><ele>605</ele><name>TP01335</name><time>2021-12-16T20:17:53Z</time></trkpt>
   <trkpt lat="30.80323" lon="34.736449"><ele>604</ele><name>TP01336</name><time>2021-12-16T20:17:58Z</time></trkpt>
   <trkpt lat="30.80306" lon="34.736359"><ele>604.8</ele><name>TP01337</name><time>2021-12-16T20:18:04Z</time></trkpt>
   <trkpt lat="30.802952" lon="34.736352"><ele>604.6</ele><name>TP01338</name><time>2021-12-16T20:18:07Z</time></trkpt>
   <trkpt lat="30.802871" lon="34.736373"><ele>604.4</ele><name>TP01339</name><time>2021-12-16T20:18:09Z</time></trkpt>
   <trkpt lat="30.802716" lon="34.736446"><ele>603.6</ele><name>TP01340</name><time>2021-12-16T20:18:13Z</time></trkpt>
   <trkpt lat="30.802642" lon="34.736473"><ele>602.4</ele><name>TP01341</name><time>2021-12-16T20:18:15Z</time></trkpt>
   <trkpt lat="30.802532" lon="34.736522"><ele>601.4</ele><name>TP01342</name><time>2021-12-16T20:18:19Z</time></trkpt>
   <trkpt lat="30.802485" lon="34.736543"><ele>601.2</ele><name>TP01343</name><time>2021-12-16T20:18:21Z</time></trkpt>
   <trkpt lat="30.802408" lon="34.736593"><ele>601.2</ele><name>TP01344</name><time>2021-12-16T20:18:25Z</time></trkpt>
   <trkpt lat="30.80231" lon="34.73666"><ele>601</ele><name>TP01345</name><time>2021-12-16T20:18:49Z</time></trkpt>
   <trkpt lat="30.802239" lon="34.736723"><ele>601.4</ele><name>TP01346</name><time>2021-12-16T20:18:56Z</time></trkpt>
   <trkpt lat="30.802215" lon="34.73675"><ele>601.4</ele><name>TP01347</name><time>2021-12-16T20:18:58Z</time></trkpt>
   <trkpt lat="30.80216" lon="34.736816"><ele>601.2</ele><name>TP01348</name><time>2021-12-16T20:19:02Z</time></trkpt>
   <trkpt lat="30.802147" lon="34.736833"><ele>601.2</ele><name>TP01349</name><time>2021-12-16T20:19:03Z</time></trkpt>
   <trkpt lat="30.80205" lon="34.736925"><ele>600.8</ele><name>TP01350</name><time>2021-12-16T20:19:08Z</time></trkpt>
   <trkpt lat="30.801996" lon="34.736974"><ele>600</ele><name>TP01351</name><time>2021-12-16T20:19:10Z</time></trkpt>
   <trkpt lat="30.801911" lon="34.737054"><ele>599.6</ele><name>TP01352</name><time>2021-12-16T20:19:13Z</time></trkpt>
   <trkpt lat="30.801817" lon="34.737135"><ele>598.8</ele><name>TP01353</name><time>2021-12-16T20:19:17Z</time></trkpt>
   <trkpt lat="30.801773" lon="34.737186"><ele>598.2</ele><name>TP01354</name><time>2021-12-16T20:19:19Z</time></trkpt>
   <trkpt lat="30.801734" lon="34.737235"><ele>597.8</ele><name>TP01355</name><time>2021-12-16T20:19:21Z</time></trkpt>
   <trkpt lat="30.801689" lon="34.737334"><ele>597</ele><name>TP01356</name><time>2021-12-16T20:19:24Z</time></trkpt>
   <trkpt lat="30.801665" lon="34.737409"><ele>596.2</ele><name>TP01357</name><time>2021-12-16T20:19:26Z</time></trkpt>
   <trkpt lat="30.80162" lon="34.737475"><ele>595</ele><name>TP01358</name><time>2021-12-16T20:19:29Z</time></trkpt>
   <trkpt lat="30.801571" lon="34.737533"><ele>593.8</ele><name>TP01359</name><time>2021-12-16T20:19:33Z</time></trkpt>
   <trkpt lat="30.801562" lon="34.737555"><ele>593.6</ele><name>TP01360</name><time>2021-12-16T20:19:34Z</time></trkpt>
   <trkpt lat="30.801538" lon="34.737611"><ele>592.6</ele><name>TP01361</name><time>2021-12-16T20:19:36Z</time></trkpt>
   <trkpt lat="30.801507" lon="34.737699"><ele>591.6</ele><name>TP01362</name><time>2021-12-16T20:19:39Z</time></trkpt>
   <trkpt lat="30.801493" lon="34.737732"><ele>591</ele><name>TP01363</name><time>2021-12-16T20:19:40Z</time></trkpt>
   <trkpt lat="30.801446" lon="34.737779"><ele>589.6</ele><name>TP01364</name><time>2021-12-16T20:19:42Z</time></trkpt>
   <trkpt lat="30.801414" lon="34.737784"><ele>589.2</ele><name>TP01365</name><time>2021-12-16T20:19:43Z</time></trkpt>
   <trkpt lat="30.801351" lon="34.737783"><ele>588.4</ele><name>TP01366</name><time>2021-12-16T20:19:45Z</time></trkpt>
   <trkpt lat="30.801294" lon="34.73776"><ele>588.4</ele><name>TP01367</name><time>2021-12-16T20:19:47Z</time></trkpt>
   <trkpt lat="30.801238" lon="34.737743"><ele>589.2</ele><name>TP01368</name><time>2021-12-16T20:19:49Z</time></trkpt>
   <trkpt lat="30.801207" lon="34.737736"><ele>589.6</ele><name>TP01369</name><time>2021-12-16T20:19:50Z</time></trkpt>
   <trkpt lat="30.801121" lon="34.737712"><ele>590.4</ele><name>TP01370</name><time>2021-12-16T20:19:53Z</time></trkpt>
   <trkpt lat="30.800968" lon="34.737702"><ele>589.4</ele><name>TP01371</name><time>2021-12-16T20:19:59Z</time></trkpt>
   <trkpt lat="30.800793" lon="34.737717"><ele>589.6</ele><name>TP01372</name><time>2021-12-16T20:20:05Z</time></trkpt>
   <trkpt lat="30.800681" lon="34.7377"><ele>588.6</ele><name>TP01373</name><time>2021-12-16T20:20:09Z</time></trkpt>
   <trkpt lat="30.800652" lon="34.737705"><ele>588.4</ele><name>TP01374</name><time>2021-12-16T20:20:10Z</time></trkpt>
   <trkpt lat="30.800554" lon="34.737756"><ele>587.4</ele><name>TP01375</name><time>2021-12-16T20:20:13Z</time></trkpt>
   <trkpt lat="30.800492" lon="34.737809"><ele>587.2</ele><name>TP01376</name><time>2021-12-16T20:20:15Z</time></trkpt>
   <trkpt lat="30.800374" lon="34.737916"><ele>587</ele><name>TP01377</name><time>2021-12-16T20:20:19Z</time></trkpt>
   <trkpt lat="30.800312" lon="34.737964"><ele>586.8</ele><name>TP01378</name><time>2021-12-16T20:20:21Z</time></trkpt>
   <trkpt lat="30.800183" lon="34.738044"><ele>586.2</ele><name>TP01379</name><time>2021-12-16T20:20:25Z</time></trkpt>
   <trkpt lat="30.800154" lon="34.738051"><ele>586.2</ele><name>TP01380</name><time>2021-12-16T20:20:26Z</time></trkpt>
   <trkpt lat="30.800053" lon="34.738127"><ele>585.6</ele><name>TP01381</name><time>2021-12-16T20:20:30Z</time></trkpt>
   <trkpt lat="30.800024" lon="34.738154"><ele>585.4</ele><name>TP01382</name><time>2021-12-16T20:20:31Z</time></trkpt>
   <trkpt lat="30.79994" lon="34.738245"><ele>585</ele><name>TP01383</name><time>2021-12-16T20:20:34Z</time></trkpt>
   <trkpt lat="30.799882" lon="34.738301"><ele>585</ele><name>TP01384</name><time>2021-12-16T20:20:36Z</time></trkpt>
   <trkpt lat="30.799723" lon="34.738478"><ele>584.4</ele><name>TP01385</name><time>2021-12-16T20:20:42Z</time></trkpt>
   <trkpt lat="30.79966" lon="34.738529"><ele>584</ele><name>TP01386</name><time>2021-12-16T20:20:44Z</time></trkpt>
   <trkpt lat="30.799523" lon="34.738683"><ele>583.4</ele><name>TP01387</name><time>2021-12-16T20:20:49Z</time></trkpt>
   <trkpt lat="30.799487" lon="34.73876"><ele>582.8</ele><name>TP01388</name><time>2021-12-16T20:20:51Z</time></trkpt>
   <trkpt lat="30.799457" lon="34.738885"><ele>582.6</ele><name>TP01389</name><time>2021-12-16T20:20:54Z</time></trkpt>
   <trkpt lat="30.799437" lon="34.739148"><ele>582.2</ele><name>TP01390</name><time>2021-12-16T20:21:01Z</time></trkpt>
   <trkpt lat="30.799436" lon="34.739193"><ele>582.2</ele><name>TP01391</name><time>2021-12-16T20:21:02Z</time></trkpt>
   <trkpt lat="30.799427" lon="34.73933"><ele>582</ele><name>TP01392</name><time>2021-12-16T20:21:05Z</time></trkpt>
   <trkpt lat="30.799419" lon="34.739367"><ele>582</ele><name>TP01393</name><time>2021-12-16T20:21:06Z</time></trkpt>
   <trkpt lat="30.799401" lon="34.739599"><ele>582.4</ele><name>TP01394</name><time>2021-12-16T20:21:12Z</time></trkpt>
   <trkpt lat="30.799417" lon="34.739717"><ele>581.8</ele><name>TP01395</name><time>2021-12-16T20:21:15Z</time></trkpt>
   <trkpt lat="30.799457" lon="34.739846"><ele>581.8</ele><name>TP01396</name><time>2021-12-16T20:21:18Z</time></trkpt>
   <trkpt lat="30.799521" lon="34.739958"><ele>581.4</ele><name>TP01397</name><time>2021-12-16T20:21:21Z</time></trkpt>
   <trkpt lat="30.799553" lon="34.739993"><ele>581.2</ele><name>TP01398</name><time>2021-12-16T20:21:22Z</time></trkpt>
   <trkpt lat="30.799608" lon="34.740072"><ele>580.8</ele><name>TP01399</name><time>2021-12-16T20:21:24Z</time></trkpt>
   <trkpt lat="30.799635" lon="34.740112"><ele>579.8</ele><name>TP01400</name><time>2021-12-16T20:21:25Z</time></trkpt>
   <trkpt lat="30.799668" lon="34.740148"><ele>579.2</ele><name>TP01401</name><time>2021-12-16T20:21:26Z</time></trkpt>
   <trkpt lat="30.799704" lon="34.740181"><ele>579.4</ele><name>TP01402</name><time>2021-12-16T20:21:27Z</time></trkpt>
   <trkpt lat="30.799784" lon="34.740257"><ele>578.2</ele><name>TP01403</name><time>2021-12-16T20:21:29Z</time></trkpt>
   <trkpt lat="30.799909" lon="34.740395"><ele>576.6</ele><name>TP01404</name><time>2021-12-16T20:21:32Z</time></trkpt>
   <trkpt lat="30.79995" lon="34.740444"><ele>575.2</ele><name>TP01405</name><time>2021-12-16T20:21:33Z</time></trkpt>
   <trkpt lat="30.800072" lon="34.740575"><ele>574.2</ele><name>TP01406</name><time>2021-12-16T20:21:36Z</time></trkpt>
   <trkpt lat="30.800156" lon="34.740649"><ele>573.4</ele><name>TP01407</name><time>2021-12-16T20:21:38Z</time></trkpt>
   <trkpt lat="30.800228" lon="34.740718"><ele>573.2</ele><name>TP01408</name><time>2021-12-16T20:21:40Z</time></trkpt>
   <trkpt lat="30.800356" lon="34.740833"><ele>572.6</ele><name>TP01409</name><time>2021-12-16T20:21:44Z</time></trkpt>
   <trkpt lat="30.800517" lon="34.740977"><ele>572.2</ele><name>TP01410</name><time>2021-12-16T20:21:50Z</time></trkpt>
   <trkpt lat="30.800577" lon="34.741036"><ele>572.8</ele><name>TP01411</name><time>2021-12-16T20:21:52Z</time></trkpt>
   <trkpt lat="30.800675" lon="34.741146"><ele>573</ele><name>TP01412</name><time>2021-12-16T20:21:56Z</time></trkpt>
   <trkpt lat="30.800832" lon="34.741326"><ele>572.6</ele><name>TP01413</name><time>2021-12-16T20:22:02Z</time></trkpt>
   <trkpt lat="30.800896" lon="34.741416"><ele>573</ele><name>TP01414</name><time>2021-12-16T20:22:05Z</time></trkpt>
   <trkpt lat="30.800908" lon="34.741461"><ele>573.2</ele><name>TP01415</name><time>2021-12-16T20:22:06Z</time></trkpt>
   <trkpt lat="30.800924" lon="34.741589"><ele>573</ele><name>TP01416</name><time>2021-12-16T20:22:09Z</time></trkpt>
   <trkpt lat="30.80095" lon="34.741715"><ele>572.6</ele><name>TP01417</name><time>2021-12-16T20:22:12Z</time></trkpt>
   <trkpt lat="30.800962" lon="34.741802"><ele>572.2</ele><name>TP01418</name><time>2021-12-16T20:22:14Z</time></trkpt>
   <trkpt lat="30.800989" lon="34.741956"><ele>572</ele><name>TP01419</name><time>2021-12-16T20:22:18Z</time></trkpt>
   <trkpt lat="30.801069" lon="34.742146"><ele>572.8</ele><name>TP01420</name><time>2021-12-16T20:22:24Z</time></trkpt>
   <trkpt lat="30.801121" lon="34.742327"><ele>571.4</ele><name>TP01421</name><time>2021-12-16T20:22:29Z</time></trkpt>
   <trkpt lat="30.801114" lon="34.742352"><ele>571</ele><name>TP01422</name><time>2021-12-16T20:22:30Z</time></trkpt>
   <trkpt lat="30.801115" lon="34.742387"><ele>570.6</ele><name>TP01423</name><time>2021-12-16T20:22:32Z</time></trkpt>
   <trkpt lat="30.801118" lon="34.742402"><ele>570.6</ele><name>TP01424</name><time>2021-12-16T20:22:33Z</time></trkpt>
   <trkpt lat="30.801102" lon="34.742481"><ele>569.8</ele><name>TP01425</name><time>2021-12-16T20:22:37Z</time></trkpt>
   <trkpt lat="30.801092" lon="34.742496"><ele>569.6</ele><name>TP01426</name><time>2021-12-16T20:22:38Z</time></trkpt>
   <trkpt lat="30.801063" lon="34.742546"><ele>569</ele><name>TP01427</name><time>2021-12-16T20:22:41Z</time></trkpt>
   <trkpt lat="30.801035" lon="34.742574"><ele>568.8</ele><name>TP01428</name><time>2021-12-16T20:22:43Z</time></trkpt>
   <trkpt lat="30.800991" lon="34.742672"><ele>568.4</ele><name>TP01429</name><time>2021-12-16T20:22:47Z</time></trkpt>
   <trkpt lat="30.800984" lon="34.742698"><ele>568</ele><name>TP01430</name><time>2021-12-16T20:22:48Z</time></trkpt>
   <trkpt lat="30.800983" lon="34.74273"><ele>567.8</ele><name>TP01431</name><time>2021-12-16T20:22:49Z</time></trkpt>
   <trkpt lat="30.80097" lon="34.742886"><ele>567.4</ele><name>TP01432</name><time>2021-12-16T20:22:53Z</time></trkpt>
   <trkpt lat="30.800968" lon="34.742988"><ele>567</ele><name>TP01433</name><time>2021-12-16T20:22:56Z</time></trkpt>
   <trkpt lat="30.80097" lon="34.74301"><ele>566.4</ele><name>TP01434</name><time>2021-12-16T20:22:59Z</time></trkpt>
   <trkpt lat="30.800995" lon="34.743107"><ele>566.8</ele><name>TP01435</name><time>2021-12-16T20:23:05Z</time></trkpt>
   <trkpt lat="30.801042" lon="34.743348"><ele>566.2</ele><name>TP01436</name><time>2021-12-16T20:23:11Z</time></trkpt>
   <trkpt lat="30.801047" lon="34.743434"><ele>565.4</ele><name>TP01437</name><time>2021-12-16T20:23:13Z</time></trkpt>
   <trkpt lat="30.801038" lon="34.743577"><ele>564.4</ele><name>TP01438</name><time>2021-12-16T20:23:16Z</time></trkpt>
   <trkpt lat="30.801029" lon="34.743667"><ele>564.8</ele><name>TP01439</name><time>2021-12-16T20:23:18Z</time></trkpt>
   <trkpt lat="30.800965" lon="34.743888"><ele>563</ele><name>TP01440</name><time>2021-12-16T20:23:24Z</time></trkpt>
   <trkpt lat="30.800931" lon="34.743969"><ele>562</ele><name>TP01441</name><time>2021-12-16T20:23:26Z</time></trkpt>
   <trkpt lat="30.800886" lon="34.744062"><ele>560.8</ele><name>TP01442</name><time>2021-12-16T20:23:28Z</time></trkpt>
   <trkpt lat="30.80086" lon="34.744118"><ele>560.4</ele><name>TP01443</name><time>2021-12-16T20:23:29Z</time></trkpt>
   <trkpt lat="30.800833" lon="34.744178"><ele>559.4</ele><name>TP01444</name><time>2021-12-16T20:23:30Z</time></trkpt>
   <trkpt lat="30.800805" lon="34.744244"><ele>558.4</ele><name>TP01445</name><time>2021-12-16T20:23:31Z</time></trkpt>
   <trkpt lat="30.800782" lon="34.744312"><ele>557</ele><name>TP01446</name><time>2021-12-16T20:23:32Z</time></trkpt>
   <trkpt lat="30.800766" lon="34.74438"><ele>555.2</ele><name>TP01447</name><time>2021-12-16T20:23:33Z</time></trkpt>
   <trkpt lat="30.800749" lon="34.744448"><ele>554.2</ele><name>TP01448</name><time>2021-12-16T20:23:34Z</time></trkpt>
   <trkpt lat="30.800723" lon="34.744517"><ele>553.6</ele><name>TP01449</name><time>2021-12-16T20:23:35Z</time></trkpt>
   <trkpt lat="30.800691" lon="34.744583"><ele>553</ele><name>TP01450</name><time>2021-12-16T20:23:36Z</time></trkpt>
   <trkpt lat="30.800629" lon="34.744712"><ele>552.2</ele><name>TP01451</name><time>2021-12-16T20:23:38Z</time></trkpt>
   <trkpt lat="30.800607" lon="34.744762"><ele>551.6</ele><name>TP01452</name><time>2021-12-16T20:23:39Z</time></trkpt>
   <trkpt lat="30.800607" lon="34.744775"><ele>550.2</ele><name>TP01453</name><time>2021-12-16T20:23:41Z</time></trkpt>
   <trkpt lat="30.800624" lon="34.745001"><ele>547.2</ele><name>TP01454</name><time>2021-12-16T20:26:36Z</time></trkpt>
   <trkpt lat="30.800629" lon="34.74503"><ele>547.2</ele><name>TP01455</name><time>2021-12-16T20:26:37Z</time></trkpt>
   <trkpt lat="30.800638" lon="34.745057"><ele>547.2</ele><name>TP01456</name><time>2021-12-16T20:26:38Z</time></trkpt>
   <trkpt lat="30.800675" lon="34.745168"><ele>547</ele><name>TP01457</name><time>2021-12-16T20:26:42Z</time></trkpt>
   <trkpt lat="30.800726" lon="34.74525"><ele>547.2</ele><name>TP01458</name><time>2021-12-16T20:26:45Z</time></trkpt>
   <trkpt lat="30.800826" lon="34.745443"><ele>546.4</ele><name>TP01459</name><time>2021-12-16T20:26:51Z</time></trkpt>
   <trkpt lat="30.800813" lon="34.745528"><ele>546.2</ele><name>TP01460</name><time>2021-12-16T20:26:53Z</time></trkpt>
   <trkpt lat="30.800791" lon="34.74559"><ele>546.6</ele><name>TP01461</name><time>2021-12-16T20:26:55Z</time></trkpt>
   <trkpt lat="30.80079" lon="34.745659"><ele>547</ele><name>TP01462</name><time>2021-12-16T20:26:57Z</time></trkpt>
   <trkpt lat="30.800806" lon="34.745731"><ele>547</ele><name>TP01463</name><time>2021-12-16T20:26:59Z</time></trkpt>
   <trkpt lat="30.800844" lon="34.745834"><ele>546.6</ele><name>TP01464</name><time>2021-12-16T20:27:02Z</time></trkpt>
   <trkpt lat="30.800892" lon="34.745952"><ele>546.2</ele><name>TP01465</name><time>2021-12-16T20:27:05Z</time></trkpt>
   <trkpt lat="30.800966" lon="34.746138"><ele>545.2</ele><name>TP01466</name><time>2021-12-16T20:27:09Z</time></trkpt>
   <trkpt lat="30.801025" lon="34.746225"><ele>544</ele><name>TP01467</name><time>2021-12-16T20:27:11Z</time></trkpt>
   <trkpt lat="30.801062" lon="34.746263"><ele>543.8</ele><name>TP01468</name><time>2021-12-16T20:27:12Z</time></trkpt>
   <trkpt lat="30.801127" lon="34.74634"><ele>543.6</ele><name>TP01469</name><time>2021-12-16T20:27:14Z</time></trkpt>
   <trkpt lat="30.801183" lon="34.746416"><ele>543.6</ele><name>TP01470</name><time>2021-12-16T20:27:16Z</time></trkpt>
   <trkpt lat="30.801245" lon="34.746553"><ele>543.4</ele><name>TP01471</name><time>2021-12-16T20:27:20Z</time></trkpt>
   <trkpt lat="30.801231" lon="34.746592"><ele>542.8</ele><name>TP01472</name><time>2021-12-16T20:27:21Z</time></trkpt>
   <trkpt lat="30.801177" lon="34.746739"><ele>542.6</ele><name>TP01473</name><time>2021-12-16T20:27:25Z</time></trkpt>
   <trkpt lat="30.801167" lon="34.746782"><ele>542.6</ele><name>TP01474</name><time>2021-12-16T20:27:26Z</time></trkpt>
   <trkpt lat="30.801081" lon="34.746898"><ele>542.2</ele><name>TP01475</name><time>2021-12-16T20:27:30Z</time></trkpt>
   <trkpt lat="30.800966" lon="34.746938"><ele>541.6</ele><name>TP01476</name><time>2021-12-16T20:27:33Z</time></trkpt>
   <trkpt lat="30.800892" lon="34.746954"><ele>541.4</ele><name>TP01477</name><time>2021-12-16T20:27:35Z</time></trkpt>
   <trkpt lat="30.800796" lon="34.746984"><ele>541.6</ele><name>TP01478</name><time>2021-12-16T20:27:38Z</time></trkpt>
   <trkpt lat="30.800776" lon="34.747005"><ele>541.8</ele><name>TP01479</name><time>2021-12-16T20:27:39Z</time></trkpt>
   <trkpt lat="30.800747" lon="34.747091"><ele>542.8</ele><name>TP01480</name><time>2021-12-16T20:27:42Z</time></trkpt>
   <trkpt lat="30.800731" lon="34.747155"><ele>542.8</ele><name>TP01481</name><time>2021-12-16T20:27:44Z</time></trkpt>
   <trkpt lat="30.800644" lon="34.747324"><ele>542</ele><name>TP01482</name><time>2021-12-16T20:27:50Z</time></trkpt>
   <trkpt lat="30.800533" lon="34.74744"><ele>541.4</ele><name>TP01483</name><time>2021-12-16T20:27:56Z</time></trkpt>
   <trkpt lat="30.800459" lon="34.747483"><ele>541.6</ele><name>TP01484</name><time>2021-12-16T20:27:59Z</time></trkpt>
   <trkpt lat="30.800356" lon="34.747548"><ele>541.8</ele><name>TP01485</name><time>2021-12-16T20:28:03Z</time></trkpt>
   <trkpt lat="30.800205" lon="34.747614"><ele>541.2</ele><name>TP01486</name><time>2021-12-16T20:28:08Z</time></trkpt>
   <trkpt lat="30.80009" lon="34.747637"><ele>540.4</ele><name>TP01487</name><time>2021-12-16T20:28:11Z</time></trkpt>
   <trkpt lat="30.800004" lon="34.747632"><ele>540</ele><name>TP01488</name><time>2021-12-16T20:28:13Z</time></trkpt>
   <trkpt lat="30.799686" lon="34.747585"><ele>539.4</ele><name>TP01489</name><time>2021-12-16T20:28:21Z</time></trkpt>
   <trkpt lat="30.79949" lon="34.747558"><ele>539.6</ele><name>TP01490</name><time>2021-12-16T20:28:27Z</time></trkpt>
   <trkpt lat="30.799425" lon="34.747619"><ele>539.6</ele><name>TP01491</name><time>2021-12-16T20:28:30Z</time></trkpt>
   <trkpt lat="30.799416" lon="34.747655"><ele>539.6</ele><name>TP01492</name><time>2021-12-16T20:28:31Z</time></trkpt>
   <trkpt lat="30.79941" lon="34.747699"><ele>539.4</ele><name>TP01493</name><time>2021-12-16T20:28:32Z</time></trkpt>
   <trkpt lat="30.799417" lon="34.747843"><ele>539</ele><name>TP01494</name><time>2021-12-16T20:28:35Z</time></trkpt>
   <trkpt lat="30.799421" lon="34.747895"><ele>539</ele><name>TP01495</name><time>2021-12-16T20:28:36Z</time></trkpt>
   <trkpt lat="30.799413" lon="34.747986"><ele>538.8</ele><name>TP01496</name><time>2021-12-16T20:28:38Z</time></trkpt>
   <trkpt lat="30.799383" lon="34.748061"><ele>538.6</ele><name>TP01497</name><time>2021-12-16T20:28:40Z</time></trkpt>
   <trkpt lat="30.799347" lon="34.748115"><ele>539</ele><name>TP01498</name><time>2021-12-16T20:28:42Z</time></trkpt>
   <trkpt lat="30.799268" lon="34.748201"><ele>539.6</ele><name>TP01499</name><time>2021-12-16T20:28:46Z</time></trkpt>
   <trkpt lat="30.799216" lon="34.748251"><ele>539.6</ele><name>TP01500</name><time>2021-12-16T20:28:49Z</time></trkpt>
   <trkpt lat="30.799165" lon="34.748311"><ele>539.8</ele><name>TP01501</name><time>2021-12-16T20:28:52Z</time></trkpt>
   <trkpt lat="30.799102" lon="34.748354"><ele>540.6</ele><name>TP01502</name><time>2021-12-16T20:28:55Z</time></trkpt>
   <trkpt lat="30.798999" lon="34.748417"><ele>540.8</ele><name>TP01503</name><time>2021-12-16T20:28:59Z</time></trkpt>
   <trkpt lat="30.798844" lon="34.748503"><ele>540.2</ele><name>TP01504</name><time>2021-12-16T20:29:05Z</time></trkpt>
   <trkpt lat="30.798808" lon="34.748546"><ele>540.2</ele><name>TP01505</name><time>2021-12-16T20:29:07Z</time></trkpt>
   <trkpt lat="30.798695" lon="34.748746"><ele>540.4</ele><name>TP01506</name><time>2021-12-16T20:29:14Z</time></trkpt>
   <trkpt lat="30.798631" lon="34.748943"><ele>540</ele><name>TP01507</name><time>2021-12-16T20:29:20Z</time></trkpt>
   <trkpt lat="30.798626" lon="34.748976"><ele>539.8</ele><name>TP01508</name><time>2021-12-16T20:29:21Z</time></trkpt>
   <trkpt lat="30.798609" lon="34.749035"><ele>539.4</ele><name>TP01509</name><time>2021-12-16T20:29:23Z</time></trkpt>
   <trkpt lat="30.798578" lon="34.749105"><ele>538.4</ele><name>TP01510</name><time>2021-12-16T20:29:25Z</time></trkpt>
   <trkpt lat="30.798557" lon="34.749147"><ele>538</ele><name>TP01511</name><time>2021-12-16T20:29:26Z</time></trkpt>
   <trkpt lat="30.798492" lon="34.74929"><ele>536.8</ele><name>TP01512</name><time>2021-12-16T20:29:29Z</time></trkpt>
   <trkpt lat="30.798461" lon="34.749338"><ele>536.8</ele><name>TP01513</name><time>2021-12-16T20:29:30Z</time></trkpt>
   <trkpt lat="30.798398" lon="34.749406"><ele>536.4</ele><name>TP01514</name><time>2021-12-16T20:29:32Z</time></trkpt>
   <trkpt lat="30.798327" lon="34.749456"><ele>535.6</ele><name>TP01515</name><time>2021-12-16T20:29:34Z</time></trkpt>
   <trkpt lat="30.798168" lon="34.749554"><ele>535.4</ele><name>TP01516</name><time>2021-12-16T20:29:39Z</time></trkpt>
   <trkpt lat="30.798066" lon="34.749628"><ele>535.6</ele><name>TP01517</name><time>2021-12-16T20:29:43Z</time></trkpt>
   <trkpt lat="30.798057" lon="34.749659"><ele>535.6</ele><name>TP01518</name><time>2021-12-16T20:29:44Z</time></trkpt>
   <trkpt lat="30.798052" lon="34.749803"><ele>535.6</ele><name>TP01519</name><time>2021-12-16T20:29:49Z</time></trkpt>
   <trkpt lat="30.798067" lon="34.749901"><ele>535.6</ele><name>TP01520</name><time>2021-12-16T20:29:52Z</time></trkpt>
   <trkpt lat="30.798062" lon="34.750072"><ele>535.8</ele><name>TP01521</name><time>2021-12-16T20:29:57Z</time></trkpt>
   <trkpt lat="30.797995" lon="34.750302"><ele>535.2</ele><name>TP01522</name><time>2021-12-16T20:30:04Z</time></trkpt>
   <trkpt lat="30.797935" lon="34.750399"><ele>534.6</ele><name>TP01523</name><time>2021-12-16T20:30:08Z</time></trkpt>
   <trkpt lat="30.797899" lon="34.750438"><ele>534.4</ele><name>TP01524</name><time>2021-12-16T20:30:10Z</time></trkpt>
   <trkpt lat="30.797776" lon="34.750558"><ele>534.6</ele><name>TP01525</name><time>2021-12-16T20:30:17Z</time></trkpt>
   <trkpt lat="30.797711" lon="34.750694"><ele>534.4</ele><name>TP01526</name><time>2021-12-16T20:30:21Z</time></trkpt>
   <trkpt lat="30.797624" lon="34.750811"><ele>534.2</ele><name>TP01527</name><time>2021-12-16T20:30:25Z</time></trkpt>
   <trkpt lat="30.7976" lon="34.750831"><ele>534.4</ele><name>TP01528</name><time>2021-12-16T20:30:26Z</time></trkpt>
   <trkpt lat="30.797549" lon="34.750882"><ele>534.8</ele><name>TP01529</name><time>2021-12-16T20:30:29Z</time></trkpt>
   <trkpt lat="30.797523" lon="34.750912"><ele>535</ele><name>TP01530</name><time>2021-12-16T20:30:31Z</time></trkpt>
   <trkpt lat="30.797462" lon="34.751012"><ele>535.6</ele><name>TP01531</name><time>2021-12-16T20:30:36Z</time></trkpt>
   <trkpt lat="30.797451" lon="34.751054"><ele>536.2</ele><name>TP01532</name><time>2021-12-16T20:30:38Z</time></trkpt>
   <trkpt lat="30.797371" lon="34.751215"><ele>536.2</ele><name>TP01533</name><time>2021-12-16T20:30:45Z</time></trkpt>
   <trkpt lat="30.797303" lon="34.751387"><ele>536.4</ele><name>TP01534</name><time>2021-12-16T20:30:51Z</time></trkpt>
   <trkpt lat="30.797238" lon="34.751577"><ele>536.8</ele><name>TP01535</name><time>2021-12-16T20:30:58Z</time></trkpt>
   <trkpt lat="30.797181" lon="34.751775"><ele>537.4</ele><name>TP01536</name><time>2021-12-16T20:31:06Z</time></trkpt>
   <trkpt lat="30.797129" lon="34.751932"><ele>537.6</ele><name>TP01537</name><time>2021-12-16T20:31:13Z</time></trkpt>
   <trkpt lat="30.797121" lon="34.751953"><ele>537.6</ele><name>TP01538</name><time>2021-12-16T20:31:14Z</time></trkpt>
   <trkpt lat="30.797075" lon="34.752099"><ele>537.4</ele><name>TP01539</name><time>2021-12-16T20:31:20Z</time></trkpt>
   <trkpt lat="30.797065" lon="34.752126"><ele>537.2</ele><name>TP01540</name><time>2021-12-16T20:31:21Z</time></trkpt>
   <trkpt lat="30.797034" lon="34.752248"><ele>537.2</ele><name>TP01541</name><time>2021-12-16T20:31:26Z</time></trkpt>
   <trkpt lat="30.797025" lon="34.752267"><ele>537.2</ele><name>TP01542</name><time>2021-12-16T20:31:27Z</time></trkpt>
   <trkpt lat="30.796959" lon="34.7523"><ele>536.8</ele><name>TP01543</name><time>2021-12-16T20:31:31Z</time></trkpt>
   <trkpt lat="30.796945" lon="34.752294"><ele>536.6</ele><name>TP01544</name><time>2021-12-16T20:31:32Z</time></trkpt>
   <trkpt lat="30.796931" lon="34.752281"><ele>536.4</ele><name>TP01545</name><time>2021-12-16T20:31:34Z</time></trkpt>
   <trkpt lat="30.796944" lon="34.7523"><ele>536.8</ele><name>TP01546</name><time>2021-12-16T20:34:25Z</time></trkpt>
   <trkpt lat="30.796933" lon="34.752294"><ele>536.8</ele><name>TP01547</name><time>2021-12-16T20:34:26Z</time></trkpt>
   <trkpt lat="30.796923" lon="34.752285"><ele>536.8</ele><name>TP01548</name><time>2021-12-16T20:34:27Z</time></trkpt>
   <trkpt lat="30.796921" lon="34.752281"><ele>536.8</ele><name>TP01549</name><time>2021-12-16T20:34:29Z</time></trkpt>
   <trkpt lat="30.796922" lon="34.752254"><ele>536.8</ele><name>TP01550</name><time>2021-12-16T20:34:52Z</time></trkpt>
   <trkpt lat="30.796921" lon="34.752243"><ele>536.8</ele><name>TP01551</name><time>2021-12-16T20:34:53Z</time></trkpt>
   <trkpt lat="30.796899" lon="34.752205"><ele>537.2</ele><name>TP01552</name><time>2021-12-16T20:34:55Z</time></trkpt>
   <trkpt lat="30.796816" lon="34.752076"><ele>537</ele><name>TP01553</name><time>2021-12-16T20:35:00Z</time></trkpt>
   <trkpt lat="30.796721" lon="34.751892"><ele>537.8</ele><name>TP01554</name><time>2021-12-16T20:35:07Z</time></trkpt>
   <trkpt lat="30.796709" lon="34.751865"><ele>538.2</ele><name>TP01555</name><time>2021-12-16T20:35:08Z</time></trkpt>
   <trkpt lat="30.796698" lon="34.751837"><ele>538.4</ele><name>TP01556</name><time>2021-12-16T20:35:09Z</time></trkpt>
   <trkpt lat="30.796681" lon="34.751787"><ele>538.6</ele><name>TP01557</name><time>2021-12-16T20:35:11Z</time></trkpt>
   <trkpt lat="30.79665" lon="34.751709"><ele>539.2</ele><name>TP01558</name><time>2021-12-16T20:35:14Z</time></trkpt>
   <trkpt lat="30.796639" lon="34.751678"><ele>539.2</ele><name>TP01559</name><time>2021-12-16T20:35:15Z</time></trkpt>
   <trkpt lat="30.796625" lon="34.751647"><ele>539.4</ele><name>TP01560</name><time>2021-12-16T20:35:16Z</time></trkpt>
   <trkpt lat="30.796588" lon="34.751564"><ele>539.6</ele><name>TP01561</name><time>2021-12-16T20:35:19Z</time></trkpt>
   <trkpt lat="30.796564" lon="34.751508"><ele>539.6</ele><name>TP01562</name><time>2021-12-16T20:35:21Z</time></trkpt>
   <trkpt lat="30.796491" lon="34.751281"><ele>539.2</ele><name>TP01563</name><time>2021-12-16T20:35:28Z</time></trkpt>
   <trkpt lat="30.796483" lon="34.751251"><ele>539.2</ele><name>TP01564</name><time>2021-12-16T20:35:29Z</time></trkpt>
   <trkpt lat="30.796466" lon="34.751185"><ele>539.6</ele><name>TP01565</name><time>2021-12-16T20:35:31Z</time></trkpt>
   <trkpt lat="30.796424" lon="34.751034"><ele>540</ele><name>TP01566</name><time>2021-12-16T20:35:36Z</time></trkpt>
   <trkpt lat="30.796307" lon="34.750835"><ele>540.4</ele><name>TP01567</name><time>2021-12-16T20:35:43Z</time></trkpt>
   <trkpt lat="30.796194" lon="34.750661"><ele>540</ele><name>TP01568</name><time>2021-12-16T20:35:50Z</time></trkpt>
   <trkpt lat="30.796131" lon="34.750593"><ele>540.8</ele><name>TP01569</name><time>2021-12-16T20:35:53Z</time></trkpt>
   <trkpt lat="30.79601" lon="34.750475"><ele>541.4</ele><name>TP01570</name><time>2021-12-16T20:35:58Z</time></trkpt>
   <trkpt lat="30.795864" lon="34.75032"><ele>541.4</ele><name>TP01571</name><time>2021-12-16T20:36:05Z</time></trkpt>
   <trkpt lat="30.79581" lon="34.750251"><ele>542</ele><name>TP01572</name><time>2021-12-16T20:36:08Z</time></trkpt>
   <trkpt lat="30.795748" lon="34.75015"><ele>542.4</ele><name>TP01573</name><time>2021-12-16T20:36:12Z</time></trkpt>
   <trkpt lat="30.795698" lon="34.750024"><ele>543</ele><name>TP01574</name><time>2021-12-16T20:36:18Z</time></trkpt>
   <trkpt lat="30.79567" lon="34.749987"><ele>543.4</ele><name>TP01575</name><time>2021-12-16T20:36:20Z</time></trkpt>
   <trkpt lat="30.795541" lon="34.749824"><ele>544</ele><name>TP01576</name><time>2021-12-16T20:36:28Z</time></trkpt>
   <trkpt lat="30.795524" lon="34.749804"><ele>544</ele><name>TP01577</name><time>2021-12-16T20:36:29Z</time></trkpt>
   <trkpt lat="30.795363" lon="34.749647"><ele>544.4</ele><name>TP01578</name><time>2021-12-16T20:36:38Z</time></trkpt>
   <trkpt lat="30.795206" lon="34.749541"><ele>543.8</ele><name>TP01579</name><time>2021-12-16T20:36:45Z</time></trkpt>
   <trkpt lat="30.795182" lon="34.749523"><ele>543.8</ele><name>TP01580</name><time>2021-12-16T20:36:46Z</time></trkpt>
   <trkpt lat="30.795082" lon="34.749413"><ele>544.4</ele><name>TP01581</name><time>2021-12-16T20:36:52Z</time></trkpt>
   <trkpt lat="30.795069" lon="34.749392"><ele>544.4</ele><name>TP01582</name><time>2021-12-16T20:36:53Z</time></trkpt>
   <trkpt lat="30.794986" lon="34.749267"><ele>544.6</ele><name>TP01583</name><time>2021-12-16T20:36:59Z</time></trkpt>
   <trkpt lat="30.794862" lon="34.749202"><ele>544.6</ele><name>TP01584</name><time>2021-12-16T20:37:04Z</time></trkpt>
   <trkpt lat="30.794727" lon="34.749156"><ele>544.6</ele><name>TP01585</name><time>2021-12-16T20:37:10Z</time></trkpt>
   <trkpt lat="30.794678" lon="34.749004"><ele>544.2</ele><name>TP01586</name><time>2021-12-16T20:37:16Z</time></trkpt>
   <trkpt lat="30.794707" lon="34.74886"><ele>544.4</ele><name>TP01587</name><time>2021-12-16T20:37:21Z</time></trkpt>
   <trkpt lat="30.794664" lon="34.748774"><ele>545.2</ele><name>TP01588</name><time>2021-12-16T20:37:24Z</time></trkpt>
   <trkpt lat="30.794651" lon="34.748746"><ele>545.2</ele><name>TP01589</name><time>2021-12-16T20:37:25Z</time></trkpt>
   <trkpt lat="30.794625" lon="34.748692"><ele>545.4</ele><name>TP01590</name><time>2021-12-16T20:37:27Z</time></trkpt>
   <trkpt lat="30.794557" lon="34.74853"><ele>545.8</ele><name>TP01591</name><time>2021-12-16T20:37:33Z</time></trkpt>
   <trkpt lat="30.794513" lon="34.74836"><ele>545.4</ele><name>TP01592</name><time>2021-12-16T20:37:38Z</time></trkpt>
   <trkpt lat="30.794449" lon="34.748179"><ele>545.4</ele><name>TP01593</name><time>2021-12-16T20:37:43Z</time></trkpt>
   <trkpt lat="30.794433" lon="34.748142"><ele>545.4</ele><name>TP01594</name><time>2021-12-16T20:37:44Z</time></trkpt>
   <trkpt lat="30.794318" lon="34.747896"><ele>545.6</ele><name>TP01595</name><time>2021-12-16T20:37:51Z</time></trkpt>
   <trkpt lat="30.79415" lon="34.747648"><ele>545.8</ele><name>TP01596</name><time>2021-12-16T20:37:59Z</time></trkpt>
   <trkpt lat="30.794055" lon="34.74749"><ele>546.4</ele><name>TP01597</name><time>2021-12-16T20:38:04Z</time></trkpt>
   <trkpt lat="30.794033" lon="34.74743"><ele>546.6</ele><name>TP01598</name><time>2021-12-16T20:38:06Z</time></trkpt>
   <trkpt lat="30.794002" lon="34.747234"><ele>546.6</ele><name>TP01599</name><time>2021-12-16T20:38:12Z</time></trkpt>
   <trkpt lat="30.793956" lon="34.747089"><ele>546.4</ele><name>TP01600</name><time>2021-12-16T20:38:18Z</time></trkpt>
   <trkpt lat="30.793918" lon="34.746962"><ele>547.2</ele><name>TP01601</name><time>2021-12-16T20:38:22Z</time></trkpt>
   <trkpt lat="30.793902" lon="34.746934"><ele>547.4</ele><name>TP01602</name><time>2021-12-16T20:38:23Z</time></trkpt>
   <trkpt lat="30.793885" lon="34.746867"><ele>548.2</ele><name>TP01603</name><time>2021-12-16T20:38:26Z</time></trkpt>
   <trkpt lat="30.793882" lon="34.746844"><ele>548.6</ele><name>TP01604</name><time>2021-12-16T20:38:27Z</time></trkpt>
   <trkpt lat="30.793879" lon="34.746824"><ele>548.8</ele><name>TP01605</name><time>2021-12-16T20:38:28Z</time></trkpt>
   <trkpt lat="30.793869" lon="34.746773"><ele>549.4</ele><name>TP01606</name><time>2021-12-16T20:38:31Z</time></trkpt>
   <trkpt lat="30.793839" lon="34.746703"><ele>549.6</ele><name>TP01607</name><time>2021-12-16T20:38:35Z</time></trkpt>
   <trkpt lat="30.793821" lon="34.746675"><ele>549.8</ele><name>TP01608</name><time>2021-12-16T20:38:37Z</time></trkpt>
   <trkpt lat="30.793813" lon="34.746664"><ele>550</ele><name>TP01609</name><time>2021-12-16T20:38:38Z</time></trkpt>
   <trkpt lat="30.793775" lon="34.746629"><ele>550.2</ele><name>TP01610</name><time>2021-12-16T20:38:41Z</time></trkpt>
   <trkpt lat="30.79375" lon="34.746607"><ele>550.8</ele><name>TP01611</name><time>2021-12-16T20:38:43Z</time></trkpt>
   <trkpt lat="30.793689" lon="34.746544"><ele>551.6</ele><name>TP01612</name><time>2021-12-16T20:38:47Z</time></trkpt>
   <trkpt lat="30.793661" lon="34.746487"><ele>552</ele><name>TP01613</name><time>2021-12-16T20:38:51Z</time></trkpt>
   <trkpt lat="30.79365" lon="34.746456"><ele>552</ele><name>TP01614</name><time>2021-12-16T20:38:53Z</time></trkpt>
   <trkpt lat="30.793635" lon="34.746347"><ele>552.6</ele><name>TP01615</name><time>2021-12-16T20:39:00Z</time></trkpt>
   <trkpt lat="30.793617" lon="34.746247"><ele>552.6</ele><name>TP01616</name><time>2021-12-16T20:39:06Z</time></trkpt>
   <trkpt lat="30.793639" lon="34.746107"><ele>551.8</ele><name>TP01617</name><time>2021-12-16T20:39:12Z</time></trkpt>
   <trkpt lat="30.793635" lon="34.745949"><ele>550.8</ele><name>TP01618</name><time>2021-12-16T20:39:16Z</time></trkpt>
   <trkpt lat="30.793638" lon="34.745741"><ele>551</ele><name>TP01619</name><time>2021-12-16T20:39:22Z</time></trkpt>
   <trkpt lat="30.793592" lon="34.745587"><ele>551.4</ele><name>TP01620</name><time>2021-12-16T20:39:27Z</time></trkpt>
   <trkpt lat="30.793525" lon="34.745509"><ele>552</ele><name>TP01621</name><time>2021-12-16T20:39:30Z</time></trkpt>
   <trkpt lat="30.793494" lon="34.745445"><ele>552.4</ele><name>TP01622</name><time>2021-12-16T20:39:33Z</time></trkpt>
   <trkpt lat="30.7935" lon="34.745334"><ele>552.8</ele><name>TP01623</name><time>2021-12-16T20:39:39Z</time></trkpt>
   <trkpt lat="30.793496" lon="34.745242"><ele>553</ele><name>TP01624</name><time>2021-12-16T20:39:43Z</time></trkpt>
   <trkpt lat="30.793508" lon="34.74508"><ele>554</ele><name>TP01625</name><time>2021-12-16T20:39:50Z</time></trkpt>
   <trkpt lat="30.793482" lon="34.744901"><ele>554.8</ele><name>TP01626</name><time>2021-12-16T20:39:56Z</time></trkpt>
   <trkpt lat="30.793466" lon="34.74478"><ele>555</ele><name>TP01627</name><time>2021-12-16T20:40:00Z</time></trkpt>
   <trkpt lat="30.793481" lon="34.744708"><ele>555.4</ele><name>TP01628</name><time>2021-12-16T20:40:03Z</time></trkpt>
   <trkpt lat="30.793477" lon="34.744601"><ele>556</ele><name>TP01629</name><time>2021-12-16T20:40:07Z</time></trkpt>
   <trkpt lat="30.793466" lon="34.744553"><ele>556.2</ele><name>TP01630</name><time>2021-12-16T20:40:09Z</time></trkpt>
   <trkpt lat="30.79348" lon="34.744392"><ele>557</ele><name>TP01631</name><time>2021-12-16T20:40:16Z</time></trkpt>
   <trkpt lat="30.793482" lon="34.744344"><ele>557.6</ele><name>TP01632</name><time>2021-12-16T20:40:18Z</time></trkpt>
   <trkpt lat="30.793455" lon="34.744239"><ele>558</ele><name>TP01633</name><time>2021-12-16T20:40:23Z</time></trkpt>
   <trkpt lat="30.793431" lon="34.744168"><ele>558.6</ele><name>TP01634</name><time>2021-12-16T20:40:26Z</time></trkpt>
   <trkpt lat="30.793409" lon="34.744071"><ele>559.4</ele><name>TP01635</name><time>2021-12-16T20:40:30Z</time></trkpt>
   <trkpt lat="30.793401" lon="34.744036"><ele>559.6</ele><name>TP01636</name><time>2021-12-16T20:40:32Z</time></trkpt>
   <trkpt lat="30.793384" lon="34.744011"><ele>559.8</ele><name>TP01637</name><time>2021-12-16T20:40:33Z</time></trkpt>
   <trkpt lat="30.793359" lon="34.743972"><ele>560.2</ele><name>TP01638</name><time>2021-12-16T20:40:35Z</time></trkpt>
   <trkpt lat="30.793354" lon="34.74393"><ele>560.6</ele><name>TP01639</name><time>2021-12-16T20:40:37Z</time></trkpt>
   <trkpt lat="30.793356" lon="34.743845"><ele>561.6</ele><name>TP01640</name><time>2021-12-16T20:40:41Z</time></trkpt>
   <trkpt lat="30.793359" lon="34.743805"><ele>561.8</ele><name>TP01641</name><time>2021-12-16T20:40:43Z</time></trkpt>
   <trkpt lat="30.793386" lon="34.743686"><ele>562.2</ele><name>TP01642</name><time>2021-12-16T20:40:49Z</time></trkpt>
   <trkpt lat="30.793383" lon="34.743602"><ele>562.8</ele><name>TP01643</name><time>2021-12-16T20:40:53Z</time></trkpt>
   <trkpt lat="30.793394" lon="34.74357"><ele>563.2</ele><name>TP01644</name><time>2021-12-16T20:40:55Z</time></trkpt>
   <trkpt lat="30.793405" lon="34.743498"><ele>563.8</ele><name>TP01645</name><time>2021-12-16T20:40:58Z</time></trkpt>
   <trkpt lat="30.793414" lon="34.743457"><ele>564</ele><name>TP01646</name><time>2021-12-16T20:41:00Z</time></trkpt>
   <trkpt lat="30.793429" lon="34.743407"><ele>564.2</ele><name>TP01647</name><time>2021-12-16T20:41:03Z</time></trkpt>
   <trkpt lat="30.793439" lon="34.743313"><ele>564.8</ele><name>TP01648</name><time>2021-12-16T20:41:09Z</time></trkpt>
   <trkpt lat="30.793438" lon="34.743291"><ele>565</ele><name>TP01649</name><time>2021-12-16T20:41:10Z</time></trkpt>
   <trkpt lat="30.793445" lon="34.743202"><ele>566.2</ele><name>TP01650</name><time>2021-12-16T20:41:15Z</time></trkpt>
   <trkpt lat="30.793445" lon="34.743184"><ele>566.4</ele><name>TP01651</name><time>2021-12-16T20:41:16Z</time></trkpt>
   <trkpt lat="30.793443" lon="34.743079"><ele>567.2</ele><name>TP01652</name><time>2021-12-16T20:41:22Z</time></trkpt>
   <trkpt lat="30.793442" lon="34.743065"><ele>567.2</ele><name>TP01653</name><time>2021-12-16T20:41:23Z</time></trkpt>
   <trkpt lat="30.793428" lon="34.74302"><ele>567.6</ele><name>TP01654</name><time>2021-12-16T20:41:26Z</time></trkpt>
   <trkpt lat="30.793416" lon="34.742991"><ele>567.8</ele><name>TP01655</name><time>2021-12-16T20:41:28Z</time></trkpt>
   <trkpt lat="30.793401" lon="34.742896"><ele>568.2</ele><name>TP01656</name><time>2021-12-16T20:41:33Z</time></trkpt>
   <trkpt lat="30.793403" lon="34.742881"><ele>568.2</ele><name>TP01657</name><time>2021-12-16T20:41:34Z</time></trkpt>
   <trkpt lat="30.793402" lon="34.742813"><ele>568.6</ele><name>TP01658</name><time>2021-12-16T20:41:38Z</time></trkpt>
   <trkpt lat="30.793404" lon="34.742789"><ele>569.2</ele><name>TP01659</name><time>2021-12-16T20:41:40Z</time></trkpt>
   <trkpt lat="30.793408" lon="34.742776"><ele>569.4</ele><name>TP01660</name><time>2021-12-16T20:41:41Z</time></trkpt>
   <trkpt lat="30.793399" lon="34.742704"><ele>570</ele><name>TP01661</name><time>2021-12-16T20:41:46Z</time></trkpt>
   <trkpt lat="30.793399" lon="34.742684"><ele>570.2</ele><name>TP01662</name><time>2021-12-16T20:41:48Z</time></trkpt>
   <trkpt lat="30.793399" lon="34.742672"><ele>570.4</ele><name>TP01663</name><time>2021-12-16T20:41:49Z</time></trkpt>
   <trkpt lat="30.793352" lon="34.742543"><ele>571.8</ele><name>TP01664</name><time>2021-12-16T20:42:16Z</time></trkpt>
   <trkpt lat="30.793347" lon="34.742533"><ele>571.8</ele><name>TP01665</name><time>2021-12-16T20:42:17Z</time></trkpt>
   <trkpt lat="30.793342" lon="34.742524"><ele>571.8</ele><name>TP01666</name><time>2021-12-16T20:42:18Z</time></trkpt>
   <trkpt lat="30.793329" lon="34.742464"><ele>572.6</ele><name>TP01667</name><time>2021-12-16T20:42:25Z</time></trkpt>
   <trkpt lat="30.793338" lon="34.742399"><ele>573.2</ele><name>TP01668</name><time>2021-12-16T20:42:31Z</time></trkpt>
   <trkpt lat="30.793336" lon="34.742355"><ele>573.4</ele><name>TP01669</name><time>2021-12-16T20:42:35Z</time></trkpt>
   <trkpt lat="30.793343" lon="34.742335"><ele>573.6</ele><name>TP01670</name><time>2021-12-16T20:42:37Z</time></trkpt>
   <trkpt lat="30.793347" lon="34.742297"><ele>573.6</ele><name>TP01671</name><time>2021-12-16T20:42:40Z</time></trkpt>
   <trkpt lat="30.793352" lon="34.742218"><ele>574.6</ele><name>TP01672</name><time>2021-12-16T20:42:48Z</time></trkpt>
   <trkpt lat="30.793353" lon="34.742208"><ele>574.8</ele><name>TP01673</name><time>2021-12-16T20:42:49Z</time></trkpt>
   <trkpt lat="30.793351" lon="34.742169"><ele>575.2</ele><name>TP01674</name><time>2021-12-16T20:42:53Z</time></trkpt>
   <trkpt lat="30.793343" lon="34.742155"><ele>575.4</ele><name>TP01675</name><time>2021-12-16T20:42:55Z</time></trkpt>
   <trkpt lat="30.793347" lon="34.742134"><ele>575.8</ele><name>TP01676</name><time>2021-12-16T20:42:58Z</time></trkpt>
   <trkpt lat="30.793347" lon="34.742115"><ele>576.2</ele><name>TP01677</name><time>2021-12-16T20:43:00Z</time></trkpt>
   <trkpt lat="30.793326" lon="34.742088"><ele>576.4</ele><name>TP01678</name><time>2021-12-16T20:43:05Z</time></trkpt>
   <trkpt lat="30.793308" lon="34.742054"><ele>576.4</ele><name>TP01679</name><time>2021-12-16T20:43:09Z</time></trkpt>
   <trkpt lat="30.79331" lon="34.742048"><ele>576.4</ele><name>TP01680</name><time>2021-12-16T20:43:10Z</time></trkpt>
   <trkpt lat="30.793332" lon="34.742028"><ele>577.4</ele><name>TP01681</name><time>2021-12-16T20:45:42Z</time></trkpt>
   <trkpt lat="30.793334" lon="34.742015"><ele>577.4</ele><name>TP01682</name><time>2021-12-16T20:45:43Z</time></trkpt>
   <trkpt lat="30.793325" lon="34.741984"><ele>577.4</ele><name>TP01683</name><time>2021-12-16T20:45:45Z</time></trkpt>
   <trkpt lat="30.793309" lon="34.741936"><ele>577.4</ele><name>TP01684</name><time>2021-12-16T20:45:48Z</time></trkpt>
   <trkpt lat="30.793246" lon="34.741791"><ele>577.2</ele><name>TP01685</name><time>2021-12-16T20:45:54Z</time></trkpt>
   <trkpt lat="30.793146" lon="34.741667"><ele>577.2</ele><name>TP01686</name><time>2021-12-16T20:45:59Z</time></trkpt>
   <trkpt lat="30.793115" lon="34.741536"><ele>576.8</ele><name>TP01687</name><time>2021-12-16T20:46:04Z</time></trkpt>
   <trkpt lat="30.793093" lon="34.741363"><ele>577</ele><name>TP01688</name><time>2021-12-16T20:46:11Z</time></trkpt>
   <trkpt lat="30.79308" lon="34.741322"><ele>577.2</ele><name>TP01689</name><time>2021-12-16T20:46:13Z</time></trkpt>
   <trkpt lat="30.793058" lon="34.74124"><ele>577.2</ele><name>TP01690</name><time>2021-12-16T20:46:16Z</time></trkpt>
   <trkpt lat="30.793029" lon="34.741148"><ele>577.2</ele><name>TP01691</name><time>2021-12-16T20:46:20Z</time></trkpt>
   <trkpt lat="30.793023" lon="34.741114"><ele>577</ele><name>TP01692</name><time>2021-12-16T20:46:22Z</time></trkpt>
   <trkpt lat="30.793008" lon="34.74106"><ele>577.2</ele><name>TP01693</name><time>2021-12-16T20:46:25Z</time></trkpt>
   <trkpt lat="30.792958" lon="34.741001"><ele>576.4</ele><name>TP01694</name><time>2021-12-16T20:46:29Z</time></trkpt>
   <trkpt lat="30.792924" lon="34.740974"><ele>576.4</ele><name>TP01695</name><time>2021-12-16T20:46:31Z</time></trkpt>
   <trkpt lat="30.7929" lon="34.740926"><ele>576.2</ele><name>TP01696</name><time>2021-12-16T20:46:33Z</time></trkpt>
   <trkpt lat="30.792894" lon="34.740884"><ele>575.8</ele><name>TP01697</name><time>2021-12-16T20:46:35Z</time></trkpt>
   <trkpt lat="30.792891" lon="34.740836"><ele>575.6</ele><name>TP01698</name><time>2021-12-16T20:46:38Z</time></trkpt>
   <trkpt lat="30.792893" lon="34.740817"><ele>575</ele><name>TP01699</name><time>2021-12-16T20:46:44Z</time></trkpt>
   <trkpt lat="30.792898" lon="34.74081"><ele>575.2</ele><name>TP01700</name><time>2021-12-16T20:46:45Z</time></trkpt>
   <trkpt lat="30.7929" lon="34.740806"><ele>575.2</ele><name>TP01701</name><time>2021-12-16T20:46:47Z</time></trkpt>
   <trkpt lat="30.792899" lon="34.740805"><ele>575.2</ele><name>TP01702</name><time>2021-12-16T20:46:48Z</time></trkpt>
   <trkpt lat="30.792889" lon="34.74077"><ele>575.4</ele><name>TP01703</name><time>2021-12-16T20:46:54Z</time></trkpt>
   <trkpt lat="30.792871" lon="34.740738"><ele>575.4</ele><name>TP01704</name><time>2021-12-16T20:46:56Z</time></trkpt>
   <trkpt lat="30.792839" lon="34.74067"><ele>575.4</ele><name>TP01705</name><time>2021-12-16T20:47:00Z</time></trkpt>
   <trkpt lat="30.792833" lon="34.740649"><ele>575.6</ele><name>TP01706</name><time>2021-12-16T20:47:01Z</time></trkpt>
   <trkpt lat="30.792807" lon="34.740527"><ele>576</ele><name>TP01707</name><time>2021-12-16T20:47:06Z</time></trkpt>
   <trkpt lat="30.792808" lon="34.740512"><ele>576</ele><name>TP01708</name><time>2021-12-16T20:47:07Z</time></trkpt>
   <trkpt lat="30.792815" lon="34.7405"><ele>576</ele><name>TP01709</name><time>2021-12-16T20:47:08Z</time></trkpt>
   <trkpt lat="30.792816" lon="34.740465"><ele>576</ele><name>TP01710</name><time>2021-12-16T20:47:10Z</time></trkpt>
   <trkpt lat="30.792818" lon="34.740424"><ele>576.2</ele><name>TP01711</name><time>2021-12-16T20:47:12Z</time></trkpt>
   <trkpt lat="30.792809" lon="34.740316"><ele>576.4</ele><name>TP01712</name><time>2021-12-16T20:47:17Z</time></trkpt>
   <trkpt lat="30.792806" lon="34.740169"><ele>576.8</ele><name>TP01713</name><time>2021-12-16T20:47:23Z</time></trkpt>
   <trkpt lat="30.792809" lon="34.74012"><ele>577</ele><name>TP01714</name><time>2021-12-16T20:47:25Z</time></trkpt>
   <trkpt lat="30.792811" lon="34.74002"><ele>576.8</ele><name>TP01715</name><time>2021-12-16T20:47:29Z</time></trkpt>
   <trkpt lat="30.792794" lon="34.739909"><ele>576.6</ele><name>TP01716</name><time>2021-12-16T20:47:34Z</time></trkpt>
   <trkpt lat="30.792805" lon="34.739831"><ele>576.6</ele><name>TP01717</name><time>2021-12-16T20:47:37Z</time></trkpt>
   <trkpt lat="30.792827" lon="34.739758"><ele>575.8</ele><name>TP01718</name><time>2021-12-16T20:47:39Z</time></trkpt>
   <trkpt lat="30.792835" lon="34.739691"><ele>575.6</ele><name>TP01719</name><time>2021-12-16T20:47:41Z</time></trkpt>
   <trkpt lat="30.792839" lon="34.739663"><ele>575.8</ele><name>TP01720</name><time>2021-12-16T20:47:42Z</time></trkpt>
   <trkpt lat="30.792853" lon="34.739642"><ele>576.2</ele><name>TP01721</name><time>2021-12-16T20:47:43Z</time></trkpt>
   <trkpt lat="30.792856" lon="34.739617"><ele>576.6</ele><name>TP01722</name><time>2021-12-16T20:47:44Z</time></trkpt>
   <trkpt lat="30.792878" lon="34.739559"><ele>577</ele><name>TP01723</name><time>2021-12-16T20:47:47Z</time></trkpt>
   <trkpt lat="30.792898" lon="34.739442"><ele>577</ele><name>TP01724</name><time>2021-12-16T20:47:52Z</time></trkpt>
   <trkpt lat="30.792881" lon="34.739285"><ele>577.2</ele><name>TP01725</name><time>2021-12-16T20:47:58Z</time></trkpt>
   <trkpt lat="30.792896" lon="34.739146"><ele>577.2</ele><name>TP01726</name><time>2021-12-16T20:48:03Z</time></trkpt>
   <trkpt lat="30.792932" lon="34.738976"><ele>576.8</ele><name>TP01727</name><time>2021-12-16T20:48:10Z</time></trkpt>
   <trkpt lat="30.793014" lon="34.7388"><ele>576.6</ele><name>TP01728</name><time>2021-12-16T20:48:18Z</time></trkpt>
   <trkpt lat="30.793023" lon="34.738653"><ele>576.6</ele><name>TP01729</name><time>2021-12-16T20:48:24Z</time></trkpt>
   <trkpt lat="30.793028" lon="34.738541"><ele>577</ele><name>TP01730</name><time>2021-12-16T20:48:29Z</time></trkpt>
   <trkpt lat="30.793018" lon="34.73842"><ele>577</ele><name>TP01731</name><time>2021-12-16T20:48:35Z</time></trkpt>
   <trkpt lat="30.793013" lon="34.738217"><ele>577</ele><name>TP01732</name><time>2021-12-16T20:48:43Z</time></trkpt>
   <trkpt lat="30.793035" lon="34.738031"><ele>577.4</ele><name>TP01733</name><time>2021-12-16T20:48:50Z</time></trkpt>
   <trkpt lat="30.793049" lon="34.738002"><ele>577.8</ele><name>TP01734</name><time>2021-12-16T20:48:52Z</time></trkpt>
   <trkpt lat="30.79306" lon="34.737938"><ele>578.4</ele><name>TP01735</name><time>2021-12-16T20:48:56Z</time></trkpt>
   <trkpt lat="30.793086" lon="34.737859"><ele>578.8</ele><name>TP01736</name><time>2021-12-16T20:49:00Z</time></trkpt>
   <trkpt lat="30.793112" lon="34.737815"><ele>579.2</ele><name>TP01737</name><time>2021-12-16T20:49:02Z</time></trkpt>
   <trkpt lat="30.79314" lon="34.737745"><ele>579.4</ele><name>TP01738</name><time>2021-12-16T20:49:05Z</time></trkpt>
   <trkpt lat="30.79321" lon="34.73762"><ele>579.8</ele><name>TP01739</name><time>2021-12-16T20:49:12Z</time></trkpt>
   <trkpt lat="30.79329" lon="34.737511"><ele>580.4</ele><name>TP01740</name><time>2021-12-16T20:49:19Z</time></trkpt>
   <trkpt lat="30.793341" lon="34.737437"><ele>581</ele><name>TP01741</name><time>2021-12-16T20:49:23Z</time></trkpt>
   <trkpt lat="30.793362" lon="34.737403"><ele>581</ele><name>TP01742</name><time>2021-12-16T20:49:25Z</time></trkpt>
   <trkpt lat="30.793416" lon="34.737293"><ele>581.8</ele><name>TP01743</name><time>2021-12-16T20:49:32Z</time></trkpt>
   <trkpt lat="30.793426" lon="34.737276"><ele>582</ele><name>TP01744</name><time>2021-12-16T20:49:33Z</time></trkpt>
   <trkpt lat="30.793479" lon="34.737167"><ele>582.6</ele><name>TP01745</name><time>2021-12-16T20:49:40Z</time></trkpt>
   <trkpt lat="30.793489" lon="34.737113"><ele>582.8</ele><name>TP01746</name><time>2021-12-16T20:49:43Z</time></trkpt>
   <trkpt lat="30.793486" lon="34.737093"><ele>583</ele><name>TP01747</name><time>2021-12-16T20:49:44Z</time></trkpt>
   <trkpt lat="30.793461" lon="34.736991"><ele>583</ele><name>TP01748</name><time>2021-12-16T20:49:49Z</time></trkpt>
   <trkpt lat="30.793447" lon="34.73688"><ele>583</ele><name>TP01749</name><time>2021-12-16T20:49:55Z</time></trkpt>
   <trkpt lat="30.793437" lon="34.736789"><ele>583</ele><name>TP01750</name><time>2021-12-16T20:50:01Z</time></trkpt>
   <trkpt lat="30.793431" lon="34.736758"><ele>583</ele><name>TP01751</name><time>2021-12-16T20:50:03Z</time></trkpt>
   <trkpt lat="30.793409" lon="34.736695"><ele>583</ele><name>TP01752</name><time>2021-12-16T20:50:06Z</time></trkpt>
   <trkpt lat="30.793346" lon="34.73658"><ele>583.4</ele><name>TP01753</name><time>2021-12-16T20:50:12Z</time></trkpt>
   <trkpt lat="30.793284" lon="34.736481"><ele>584</ele><name>TP01754</name><time>2021-12-16T20:50:17Z</time></trkpt>
   <trkpt lat="30.793261" lon="34.736443"><ele>584</ele><name>TP01755</name><time>2021-12-16T20:50:19Z</time></trkpt>
   <trkpt lat="30.793181" lon="34.736327"><ele>584.2</ele><name>TP01756</name><time>2021-12-16T20:50:26Z</time></trkpt>
   <trkpt lat="30.79309" lon="34.736213"><ele>584.6</ele><name>TP01757</name><time>2021-12-16T20:50:33Z</time></trkpt>
   <trkpt lat="30.793028" lon="34.736104"><ele>584.8</ele><name>TP01758</name><time>2021-12-16T20:50:38Z</time></trkpt>
   <trkpt lat="30.793003" lon="34.73606"><ele>585</ele><name>TP01759</name><time>2021-12-16T20:50:40Z</time></trkpt>
   <trkpt lat="30.79296" lon="34.73597"><ele>585.4</ele><name>TP01760</name><time>2021-12-16T20:50:44Z</time></trkpt>
   <trkpt lat="30.792874" lon="34.735864"><ele>585.2</ele><name>TP01761</name><time>2021-12-16T20:50:50Z</time></trkpt>
   <trkpt lat="30.792829" lon="34.735802"><ele>585.6</ele><name>TP01762</name><time>2021-12-16T20:50:54Z</time></trkpt>
   <trkpt lat="30.792813" lon="34.735761"><ele>585.8</ele><name>TP01763</name><time>2021-12-16T20:50:56Z</time></trkpt>
   <trkpt lat="30.792804" lon="34.735739"><ele>586</ele><name>TP01764</name><time>2021-12-16T20:50:57Z</time></trkpt>
   <trkpt lat="30.792796" lon="34.735716"><ele>586.2</ele><name>TP01765</name><time>2021-12-16T20:50:58Z</time></trkpt>
   <trkpt lat="30.792787" lon="34.735692"><ele>586.2</ele><name>TP01766</name><time>2021-12-16T20:50:59Z</time></trkpt>
   <trkpt lat="30.792779" lon="34.73567"><ele>586.2</ele><name>TP01767</name><time>2021-12-16T20:51:00Z</time></trkpt>
   <trkpt lat="30.792772" lon="34.735653"><ele>586.2</ele><name>TP01768</name><time>2021-12-16T20:51:01Z</time></trkpt>
   <trkpt lat="30.792759" lon="34.735599"><ele>586.4</ele><name>TP01769</name><time>2021-12-16T20:51:04Z</time></trkpt>
   <trkpt lat="30.792762" lon="34.735547"><ele>586.4</ele><name>TP01770</name><time>2021-12-16T20:51:07Z</time></trkpt>
   <trkpt lat="30.792768" lon="34.735508"><ele>586.6</ele><name>TP01771</name><time>2021-12-16T20:51:10Z</time></trkpt>
   <trkpt lat="30.79277" lon="34.735466"><ele>586.8</ele><name>TP01772</name><time>2021-12-16T20:51:13Z</time></trkpt>
   <trkpt lat="30.792769" lon="34.735425"><ele>587</ele><name>TP01773</name><time>2021-12-16T20:51:15Z</time></trkpt>
   <trkpt lat="30.79278" lon="34.735384"><ele>586.8</ele><name>TP01774</name><time>2021-12-16T20:51:17Z</time></trkpt>
   <trkpt lat="30.792797" lon="34.735305"><ele>587.2</ele><name>TP01775</name><time>2021-12-16T20:51:21Z</time></trkpt>
   <trkpt lat="30.792815" lon="34.73527"><ele>587</ele><name>TP01776</name><time>2021-12-16T20:51:23Z</time></trkpt>
   <trkpt lat="30.792844" lon="34.735189"><ele>587</ele><name>TP01777</name><time>2021-12-16T20:51:27Z</time></trkpt>
   <trkpt lat="30.792844" lon="34.735168"><ele>587.2</ele><name>TP01778</name><time>2021-12-16T20:51:28Z</time></trkpt>
   <trkpt lat="30.792851" lon="34.735067"><ele>587.6</ele><name>TP01779</name><time>2021-12-16T20:51:33Z</time></trkpt>
   <trkpt lat="30.792851" lon="34.735047"><ele>587.8</ele><name>TP01780</name><time>2021-12-16T20:51:34Z</time></trkpt>
   <trkpt lat="30.792856" lon="34.735028"><ele>588</ele><name>TP01781</name><time>2021-12-16T20:51:35Z</time></trkpt>
   <trkpt lat="30.792865" lon="34.734989"><ele>588</ele><name>TP01782</name><time>2021-12-16T20:51:37Z</time></trkpt>
   <trkpt lat="30.792869" lon="34.734945"><ele>588.2</ele><name>TP01783</name><time>2021-12-16T20:51:39Z</time></trkpt>
   <trkpt lat="30.792876" lon="34.734883"><ele>588.6</ele><name>TP01784</name><time>2021-12-16T20:51:42Z</time></trkpt>
   <trkpt lat="30.792879" lon="34.734865"><ele>588.6</ele><name>TP01785</name><time>2021-12-16T20:51:43Z</time></trkpt>
   <trkpt lat="30.792881" lon="34.734805"><ele>589</ele><name>TP01786</name><time>2021-12-16T20:51:46Z</time></trkpt>
   <trkpt lat="30.792903" lon="34.734686"><ele>589.4</ele><name>TP01787</name><time>2021-12-16T20:51:52Z</time></trkpt>
   <trkpt lat="30.792869" lon="34.73456"><ele>589.4</ele><name>TP01788</name><time>2021-12-16T20:51:58Z</time></trkpt>
   <trkpt lat="30.792862" lon="34.734542"><ele>589.8</ele><name>TP01789</name><time>2021-12-16T20:51:59Z</time></trkpt>
   <trkpt lat="30.792857" lon="34.734525"><ele>590.2</ele><name>TP01790</name><time>2021-12-16T20:52:00Z</time></trkpt>
   <trkpt lat="30.792855" lon="34.734514"><ele>590.4</ele><name>TP01791</name><time>2021-12-16T20:52:01Z</time></trkpt>
   <trkpt lat="30.792838" lon="34.734458"><ele>592</ele><name>TP01792</name><time>2021-12-16T20:56:12Z</time></trkpt>
   <trkpt lat="30.792891" lon="34.734463"><ele>592</ele><name>TP01793</name><time>2021-12-16T20:56:14Z</time></trkpt>
   <trkpt lat="30.792948" lon="34.734453"><ele>592.2</ele><name>TP01794</name><time>2021-12-16T20:56:17Z</time></trkpt>
   <trkpt lat="30.792972" lon="34.734429"><ele>592.2</ele><name>TP01795</name><time>2021-12-16T20:56:19Z</time></trkpt>
   <trkpt lat="30.79298" lon="34.734393"><ele>592</ele><name>TP01796</name><time>2021-12-16T20:56:21Z</time></trkpt>
   <trkpt lat="30.792984" lon="34.734375"><ele>592</ele><name>TP01797</name><time>2021-12-16T20:56:22Z</time></trkpt>
   <trkpt lat="30.79299" lon="34.73431"><ele>592</ele><name>TP01798</name><time>2021-12-16T20:56:25Z</time></trkpt>
   <trkpt lat="30.792997" lon="34.734292"><ele>592.2</ele><name>TP01799</name><time>2021-12-16T20:56:26Z</time></trkpt>
   <trkpt lat="30.79301" lon="34.734277"><ele>592.4</ele><name>TP01800</name><time>2021-12-16T20:56:27Z</time></trkpt>
   <trkpt lat="30.793046" lon="34.734234"><ele>592.6</ele><name>TP01801</name><time>2021-12-16T20:56:30Z</time></trkpt>
   <trkpt lat="30.793061" lon="34.734228"><ele>593.4</ele><name>TP01802</name><time>2021-12-16T20:56:37Z</time></trkpt>
   <trkpt lat="30.793065" lon="34.734223"><ele>593.4</ele><name>TP01803</name><time>2021-12-16T20:56:38Z</time></trkpt>
   <trkpt lat="30.793071" lon="34.734211"><ele>593.4</ele><name>TP01804</name><time>2021-12-16T20:56:40Z</time></trkpt>
   <trkpt lat="30.793111" lon="34.734139"><ele>593.4</ele><name>TP01805</name><time>2021-12-16T20:56:46Z</time></trkpt>
   <trkpt lat="30.793186" lon="34.734029"><ele>593.6</ele><name>TP01806</name><time>2021-12-16T20:56:54Z</time></trkpt>
   <trkpt lat="30.793195" lon="34.734014"><ele>593.6</ele><name>TP01807</name><time>2021-12-16T20:56:55Z</time></trkpt>
   <trkpt lat="30.793239" lon="34.733949"><ele>594.2</ele><name>TP01808</name><time>2021-12-16T20:57:00Z</time></trkpt>
   <trkpt lat="30.793256" lon="34.733924"><ele>594.4</ele><name>TP01809</name><time>2021-12-16T20:57:02Z</time></trkpt>
   <trkpt lat="30.793324" lon="34.73387"><ele>595.6</ele><name>TP01810</name><time>2021-12-16T20:57:09Z</time></trkpt>
   <trkpt lat="30.793372" lon="34.733823"><ele>596</ele><name>TP01811</name><time>2021-12-16T20:57:13Z</time></trkpt>
   <trkpt lat="30.793439" lon="34.733762"><ele>596.4</ele><name>TP01812</name><time>2021-12-16T20:59:40Z</time></trkpt>
   <trkpt lat="30.793476" lon="34.73372"><ele>596.6</ele><name>TP01813</name><time>2021-12-16T20:59:43Z</time></trkpt>
   <trkpt lat="30.793593" lon="34.733618"><ele>597.4</ele><name>TP01814</name><time>2021-12-16T20:59:51Z</time></trkpt>
   <trkpt lat="30.793609" lon="34.733603"><ele>597.6</ele><name>TP01815</name><time>2021-12-16T20:59:52Z</time></trkpt>
   <trkpt lat="30.79367" lon="34.733525"><ele>598</ele><name>TP01816</name><time>2021-12-16T20:59:57Z</time></trkpt>
   <trkpt lat="30.793772" lon="34.733428"><ele>598.4</ele><name>TP01817</name><time>2021-12-16T21:00:04Z</time></trkpt>
   <trkpt lat="30.793811" lon="34.733378"><ele>598.6</ele><name>TP01818</name><time>2021-12-16T21:00:07Z</time></trkpt>
   <trkpt lat="30.79382" lon="34.733359"><ele>598.6</ele><name>TP01819</name><time>2021-12-16T21:00:08Z</time></trkpt>
   <trkpt lat="30.793838" lon="34.733319"><ele>598.6</ele><name>TP01820</name><time>2021-12-16T21:00:10Z</time></trkpt>
   <trkpt lat="30.793853" lon="34.733282"><ele>598.6</ele><name>TP01821</name><time>2021-12-16T21:00:12Z</time></trkpt>
   <trkpt lat="30.793861" lon="34.733263"><ele>598.6</ele><name>TP01822</name><time>2021-12-16T21:00:13Z</time></trkpt>
   <trkpt lat="30.793869" lon="34.733242"><ele>598.6</ele><name>TP01823</name><time>2021-12-16T21:00:14Z</time></trkpt>
   <trkpt lat="30.79388" lon="34.733223"><ele>598.8</ele><name>TP01824</name><time>2021-12-16T21:00:15Z</time></trkpt>
   <trkpt lat="30.793904" lon="34.733189"><ele>599.2</ele><name>TP01825</name><time>2021-12-16T21:00:17Z</time></trkpt>
   <trkpt lat="30.793917" lon="34.733174"><ele>599.4</ele><name>TP01826</name><time>2021-12-16T21:00:18Z</time></trkpt>
   <trkpt lat="30.793929" lon="34.733157"><ele>599.6</ele><name>TP01827</name><time>2021-12-16T21:00:19Z</time></trkpt>
   <trkpt lat="30.793997" lon="34.733022"><ele>600.4</ele><name>TP01828</name><time>2021-12-16T21:00:26Z</time></trkpt>
   <trkpt lat="30.79405" lon="34.73289"><ele>600.6</ele><name>TP01829</name><time>2021-12-16T21:00:33Z</time></trkpt>
   <trkpt lat="30.794073" lon="34.732748"><ele>601.4</ele><name>TP01830</name><time>2021-12-16T21:00:40Z</time></trkpt>
   <trkpt lat="30.794089" lon="34.732648"><ele>601.8</ele><name>TP01831</name><time>2021-12-16T21:00:45Z</time></trkpt>
   <trkpt lat="30.794096" lon="34.73259"><ele>602</ele><name>TP01832</name><time>2021-12-16T21:00:48Z</time></trkpt>
   <trkpt lat="30.794119" lon="34.732534"><ele>602.6</ele><name>TP01833</name><time>2021-12-16T21:00:51Z</time></trkpt>
   <trkpt lat="30.794137" lon="34.732505"><ele>602.8</ele><name>TP01834</name><time>2021-12-16T21:00:53Z</time></trkpt>
   <trkpt lat="30.794148" lon="34.732493"><ele>603</ele><name>TP01835</name><time>2021-12-16T21:00:54Z</time></trkpt>
   <trkpt lat="30.79416" lon="34.732421"><ele>603.4</ele><name>TP01836</name><time>2021-12-16T21:00:58Z</time></trkpt>
   <trkpt lat="30.794178" lon="34.732378"><ele>603.4</ele><name>TP01837</name><time>2021-12-16T21:01:00Z</time></trkpt>
   <trkpt lat="30.794225" lon="34.732315"><ele>603.6</ele><name>TP01838</name><time>2021-12-16T21:01:04Z</time></trkpt>
   <trkpt lat="30.794297" lon="34.732197"><ele>603.6</ele><name>TP01839</name><time>2021-12-16T21:01:11Z</time></trkpt>
   <trkpt lat="30.794279" lon="34.732073"><ele>604</ele><name>TP01840</name><time>2021-12-16T21:01:17Z</time></trkpt>
   <trkpt lat="30.794271" lon="34.731982"><ele>605</ele><name>TP01841</name><time>2021-12-16T21:01:22Z</time></trkpt>
   <trkpt lat="30.794261" lon="34.731953"><ele>605.4</ele><name>TP01842</name><time>2021-12-16T21:01:24Z</time></trkpt>
   <trkpt lat="30.794265" lon="34.731923"><ele>606</ele><name>TP01843</name><time>2021-12-16T21:01:26Z</time></trkpt>
   <trkpt lat="30.794276" lon="34.731865"><ele>607.2</ele><name>TP01844</name><time>2021-12-16T21:01:30Z</time></trkpt>
   <trkpt lat="30.794285" lon="34.731812"><ele>608.6</ele><name>TP01845</name><time>2021-12-16T21:01:34Z</time></trkpt>
   <trkpt lat="30.794299" lon="34.731762"><ele>609.2</ele><name>TP01846</name><time>2021-12-16T21:01:37Z</time></trkpt>
   <trkpt lat="30.794301" lon="34.731715"><ele>609.6</ele><name>TP01847</name><time>2021-12-16T21:01:40Z</time></trkpt>
   <trkpt lat="30.794306" lon="34.731662"><ele>610</ele><name>TP01848</name><time>2021-12-16T21:01:43Z</time></trkpt>
   <trkpt lat="30.794302" lon="34.731615"><ele>610.8</ele><name>TP01849</name><time>2021-12-16T21:01:46Z</time></trkpt>
   <trkpt lat="30.794309" lon="34.731585"><ele>611.2</ele><name>TP01850</name><time>2021-12-16T21:01:48Z</time></trkpt>
   <trkpt lat="30.794315" lon="34.731541"><ele>611.4</ele><name>TP01851</name><time>2021-12-16T21:01:51Z</time></trkpt>
   <trkpt lat="30.79431" lon="34.73145"><ele>612</ele><name>TP01852</name><time>2021-12-16T21:02:16Z</time></trkpt>
   <trkpt lat="30.794307" lon="34.73142"><ele>612.2</ele><name>TP01853</name><time>2021-12-16T21:02:18Z</time></trkpt>
   <trkpt lat="30.794284" lon="34.731269"><ele>612.2</ele><name>TP01854</name><time>2021-12-16T21:02:28Z</time></trkpt>
   <trkpt lat="30.794258" lon="34.731146"><ele>612.8</ele><name>TP01855</name><time>2021-12-16T21:02:35Z</time></trkpt>
   <trkpt lat="30.794255" lon="34.731115"><ele>613</ele><name>TP01856</name><time>2021-12-16T21:02:37Z</time></trkpt>
   <trkpt lat="30.794247" lon="34.73105"><ele>613.6</ele><name>TP01857</name><time>2021-12-16T21:02:41Z</time></trkpt>
   <trkpt lat="30.794236" lon="34.73102"><ele>613.8</ele><name>TP01858</name><time>2021-12-16T21:02:43Z</time></trkpt>
   <trkpt lat="30.79423" lon="34.730995"><ele>614.2</ele><name>TP01859</name><time>2021-12-16T21:02:45Z</time></trkpt>
   <trkpt lat="30.794225" lon="34.730979"><ele>614.2</ele><name>TP01860</name><time>2021-12-16T21:02:46Z</time></trkpt>
   <trkpt lat="30.794208" lon="34.73093"><ele>614.4</ele><name>TP01861</name><time>2021-12-16T21:02:49Z</time></trkpt>
   <trkpt lat="30.794173" lon="34.730856"><ele>614.6</ele><name>TP01862</name><time>2021-12-16T21:02:54Z</time></trkpt>
   <trkpt lat="30.794169" lon="34.730829"><ele>614.8</ele><name>TP01863</name><time>2021-12-16T21:02:56Z</time></trkpt>
   <trkpt lat="30.79416" lon="34.7308"><ele>615.2</ele><name>TP01864</name><time>2021-12-16T21:02:58Z</time></trkpt>
   <trkpt lat="30.794134" lon="34.730739"><ele>615.6</ele><name>TP01865</name><time>2021-12-16T21:03:02Z</time></trkpt>
   <trkpt lat="30.794104" lon="34.730683"><ele>616.2</ele><name>TP01866</name><time>2021-12-16T21:03:06Z</time></trkpt>
   <trkpt lat="30.794087" lon="34.730662"><ele>616.6</ele><name>TP01867</name><time>2021-12-16T21:03:08Z</time></trkpt>
   <trkpt lat="30.794083" lon="34.730648"><ele>616.8</ele><name>TP01868</name><time>2021-12-16T21:03:09Z</time></trkpt>
   <trkpt lat="30.794067" lon="34.730622"><ele>617.2</ele><name>TP01869</name><time>2021-12-16T21:03:11Z</time></trkpt>
   <trkpt lat="30.794059" lon="34.730609"><ele>617.4</ele><name>TP01870</name><time>2021-12-16T21:03:12Z</time></trkpt>
   <trkpt lat="30.794053" lon="34.730599"><ele>617.6</ele><name>TP01871</name><time>2021-12-16T21:03:13Z</time></trkpt>
   <trkpt lat="30.794035" lon="34.730575"><ele>618.2</ele><name>TP01872</name><time>2021-12-16T21:03:15Z</time></trkpt>
   <trkpt lat="30.794018" lon="34.730552"><ele>618.4</ele><name>TP01873</name><time>2021-12-16T21:03:17Z</time></trkpt>
   <trkpt lat="30.793958" lon="34.730505"><ele>619</ele><name>TP01874</name><time>2021-12-16T21:03:22Z</time></trkpt>
   <trkpt lat="30.793906" lon="34.730474"><ele>619.6</ele><name>TP01875</name><time>2021-12-16T21:03:26Z</time></trkpt>
   <trkpt lat="30.79388" lon="34.730451"><ele>620.2</ele><name>TP01876</name><time>2021-12-16T21:03:28Z</time></trkpt>
   <trkpt lat="30.793833" lon="34.730412"><ele>620.8</ele><name>TP01877</name><time>2021-12-16T21:03:32Z</time></trkpt>
   <trkpt lat="30.793816" lon="34.730391"><ele>621.4</ele><name>TP01878</name><time>2021-12-16T21:03:34Z</time></trkpt>
   <trkpt lat="30.793811" lon="34.730381"><ele>621.6</ele><name>TP01879</name><time>2021-12-16T21:03:35Z</time></trkpt>
   <trkpt lat="30.793809" lon="34.73037"><ele>621.8</ele><name>TP01880</name><time>2021-12-16T21:03:36Z</time></trkpt>
   <trkpt lat="30.793808" lon="34.730356"><ele>622.2</ele><name>TP01881</name><time>2021-12-16T21:03:37Z</time></trkpt>
   <trkpt lat="30.793808" lon="34.730342"><ele>622.2</ele><name>TP01882</name><time>2021-12-16T21:03:38Z</time></trkpt>
   <trkpt lat="30.793808" lon="34.73033"><ele>622.6</ele><name>TP01883</name><time>2021-12-16T21:03:39Z</time></trkpt>
   <trkpt lat="30.793809" lon="34.730317"><ele>622.8</ele><name>TP01884</name><time>2021-12-16T21:03:40Z</time></trkpt>
   <trkpt lat="30.793808" lon="34.730305"><ele>623.2</ele><name>TP01885</name><time>2021-12-16T21:03:41Z</time></trkpt>
   <trkpt lat="30.793807" lon="34.730293"><ele>623.4</ele><name>TP01886</name><time>2021-12-16T21:03:42Z</time></trkpt>
   <trkpt lat="30.793806" lon="34.730281"><ele>623.8</ele><name>TP01887</name><time>2021-12-16T21:03:43Z</time></trkpt>
   <trkpt lat="30.793809" lon="34.730259"><ele>624.2</ele><name>TP01888</name><time>2021-12-16T21:03:45Z</time></trkpt>
   <trkpt lat="30.79381" lon="34.730246"><ele>624.2</ele><name>TP01889</name><time>2021-12-16T21:03:46Z</time></trkpt>
   <trkpt lat="30.793818" lon="34.730213"><ele>625.2</ele><name>TP01890</name><time>2021-12-16T21:03:49Z</time></trkpt>
   <trkpt lat="30.793823" lon="34.730203"><ele>625.4</ele><name>TP01891</name><time>2021-12-16T21:03:50Z</time></trkpt>
   <trkpt lat="30.793864" lon="34.730154"><ele>626.2</ele><name>TP01892</name><time>2021-12-16T21:03:56Z</time></trkpt>
   <trkpt lat="30.793916" lon="34.730105"><ele>627.4</ele><name>TP01893</name><time>2021-12-16T21:04:02Z</time></trkpt>
   <trkpt lat="30.79393" lon="34.7301"><ele>627.4</ele><name>TP01894</name><time>2021-12-16T21:04:03Z</time></trkpt>
   <trkpt lat="30.793989" lon="34.730058"><ele>628.4</ele><name>TP01895</name><time>2021-12-16T21:04:08Z</time></trkpt>
   <trkpt lat="30.793997" lon="34.730051"><ele>628.4</ele><name>TP01896</name><time>2021-12-16T21:04:09Z</time></trkpt>
   <trkpt lat="30.794001" lon="34.730042"><ele>628.6</ele><name>TP01897</name><time>2021-12-16T21:04:10Z</time></trkpt>
   <trkpt lat="30.794007" lon="34.730031"><ele>628.6</ele><name>TP01898</name><time>2021-12-16T21:04:11Z</time></trkpt>
   <trkpt lat="30.794035" lon="34.730002"><ele>629.2</ele><name>TP01899</name><time>2021-12-16T21:04:14Z</time></trkpt>
   <trkpt lat="30.794043" lon="34.729995"><ele>629.4</ele><name>TP01900</name><time>2021-12-16T21:04:15Z</time></trkpt>
   <trkpt lat="30.79406" lon="34.729977"><ele>629.4</ele><name>TP01901</name><time>2021-12-16T21:04:17Z</time></trkpt>
   <trkpt lat="30.794117" lon="34.72992"><ele>630.4</ele><name>TP01902</name><time>2021-12-16T21:04:23Z</time></trkpt>
   <trkpt lat="30.794139" lon="34.729891"><ele>630.6</ele><name>TP01903</name><time>2021-12-16T21:04:26Z</time></trkpt>
   <trkpt lat="30.794143" lon="34.729873"><ele>631</ele><name>TP01904</name><time>2021-12-16T21:04:28Z</time></trkpt>
   <trkpt lat="30.794149" lon="34.729866"><ele>631.4</ele><name>TP01905</name><time>2021-12-16T21:04:29Z</time></trkpt>
   <trkpt lat="30.794158" lon="34.729839"><ele>631.6</ele><name>TP01906</name><time>2021-12-16T21:04:32Z</time></trkpt>
   <trkpt lat="30.794157" lon="34.729828"><ele>631.6</ele><name>TP01907</name><time>2021-12-16T21:04:33Z</time></trkpt>
   <trkpt lat="30.794186" lon="34.729761"><ele>636</ele><name>TP01908</name><time>2021-12-16T21:11:19Z</time></trkpt>
   <trkpt lat="30.794194" lon="34.729743"><ele>636</ele><name>TP01909</name><time>2021-12-16T21:11:20Z</time></trkpt>
   <trkpt lat="30.794204" lon="34.72972"><ele>636</ele><name>TP01910</name><time>2021-12-16T21:11:21Z</time></trkpt>
   <trkpt lat="30.794208" lon="34.729662"><ele>635.4</ele><name>TP01911</name><time>2021-12-16T21:11:23Z</time></trkpt>
   <trkpt lat="30.794181" lon="34.729565"><ele>635.2</ele><name>TP01912</name><time>2021-12-16T21:11:26Z</time></trkpt>
   <trkpt lat="30.794166" lon="34.729534"><ele>635</ele><name>TP01913</name><time>2021-12-16T21:11:27Z</time></trkpt>
   <trkpt lat="30.794086" lon="34.729452"><ele>635</ele><name>TP01914</name><time>2021-12-16T21:11:31Z</time></trkpt>
   <trkpt lat="30.79399" lon="34.729376"><ele>635.2</ele><name>TP01915</name><time>2021-12-16T21:11:35Z</time></trkpt>
   <trkpt lat="30.793832" lon="34.729294"><ele>635.4</ele><name>TP01916</name><time>2021-12-16T21:11:40Z</time></trkpt>
   <trkpt lat="30.793774" lon="34.729259"><ele>635.8</ele><name>TP01917</name><time>2021-12-16T21:11:42Z</time></trkpt>
   <trkpt lat="30.793739" lon="34.729245"><ele>636</ele><name>TP01918</name><time>2021-12-16T21:11:43Z</time></trkpt>
   <trkpt lat="30.79354" lon="34.729174"><ele>636.2</ele><name>TP01919</name><time>2021-12-16T21:11:48Z</time></trkpt>
   <trkpt lat="30.793495" lon="34.729164"><ele>636.2</ele><name>TP01920</name><time>2021-12-16T21:11:49Z</time></trkpt>
   <trkpt lat="30.793211" lon="34.729095"><ele>635.4</ele><name>TP01921</name><time>2021-12-16T21:11:56Z</time></trkpt>
   <trkpt lat="30.793045" lon="34.729007"><ele>635.6</ele><name>TP01922</name><time>2021-12-16T21:12:01Z</time></trkpt>
   <trkpt lat="30.793013" lon="34.728988"><ele>635.6</ele><name>TP01923</name><time>2021-12-16T21:12:02Z</time></trkpt>
   <trkpt lat="30.792852" lon="34.728905"><ele>635.4</ele><name>TP01924</name><time>2021-12-16T21:12:07Z</time></trkpt>
   <trkpt lat="30.792822" lon="34.728887"><ele>635.2</ele><name>TP01925</name><time>2021-12-16T21:12:08Z</time></trkpt>
   <trkpt lat="30.79276" lon="34.728842"><ele>635.4</ele><name>TP01926</name><time>2021-12-16T21:12:10Z</time></trkpt>
   <trkpt lat="30.792732" lon="34.728815"><ele>635.4</ele><name>TP01927</name><time>2021-12-16T21:12:11Z</time></trkpt>
   <trkpt lat="30.792658" lon="34.728724"><ele>635.8</ele><name>TP01928</name><time>2021-12-16T21:12:14Z</time></trkpt>
   <trkpt lat="30.792631" lon="34.728696"><ele>636</ele><name>TP01929</name><time>2021-12-16T21:12:15Z</time></trkpt>
   <trkpt lat="30.792568" lon="34.728648"><ele>636.2</ele><name>TP01930</name><time>2021-12-16T21:12:17Z</time></trkpt>
   <trkpt lat="30.792494" lon="34.728628"><ele>636.4</ele><name>TP01931</name><time>2021-12-16T21:12:19Z</time></trkpt>
   <trkpt lat="30.792361" lon="34.728655"><ele>636.6</ele><name>TP01932</name><time>2021-12-16T21:12:23Z</time></trkpt>
   <trkpt lat="30.79233" lon="34.728669"><ele>636.6</ele><name>TP01933</name><time>2021-12-16T21:12:24Z</time></trkpt>
   <trkpt lat="30.792268" lon="34.728704"><ele>636.4</ele><name>TP01934</name><time>2021-12-16T21:12:26Z</time></trkpt>
   <trkpt lat="30.792163" lon="34.72875"><ele>636</ele><name>TP01935</name><time>2021-12-16T21:12:29Z</time></trkpt>
   <trkpt lat="30.792058" lon="34.728803"><ele>635.2</ele><name>TP01936</name><time>2021-12-16T21:12:32Z</time></trkpt>
   <trkpt lat="30.791944" lon="34.728835"><ele>635.2</ele><name>TP01937</name><time>2021-12-16T21:12:35Z</time></trkpt>
   <trkpt lat="30.791757" lon="34.728841"><ele>636.4</ele><name>TP01938</name><time>2021-12-16T21:12:40Z</time></trkpt>
   <trkpt lat="30.791694" lon="34.728858"><ele>636.6</ele><name>TP01939</name><time>2021-12-16T21:12:42Z</time></trkpt>
   <trkpt lat="30.791501" lon="34.728891"><ele>636.4</ele><name>TP01940</name><time>2021-12-16T21:12:48Z</time></trkpt>
   <trkpt lat="30.791437" lon="34.728904"><ele>636</ele><name>TP01941</name><time>2021-12-16T21:12:50Z</time></trkpt>
   <trkpt lat="30.791395" lon="34.728873"><ele>634.8</ele><name>TP01942</name><time>2021-12-16T21:12:52Z</time></trkpt>
   <trkpt lat="30.791389" lon="34.72882"><ele>633.6</ele><name>TP01943</name><time>2021-12-16T21:12:54Z</time></trkpt>
   <trkpt lat="30.791381" lon="34.728769"><ele>632.8</ele><name>TP01944</name><time>2021-12-16T21:12:56Z</time></trkpt>
   <trkpt lat="30.791381" lon="34.72874"><ele>632.6</ele><name>TP01945</name><time>2021-12-16T21:12:57Z</time></trkpt>
   <trkpt lat="30.791376" lon="34.728677"><ele>632.2</ele><name>TP01946</name><time>2021-12-16T21:12:59Z</time></trkpt>
   <trkpt lat="30.791383" lon="34.728611"><ele>630.8</ele><name>TP01947</name><time>2021-12-16T21:13:01Z</time></trkpt>
   <trkpt lat="30.791387" lon="34.728577"><ele>630</ele><name>TP01948</name><time>2021-12-16T21:13:02Z</time></trkpt>
   <trkpt lat="30.79139" lon="34.728546"><ele>629.2</ele><name>TP01949</name><time>2021-12-16T21:13:03Z</time></trkpt>
   <trkpt lat="30.791401" lon="34.728503"><ele>628.2</ele><name>TP01950</name><time>2021-12-16T21:13:05Z</time></trkpt>
   <trkpt lat="30.791406" lon="34.728481"><ele>628</ele><name>TP01951</name><time>2021-12-16T21:13:06Z</time></trkpt>
   <trkpt lat="30.79142" lon="34.728403"><ele>626.8</ele><name>TP01952</name><time>2021-12-16T21:13:09Z</time></trkpt>
   <trkpt lat="30.791421" lon="34.728352"><ele>625.8</ele><name>TP01953</name><time>2021-12-16T21:13:11Z</time></trkpt>
   <trkpt lat="30.791419" lon="34.728323"><ele>625</ele><name>TP01954</name><time>2021-12-16T21:13:12Z</time></trkpt>
   <trkpt lat="30.791415" lon="34.728292"><ele>624.6</ele><name>TP01955</name><time>2021-12-16T21:13:13Z</time></trkpt>
   <trkpt lat="30.791414" lon="34.728202"><ele>623</ele><name>TP01956</name><time>2021-12-16T21:13:16Z</time></trkpt>
   <trkpt lat="30.791412" lon="34.728172"><ele>622.2</ele><name>TP01957</name><time>2021-12-16T21:13:17Z</time></trkpt>
   <trkpt lat="30.791409" lon="34.728141"><ele>621.8</ele><name>TP01958</name><time>2021-12-16T21:13:18Z</time></trkpt>
   <trkpt lat="30.79139" lon="34.728032"><ele>620.4</ele><name>TP01959</name><time>2021-12-16T21:13:21Z</time></trkpt>
   <trkpt lat="30.791373" lon="34.727973"><ele>619.4</ele><name>TP01960</name><time>2021-12-16T21:13:23Z</time></trkpt>
   <trkpt lat="30.79137" lon="34.727955"><ele>619</ele><name>TP01961</name><time>2021-12-16T21:13:24Z</time></trkpt>
   <trkpt lat="30.791376" lon="34.727893"><ele>617.6</ele><name>TP01962</name><time>2021-12-16T21:13:28Z</time></trkpt>
   <trkpt lat="30.791377" lon="34.727872"><ele>617.4</ele><name>TP01963</name><time>2021-12-16T21:13:29Z</time></trkpt>
   <trkpt lat="30.791364" lon="34.727825"><ele>616.6</ele><name>TP01964</name><time>2021-12-16T21:13:31Z</time></trkpt>
   <trkpt lat="30.791321" lon="34.727723"><ele>615.4</ele><name>TP01965</name><time>2021-12-16T21:13:34Z</time></trkpt>
   <trkpt lat="30.791268" lon="34.727629"><ele>614.4</ele><name>TP01966</name><time>2021-12-16T21:13:37Z</time></trkpt>
   <trkpt lat="30.791214" lon="34.72757"><ele>613.2</ele><name>TP01967</name><time>2021-12-16T21:13:39Z</time></trkpt>
   <trkpt lat="30.791189" lon="34.727532"><ele>612.8</ele><name>TP01968</name><time>2021-12-16T21:13:40Z</time></trkpt>
   <trkpt lat="30.791146" lon="34.727455"><ele>612.2</ele><name>TP01969</name><time>2021-12-16T21:13:42Z</time></trkpt>
   <trkpt lat="30.791098" lon="34.727393"><ele>611.2</ele><name>TP01970</name><time>2021-12-16T21:13:44Z</time></trkpt>
   <trkpt lat="30.791074" lon="34.727355"><ele>610.2</ele><name>TP01971</name><time>2021-12-16T21:13:45Z</time></trkpt>
   <trkpt lat="30.791034" lon="34.727265"><ele>609</ele><name>TP01972</name><time>2021-12-16T21:13:47Z</time></trkpt>
   <trkpt lat="30.790992" lon="34.727169"><ele>608.2</ele><name>TP01973</name><time>2021-12-16T21:13:49Z</time></trkpt>
   <trkpt lat="30.790977" lon="34.727117"><ele>607.4</ele><name>TP01974</name><time>2021-12-16T21:13:50Z</time></trkpt>
   <trkpt lat="30.790941" lon="34.727003"><ele>605.4</ele><name>TP01975</name><time>2021-12-16T21:13:52Z</time></trkpt>
   <trkpt lat="30.790926" lon="34.726944"><ele>604.4</ele><name>TP01976</name><time>2021-12-16T21:13:53Z</time></trkpt>
   <trkpt lat="30.790905" lon="34.726893"><ele>603</ele><name>TP01977</name><time>2021-12-16T21:13:54Z</time></trkpt>
   <trkpt lat="30.790835" lon="34.726776"><ele>602</ele><name>TP01978</name><time>2021-12-16T21:13:58Z</time></trkpt>
   <trkpt lat="30.790814" lon="34.726743"><ele>601.8</ele><name>TP01979</name><time>2021-12-16T21:14:00Z</time></trkpt>
   <trkpt lat="30.790864" lon="34.726716"><ele>600.6</ele><name>TP01980</name><time>2021-12-16T21:15:30Z</time></trkpt>
   <trkpt lat="30.790872" lon="34.726709"><ele>600.4</ele><name>TP01981</name><time>2021-12-16T21:15:31Z</time></trkpt>
   <trkpt lat="30.79088" lon="34.726701"><ele>600.4</ele><name>TP01982</name><time>2021-12-16T21:15:32Z</time></trkpt>
   <trkpt lat="30.790869" lon="34.726605"><ele>600.4</ele><name>TP01983</name><time>2021-12-16T21:15:37Z</time></trkpt>
   <trkpt lat="30.790863" lon="34.72658"><ele>600.4</ele><name>TP01984</name><time>2021-12-16T21:15:38Z</time></trkpt>
   <trkpt lat="30.790851" lon="34.726553"><ele>600.4</ele><name>TP01985</name><time>2021-12-16T21:15:39Z</time></trkpt>
   <trkpt lat="30.790825" lon="34.726496"><ele>600.2</ele><name>TP01986</name><time>2021-12-16T21:15:41Z</time></trkpt>
   <trkpt lat="30.790814" lon="34.726468"><ele>600</ele><name>TP01987</name><time>2021-12-16T21:15:42Z</time></trkpt>
   <trkpt lat="30.790803" lon="34.726438"><ele>599.8</ele><name>TP01988</name><time>2021-12-16T21:15:43Z</time></trkpt>
   <trkpt lat="30.790791" lon="34.72641"><ele>599.8</ele><name>TP01989</name><time>2021-12-16T21:15:44Z</time></trkpt>
   <trkpt lat="30.790783" lon="34.726385"><ele>599.6</ele><name>TP01990</name><time>2021-12-16T21:15:45Z</time></trkpt>
   <trkpt lat="30.790771" lon="34.726362"><ele>599.6</ele><name>TP01991</name><time>2021-12-16T21:15:46Z</time></trkpt>
   <trkpt lat="30.79076" lon="34.726339"><ele>599.6</ele><name>TP01992</name><time>2021-12-16T21:15:47Z</time></trkpt>
   <trkpt lat="30.790749" lon="34.726315"><ele>599.4</ele><name>TP01993</name><time>2021-12-16T21:15:48Z</time></trkpt>
   <trkpt lat="30.790734" lon="34.726292"><ele>599.4</ele><name>TP01994</name><time>2021-12-16T21:15:49Z</time></trkpt>
   <trkpt lat="30.790722" lon="34.726272"><ele>599.4</ele><name>TP01995</name><time>2021-12-16T21:15:50Z</time></trkpt>
   <trkpt lat="30.790717" lon="34.726261"><ele>599.4</ele><name>TP01996</name><time>2021-12-16T21:15:51Z</time></trkpt>
   <trkpt lat="30.790705" lon="34.726251"><ele>599.2</ele><name>TP01997</name><time>2021-12-16T21:15:55Z</time></trkpt>
   <trkpt lat="30.790695" lon="34.726235"><ele>599.2</ele><name>TP01998</name><time>2021-12-16T21:15:57Z</time></trkpt>
   <trkpt lat="30.790695" lon="34.726124"><ele>599.6</ele><name>TP01999</name><time>2021-12-16T21:16:03Z</time></trkpt>
   <trkpt lat="30.790693" lon="34.726026"><ele>600.8</ele><name>TP02000</name><time>2021-12-16T21:16:09Z</time></trkpt>
   <trkpt lat="30.790688" lon="34.726008"><ele>601</ele><name>TP02001</name><time>2021-12-16T21:16:10Z</time></trkpt>
   <trkpt lat="30.790659" lon="34.725931"><ele>601.8</ele><name>TP02002</name><time>2021-12-16T21:16:14Z</time></trkpt>
   <trkpt lat="30.790641" lon="34.725875"><ele>602.4</ele><name>TP02003</name><time>2021-12-16T21:16:17Z</time></trkpt>
   <trkpt lat="30.790632" lon="34.725839"><ele>602.8</ele><name>TP02004</name><time>2021-12-16T21:16:19Z</time></trkpt>
   <trkpt lat="30.790604" lon="34.725753"><ele>603.8</ele><name>TP02005</name><time>2021-12-16T21:16:24Z</time></trkpt>
   <trkpt lat="30.790591" lon="34.725716"><ele>604</ele><name>TP02006</name><time>2021-12-16T21:16:26Z</time></trkpt>
   <trkpt lat="30.790573" lon="34.725649"><ele>604.4</ele><name>TP02007</name><time>2021-12-16T21:16:30Z</time></trkpt>
   <trkpt lat="30.790569" lon="34.725631"><ele>604.6</ele><name>TP02008</name><time>2021-12-16T21:16:31Z</time></trkpt>
   <trkpt lat="30.790566" lon="34.725612"><ele>604.8</ele><name>TP02009</name><time>2021-12-16T21:16:33Z</time></trkpt>
   <trkpt lat="30.79056" lon="34.725595"><ele>604.2</ele><name>TP02010</name><time>2021-12-16T21:18:13Z</time></trkpt>
   <trkpt lat="30.790553" lon="34.725579"><ele>604.2</ele><name>TP02011</name><time>2021-12-16T21:18:14Z</time></trkpt>
   <trkpt lat="30.790484" lon="34.725465"><ele>604.6</ele><name>TP02012</name><time>2021-12-16T21:18:20Z</time></trkpt>
   <trkpt lat="30.790374" lon="34.725328"><ele>604.6</ele><name>TP02013</name><time>2021-12-16T21:18:26Z</time></trkpt>
   <trkpt lat="30.790274" lon="34.725151"><ele>605.4</ele><name>TP02014</name><time>2021-12-16T21:18:32Z</time></trkpt>
   <trkpt lat="30.79022" lon="34.72495"><ele>605.4</ele><name>TP02015</name><time>2021-12-16T21:18:38Z</time></trkpt>
   <trkpt lat="30.790265" lon="34.724779"><ele>605.6</ele><name>TP02016</name><time>2021-12-16T21:18:43Z</time></trkpt>
   <trkpt lat="30.79035" lon="34.724498"><ele>605.6</ele><name>TP02017</name><time>2021-12-16T21:18:52Z</time></trkpt>
   <trkpt lat="30.790305" lon="34.724326"><ele>605.6</ele><name>TP02018</name><time>2021-12-16T21:18:57Z</time></trkpt>
   <trkpt lat="30.790244" lon="34.724245"><ele>604.8</ele><name>TP02019</name><time>2021-12-16T21:18:59Z</time></trkpt>
   <trkpt lat="30.790201" lon="34.724199"><ele>604.2</ele><name>TP02020</name><time>2021-12-16T21:19:00Z</time></trkpt>
   <trkpt lat="30.790165" lon="34.724149"><ele>603.8</ele><name>TP02021</name><time>2021-12-16T21:19:01Z</time></trkpt>
   <trkpt lat="30.790112" lon="34.724065"><ele>603</ele><name>TP02022</name><time>2021-12-16T21:19:03Z</time></trkpt>
   <trkpt lat="30.79006" lon="34.723988"><ele>602.4</ele><name>TP02023</name><time>2021-12-16T21:19:05Z</time></trkpt>
   <trkpt lat="30.790003" lon="34.723914"><ele>601.4</ele><name>TP02024</name><time>2021-12-16T21:19:07Z</time></trkpt>
   <trkpt lat="30.789892" lon="34.723798"><ele>600.6</ele><name>TP02025</name><time>2021-12-16T21:19:11Z</time></trkpt>
   <trkpt lat="30.78968" lon="34.723571"><ele>600.4</ele><name>TP02026</name><time>2021-12-16T21:19:19Z</time></trkpt>
   <trkpt lat="30.789657" lon="34.723543"><ele>600.4</ele><name>TP02027</name><time>2021-12-16T21:19:20Z</time></trkpt>
   <trkpt lat="30.789561" lon="34.723473"><ele>601.4</ele><name>TP02028</name><time>2021-12-16T21:19:24Z</time></trkpt>
   <trkpt lat="30.789483" lon="34.72342"><ele>601.6</ele><name>TP02029</name><time>2021-12-16T21:19:28Z</time></trkpt>
   <trkpt lat="30.789454" lon="34.72338"><ele>602</ele><name>TP02030</name><time>2021-12-16T21:19:30Z</time></trkpt>
   <trkpt lat="30.789427" lon="34.723331"><ele>602.2</ele><name>TP02031</name><time>2021-12-16T21:19:32Z</time></trkpt>
   <trkpt lat="30.789403" lon="34.723278"><ele>602.8</ele><name>TP02032</name><time>2021-12-16T21:19:34Z</time></trkpt>
   <trkpt lat="30.789389" lon="34.723252"><ele>603.4</ele><name>TP02033</name><time>2021-12-16T21:19:35Z</time></trkpt>
   <trkpt lat="30.789367" lon="34.723172"><ele>603.8</ele><name>TP02034</name><time>2021-12-16T21:19:38Z</time></trkpt>
   <trkpt lat="30.78933" lon="34.723078"><ele>604.2</ele><name>TP02035</name><time>2021-12-16T21:19:42Z</time></trkpt>
   <trkpt lat="30.789296" lon="34.723021"><ele>605</ele><name>TP02036</name><time>2021-12-16T21:19:45Z</time></trkpt>
   <trkpt lat="30.789287" lon="34.723002"><ele>605.2</ele><name>TP02037</name><time>2021-12-16T21:19:47Z</time></trkpt>
   <trkpt lat="30.789256" lon="34.722965"><ele>605.4</ele><name>TP02038</name><time>2021-12-16T21:20:04Z</time></trkpt>
   <trkpt lat="30.789199" lon="34.722896"><ele>605.8</ele><name>TP02039</name><time>2021-12-16T21:20:09Z</time></trkpt>
   <trkpt lat="30.789187" lon="34.722878"><ele>606</ele><name>TP02040</name><time>2021-12-16T21:20:10Z</time></trkpt>
   <trkpt lat="30.789157" lon="34.722849"><ele>606</ele><name>TP02041</name><time>2021-12-16T21:20:12Z</time></trkpt>
   <trkpt lat="30.789143" lon="34.722835"><ele>606</ele><name>TP02042</name><time>2021-12-16T21:20:13Z</time></trkpt>
   <trkpt lat="30.789131" lon="34.722821"><ele>605.8</ele><name>TP02043</name><time>2021-12-16T21:20:14Z</time></trkpt>
   <trkpt lat="30.789117" lon="34.72281"><ele>605.6</ele><name>TP02044</name><time>2021-12-16T21:20:15Z</time></trkpt>
   <trkpt lat="30.7891" lon="34.722801"><ele>605.4</ele><name>TP02045</name><time>2021-12-16T21:20:16Z</time></trkpt>
   <trkpt lat="30.789083" lon="34.722795"><ele>605.4</ele><name>TP02046</name><time>2021-12-16T21:20:17Z</time></trkpt>
   <trkpt lat="30.789065" lon="34.722786"><ele>605.2</ele><name>TP02047</name><time>2021-12-16T21:20:18Z</time></trkpt>
   <trkpt lat="30.789044" lon="34.722774"><ele>605.2</ele><name>TP02048</name><time>2021-12-16T21:20:19Z</time></trkpt>
   <trkpt lat="30.789024" lon="34.722764"><ele>605</ele><name>TP02049</name><time>2021-12-16T21:20:20Z</time></trkpt>
   <trkpt lat="30.789002" lon="34.722755"><ele>604.8</ele><name>TP02050</name><time>2021-12-16T21:20:21Z</time></trkpt>
   <trkpt lat="30.788975" lon="34.722745"><ele>604.6</ele><name>TP02051</name><time>2021-12-16T21:20:22Z</time></trkpt>
   <trkpt lat="30.788869" lon="34.722715"><ele>604</ele><name>TP02052</name><time>2021-12-16T21:20:25Z</time></trkpt>
   <trkpt lat="30.788829" lon="34.722704"><ele>603.6</ele><name>TP02053</name><time>2021-12-16T21:20:26Z</time></trkpt>
   <trkpt lat="30.7887" lon="34.722675"><ele>602.4</ele><name>TP02054</name><time>2021-12-16T21:20:29Z</time></trkpt>
   <trkpt lat="30.788604" lon="34.722654"><ele>602</ele><name>TP02055</name><time>2021-12-16T21:20:31Z</time></trkpt>
   <trkpt lat="30.788557" lon="34.722636"><ele>601.4</ele><name>TP02056</name><time>2021-12-16T21:20:32Z</time></trkpt>
   <trkpt lat="30.788467" lon="34.722573"><ele>599.8</ele><name>TP02057</name><time>2021-12-16T21:20:34Z</time></trkpt>
   <trkpt lat="30.788425" lon="34.722536"><ele>599.4</ele><name>TP02058</name><time>2021-12-16T21:20:35Z</time></trkpt>
   <trkpt lat="30.788388" lon="34.722497"><ele>599</ele><name>TP02059</name><time>2021-12-16T21:20:36Z</time></trkpt>
   <trkpt lat="30.788355" lon="34.722458"><ele>598.8</ele><name>TP02060</name><time>2021-12-16T21:20:37Z</time></trkpt>
   <trkpt lat="30.788303" lon="34.722385"><ele>598.8</ele><name>TP02061</name><time>2021-12-16T21:20:39Z</time></trkpt>
   <trkpt lat="30.788279" lon="34.722351"><ele>598.8</ele><name>TP02062</name><time>2021-12-16T21:20:40Z</time></trkpt>
   <trkpt lat="30.788146" lon="34.72218"><ele>599.2</ele><name>TP02063</name><time>2021-12-16T21:20:46Z</time></trkpt>
   <trkpt lat="30.788125" lon="34.722163"><ele>599.4</ele><name>TP02064</name><time>2021-12-16T21:20:47Z</time></trkpt>
   <trkpt lat="30.788077" lon="34.722139"><ele>599.8</ele><name>TP02065</name><time>2021-12-16T21:20:49Z</time></trkpt>
   <trkpt lat="30.788012" lon="34.722118"><ele>600</ele><name>TP02066</name><time>2021-12-16T21:20:52Z</time></trkpt>
   <trkpt lat="30.787967" lon="34.722102"><ele>600</ele><name>TP02067</name><time>2021-12-16T21:20:54Z</time></trkpt>
   <trkpt lat="30.787907" lon="34.722066"><ele>600</ele><name>TP02068</name><time>2021-12-16T21:20:57Z</time></trkpt>
   <trkpt lat="30.787869" lon="34.722033"><ele>600</ele><name>TP02069</name><time>2021-12-16T21:20:59Z</time></trkpt>
   <trkpt lat="30.787785" lon="34.721946"><ele>600.8</ele><name>TP02070</name><time>2021-12-16T21:21:05Z</time></trkpt>
   <trkpt lat="30.787773" lon="34.721929"><ele>600.8</ele><name>TP02071</name><time>2021-12-16T21:21:06Z</time></trkpt>
   <trkpt lat="30.787722" lon="34.72186"><ele>602</ele><name>TP02072</name><time>2021-12-16T21:21:10Z</time></trkpt>
   <trkpt lat="30.787699" lon="34.72183"><ele>602.6</ele><name>TP02073</name><time>2021-12-16T21:21:12Z</time></trkpt>
   <trkpt lat="30.787678" lon="34.7218"><ele>603</ele><name>TP02074</name><time>2021-12-16T21:21:14Z</time></trkpt>
   <trkpt lat="30.787656" lon="34.721772"><ele>603</ele><name>TP02075</name><time>2021-12-16T21:21:16Z</time></trkpt>
   <trkpt lat="30.787646" lon="34.721756"><ele>603.2</ele><name>TP02076</name><time>2021-12-16T21:21:17Z</time></trkpt>
   <trkpt lat="30.787636" lon="34.721739"><ele>603.6</ele><name>TP02077</name><time>2021-12-16T21:21:18Z</time></trkpt>
   <trkpt lat="30.7876" lon="34.72167"><ele>604</ele><name>TP02078</name><time>2021-12-16T21:21:22Z</time></trkpt>
   <trkpt lat="30.787564" lon="34.721601"><ele>604.8</ele><name>TP02079</name><time>2021-12-16T21:21:26Z</time></trkpt>
   <trkpt lat="30.787537" lon="34.721556"><ele>605</ele><name>TP02080</name><time>2021-12-16T21:21:29Z</time></trkpt>
   <trkpt lat="30.787531" lon="34.721541"><ele>605.2</ele><name>TP02081</name><time>2021-12-16T21:21:30Z</time></trkpt>
   <trkpt lat="30.787475" lon="34.72146"><ele>606.2</ele><name>TP02082</name><time>2021-12-16T21:21:35Z</time></trkpt>
   <trkpt lat="30.787467" lon="34.721448"><ele>606.4</ele><name>TP02083</name><time>2021-12-16T21:21:36Z</time></trkpt>
   <trkpt lat="30.78745" lon="34.721427"><ele>607.2</ele><name>TP02084</name><time>2021-12-16T21:21:38Z</time></trkpt>
   <trkpt lat="30.787435" lon="34.721417"><ele>607.6</ele><name>TP02085</name><time>2021-12-16T21:21:39Z</time></trkpt>
   <trkpt lat="30.787404" lon="34.721411"><ele>608.2</ele><name>TP02086</name><time>2021-12-16T21:21:41Z</time></trkpt>
   <trkpt lat="30.787392" lon="34.721412"><ele>608.2</ele><name>TP02087</name><time>2021-12-16T21:21:42Z</time></trkpt>
   <trkpt lat="30.787379" lon="34.721412"><ele>608.4</ele><name>TP02088</name><time>2021-12-16T21:21:43Z</time></trkpt>
   <trkpt lat="30.787366" lon="34.721416"><ele>608.4</ele><name>TP02089</name><time>2021-12-16T21:21:44Z</time></trkpt>
   <trkpt lat="30.787357" lon="34.721427"><ele>608.4</ele><name>TP02090</name><time>2021-12-16T21:21:45Z</time></trkpt>
   <trkpt lat="30.787346" lon="34.721455"><ele>608.6</ele><name>TP02091</name><time>2021-12-16T21:21:47Z</time></trkpt>
   <trkpt lat="30.787324" lon="34.721465"><ele>608.8</ele><name>TP02092</name><time>2021-12-16T21:21:49Z</time></trkpt>
   <trkpt lat="30.787302" lon="34.721475"><ele>609</ele><name>TP02093</name><time>2021-12-16T21:21:51Z</time></trkpt>
   <trkpt lat="30.78728" lon="34.721492"><ele>609.2</ele><name>TP02094</name><time>2021-12-16T21:21:53Z</time></trkpt>
   <trkpt lat="30.787222" lon="34.721562"><ele>609.4</ele><name>TP02095</name><time>2021-12-16T21:21:59Z</time></trkpt>
   <trkpt lat="30.787199" lon="34.721581"><ele>609.8</ele><name>TP02096</name><time>2021-12-16T21:22:01Z</time></trkpt>
   <trkpt lat="30.787096" lon="34.721609"><ele>609.4</ele><name>TP02097</name><time>2021-12-16T21:22:07Z</time></trkpt>
   <trkpt lat="30.786992" lon="34.721616"><ele>609</ele><name>TP02098</name><time>2021-12-16T21:22:13Z</time></trkpt>
   <trkpt lat="30.786921" lon="34.721588"><ele>609.2</ele><name>TP02099</name><time>2021-12-16T21:22:18Z</time></trkpt>
   <trkpt lat="30.786905" lon="34.721586"><ele>609.2</ele><name>TP02100</name><time>2021-12-16T21:22:19Z</time></trkpt>
   <trkpt lat="30.786889" lon="34.721579"><ele>609.2</ele><name>TP02101</name><time>2021-12-16T21:22:20Z</time></trkpt>
   <trkpt lat="30.786849" lon="34.721549"><ele>609.2</ele><name>TP02102</name><time>2021-12-16T21:22:23Z</time></trkpt>
   <trkpt lat="30.786788" lon="34.721429"><ele>610</ele><name>TP02103</name><time>2021-12-16T21:22:30Z</time></trkpt>
   <trkpt lat="30.786741" lon="34.721292"><ele>609.8</ele><name>TP02104</name><time>2021-12-16T21:22:36Z</time></trkpt>
   <trkpt lat="30.786625" lon="34.721196"><ele>609.4</ele><name>TP02105</name><time>2021-12-16T21:22:42Z</time></trkpt>
   <trkpt lat="30.786454" lon="34.721131"><ele>609.4</ele><name>TP02106</name><time>2021-12-16T21:22:47Z</time></trkpt>
   <trkpt lat="30.786321" lon="34.721153"><ele>608.6</ele><name>TP02107</name><time>2021-12-16T21:22:51Z</time></trkpt>
   <trkpt lat="30.786184" lon="34.721297"><ele>609</ele><name>TP02108</name><time>2021-12-16T21:22:58Z</time></trkpt>
   <trkpt lat="30.786083" lon="34.721503"><ele>609.8</ele><name>TP02109</name><time>2021-12-16T21:23:05Z</time></trkpt>
   <trkpt lat="30.786006" lon="34.721736"><ele>609.8</ele><name>TP02110</name><time>2021-12-16T21:23:12Z</time></trkpt>
   <trkpt lat="30.78593" lon="34.721882"><ele>609.8</ele><name>TP02111</name><time>2021-12-16T21:23:17Z</time></trkpt>
   <trkpt lat="30.785825" lon="34.722038"><ele>610.4</ele><name>TP02112</name><time>2021-12-16T21:23:23Z</time></trkpt>
   <trkpt lat="30.785795" lon="34.722084"><ele>610.6</ele><name>TP02113</name><time>2021-12-16T21:23:25Z</time></trkpt>
   <trkpt lat="30.785746" lon="34.722184"><ele>611.4</ele><name>TP02114</name><time>2021-12-16T21:23:29Z</time></trkpt>
   <trkpt lat="30.785729" lon="34.722206"><ele>611.8</ele><name>TP02115</name><time>2021-12-16T21:23:30Z</time></trkpt>
   <trkpt lat="30.785636" lon="34.722306"><ele>612.2</ele><name>TP02116</name><time>2021-12-16T21:23:35Z</time></trkpt>
   <trkpt lat="30.785482" lon="34.722394"><ele>612.4</ele><name>TP02117</name><time>2021-12-16T21:23:42Z</time></trkpt>
   <trkpt lat="30.785437" lon="34.722409"><ele>612.8</ele><name>TP02118</name><time>2021-12-16T21:23:44Z</time></trkpt>
   <trkpt lat="30.785281" lon="34.722461"><ele>613</ele><name>TP02119</name><time>2021-12-16T21:23:51Z</time></trkpt>
   <trkpt lat="30.785198" lon="34.722479"><ele>613.6</ele><name>TP02120</name><time>2021-12-16T21:23:55Z</time></trkpt>
   <trkpt lat="30.78518" lon="34.722484"><ele>613.8</ele><name>TP02121</name><time>2021-12-16T21:23:56Z</time></trkpt>
   <trkpt lat="30.78516" lon="34.722489"><ele>614</ele><name>TP02122</name><time>2021-12-16T21:23:57Z</time></trkpt>
   <trkpt lat="30.785063" lon="34.722527"><ele>614.8</ele><name>TP02123</name><time>2021-12-16T21:24:02Z</time></trkpt>
   <trkpt lat="30.785051" lon="34.722536"><ele>615</ele><name>TP02124</name><time>2021-12-16T21:24:03Z</time></trkpt>
   <trkpt lat="30.784966" lon="34.722615"><ele>615.2</ele><name>TP02125</name><time>2021-12-16T21:24:09Z</time></trkpt>
   <trkpt lat="30.78488" lon="34.722706"><ele>615</ele><name>TP02126</name><time>2021-12-16T21:24:16Z</time></trkpt>
   <trkpt lat="30.784872" lon="34.72272"><ele>615</ele><name>TP02127</name><time>2021-12-16T21:24:17Z</time></trkpt>
   <trkpt lat="30.784811" lon="34.722785"><ele>615.6</ele><name>TP02128</name><time>2021-12-16T21:24:22Z</time></trkpt>
   <trkpt lat="30.784783" lon="34.722806"><ele>616</ele><name>TP02129</name><time>2021-12-16T21:24:24Z</time></trkpt>
   <trkpt lat="30.784723" lon="34.722849"><ele>616.4</ele><name>TP02130</name><time>2021-12-16T21:24:28Z</time></trkpt>
   <trkpt lat="30.784683" lon="34.722877"><ele>617.4</ele><name>TP02131</name><time>2021-12-16T21:24:31Z</time></trkpt>
   <trkpt lat="30.784653" lon="34.722892"><ele>617.6</ele><name>TP02132</name><time>2021-12-16T21:24:33Z</time></trkpt>
   <trkpt lat="30.784577" lon="34.722936"><ele>618.4</ele><name>TP02133</name><time>2021-12-16T21:24:39Z</time></trkpt>
   <trkpt lat="30.784486" lon="34.723014"><ele>618.8</ele><name>TP02134</name><time>2021-12-16T21:24:47Z</time></trkpt>
   <trkpt lat="30.784383" lon="34.723073"><ele>619.4</ele><name>TP02135</name><time>2021-12-16T21:24:54Z</time></trkpt>
   <trkpt lat="30.784355" lon="34.723092"><ele>619.6</ele><name>TP02136</name><time>2021-12-16T21:24:56Z</time></trkpt>
   <trkpt lat="30.784299" lon="34.723132"><ele>619.6</ele><name>TP02137</name><time>2021-12-16T21:25:00Z</time></trkpt>
   <trkpt lat="30.784203" lon="34.723188"><ele>620.4</ele><name>TP02138</name><time>2021-12-16T21:25:07Z</time></trkpt>
   <trkpt lat="30.784089" lon="34.723262"><ele>620.4</ele><name>TP02139</name><time>2021-12-16T21:25:15Z</time></trkpt>
   <trkpt lat="30.784003" lon="34.723298"><ele>620.4</ele><name>TP02140</name><time>2021-12-16T21:25:21Z</time></trkpt>
   <trkpt lat="30.783973" lon="34.723306"><ele>620.6</ele><name>TP02141</name><time>2021-12-16T21:25:23Z</time></trkpt>
   <trkpt lat="30.783912" lon="34.723319"><ele>621</ele><name>TP02142</name><time>2021-12-16T21:25:27Z</time></trkpt>
   <trkpt lat="30.783858" lon="34.723326"><ele>621</ele><name>TP02143</name><time>2021-12-16T21:25:32Z</time></trkpt>
   <trkpt lat="30.783869" lon="34.723348"><ele>620.4</ele><name>TP02144</name><time>2021-12-16T21:28:39Z</time></trkpt>
   <trkpt lat="30.78386" lon="34.723362"><ele>620.8</ele><name>TP02145</name><time>2021-12-16T21:28:40Z</time></trkpt>
   <trkpt lat="30.783829" lon="34.723386"><ele>620.8</ele><name>TP02146</name><time>2021-12-16T21:28:43Z</time></trkpt>
   <trkpt lat="30.783821" lon="34.723392"><ele>620.6</ele><name>TP02147</name><time>2021-12-16T21:28:44Z</time></trkpt>
   <trkpt lat="30.783774" lon="34.723422"><ele>620.2</ele><name>TP02148</name><time>2021-12-16T21:28:52Z</time></trkpt>
   <trkpt lat="30.783721" lon="34.72347"><ele>620.8</ele><name>TP02149</name><time>2021-12-16T21:28:56Z</time></trkpt>
   <trkpt lat="30.783703" lon="34.723495"><ele>621</ele><name>TP02150</name><time>2021-12-16T21:28:58Z</time></trkpt>
   <trkpt lat="30.783625" lon="34.723595"><ele>621</ele><name>TP02151</name><time>2021-12-16T21:29:04Z</time></trkpt>
   <trkpt lat="30.783507" lon="34.723718"><ele>621.4</ele><name>TP02152</name><time>2021-12-16T21:29:11Z</time></trkpt>
   <trkpt lat="30.78343" lon="34.723788"><ele>621.4</ele><name>TP02153</name><time>2021-12-16T21:29:16Z</time></trkpt>
   <trkpt lat="30.783329" lon="34.723864"><ele>620.6</ele><name>TP02154</name><time>2021-12-16T21:29:22Z</time></trkpt>
   <trkpt lat="30.783207" lon="34.723917"><ele>620.6</ele><name>TP02155</name><time>2021-12-16T21:29:28Z</time></trkpt>
   <trkpt lat="30.783194" lon="34.723928"><ele>620.6</ele><name>TP02156</name><time>2021-12-16T21:29:29Z</time></trkpt>
   <trkpt lat="30.783155" lon="34.723975"><ele>621.2</ele><name>TP02157</name><time>2021-12-16T21:29:32Z</time></trkpt>
   <trkpt lat="30.783038" lon="34.724018"><ele>621.2</ele><name>TP02158</name><time>2021-12-16T21:29:37Z</time></trkpt>
   <trkpt lat="30.782906" lon="34.724169"><ele>621</ele><name>TP02159</name><time>2021-12-16T21:29:44Z</time></trkpt>
   <trkpt lat="30.782839" lon="34.724351"><ele>621</ele><name>TP02160</name><time>2021-12-16T21:29:50Z</time></trkpt>
   <trkpt lat="30.782763" lon="34.724575"><ele>620.2</ele><name>TP02161</name><time>2021-12-16T21:29:58Z</time></trkpt>
   <trkpt lat="30.782718" lon="34.724706"><ele>620.6</ele><name>TP02162</name><time>2021-12-16T21:30:03Z</time></trkpt>
   <trkpt lat="30.782666" lon="34.724845"><ele>620.2</ele><name>TP02163</name><time>2021-12-16T21:30:09Z</time></trkpt>
   <trkpt lat="30.782659" lon="34.724858"><ele>620.2</ele><name>TP02164</name><time>2021-12-16T21:30:10Z</time></trkpt>
   <trkpt lat="30.782652" lon="34.724867"><ele>619.8</ele><name>TP02165</name><time>2021-12-16T21:30:12Z</time></trkpt>
   <trkpt lat="30.782646" lon="34.724882"><ele>619.8</ele><name>TP02166</name><time>2021-12-16T21:30:14Z</time></trkpt>
   <trkpt lat="30.782641" lon="34.724891"><ele>619.6</ele><name>TP02167</name><time>2021-12-16T21:30:15Z</time></trkpt>
   <trkpt lat="30.782619" lon="34.724948"><ele>619.2</ele><name>TP02168</name><time>2021-12-16T21:30:34Z</time></trkpt>
   <trkpt lat="30.782609" lon="34.724968"><ele>619</ele><name>TP02169</name><time>2021-12-16T21:30:35Z</time></trkpt>
   <trkpt lat="30.782585" lon="34.725045"><ele>618.8</ele><name>TP02170</name><time>2021-12-16T21:30:38Z</time></trkpt>
   <trkpt lat="30.782572" lon="34.72507"><ele>618.6</ele><name>TP02171</name><time>2021-12-16T21:30:39Z</time></trkpt>
   <trkpt lat="30.782535" lon="34.725142"><ele>618.6</ele><name>TP02172</name><time>2021-12-16T21:30:42Z</time></trkpt>
   <trkpt lat="30.782523" lon="34.725165"><ele>618.8</ele><name>TP02173</name><time>2021-12-16T21:30:43Z</time></trkpt>
   <trkpt lat="30.782495" lon="34.725208"><ele>619</ele><name>TP02174</name><time>2021-12-16T21:30:45Z</time></trkpt>
   <trkpt lat="30.782455" lon="34.725269"><ele>619.2</ele><name>TP02175</name><time>2021-12-16T21:30:48Z</time></trkpt>
   <trkpt lat="30.782445" lon="34.725291"><ele>619.2</ele><name>TP02176</name><time>2021-12-16T21:30:49Z</time></trkpt>
   <trkpt lat="30.782376" lon="34.725432"><ele>619.2</ele><name>TP02177</name><time>2021-12-16T21:30:54Z</time></trkpt>
   <trkpt lat="30.782316" lon="34.725586"><ele>618.8</ele><name>TP02178</name><time>2021-12-16T21:30:59Z</time></trkpt>
   <trkpt lat="30.782286" lon="34.725647"><ele>619.2</ele><name>TP02179</name><time>2021-12-16T21:31:02Z</time></trkpt>
   <trkpt lat="30.782268" lon="34.72566"><ele>619.4</ele><name>TP02180</name><time>2021-12-16T21:31:03Z</time></trkpt>
   <trkpt lat="30.782094" lon="34.725757"><ele>618.8</ele><name>TP02181</name><time>2021-12-16T21:31:10Z</time></trkpt>
   <trkpt lat="30.781945" lon="34.725771"><ele>618</ele><name>TP02182</name><time>2021-12-16T21:31:15Z</time></trkpt>
   <trkpt lat="30.781911" lon="34.725765"><ele>617.6</ele><name>TP02183</name><time>2021-12-16T21:31:16Z</time></trkpt>
   <trkpt lat="30.781795" lon="34.725757"><ele>616.8</ele><name>TP02184</name><time>2021-12-16T21:31:19Z</time></trkpt>
   <trkpt lat="30.781756" lon="34.725744"><ele>616.6</ele><name>TP02185</name><time>2021-12-16T21:31:20Z</time></trkpt>
   <trkpt lat="30.781667" lon="34.725708"><ele>616.6</ele><name>TP02186</name><time>2021-12-16T21:31:22Z</time></trkpt>
   <trkpt lat="30.78159" lon="34.725656"><ele>616.4</ele><name>TP02187</name><time>2021-12-16T21:31:24Z</time></trkpt>
   <trkpt lat="30.781554" lon="34.72564"><ele>616.2</ele><name>TP02188</name><time>2021-12-16T21:31:25Z</time></trkpt>
   <trkpt lat="30.781338" lon="34.725547"><ele>616.8</ele><name>TP02189</name><time>2021-12-16T21:31:31Z</time></trkpt>
   <trkpt lat="30.781167" lon="34.725428"><ele>616.8</ele><name>TP02190</name><time>2021-12-16T21:31:36Z</time></trkpt>
   <trkpt lat="30.780973" lon="34.725405"><ele>614.8</ele><name>TP02191</name><time>2021-12-16T21:31:41Z</time></trkpt>
   <trkpt lat="30.780924" lon="34.725388"><ele>613.6</ele><name>TP02192</name><time>2021-12-16T21:31:43Z</time></trkpt>
   <trkpt lat="30.780895" lon="34.725376"><ele>613</ele><name>TP02193</name><time>2021-12-16T21:31:45Z</time></trkpt>
   <trkpt lat="30.780869" lon="34.725364"><ele>612.6</ele><name>TP02194</name><time>2021-12-16T21:31:47Z</time></trkpt>
   <trkpt lat="30.780905" lon="34.725332"><ele>611.8</ele><name>TP02195</name><time>2021-12-16T21:32:23Z</time></trkpt>
   <trkpt lat="30.780912" lon="34.725316"><ele>611.6</ele><name>TP02196</name><time>2021-12-16T21:32:24Z</time></trkpt>
   <trkpt lat="30.78092" lon="34.725301"><ele>611.4</ele><name>TP02197</name><time>2021-12-16T21:32:25Z</time></trkpt>
   <trkpt lat="30.780923" lon="34.725289"><ele>611</ele><name>TP02198</name><time>2021-12-16T21:32:26Z</time></trkpt>
   <trkpt lat="30.780933" lon="34.725244"><ele>610.4</ele><name>TP02199</name><time>2021-12-16T21:32:30Z</time></trkpt>
   <trkpt lat="30.780929" lon="34.725197"><ele>610.4</ele><name>TP02200</name><time>2021-12-16T21:32:32Z</time></trkpt>
   <trkpt lat="30.780948" lon="34.725111"><ele>609</ele><name>TP02201</name><time>2021-12-16T21:32:35Z</time></trkpt>
   <trkpt lat="30.780979" lon="34.725039"><ele>608.4</ele><name>TP02202</name><time>2021-12-16T21:32:37Z</time></trkpt>
   <trkpt lat="30.78101" lon="34.724969"><ele>607.4</ele><name>TP02203</name><time>2021-12-16T21:32:39Z</time></trkpt>
   <trkpt lat="30.781026" lon="34.724935"><ele>607</ele><name>TP02204</name><time>2021-12-16T21:32:40Z</time></trkpt>
   <trkpt lat="30.781079" lon="34.724831"><ele>606.4</ele><name>TP02205</name><time>2021-12-16T21:32:43Z</time></trkpt>
   <trkpt lat="30.781116" lon="34.724751"><ele>606</ele><name>TP02206</name><time>2021-12-16T21:32:45Z</time></trkpt>
   <trkpt lat="30.781127" lon="34.724705"><ele>605.4</ele><name>TP02207</name><time>2021-12-16T21:32:46Z</time></trkpt>
   <trkpt lat="30.781148" lon="34.724611"><ele>604.2</ele><name>TP02208</name><time>2021-12-16T21:32:48Z</time></trkpt>
   <trkpt lat="30.781199" lon="34.724512"><ele>603</ele><name>TP02209</name><time>2021-12-16T21:32:51Z</time></trkpt>
   <trkpt lat="30.781219" lon="34.724491"><ele>602.6</ele><name>TP02210</name><time>2021-12-16T21:32:52Z</time></trkpt>
   <trkpt lat="30.781289" lon="34.724357"><ele>602</ele><name>TP02211</name><time>2021-12-16T21:32:57Z</time></trkpt>
   <trkpt lat="30.781319" lon="34.724256"><ele>600.8</ele><name>TP02212</name><time>2021-12-16T21:33:01Z</time></trkpt>
   <trkpt lat="30.781329" lon="34.724232"><ele>600.4</ele><name>TP02213</name><time>2021-12-16T21:33:02Z</time></trkpt>
   <trkpt lat="30.781332" lon="34.724208"><ele>599.8</ele><name>TP02214</name><time>2021-12-16T21:33:03Z</time></trkpt>
   <trkpt lat="30.781327" lon="34.724187"><ele>599.4</ele><name>TP02215</name><time>2021-12-16T21:33:04Z</time></trkpt>
   <trkpt lat="30.781306" lon="34.724172"><ele>599</ele><name>TP02216</name><time>2021-12-16T21:33:06Z</time></trkpt>
   <trkpt lat="30.781229" lon="34.724232"><ele>598.8</ele><name>TP02217</name><time>2021-12-16T21:33:11Z</time></trkpt>
   <trkpt lat="30.781113" lon="34.724276"><ele>599</ele><name>TP02218</name><time>2021-12-16T21:33:16Z</time></trkpt>
   <trkpt lat="30.781087" lon="34.724288"><ele>598.8</ele><name>TP02219</name><time>2021-12-16T21:33:17Z</time></trkpt>
   <trkpt lat="30.780957" lon="34.724342"><ele>598.6</ele><name>TP02220</name><time>2021-12-16T21:33:21Z</time></trkpt>
   <trkpt lat="30.780825" lon="34.724416"><ele>598.2</ele><name>TP02221</name><time>2021-12-16T21:33:25Z</time></trkpt>
   <trkpt lat="30.780777" lon="34.724457"><ele>597.6</ele><name>TP02222</name><time>2021-12-16T21:33:27Z</time></trkpt>
   <trkpt lat="30.780725" lon="34.72449"><ele>597.2</ele><name>TP02223</name><time>2021-12-16T21:33:29Z</time></trkpt>
   <trkpt lat="30.780605" lon="34.724537"><ele>597.6</ele><name>TP02224</name><time>2021-12-16T21:33:33Z</time></trkpt>
   <trkpt lat="30.780468" lon="34.724678"><ele>596.8</ele><name>TP02225</name><time>2021-12-16T21:33:38Z</time></trkpt>
   <trkpt lat="30.780343" lon="34.724798"><ele>596</ele><name>TP02226</name><time>2021-12-16T21:33:42Z</time></trkpt>
   <trkpt lat="30.780281" lon="34.724854"><ele>595.8</ele><name>TP02227</name><time>2021-12-16T21:33:44Z</time></trkpt>
   <trkpt lat="30.780142" lon="34.72496"><ele>595.6</ele><name>TP02228</name><time>2021-12-16T21:33:48Z</time></trkpt>
   <trkpt lat="30.780074" lon="34.725023"><ele>595.6</ele><name>TP02229</name><time>2021-12-16T21:33:50Z</time></trkpt>
   <trkpt lat="30.77993" lon="34.725116"><ele>595.6</ele><name>TP02230</name><time>2021-12-16T21:33:54Z</time></trkpt>
   <trkpt lat="30.779884" lon="34.72512"><ele>595.6</ele><name>TP02231</name><time>2021-12-16T21:33:55Z</time></trkpt>
   <trkpt lat="30.779741" lon="34.72511"><ele>595</ele><name>TP02232</name><time>2021-12-16T21:33:58Z</time></trkpt>
   <trkpt lat="30.779697" lon="34.725104"><ele>594.4</ele><name>TP02233</name><time>2021-12-16T21:33:59Z</time></trkpt>
   <trkpt lat="30.779655" lon="34.725094"><ele>594.2</ele><name>TP02234</name><time>2021-12-16T21:34:00Z</time></trkpt>
   <trkpt lat="30.779617" lon="34.725087"><ele>593.8</ele><name>TP02235</name><time>2021-12-16T21:34:01Z</time></trkpt>
   <trkpt lat="30.779579" lon="34.725078"><ele>593.6</ele><name>TP02236</name><time>2021-12-16T21:34:02Z</time></trkpt>
   <trkpt lat="30.779461" lon="34.725036"><ele>593</ele><name>TP02237</name><time>2021-12-16T21:34:05Z</time></trkpt>
   <trkpt lat="30.779422" lon="34.725029"><ele>592.8</ele><name>TP02238</name><time>2021-12-16T21:34:06Z</time></trkpt>
   <trkpt lat="30.779263" lon="34.725001"><ele>593.2</ele><name>TP02239</name><time>2021-12-16T21:34:10Z</time></trkpt>
   <trkpt lat="30.779063" lon="34.725013"><ele>591.8</ele><name>TP02240</name><time>2021-12-16T21:34:16Z</time></trkpt>
   <trkpt lat="30.778941" lon="34.725026"><ele>590.8</ele><name>TP02241</name><time>2021-12-16T21:34:20Z</time></trkpt>
   <trkpt lat="30.778906" lon="34.725034"><ele>590.4</ele><name>TP02242</name><time>2021-12-16T21:34:21Z</time></trkpt>
   <trkpt lat="30.778779" lon="34.725076"><ele>590.6</ele><name>TP02243</name><time>2021-12-16T21:34:25Z</time></trkpt>
   <trkpt lat="30.778745" lon="34.725064"><ele>590.4</ele><name>TP02244</name><time>2021-12-16T21:34:26Z</time></trkpt>
   <trkpt lat="30.778548" lon="34.724965"><ele>590</ele><name>TP02245</name><time>2021-12-16T21:34:32Z</time></trkpt>
   <trkpt lat="30.778511" lon="34.724951"><ele>590</ele><name>TP02246</name><time>2021-12-16T21:34:33Z</time></trkpt>
   <trkpt lat="30.778369" lon="34.724913"><ele>591</ele><name>TP02247</name><time>2021-12-16T21:34:38Z</time></trkpt>
   <trkpt lat="30.778332" lon="34.724907"><ele>591.8</ele><name>TP02248</name><time>2021-12-16T21:34:40Z</time></trkpt>
   <trkpt lat="30.778281" lon="34.724905"><ele>591.8</ele><name>TP02249</name><time>2021-12-16T21:34:43Z</time></trkpt>
   <trkpt lat="30.778227" lon="34.72494"><ele>590.2</ele><name>TP02250</name><time>2021-12-16T21:34:47Z</time></trkpt>
   <trkpt lat="30.778222" lon="34.724946"><ele>589.8</ele><name>TP02251</name><time>2021-12-16T21:34:48Z</time></trkpt>
   <trkpt lat="30.778216" lon="34.72495"><ele>589.6</ele><name>TP02252</name><time>2021-12-16T21:34:49Z</time></trkpt>
   <trkpt lat="30.778188" lon="34.724969"><ele>589.2</ele><name>TP02253</name><time>2021-12-16T21:34:53Z</time></trkpt>
   <trkpt lat="30.778161" lon="34.724984"><ele>589</ele><name>TP02254</name><time>2021-12-16T21:34:55Z</time></trkpt>
   <trkpt lat="30.778075" lon="34.725029"><ele>588.8</ele><name>TP02255</name><time>2021-12-16T21:34:59Z</time></trkpt>
   <trkpt lat="30.778014" lon="34.725065"><ele>588</ele><name>TP02256</name><time>2021-12-16T21:35:01Z</time></trkpt>
   <trkpt lat="30.777955" lon="34.725115"><ele>587.2</ele><name>TP02257</name><time>2021-12-16T21:35:03Z</time></trkpt>
   <trkpt lat="30.777929" lon="34.725133"><ele>586.6</ele><name>TP02258</name><time>2021-12-16T21:35:04Z</time></trkpt>
   <trkpt lat="30.777833" lon="34.725167"><ele>586.2</ele><name>TP02259</name><time>2021-12-16T21:35:08Z</time></trkpt>
   <trkpt lat="30.777676" lon="34.725189"><ele>587</ele><name>TP02260</name><time>2021-12-16T21:35:14Z</time></trkpt>
   <trkpt lat="30.777538" lon="34.72517"><ele>587.2</ele><name>TP02261</name><time>2021-12-16T21:35:20Z</time></trkpt>
   <trkpt lat="30.777445" lon="34.725221"><ele>586.2</ele><name>TP02262</name><time>2021-12-16T21:35:24Z</time></trkpt>
   <trkpt lat="30.77739" lon="34.72525"><ele>585.6</ele><name>TP02263</name><time>2021-12-16T21:35:26Z</time></trkpt>
   <trkpt lat="30.777366" lon="34.725246"><ele>585.4</ele><name>TP02264</name><time>2021-12-16T21:35:27Z</time></trkpt>
   <trkpt lat="30.77734" lon="34.725242"><ele>585.2</ele><name>TP02265</name><time>2021-12-16T21:35:28Z</time></trkpt>
   <trkpt lat="30.777287" lon="34.725228"><ele>584.6</ele><name>TP02266</name><time>2021-12-16T21:35:30Z</time></trkpt>
   <trkpt lat="30.777234" lon="34.725209"><ele>584.2</ele><name>TP02267</name><time>2021-12-16T21:35:32Z</time></trkpt>
   <trkpt lat="30.777179" lon="34.72519"><ele>583.8</ele><name>TP02268</name><time>2021-12-16T21:35:34Z</time></trkpt>
   <trkpt lat="30.77709" lon="34.725165"><ele>583.2</ele><name>TP02269</name><time>2021-12-16T21:35:37Z</time></trkpt>
   <trkpt lat="30.777071" lon="34.725151"><ele>582.8</ele><name>TP02270</name><time>2021-12-16T21:35:38Z</time></trkpt>
   <trkpt lat="30.777036" lon="34.725129"><ele>582</ele><name>TP02271</name><time>2021-12-16T21:35:40Z</time></trkpt>
   <trkpt lat="30.776987" lon="34.725123"><ele>582.4</ele><name>TP02272</name><time>2021-12-16T21:35:43Z</time></trkpt>
   <trkpt lat="30.776963" lon="34.72512"><ele>583</ele><name>TP02273</name><time>2021-12-16T21:35:45Z</time></trkpt>
   <trkpt lat="30.776956" lon="34.725123"><ele>583</ele><name>TP02274</name><time>2021-12-16T21:35:46Z</time></trkpt>
   <trkpt lat="30.776934" lon="34.725083"><ele>583.4</ele><name>TP02275</name><time>2021-12-16T21:36:22Z</time></trkpt>
   <trkpt lat="30.776924" lon="34.72507"><ele>583.6</ele><name>TP02276</name><time>2021-12-16T21:36:23Z</time></trkpt>
   <trkpt lat="30.776844" lon="34.725027"><ele>583.2</ele><name>TP02277</name><time>2021-12-16T21:36:27Z</time></trkpt>
   <trkpt lat="30.776796" lon="34.725031"><ele>583</ele><name>TP02278</name><time>2021-12-16T21:36:29Z</time></trkpt>
   <trkpt lat="30.77673" lon="34.725039"><ele>583</ele><name>TP02279</name><time>2021-12-16T21:36:32Z</time></trkpt>
   <trkpt lat="30.776587" lon="34.725078"><ele>583</ele><name>TP02280</name><time>2021-12-16T21:36:37Z</time></trkpt>
   <trkpt lat="30.776516" lon="34.72516"><ele>582.2</ele><name>TP02281</name><time>2021-12-16T21:36:40Z</time></trkpt>
   <trkpt lat="30.776468" lon="34.725216"><ele>581.6</ele><name>TP02282</name><time>2021-12-16T21:36:42Z</time></trkpt>
   <trkpt lat="30.776447" lon="34.725245"><ele>581.4</ele><name>TP02283</name><time>2021-12-16T21:36:43Z</time></trkpt>
   <trkpt lat="30.776385" lon="34.725348"><ele>581</ele><name>TP02284</name><time>2021-12-16T21:36:46Z</time></trkpt>
   <trkpt lat="30.776346" lon="34.72543"><ele>580.2</ele><name>TP02285</name><time>2021-12-16T21:36:48Z</time></trkpt>
   <trkpt lat="30.776312" lon="34.725505"><ele>578.8</ele><name>TP02286</name><time>2021-12-16T21:36:50Z</time></trkpt>
   <trkpt lat="30.776285" lon="34.72557"><ele>577.4</ele><name>TP02287</name><time>2021-12-16T21:36:52Z</time></trkpt>
   <trkpt lat="30.776254" lon="34.725626"><ele>577</ele><name>TP02288</name><time>2021-12-16T21:36:54Z</time></trkpt>
   <trkpt lat="30.776163" lon="34.725689"><ele>577.4</ele><name>TP02289</name><time>2021-12-16T21:36:58Z</time></trkpt>
   <trkpt lat="30.776015" lon="34.725703"><ele>577.4</ele><name>TP02290</name><time>2021-12-16T21:37:03Z</time></trkpt>
   <trkpt lat="30.775948" lon="34.725716"><ele>576.4</ele><name>TP02291</name><time>2021-12-16T21:37:05Z</time></trkpt>
   <trkpt lat="30.77584" lon="34.725759"><ele>575.2</ele><name>TP02292</name><time>2021-12-16T21:37:09Z</time></trkpt>
   <trkpt lat="30.775756" lon="34.725793"><ele>575</ele><name>TP02293</name><time>2021-12-16T21:37:13Z</time></trkpt>
   <trkpt lat="30.775741" lon="34.725793"><ele>575</ele><name>TP02294</name><time>2021-12-16T21:37:14Z</time></trkpt>
   <trkpt lat="30.775684" lon="34.725798"><ele>575.6</ele><name>TP02295</name><time>2021-12-16T21:37:17Z</time></trkpt>
   <trkpt lat="30.775648" lon="34.725805"><ele>576</ele><name>TP02296</name><time>2021-12-16T21:37:19Z</time></trkpt>
   <trkpt lat="30.77563" lon="34.725808"><ele>576.2</ele><name>TP02297</name><time>2021-12-16T21:37:20Z</time></trkpt>
   <trkpt lat="30.775576" lon="34.72581"><ele>576.6</ele><name>TP02298</name><time>2021-12-16T21:37:23Z</time></trkpt>
   <trkpt lat="30.775559" lon="34.725812"><ele>576.8</ele><name>TP02299</name><time>2021-12-16T21:37:24Z</time></trkpt>
   <trkpt lat="30.775526" lon="34.725815"><ele>577.2</ele><name>TP02300</name><time>2021-12-16T21:37:26Z</time></trkpt>
   <trkpt lat="30.775464" lon="34.725839"><ele>578.6</ele><name>TP02301</name><time>2021-12-16T21:37:30Z</time></trkpt>
   <trkpt lat="30.775439" lon="34.725857"><ele>579.2</ele><name>TP02302</name><time>2021-12-16T21:37:32Z</time></trkpt>
   <trkpt lat="30.775395" lon="34.72592"><ele>579.6</ele><name>TP02303</name><time>2021-12-16T21:37:38Z</time></trkpt>
   <trkpt lat="30.775375" lon="34.725972"><ele>581.2</ele><name>TP02304</name><time>2021-12-16T21:37:41Z</time></trkpt>
   <trkpt lat="30.775359" lon="34.726019"><ele>581.2</ele><name>TP02305</name><time>2021-12-16T21:37:44Z</time></trkpt>
   <trkpt lat="30.775311" lon="34.726157"><ele>580.8</ele><name>TP02306</name><time>2021-12-16T21:37:53Z</time></trkpt>
   <trkpt lat="30.775279" lon="34.726279"><ele>580.8</ele><name>TP02307</name><time>2021-12-16T21:38:01Z</time></trkpt>
   <trkpt lat="30.775305" lon="34.72642"><ele>580.6</ele><name>TP02308</name><time>2021-12-16T21:38:08Z</time></trkpt>
   <trkpt lat="30.775324" lon="34.726538"><ele>580</ele><name>TP02309</name><time>2021-12-16T21:38:13Z</time></trkpt>
   <trkpt lat="30.775324" lon="34.726566"><ele>579.8</ele><name>TP02310</name><time>2021-12-16T21:38:14Z</time></trkpt>
   <trkpt lat="30.77534" lon="34.726656"><ele>579</ele><name>TP02311</name><time>2021-12-16T21:38:18Z</time></trkpt>
   <trkpt lat="30.775348" lon="34.726676"><ele>578.8</ele><name>TP02312</name><time>2021-12-16T21:38:19Z</time></trkpt>
   <trkpt lat="30.775363" lon="34.72674"><ele>577.8</ele><name>TP02313</name><time>2021-12-16T21:38:22Z</time></trkpt>
   <trkpt lat="30.775378" lon="34.726795"><ele>576.6</ele><name>TP02314</name><time>2021-12-16T21:38:24Z</time></trkpt>
   <trkpt lat="30.775391" lon="34.726815"><ele>576</ele><name>TP02315</name><time>2021-12-16T21:38:25Z</time></trkpt>
   <trkpt lat="30.775413" lon="34.72686"><ele>575.4</ele><name>TP02316</name><time>2021-12-16T21:38:27Z</time></trkpt>
   <trkpt lat="30.77545" lon="34.726946"><ele>574.8</ele><name>TP02317</name><time>2021-12-16T21:38:31Z</time></trkpt>
   <trkpt lat="30.775465" lon="34.726992"><ele>574.2</ele><name>TP02318</name><time>2021-12-16T21:38:33Z</time></trkpt>
   <trkpt lat="30.775482" lon="34.727087"><ele>573</ele><name>TP02319</name><time>2021-12-16T21:38:36Z</time></trkpt>
   <trkpt lat="30.775498" lon="34.727149"><ele>572</ele><name>TP02320</name><time>2021-12-16T21:38:38Z</time></trkpt>
   <trkpt lat="30.775524" lon="34.727247"><ele>571.4</ele><name>TP02321</name><time>2021-12-16T21:38:42Z</time></trkpt>
   <trkpt lat="30.775532" lon="34.727299"><ele>571</ele><name>TP02322</name><time>2021-12-16T21:38:44Z</time></trkpt>
   <trkpt lat="30.775546" lon="34.727348"><ele>569.8</ele><name>TP02323</name><time>2021-12-16T21:38:46Z</time></trkpt>
   <trkpt lat="30.775555" lon="34.72738"><ele>569.6</ele><name>TP02324</name><time>2021-12-16T21:38:47Z</time></trkpt>
   <trkpt lat="30.775589" lon="34.727509"><ele>568.8</ele><name>TP02325</name><time>2021-12-16T21:38:50Z</time></trkpt>
   <trkpt lat="30.775606" lon="34.727658"><ele>568.2</ele><name>TP02326</name><time>2021-12-16T21:38:53Z</time></trkpt>
   <trkpt lat="30.775605" lon="34.727708"><ele>567.4</ele><name>TP02327</name><time>2021-12-16T21:38:54Z</time></trkpt>
   <trkpt lat="30.775609" lon="34.727805"><ele>566.4</ele><name>TP02328</name><time>2021-12-16T21:38:56Z</time></trkpt>
   <trkpt lat="30.775607" lon="34.727849"><ele>565.8</ele><name>TP02329</name><time>2021-12-16T21:38:57Z</time></trkpt>
   <trkpt lat="30.775601" lon="34.727899"><ele>565.8</ele><name>TP02330</name><time>2021-12-16T21:38:58Z</time></trkpt>
   <trkpt lat="30.77559" lon="34.72799"><ele>565.4</ele><name>TP02331</name><time>2021-12-16T21:39:00Z</time></trkpt>
   <trkpt lat="30.77558" lon="34.72809"><ele>564.6</ele><name>TP02332</name><time>2021-12-16T21:39:02Z</time></trkpt>
   <trkpt lat="30.775577" lon="34.72814"><ele>564.2</ele><name>TP02333</name><time>2021-12-16T21:39:03Z</time></trkpt>
   <trkpt lat="30.775569" lon="34.72825"><ele>563.4</ele><name>TP02334</name><time>2021-12-16T21:39:05Z</time></trkpt>
   <trkpt lat="30.775553" lon="34.728413"><ele>562.2</ele><name>TP02335</name><time>2021-12-16T21:39:08Z</time></trkpt>
   <trkpt lat="30.775557" lon="34.728507"><ele>561.8</ele><name>TP02336</name><time>2021-12-16T21:39:10Z</time></trkpt>
   <trkpt lat="30.775576" lon="34.728728"><ele>562.2</ele><name>TP02337</name><time>2021-12-16T21:39:16Z</time></trkpt>
   <trkpt lat="30.775565" lon="34.728869"><ele>561.8</ele><name>TP02338</name><time>2021-12-16T21:39:19Z</time></trkpt>
   <trkpt lat="30.775565" lon="34.728918"><ele>561.2</ele><name>TP02339</name><time>2021-12-16T21:39:20Z</time></trkpt>
   <trkpt lat="30.775557" lon="34.728969"><ele>560.8</ele><name>TP02340</name><time>2021-12-16T21:39:21Z</time></trkpt>
   <trkpt lat="30.775549" lon="34.729016"><ele>560.2</ele><name>TP02341</name><time>2021-12-16T21:39:22Z</time></trkpt>
   <trkpt lat="30.775542" lon="34.729189"><ele>559.4</ele><name>TP02342</name><time>2021-12-16T21:39:25Z</time></trkpt>
   <trkpt lat="30.775551" lon="34.729252"><ele>559.2</ele><name>TP02343</name><time>2021-12-16T21:39:26Z</time></trkpt>
   <trkpt lat="30.775614" lon="34.729417"><ele>559.2</ele><name>TP02344</name><time>2021-12-16T21:39:29Z</time></trkpt>
   <trkpt lat="30.775647" lon="34.729593"><ele>559.2</ele><name>TP02345</name><time>2021-12-16T21:39:33Z</time></trkpt>
   <trkpt lat="30.775645" lon="34.729773"><ele>559.4</ele><name>TP02346</name><time>2021-12-16T21:39:38Z</time></trkpt>
   <trkpt lat="30.775631" lon="34.729858"><ele>559</ele><name>TP02347</name><time>2021-12-16T21:39:42Z</time></trkpt>
   <trkpt lat="30.775631" lon="34.729865"><ele>558.8</ele><name>TP02348</name><time>2021-12-16T21:39:43Z</time></trkpt>
   <trkpt lat="30.775632" lon="34.729869"><ele>558.4</ele><name>TP02349</name><time>2021-12-16T21:39:47Z</time></trkpt>
   <trkpt lat="30.775632" lon="34.72987"><ele>558.4</ele><name>TP02350</name><time>2021-12-16T21:39:48Z</time></trkpt>
   <trkpt lat="30.775617" lon="34.73"><ele>554.8</ele><name>TP02351</name><time>2021-12-16T21:47:26Z</time></trkpt>
   <trkpt lat="30.775617" lon="34.730013"><ele>554.8</ele><name>TP02352</name><time>2021-12-16T21:47:27Z</time></trkpt>
   <trkpt lat="30.775626" lon="34.73006"><ele>555</ele><name>TP02353</name><time>2021-12-16T21:47:30Z</time></trkpt>
   <trkpt lat="30.775626" lon="34.730195"><ele>554.6</ele><name>TP02354</name><time>2021-12-16T21:47:36Z</time></trkpt>
   <trkpt lat="30.775622" lon="34.730318"><ele>554.8</ele><name>TP02355</name><time>2021-12-16T21:47:41Z</time></trkpt>
   <trkpt lat="30.775627" lon="34.730446"><ele>554.6</ele><name>TP02356</name><time>2021-12-16T21:47:46Z</time></trkpt>
   <trkpt lat="30.775622" lon="34.730507"><ele>554.2</ele><name>TP02357</name><time>2021-12-16T21:47:49Z</time></trkpt>
   <trkpt lat="30.775617" lon="34.730527"><ele>554</ele><name>TP02358</name><time>2021-12-16T21:47:50Z</time></trkpt>
   <trkpt lat="30.775592" lon="34.730706"><ele>553.8</ele><name>TP02359</name><time>2021-12-16T21:47:56Z</time></trkpt>
   <trkpt lat="30.7756" lon="34.730825"><ele>553</ele><name>TP02360</name><time>2021-12-16T21:48:00Z</time></trkpt>
   <trkpt lat="30.77561" lon="34.730914"><ele>552.4</ele><name>TP02361</name><time>2021-12-16T21:48:03Z</time></trkpt>
   <trkpt lat="30.775618" lon="34.731002"><ele>552.4</ele><name>TP02362</name><time>2021-12-16T21:48:06Z</time></trkpt>
   <trkpt lat="30.77562" lon="34.731047"><ele>552.4</ele><name>TP02363</name><time>2021-12-16T21:48:08Z</time></trkpt>
   <trkpt lat="30.775624" lon="34.731121"><ele>552.2</ele><name>TP02364</name><time>2021-12-16T21:48:11Z</time></trkpt>
   <trkpt lat="30.775623" lon="34.731248"><ele>552</ele><name>TP02365</name><time>2021-12-16T21:48:15Z</time></trkpt>
   <trkpt lat="30.775628" lon="34.731336"><ele>551.8</ele><name>TP02366</name><time>2021-12-16T21:48:18Z</time></trkpt>
   <trkpt lat="30.775636" lon="34.73142"><ele>551.6</ele><name>TP02367</name><time>2021-12-16T21:48:21Z</time></trkpt>
   <trkpt lat="30.775642" lon="34.731605"><ele>552.8</ele><name>TP02368</name><time>2021-12-16T21:48:27Z</time></trkpt>
   <trkpt lat="30.775641" lon="34.731635"><ele>553</ele><name>TP02369</name><time>2021-12-16T21:48:28Z</time></trkpt>
   <trkpt lat="30.775624" lon="34.731798"><ele>553.2</ele><name>TP02370</name><time>2021-12-16T21:48:34Z</time></trkpt>
   <trkpt lat="30.775623" lon="34.731942"><ele>552.8</ele><name>TP02371</name><time>2021-12-16T21:48:39Z</time></trkpt>
   <trkpt lat="30.775615" lon="34.732127"><ele>552.4</ele><name>TP02372</name><time>2021-12-16T21:48:45Z</time></trkpt>
   <trkpt lat="30.775654" lon="34.732308"><ele>552.4</ele><name>TP02373</name><time>2021-12-16T21:48:52Z</time></trkpt>
   <trkpt lat="30.775658" lon="34.732446"><ele>552.4</ele><name>TP02374</name><time>2021-12-16T21:48:57Z</time></trkpt>
   <trkpt lat="30.775641" lon="34.732629"><ele>552.2</ele><name>TP02375</name><time>2021-12-16T21:49:03Z</time></trkpt>
   <trkpt lat="30.775636" lon="34.732844"><ele>552.4</ele><name>TP02376</name><time>2021-12-16T21:49:10Z</time></trkpt>
   <trkpt lat="30.775651" lon="34.733056"><ele>552.6</ele><name>TP02377</name><time>2021-12-16T21:49:17Z</time></trkpt>
   <trkpt lat="30.775639" lon="34.733239"><ele>552.2</ele><name>TP02378</name><time>2021-12-16T21:49:23Z</time></trkpt>
   <trkpt lat="30.775634" lon="34.73346"><ele>552.4</ele><name>TP02379</name><time>2021-12-16T21:49:30Z</time></trkpt>
   <trkpt lat="30.77558" lon="34.733639"><ele>552</ele><name>TP02380</name><time>2021-12-16T21:49:35Z</time></trkpt>
   <trkpt lat="30.775536" lon="34.733848"><ele>551.4</ele><name>TP02381</name><time>2021-12-16T21:49:41Z</time></trkpt>
   <trkpt lat="30.775529" lon="34.734012"><ele>551.2</ele><name>TP02382</name><time>2021-12-16T21:49:47Z</time></trkpt>
   <trkpt lat="30.775521" lon="34.734052"><ele>551.2</ele><name>TP02383</name><time>2021-12-16T21:49:49Z</time></trkpt>
   <trkpt lat="30.775541" lon="34.734102"><ele>551.2</ele><name>TP02384</name><time>2021-12-16T21:49:52Z</time></trkpt>
   <trkpt lat="30.775516" lon="34.734216"><ele>550.8</ele><name>TP02385</name><time>2021-12-16T21:49:56Z</time></trkpt>
   <trkpt lat="30.775478" lon="34.734402"><ele>550.8</ele><name>TP02386</name><time>2021-12-16T21:50:02Z</time></trkpt>
   <trkpt lat="30.775469" lon="34.734605"><ele>551.2</ele><name>TP02387</name><time>2021-12-16T21:50:09Z</time></trkpt>
   <trkpt lat="30.775474" lon="34.734625"><ele>551.4</ele><name>TP02388</name><time>2021-12-16T21:50:11Z</time></trkpt>
   <trkpt lat="30.775484" lon="34.734664"><ele>551.6</ele><name>TP02389</name><time>2021-12-16T21:50:17Z</time></trkpt>
   <trkpt lat="30.775491" lon="34.734666"><ele>551.6</ele><name>TP02390</name><time>2021-12-16T21:50:18Z</time></trkpt>
   <trkpt lat="30.775498" lon="34.734667"><ele>551.6</ele><name>TP02391</name><time>2021-12-16T21:50:19Z</time></trkpt>
   <trkpt lat="30.775485" lon="34.734717"><ele>551.6</ele><name>TP02392</name><time>2021-12-16T21:50:37Z</time></trkpt>
   <trkpt lat="30.775476" lon="34.734755"><ele>551.6</ele><name>TP02393</name><time>2021-12-16T21:50:39Z</time></trkpt>
   <trkpt lat="30.775457" lon="34.734833"><ele>551.6</ele><name>TP02394</name><time>2021-12-16T21:50:42Z</time></trkpt>
   <trkpt lat="30.775443" lon="34.734894"><ele>551.6</ele><name>TP02395</name><time>2021-12-16T21:50:44Z</time></trkpt>
   <trkpt lat="30.775437" lon="34.734925"><ele>552</ele><name>TP02396</name><time>2021-12-16T21:50:45Z</time></trkpt>
   <trkpt lat="30.775387" lon="34.735048"><ele>551.8</ele><name>TP02397</name><time>2021-12-16T21:50:49Z</time></trkpt>
   <trkpt lat="30.775346" lon="34.735247"><ele>551.6</ele><name>TP02398</name><time>2021-12-16T21:50:55Z</time></trkpt>
   <trkpt lat="30.77533" lon="34.735381"><ele>551.6</ele><name>TP02399</name><time>2021-12-16T21:51:00Z</time></trkpt>
   <trkpt lat="30.775256" lon="34.735619"><ele>552.2</ele><name>TP02400</name><time>2021-12-16T21:51:08Z</time></trkpt>
   <trkpt lat="30.775204" lon="34.735748"><ele>552</ele><name>TP02401</name><time>2021-12-16T21:51:13Z</time></trkpt>
   <trkpt lat="30.775191" lon="34.735798"><ele>552</ele><name>TP02402</name><time>2021-12-16T21:51:15Z</time></trkpt>
   <trkpt lat="30.775126" lon="34.735993"><ele>552.4</ele><name>TP02403</name><time>2021-12-16T21:51:23Z</time></trkpt>
   <trkpt lat="30.775119" lon="34.736015"><ele>552.4</ele><name>TP02404</name><time>2021-12-16T21:51:24Z</time></trkpt>
   <trkpt lat="30.775068" lon="34.736124"><ele>552</ele><name>TP02405</name><time>2021-12-16T21:51:30Z</time></trkpt>
   <trkpt lat="30.775009" lon="34.736297"><ele>551.4</ele><name>TP02406</name><time>2021-12-16T21:51:36Z</time></trkpt>
   <trkpt lat="30.774935" lon="34.736478"><ele>552</ele><name>TP02407</name><time>2021-12-16T21:51:43Z</time></trkpt>
   <trkpt lat="30.774855" lon="34.736668"><ele>551.4</ele><name>TP02408</name><time>2021-12-16T21:51:50Z</time></trkpt>
   <trkpt lat="30.774775" lon="34.736868"><ele>551.2</ele><name>TP02409</name><time>2021-12-16T21:51:57Z</time></trkpt>
   <trkpt lat="30.774738" lon="34.736952"><ele>550.8</ele><name>TP02410</name><time>2021-12-16T21:52:00Z</time></trkpt>
   <trkpt lat="30.774693" lon="34.737068"><ele>550.8</ele><name>TP02411</name><time>2021-12-16T21:52:04Z</time></trkpt>
   <trkpt lat="30.774614" lon="34.737293"><ele>551.2</ele><name>TP02412</name><time>2021-12-16T21:52:12Z</time></trkpt>
   <trkpt lat="30.774605" lon="34.737319"><ele>551.2</ele><name>TP02413</name><time>2021-12-16T21:52:13Z</time></trkpt>
   <trkpt lat="30.774517" lon="34.737521"><ele>551.2</ele><name>TP02414</name><time>2021-12-16T21:52:20Z</time></trkpt>
   <trkpt lat="30.774409" lon="34.737748"><ele>550.8</ele><name>TP02415</name><time>2021-12-16T21:52:27Z</time></trkpt>
   <trkpt lat="30.774252" lon="34.738042"><ele>550.6</ele><name>TP02416</name><time>2021-12-16T21:52:36Z</time></trkpt>
   <trkpt lat="30.774158" lon="34.738175"><ele>550.2</ele><name>TP02417</name><time>2021-12-16T21:52:41Z</time></trkpt>
   <trkpt lat="30.774153" lon="34.738292"><ele>550.2</ele><name>TP02418</name><time>2021-12-16T21:52:45Z</time></trkpt>
   <trkpt lat="30.774127" lon="34.738335"><ele>549.8</ele><name>TP02419</name><time>2021-12-16T21:52:47Z</time></trkpt>
   <trkpt lat="30.774102" lon="34.738388"><ele>549.8</ele><name>TP02420</name><time>2021-12-16T21:52:49Z</time></trkpt>
   <trkpt lat="30.774092" lon="34.738417"><ele>549.8</ele><name>TP02421</name><time>2021-12-16T21:52:50Z</time></trkpt>
   <trkpt lat="30.774018" lon="34.738581"><ele>550.4</ele><name>TP02422</name><time>2021-12-16T21:52:55Z</time></trkpt>
   <trkpt lat="30.77393" lon="34.73879"><ele>550</ele><name>TP02423</name><time>2021-12-16T21:53:00Z</time></trkpt>
   <trkpt lat="30.77392" lon="34.738836"><ele>550</ele><name>TP02424</name><time>2021-12-16T21:53:01Z</time></trkpt>
   <trkpt lat="30.773875" lon="34.739021"><ele>550</ele><name>TP02425</name><time>2021-12-16T21:53:06Z</time></trkpt>
   <trkpt lat="30.773812" lon="34.739293"><ele>549.4</ele><name>TP02426</name><time>2021-12-16T21:53:14Z</time></trkpt>
   <trkpt lat="30.773793" lon="34.739379"><ele>549.2</ele><name>TP02427</name><time>2021-12-16T21:53:17Z</time></trkpt>
   <trkpt lat="30.773789" lon="34.739387"><ele>548.4</ele><name>TP02428</name><time>2021-12-16T21:53:24Z</time></trkpt>
   <trkpt lat="30.773791" lon="34.739384"><ele>548.4</ele><name>TP02429</name><time>2021-12-16T21:53:25Z</time></trkpt>
   <trkpt lat="30.773793" lon="34.739378"><ele>548.4</ele><name>TP02430</name><time>2021-12-16T21:53:26Z</time></trkpt>
   <trkpt lat="30.773796" lon="34.739399"><ele>548.4</ele><name>TP02431</name><time>2021-12-16T21:54:00Z</time></trkpt>
   <trkpt lat="30.773788" lon="34.739438"><ele>548.6</ele><name>TP02432</name><time>2021-12-16T21:54:02Z</time></trkpt>
   <trkpt lat="30.773768" lon="34.739517"><ele>548.8</ele><name>TP02433</name><time>2021-12-16T21:54:05Z</time></trkpt>
   <trkpt lat="30.773734" lon="34.739608"><ele>548.8</ele><name>TP02434</name><time>2021-12-16T21:54:08Z</time></trkpt>
   <trkpt lat="30.773593" lon="34.739911"><ele>548.2</ele><name>TP02435</name><time>2021-12-16T21:54:17Z</time></trkpt>
   <trkpt lat="30.773496" lon="34.740185"><ele>548.4</ele><name>TP02436</name><time>2021-12-16T21:54:24Z</time></trkpt>
   <trkpt lat="30.773431" lon="34.740408"><ele>548.4</ele><name>TP02437</name><time>2021-12-16T21:54:30Z</time></trkpt>
   <trkpt lat="30.773359" lon="34.740649"><ele>548.8</ele><name>TP02438</name><time>2021-12-16T21:54:37Z</time></trkpt>
   <trkpt lat="30.77332" lon="34.740744"><ele>549.6</ele><name>TP02439</name><time>2021-12-16T21:54:40Z</time></trkpt>
   <trkpt lat="30.773279" lon="34.740815"><ele>549.4</ele><name>TP02440</name><time>2021-12-16T21:54:42Z</time></trkpt>
   <trkpt lat="30.773209" lon="34.741028"><ele>548.6</ele><name>TP02441</name><time>2021-12-16T21:54:47Z</time></trkpt>
   <trkpt lat="30.773244" lon="34.741187"><ele>548.8</ele><name>TP02442</name><time>2021-12-16T21:54:51Z</time></trkpt>
   <trkpt lat="30.773268" lon="34.741286"><ele>549</ele><name>TP02443</name><time>2021-12-16T21:54:54Z</time></trkpt>
   <trkpt lat="30.773303" lon="34.741365"><ele>549.6</ele><name>TP02444</name><time>2021-12-16T21:54:57Z</time></trkpt>
   <trkpt lat="30.773338" lon="34.741427"><ele>550</ele><name>TP02445</name><time>2021-12-16T21:55:00Z</time></trkpt>
   <trkpt lat="30.773383" lon="34.7415"><ele>550.2</ele><name>TP02446</name><time>2021-12-16T21:55:04Z</time></trkpt>
   <trkpt lat="30.773456" lon="34.741573"><ele>550.2</ele><name>TP02447</name><time>2021-12-16T21:55:10Z</time></trkpt>
   <trkpt lat="30.773504" lon="34.741604"><ele>550.8</ele><name>TP02448</name><time>2021-12-16T21:55:13Z</time></trkpt>
   <trkpt lat="30.77353" lon="34.741629"><ele>550.8</ele><name>TP02449</name><time>2021-12-16T21:55:15Z</time></trkpt>
   <trkpt lat="30.773576" lon="34.741671"><ele>550.8</ele><name>TP02450</name><time>2021-12-16T21:55:20Z</time></trkpt>
   <trkpt lat="30.773579" lon="34.741676"><ele>550.8</ele><name>TP02451</name><time>2021-12-16T21:55:21Z</time></trkpt>
   <trkpt lat="30.773611" lon="34.74171"><ele>551.8</ele><name>TP02452</name><time>2021-12-16T21:55:38Z</time></trkpt>
   <trkpt lat="30.773626" lon="34.741727"><ele>551.8</ele><name>TP02453</name><time>2021-12-16T21:55:39Z</time></trkpt>
   <trkpt lat="30.773638" lon="34.741745"><ele>552</ele><name>TP02454</name><time>2021-12-16T21:55:40Z</time></trkpt>
   <trkpt lat="30.773739" lon="34.741861"><ele>552.2</ele><name>TP02455</name><time>2021-12-16T21:55:46Z</time></trkpt>
   <trkpt lat="30.773886" lon="34.74203"><ele>552.2</ele><name>TP02456</name><time>2021-12-16T21:55:53Z</time></trkpt>
   <trkpt lat="30.77391" lon="34.742056"><ele>552</ele><name>TP02457</name><time>2021-12-16T21:55:54Z</time></trkpt>
   <trkpt lat="30.774023" lon="34.742171"><ele>551.4</ele><name>TP02458</name><time>2021-12-16T21:55:58Z</time></trkpt>
   <trkpt lat="30.774058" lon="34.742198"><ele>551</ele><name>TP02459</name><time>2021-12-16T21:55:59Z</time></trkpt>
   <trkpt lat="30.774128" lon="34.742255"><ele>550.6</ele><name>TP02460</name><time>2021-12-16T21:56:01Z</time></trkpt>
   <trkpt lat="30.774194" lon="34.74233"><ele>550.2</ele><name>TP02461</name><time>2021-12-16T21:56:03Z</time></trkpt>
   <trkpt lat="30.77422" lon="34.742371"><ele>550</ele><name>TP02462</name><time>2021-12-16T21:56:04Z</time></trkpt>
   <trkpt lat="30.774285" lon="34.742519"><ele>550</ele><name>TP02463</name><time>2021-12-16T21:56:08Z</time></trkpt>
   <trkpt lat="30.774299" lon="34.742552"><ele>550</ele><name>TP02464</name><time>2021-12-16T21:56:09Z</time></trkpt>
   <trkpt lat="30.774428" lon="34.742715"><ele>550.6</ele><name>TP02465</name><time>2021-12-16T21:56:15Z</time></trkpt>
   <trkpt lat="30.77463" lon="34.742839"><ele>550.4</ele><name>TP02466</name><time>2021-12-16T21:56:21Z</time></trkpt>
   <trkpt lat="30.774817" lon="34.742916"><ele>550.4</ele><name>TP02467</name><time>2021-12-16T21:56:26Z</time></trkpt>
   <trkpt lat="30.774931" lon="34.742968"><ele>550</ele><name>TP02468</name><time>2021-12-16T21:56:29Z</time></trkpt>
   <trkpt lat="30.775008" lon="34.743004"><ele>549.4</ele><name>TP02469</name><time>2021-12-16T21:56:31Z</time></trkpt>
   <trkpt lat="30.775241" lon="34.743105"><ele>549.2</ele><name>TP02470</name><time>2021-12-16T21:56:37Z</time></trkpt>
   <trkpt lat="30.775466" lon="34.743187"><ele>548.8</ele><name>TP02471</name><time>2021-12-16T21:56:43Z</time></trkpt>
   <trkpt lat="30.775629" lon="34.743278"><ele>548.6</ele><name>TP02472</name><time>2021-12-16T21:56:48Z</time></trkpt>
   <trkpt lat="30.775773" lon="34.743359"><ele>548.4</ele><name>TP02473</name><time>2021-12-16T21:56:52Z</time></trkpt>
   <trkpt lat="30.77585" lon="34.743392"><ele>548.2</ele><name>TP02474</name><time>2021-12-16T21:56:54Z</time></trkpt>
   <trkpt lat="30.776105" lon="34.743516"><ele>547.8</ele><name>TP02475</name><time>2021-12-16T21:57:01Z</time></trkpt>
   <trkpt lat="30.77639" lon="34.743632"><ele>548</ele><name>TP02476</name><time>2021-12-16T21:57:09Z</time></trkpt>
   <trkpt lat="30.776626" lon="34.743717"><ele>548</ele><name>TP02477</name><time>2021-12-16T21:57:16Z</time></trkpt>
   <trkpt lat="30.77688" lon="34.743749"><ele>547.6</ele><name>TP02478</name><time>2021-12-16T21:57:23Z</time></trkpt>
   <trkpt lat="30.777114" lon="34.743728"><ele>547.6</ele><name>TP02479</name><time>2021-12-16T21:57:30Z</time></trkpt>
   <trkpt lat="30.777394" lon="34.74373"><ele>547.6</ele><name>TP02480</name><time>2021-12-16T21:57:38Z</time></trkpt>
   <trkpt lat="30.77759" lon="34.743742"><ele>547.2</ele><name>TP02481</name><time>2021-12-16T21:57:44Z</time></trkpt>
   <trkpt lat="30.777731" lon="34.743807"><ele>547.6</ele><name>TP02482</name><time>2021-12-16T21:57:49Z</time></trkpt>
   <trkpt lat="30.777914" lon="34.743946"><ele>547.6</ele><name>TP02483</name><time>2021-12-16T21:57:55Z</time></trkpt>
   <trkpt lat="30.778127" lon="34.744156"><ele>547.4</ele><name>TP02484</name><time>2021-12-16T21:58:02Z</time></trkpt>
   <trkpt lat="30.778338" lon="34.744367"><ele>546.8</ele><name>TP02485</name><time>2021-12-16T21:58:09Z</time></trkpt>
   <trkpt lat="30.778492" lon="34.744544"><ele>546.2</ele><name>TP02486</name><time>2021-12-16T21:58:14Z</time></trkpt>
   <trkpt lat="30.778527" lon="34.744575"><ele>546.2</ele><name>TP02487</name><time>2021-12-16T21:58:15Z</time></trkpt>
   <trkpt lat="30.778566" lon="34.744602"><ele>546</ele><name>TP02488</name><time>2021-12-16T21:58:16Z</time></trkpt>
   <trkpt lat="30.778648" lon="34.74465"><ele>545.6</ele><name>TP02489</name><time>2021-12-16T21:58:18Z</time></trkpt>
   <trkpt lat="30.778784" lon="34.744736"><ele>545.2</ele><name>TP02490</name><time>2021-12-16T21:58:22Z</time></trkpt>
   <trkpt lat="30.778974" lon="34.744906"><ele>545.4</ele><name>TP02491</name><time>2021-12-16T21:58:30Z</time></trkpt>
   <trkpt lat="30.77902" lon="34.744958"><ele>545</ele><name>TP02492</name><time>2021-12-16T21:58:32Z</time></trkpt>
   <trkpt lat="30.779097" lon="34.74506"><ele>544.6</ele><name>TP02493</name><time>2021-12-16T21:58:35Z</time></trkpt>
   <trkpt lat="30.779125" lon="34.745107"><ele>544.4</ele><name>TP02494</name><time>2021-12-16T21:58:36Z</time></trkpt>
   <trkpt lat="30.779177" lon="34.745203"><ele>543.8</ele><name>TP02495</name><time>2021-12-16T21:58:38Z</time></trkpt>
   <trkpt lat="30.779215" lon="34.745298"><ele>542</ele><name>TP02496</name><time>2021-12-16T21:58:40Z</time></trkpt>
   <trkpt lat="30.779213" lon="34.74535"><ele>541.2</ele><name>TP02497</name><time>2021-12-16T21:58:41Z</time></trkpt>
   <trkpt lat="30.779195" lon="34.745397"><ele>540.6</ele><name>TP02498</name><time>2021-12-16T21:58:42Z</time></trkpt>
   <trkpt lat="30.779135" lon="34.745468"><ele>539.4</ele><name>TP02499</name><time>2021-12-16T21:58:44Z</time></trkpt>
   <trkpt lat="30.77905" lon="34.745557"><ele>539</ele><name>TP02500</name><time>2021-12-16T21:58:47Z</time></trkpt>
   <trkpt lat="30.779018" lon="34.745615"><ele>538.4</ele><name>TP02501</name><time>2021-12-16T21:58:49Z</time></trkpt>
   <trkpt lat="30.779002" lon="34.745691"><ele>538.8</ele><name>TP02502</name><time>2021-12-16T21:58:52Z</time></trkpt>
   <trkpt lat="30.778998" lon="34.74572"><ele>539</ele><name>TP02503</name><time>2021-12-16T21:58:53Z</time></trkpt>
   <trkpt lat="30.778989" lon="34.745802"><ele>539.4</ele><name>TP02504</name><time>2021-12-16T21:58:56Z</time></trkpt>
   <trkpt lat="30.77899" lon="34.745828"><ele>539.4</ele><name>TP02505</name><time>2021-12-16T21:58:57Z</time></trkpt>
   <trkpt lat="30.778992" lon="34.745886"><ele>539.2</ele><name>TP02506</name><time>2021-12-16T21:58:59Z</time></trkpt>
   <trkpt lat="30.779007" lon="34.746061"><ele>540</ele><name>TP02507</name><time>2021-12-16T21:59:05Z</time></trkpt>
   <trkpt lat="30.779008" lon="34.746086"><ele>540.2</ele><name>TP02508</name><time>2021-12-16T21:59:06Z</time></trkpt>
   <trkpt lat="30.779004" lon="34.746138"><ele>540.4</ele><name>TP02509</name><time>2021-12-16T21:59:08Z</time></trkpt>
   <trkpt lat="30.778994" lon="34.746275"><ele>541.2</ele><name>TP02510</name><time>2021-12-16T21:59:14Z</time></trkpt>
   <trkpt lat="30.779027" lon="34.746401"><ele>541.6</ele><name>TP02511</name><time>2021-12-16T21:59:19Z</time></trkpt>
   <trkpt lat="30.779035" lon="34.746425"><ele>541.8</ele><name>TP02512</name><time>2021-12-16T21:59:20Z</time></trkpt>
   <trkpt lat="30.779091" lon="34.746568"><ele>542.2</ele><name>TP02513</name><time>2021-12-16T21:59:26Z</time></trkpt>
   <trkpt lat="30.779111" lon="34.746618"><ele>542.6</ele><name>TP02514</name><time>2021-12-16T21:59:28Z</time></trkpt>
   <trkpt lat="30.779135" lon="34.746709"><ele>543</ele><name>TP02515</name><time>2021-12-16T21:59:32Z</time></trkpt>
   <trkpt lat="30.779153" lon="34.746809"><ele>543.6</ele><name>TP02516</name><time>2021-12-16T21:59:37Z</time></trkpt>
   <trkpt lat="30.779156" lon="34.746825"><ele>543.8</ele><name>TP02517</name><time>2021-12-16T21:59:38Z</time></trkpt>
   <trkpt lat="30.779184" lon="34.746961"><ele>544.4</ele><name>TP02518</name><time>2021-12-16T21:59:45Z</time></trkpt>
   <trkpt lat="30.779236" lon="34.747104"><ele>544.6</ele><name>TP02519</name><time>2021-12-16T21:59:52Z</time></trkpt>
   <trkpt lat="30.779265" lon="34.747226"><ele>545.6</ele><name>TP02520</name><time>2021-12-16T21:59:58Z</time></trkpt>
   <trkpt lat="30.779272" lon="34.747274"><ele>546.2</ele><name>TP02521</name><time>2021-12-16T22:00:00Z</time></trkpt>
   <trkpt lat="30.779261" lon="34.747434"><ele>546.2</ele><name>TP02522</name><time>2021-12-16T22:00:07Z</time></trkpt>
   <trkpt lat="30.779238" lon="34.747598"><ele>546.4</ele><name>TP02523</name><time>2021-12-16T22:00:14Z</time></trkpt>
   <trkpt lat="30.779228" lon="34.747798"><ele>546.2</ele><name>TP02524</name><time>2021-12-16T22:00:22Z</time></trkpt>
   <trkpt lat="30.779226" lon="34.747822"><ele>546.2</ele><name>TP02525</name><time>2021-12-16T22:00:23Z</time></trkpt>
   <trkpt lat="30.779212" lon="34.747918"><ele>545.8</ele><name>TP02526</name><time>2021-12-16T22:00:28Z</time></trkpt>
   <trkpt lat="30.779203" lon="34.747955"><ele>545.6</ele><name>TP02527</name><time>2021-12-16T22:00:30Z</time></trkpt>
   <trkpt lat="30.779193" lon="34.748016"><ele>545.2</ele><name>TP02528</name><time>2021-12-16T22:00:33Z</time></trkpt>
   <trkpt lat="30.779163" lon="34.748126"><ele>545.2</ele><name>TP02529</name><time>2021-12-16T22:00:38Z</time></trkpt>
   <trkpt lat="30.77911" lon="34.74827"><ele>545.2</ele><name>TP02530</name><time>2021-12-16T22:00:44Z</time></trkpt>
   <trkpt lat="30.779096" lon="34.748294"><ele>545.2</ele><name>TP02531</name><time>2021-12-16T22:00:45Z</time></trkpt>
   <trkpt lat="30.779035" lon="34.748402"><ele>545.4</ele><name>TP02532</name><time>2021-12-16T22:00:49Z</time></trkpt>
   <trkpt lat="30.778986" lon="34.748478"><ele>544.8</ele><name>TP02533</name><time>2021-12-16T22:00:52Z</time></trkpt>
   <trkpt lat="30.778954" lon="34.748557"><ele>544.6</ele><name>TP02534</name><time>2021-12-16T22:00:55Z</time></trkpt>
   <trkpt lat="30.778922" lon="34.748683"><ele>544.2</ele><name>TP02535</name><time>2021-12-16T22:00:59Z</time></trkpt>
   <trkpt lat="30.778911" lon="34.748793"><ele>543.6</ele><name>TP02536</name><time>2021-12-16T22:01:02Z</time></trkpt>
   <trkpt lat="30.778912" lon="34.748918"><ele>543.2</ele><name>TP02537</name><time>2021-12-16T22:01:05Z</time></trkpt>
   <trkpt lat="30.778918" lon="34.749007"><ele>542.4</ele><name>TP02538</name><time>2021-12-16T22:01:07Z</time></trkpt>
   <trkpt lat="30.778936" lon="34.749177"><ele>541.8</ele><name>TP02539</name><time>2021-12-16T22:01:11Z</time></trkpt>
   <trkpt lat="30.778934" lon="34.749363"><ele>542</ele><name>TP02540</name><time>2021-12-16T22:01:16Z</time></trkpt>
   <trkpt lat="30.778934" lon="34.74951"><ele>541.8</ele><name>TP02541</name><time>2021-12-16T22:01:20Z</time></trkpt>
   <trkpt lat="30.778945" lon="34.749578"><ele>541.6</ele><name>TP02542</name><time>2021-12-16T22:01:22Z</time></trkpt>
   <trkpt lat="30.77895" lon="34.749615"><ele>541.4</ele><name>TP02543</name><time>2021-12-16T22:01:23Z</time></trkpt>
   <trkpt lat="30.779002" lon="34.749717"><ele>541.2</ele><name>TP02544</name><time>2021-12-16T22:01:26Z</time></trkpt>
   <trkpt lat="30.779139" lon="34.749878"><ele>541.2</ele><name>TP02545</name><time>2021-12-16T22:01:32Z</time></trkpt>
   <trkpt lat="30.779298" lon="34.750056"><ele>541</ele><name>TP02546</name><time>2021-12-16T22:01:39Z</time></trkpt>
   <trkpt lat="30.779383" lon="34.750174"><ele>540.4</ele><name>TP02547</name><time>2021-12-16T22:01:44Z</time></trkpt>
   <trkpt lat="30.77951" lon="34.750396"><ele>540.6</ele><name>TP02548</name><time>2021-12-16T22:01:51Z</time></trkpt>
   <trkpt lat="30.779552" lon="34.75056"><ele>540</ele><name>TP02549</name><time>2021-12-16T22:01:55Z</time></trkpt>
   <trkpt lat="30.779562" lon="34.750601"><ele>540</ele><name>TP02550</name><time>2021-12-16T22:01:56Z</time></trkpt>
   <trkpt lat="30.779567" lon="34.750774"><ele>539.4</ele><name>TP02551</name><time>2021-12-16T22:02:00Z</time></trkpt>
   <trkpt lat="30.779555" lon="34.750822"><ele>539.2</ele><name>TP02552</name><time>2021-12-16T22:02:01Z</time></trkpt>
   <trkpt lat="30.77954" lon="34.750868"><ele>539</ele><name>TP02553</name><time>2021-12-16T22:02:02Z</time></trkpt>
   <trkpt lat="30.779501" lon="34.750952"><ele>537.4</ele><name>TP02554</name><time>2021-12-16T22:02:04Z</time></trkpt>
   <trkpt lat="30.779434" lon="34.751055"><ele>536.6</ele><name>TP02555</name><time>2021-12-16T22:02:07Z</time></trkpt>
   <trkpt lat="30.779398" lon="34.751203"><ele>536.8</ele><name>TP02556</name><time>2021-12-16T22:02:11Z</time></trkpt>
   <trkpt lat="30.77937" lon="34.751364"><ele>536.2</ele><name>TP02557</name><time>2021-12-16T22:02:15Z</time></trkpt>
   <trkpt lat="30.779373" lon="34.751397"><ele>535.8</ele><name>TP02558</name><time>2021-12-16T22:02:16Z</time></trkpt>
   <trkpt lat="30.779339" lon="34.75153"><ele>535.6</ele><name>TP02559</name><time>2021-12-16T22:02:20Z</time></trkpt>
   <trkpt lat="30.779328" lon="34.751562"><ele>535.6</ele><name>TP02560</name><time>2021-12-16T22:02:21Z</time></trkpt>
   <trkpt lat="30.779317" lon="34.751628"><ele>536.2</ele><name>TP02561</name><time>2021-12-16T22:02:23Z</time></trkpt>
   <trkpt lat="30.779319" lon="34.751696"><ele>537</ele><name>TP02562</name><time>2021-12-16T22:02:25Z</time></trkpt>
   <trkpt lat="30.77932" lon="34.751729"><ele>537.4</ele><name>TP02563</name><time>2021-12-16T22:02:26Z</time></trkpt>
   <trkpt lat="30.779327" lon="34.751828"><ele>537.8</ele><name>TP02564</name><time>2021-12-16T22:02:29Z</time></trkpt>
   <trkpt lat="30.779338" lon="34.752017"><ele>537.8</ele><name>TP02565</name><time>2021-12-16T22:02:34Z</time></trkpt>
   <trkpt lat="30.779394" lon="34.752207"><ele>536.8</ele><name>TP02566</name><time>2021-12-16T22:02:40Z</time></trkpt>
   <trkpt lat="30.779437" lon="34.752356"><ele>537</ele><name>TP02567</name><time>2021-12-16T22:02:45Z</time></trkpt>
   <trkpt lat="30.779513" lon="34.75247"><ele>536.4</ele><name>TP02568</name><time>2021-12-16T22:02:50Z</time></trkpt>
   <trkpt lat="30.77956" lon="34.752516"><ele>536.4</ele><name>TP02569</name><time>2021-12-16T22:02:52Z</time></trkpt>
   <trkpt lat="30.779643" lon="34.752639"><ele>536.2</ele><name>TP02570</name><time>2021-12-16T22:02:57Z</time></trkpt>
   <trkpt lat="30.77964" lon="34.752649"><ele>536</ele><name>TP02571</name><time>2021-12-16T22:02:58Z</time></trkpt>
   <trkpt lat="30.77961" lon="34.752663"><ele>535.8</ele><name>TP02572</name><time>2021-12-16T22:03:01Z</time></trkpt>
   <trkpt lat="30.77961" lon="34.752622"><ele>535.8</ele><name>TP02573</name><time>2021-12-16T22:03:04Z</time></trkpt>
   <trkpt lat="30.779666" lon="34.752667"><ele>535.8</ele><name>TP02574</name><time>2021-12-16T22:03:08Z</time></trkpt>
   <trkpt lat="30.779676" lon="34.752695"><ele>536</ele><name>TP02575</name><time>2021-12-16T22:03:09Z</time></trkpt>
   <trkpt lat="30.779706" lon="34.75278"><ele>536</ele><name>TP02576</name><time>2021-12-16T22:03:12Z</time></trkpt>
   <trkpt lat="30.779727" lon="34.752804"><ele>536</ele><name>TP02577</name><time>2021-12-16T22:03:13Z</time></trkpt>
   <trkpt lat="30.779851" lon="34.752907"><ele>535.6</ele><name>TP02578</name><time>2021-12-16T22:03:19Z</time></trkpt>
   <trkpt lat="30.779877" lon="34.752918"><ele>535.4</ele><name>TP02579</name><time>2021-12-16T22:03:21Z</time></trkpt>
   <trkpt lat="30.779931" lon="34.752929"><ele>535.4</ele><name>TP02580</name><time>2021-12-16T22:03:25Z</time></trkpt>
   <trkpt lat="30.780021" lon="34.752997"><ele>535.8</ele><name>TP02581</name><time>2021-12-16T22:03:31Z</time></trkpt>
   <trkpt lat="30.780039" lon="34.753095"><ele>535.2</ele><name>TP02582</name><time>2021-12-16T22:03:35Z</time></trkpt>
   <trkpt lat="30.780042" lon="34.753143"><ele>534.8</ele><name>TP02583</name><time>2021-12-16T22:03:37Z</time></trkpt>
   <trkpt lat="30.780089" lon="34.753218"><ele>534.4</ele><name>TP02584</name><time>2021-12-16T22:03:42Z</time></trkpt>
   <trkpt lat="30.780096" lon="34.75323"><ele>534.2</ele><name>TP02585</name><time>2021-12-16T22:03:43Z</time></trkpt>
   <trkpt lat="30.780106" lon="34.753256"><ele>534.2</ele><name>TP02586</name><time>2021-12-16T22:03:45Z</time></trkpt>
   <trkpt lat="30.780119" lon="34.753273"><ele>534</ele><name>TP02587</name><time>2021-12-16T22:03:47Z</time></trkpt>
   <trkpt lat="30.780131" lon="34.753284"><ele>534</ele><name>TP02588</name><time>2021-12-16T22:03:51Z</time></trkpt>
   <trkpt lat="30.780151" lon="34.753314"><ele>534</ele><name>TP02589</name><time>2021-12-16T22:03:55Z</time></trkpt>
   <trkpt lat="30.780162" lon="34.753325"><ele>534</ele><name>TP02590</name><time>2021-12-16T22:03:59Z</time></trkpt>
   <trkpt lat="30.780171" lon="34.753344"><ele>534</ele><name>TP02591</name><time>2021-12-16T22:04:01Z</time></trkpt>
   <trkpt lat="30.780229" lon="34.753468"><ele>533.8</ele><name>TP02592</name><time>2021-12-16T22:04:07Z</time></trkpt>
   <trkpt lat="30.78033" lon="34.753652"><ele>533.6</ele><name>TP02593</name><time>2021-12-16T22:04:14Z</time></trkpt>
   <trkpt lat="30.780363" lon="34.753704"><ele>533.2</ele><name>TP02594</name><time>2021-12-16T22:04:16Z</time></trkpt>
   <trkpt lat="30.780404" lon="34.753737"><ele>532.8</ele><name>TP02595</name><time>2021-12-16T22:04:19Z</time></trkpt>
   <trkpt lat="30.780445" lon="34.753784"><ele>532.6</ele><name>TP02596</name><time>2021-12-16T22:04:23Z</time></trkpt>
   <trkpt lat="30.780414" lon="34.753917"><ele>532.2</ele><name>TP02597</name><time>2021-12-16T22:04:28Z</time></trkpt>
   <trkpt lat="30.780417" lon="34.754032"><ele>532.6</ele><name>TP02598</name><time>2021-12-16T22:04:32Z</time></trkpt>
   <trkpt lat="30.780412" lon="34.754125"><ele>532.6</ele><name>TP02599</name><time>2021-12-16T22:04:35Z</time></trkpt>
   <trkpt lat="30.780452" lon="34.7543"><ele>532.8</ele><name>TP02600</name><time>2021-12-16T22:04:40Z</time></trkpt>
   <trkpt lat="30.780516" lon="34.754477"><ele>532.8</ele><name>TP02601</name><time>2021-12-16T22:04:44Z</time></trkpt>
   <trkpt lat="30.780541" lon="34.754526"><ele>532.6</ele><name>TP02602</name><time>2021-12-16T22:04:45Z</time></trkpt>
   <trkpt lat="30.780587" lon="34.754621"><ele>532.2</ele><name>TP02603</name><time>2021-12-16T22:04:47Z</time></trkpt>
   <trkpt lat="30.780683" lon="34.754774"><ele>531.6</ele><name>TP02604</name><time>2021-12-16T22:04:51Z</time></trkpt>
   <trkpt lat="30.780756" lon="34.754835"><ele>531.2</ele><name>TP02605</name><time>2021-12-16T22:04:55Z</time></trkpt>
   <trkpt lat="30.780801" lon="34.754852"><ele>530.6</ele><name>TP02606</name><time>2021-12-16T22:05:20Z</time></trkpt>
   <trkpt lat="30.780846" lon="34.754882"><ele>530.8</ele><name>TP02607</name><time>2021-12-16T22:05:23Z</time></trkpt>
   <trkpt lat="30.780864" lon="34.754893"><ele>530.8</ele><name>TP02608</name><time>2021-12-16T22:05:24Z</time></trkpt>
   <trkpt lat="30.780907" lon="34.754911"><ele>531.6</ele><name>TP02609</name><time>2021-12-16T22:05:27Z</time></trkpt>
   <trkpt lat="30.780921" lon="34.754917"><ele>531.8</ele><name>TP02610</name><time>2021-12-16T22:05:28Z</time></trkpt>
   <trkpt lat="30.780999" lon="34.754985"><ele>532.6</ele><name>TP02611</name><time>2021-12-16T22:05:34Z</time></trkpt>
   <trkpt lat="30.781049" lon="34.755036"><ele>532.8</ele><name>TP02612</name><time>2021-12-16T22:05:38Z</time></trkpt>
   <trkpt lat="30.781091" lon="34.755071"><ele>532.8</ele><name>TP02613</name><time>2021-12-16T22:05:41Z</time></trkpt>
   <trkpt lat="30.781232" lon="34.755131"><ele>533</ele><name>TP02614</name><time>2021-12-16T22:05:48Z</time></trkpt>
   <trkpt lat="30.781371" lon="34.755197"><ele>533.2</ele><name>TP02615</name><time>2021-12-16T22:05:54Z</time></trkpt>
   <trkpt lat="30.781494" lon="34.755278"><ele>533.4</ele><name>TP02616</name><time>2021-12-16T22:06:00Z</time></trkpt>
   <trkpt lat="30.781517" lon="34.755288"><ele>533.2</ele><name>TP02617</name><time>2021-12-16T22:06:01Z</time></trkpt>
   <trkpt lat="30.78162" lon="34.755332"><ele>532.6</ele><name>TP02618</name><time>2021-12-16T22:06:05Z</time></trkpt>
   <trkpt lat="30.781743" lon="34.755334"><ele>532.2</ele><name>TP02619</name><time>2021-12-16T22:06:09Z</time></trkpt>
   <trkpt lat="30.781767" lon="34.755321"><ele>532.2</ele><name>TP02620</name><time>2021-12-16T22:06:10Z</time></trkpt>
   <trkpt lat="30.781941" lon="34.755251"><ele>532.4</ele><name>TP02621</name><time>2021-12-16T22:06:16Z</time></trkpt>
   <trkpt lat="30.782077" lon="34.755156"><ele>532.6</ele><name>TP02622</name><time>2021-12-16T22:06:21Z</time></trkpt>
   <trkpt lat="30.782188" lon="34.755049"><ele>532.6</ele><name>TP02623</name><time>2021-12-16T22:06:26Z</time></trkpt>
   <trkpt lat="30.782303" lon="34.755053"><ele>533</ele><name>TP02624</name><time>2021-12-16T22:06:30Z</time></trkpt>
   <trkpt lat="30.782354" lon="34.755011"><ele>533.6</ele><name>TP02625</name><time>2021-12-16T22:06:33Z</time></trkpt>
   <trkpt lat="30.78237" lon="34.754995"><ele>533.8</ele><name>TP02626</name><time>2021-12-16T22:06:34Z</time></trkpt>
   <trkpt lat="30.782385" lon="34.754979"><ele>534.2</ele><name>TP02627</name><time>2021-12-16T22:06:35Z</time></trkpt>
   <trkpt lat="30.782401" lon="34.754965"><ele>534.4</ele><name>TP02628</name><time>2021-12-16T22:06:36Z</time></trkpt>
   <trkpt lat="30.782476" lon="34.754874"><ele>534.8</ele><name>TP02629</name><time>2021-12-16T22:06:42Z</time></trkpt>
   <trkpt lat="30.782609" lon="34.754788"><ele>535.4</ele><name>TP02630</name><time>2021-12-16T22:06:49Z</time></trkpt>
   <trkpt lat="30.782783" lon="34.754763"><ele>535.4</ele><name>TP02631</name><time>2021-12-16T22:06:56Z</time></trkpt>
   <trkpt lat="30.78297" lon="34.754823"><ele>536</ele><name>TP02632</name><time>2021-12-16T22:07:03Z</time></trkpt>
   <trkpt lat="30.783182" lon="34.754937"><ele>535.8</ele><name>TP02633</name><time>2021-12-16T22:07:11Z</time></trkpt>
   <trkpt lat="30.783332" lon="34.755009"><ele>535.2</ele><name>TP02634</name><time>2021-12-16T22:07:17Z</time></trkpt>
   <trkpt lat="30.783496" lon="34.755091"><ele>535.4</ele><name>TP02635</name><time>2021-12-16T22:07:23Z</time></trkpt>
   <trkpt lat="30.783523" lon="34.755104"><ele>535.4</ele><name>TP02636</name><time>2021-12-16T22:07:24Z</time></trkpt>
   <trkpt lat="30.783605" lon="34.755138"><ele>535</ele><name>TP02637</name><time>2021-12-16T22:07:27Z</time></trkpt>
   <trkpt lat="30.783635" lon="34.755151"><ele>535</ele><name>TP02638</name><time>2021-12-16T22:07:28Z</time></trkpt>
   <trkpt lat="30.78373" lon="34.755186"><ele>534.6</ele><name>TP02639</name><time>2021-12-16T22:07:31Z</time></trkpt>
   <trkpt lat="30.783908" lon="34.755239"><ele>534.4</ele><name>TP02640</name><time>2021-12-16T22:07:36Z</time></trkpt>
   <trkpt lat="30.783982" lon="34.755258"><ele>534.2</ele><name>TP02641</name><time>2021-12-16T22:07:38Z</time></trkpt>
   <trkpt lat="30.784094" lon="34.755283"><ele>533.8</ele><name>TP02642</name><time>2021-12-16T22:07:41Z</time></trkpt>
   <trkpt lat="30.784236" lon="34.755322"><ele>533.6</ele><name>TP02643</name><time>2021-12-16T22:07:45Z</time></trkpt>
   <trkpt lat="30.784429" lon="34.755395"><ele>533.4</ele><name>TP02644</name><time>2021-12-16T22:07:51Z</time></trkpt>
   <trkpt lat="30.784593" lon="34.755478"><ele>533.4</ele><name>TP02645</name><time>2021-12-16T22:07:56Z</time></trkpt>
   <trkpt lat="30.784629" lon="34.755501"><ele>533.2</ele><name>TP02646</name><time>2021-12-16T22:07:57Z</time></trkpt>
   <trkpt lat="30.784863" lon="34.755661"><ele>532.8</ele><name>TP02647</name><time>2021-12-16T22:08:04Z</time></trkpt>
   <trkpt lat="30.785114" lon="34.7558"><ele>532.8</ele><name>TP02648</name><time>2021-12-16T22:08:12Z</time></trkpt>
   <trkpt lat="30.785196" lon="34.755844"><ele>532.8</ele><name>TP02649</name><time>2021-12-16T22:08:15Z</time></trkpt>
   <trkpt lat="30.785337" lon="34.75592"><ele>532</ele><name>TP02650</name><time>2021-12-16T22:08:20Z</time></trkpt>
   <trkpt lat="30.785424" lon="34.755982"><ele>531.8</ele><name>TP02651</name><time>2021-12-16T22:08:23Z</time></trkpt>
   <trkpt lat="30.785513" lon="34.756036"><ele>531.4</ele><name>TP02652</name><time>2021-12-16T22:08:26Z</time></trkpt>
   <trkpt lat="30.785713" lon="34.756187"><ele>530.8</ele><name>TP02653</name><time>2021-12-16T22:08:34Z</time></trkpt>
   <trkpt lat="30.785868" lon="34.756262"><ele>530.6</ele><name>TP02654</name><time>2021-12-16T22:08:40Z</time></trkpt>
   <trkpt lat="30.785894" lon="34.756276"><ele>530.6</ele><name>TP02655</name><time>2021-12-16T22:08:41Z</time></trkpt>
   <trkpt lat="30.78604" lon="34.756396"><ele>530.2</ele><name>TP02656</name><time>2021-12-16T22:08:47Z</time></trkpt>
   <trkpt lat="30.786179" lon="34.756431"><ele>529.8</ele><name>TP02657</name><time>2021-12-16T22:08:51Z</time></trkpt>
   <trkpt lat="30.786477" lon="34.756419"><ele>529.8</ele><name>TP02658</name><time>2021-12-16T22:09:00Z</time></trkpt>
   <trkpt lat="30.786609" lon="34.756398"><ele>529.6</ele><name>TP02659</name><time>2021-12-16T22:09:04Z</time></trkpt>
   <trkpt lat="30.786759" lon="34.756352"><ele>529.4</ele><name>TP02660</name><time>2021-12-16T22:09:09Z</time></trkpt>
   <trkpt lat="30.786911" lon="34.756313"><ele>529.2</ele><name>TP02661</name><time>2021-12-16T22:09:15Z</time></trkpt>
   <trkpt lat="30.787027" lon="34.75622"><ele>529.2</ele><name>TP02662</name><time>2021-12-16T22:09:20Z</time></trkpt>
   <trkpt lat="30.787078" lon="34.75616"><ele>529.2</ele><name>TP02663</name><time>2021-12-16T22:09:23Z</time></trkpt>
   <trkpt lat="30.787153" lon="34.756063"><ele>529.6</ele><name>TP02664</name><time>2021-12-16T22:09:27Z</time></trkpt>
   <trkpt lat="30.787288" lon="34.755945"><ele>530.4</ele><name>TP02665</name><time>2021-12-16T22:09:33Z</time></trkpt>
   <trkpt lat="30.787448" lon="34.755868"><ele>530.6</ele><name>TP02666</name><time>2021-12-16T22:09:39Z</time></trkpt>
   <trkpt lat="30.787614" lon="34.755898"><ele>530.4</ele><name>TP02667</name><time>2021-12-16T22:09:45Z</time></trkpt>
   <trkpt lat="30.787851" lon="34.755903"><ele>530</ele><name>TP02668</name><time>2021-12-16T22:09:51Z</time></trkpt>
   <trkpt lat="30.78805" lon="34.755874"><ele>529.6</ele><name>TP02669</name><time>2021-12-16T22:09:56Z</time></trkpt>
   <trkpt lat="30.788089" lon="34.755876"><ele>529.4</ele><name>TP02670</name><time>2021-12-16T22:09:57Z</time></trkpt>
   <trkpt lat="30.788197" lon="34.755918"><ele>529.4</ele><name>TP02671</name><time>2021-12-16T22:10:00Z</time></trkpt>
   <trkpt lat="30.788227" lon="34.755934"><ele>529.4</ele><name>TP02672</name><time>2021-12-16T22:10:01Z</time></trkpt>
   <trkpt lat="30.788296" lon="34.755955"><ele>529.4</ele><name>TP02673</name><time>2021-12-16T22:10:03Z</time></trkpt>
   <trkpt lat="30.788395" lon="34.75596"><ele>528.6</ele><name>TP02674</name><time>2021-12-16T22:10:05Z</time></trkpt>
   <trkpt lat="30.788506" lon="34.755946"><ele>528</ele><name>TP02675</name><time>2021-12-16T22:10:07Z</time></trkpt>
   <trkpt lat="30.788707" lon="34.755911"><ele>527.8</ele><name>TP02676</name><time>2021-12-16T22:10:11Z</time></trkpt>
   <trkpt lat="30.788802" lon="34.755901"><ele>527.6</ele><name>TP02677</name><time>2021-12-16T22:10:13Z</time></trkpt>
   <trkpt lat="30.788886" lon="34.755866"><ele>527.4</ele><name>TP02678</name><time>2021-12-16T22:10:15Z</time></trkpt>
   <trkpt lat="30.788924" lon="34.755856"><ele>527.4</ele><name>TP02679</name><time>2021-12-16T22:10:16Z</time></trkpt>
   <trkpt lat="30.788949" lon="34.755861"><ele>527.4</ele><name>TP02680</name><time>2021-12-16T22:10:17Z</time></trkpt>
   <trkpt lat="30.788982" lon="34.755887"><ele>527.6</ele><name>TP02681</name><time>2021-12-16T22:10:19Z</time></trkpt>
   <trkpt lat="30.788994" lon="34.755993"><ele>528</ele><name>TP02682</name><time>2021-12-16T22:10:23Z</time></trkpt>
   <trkpt lat="30.789085" lon="34.756036"><ele>528</ele><name>TP02683</name><time>2021-12-16T22:10:27Z</time></trkpt>
   <trkpt lat="30.789246" lon="34.756092"><ele>528.2</ele><name>TP02684</name><time>2021-12-16T22:10:33Z</time></trkpt>
   <trkpt lat="30.789316" lon="34.756108"><ele>528.8</ele><name>TP02685</name><time>2021-12-16T22:10:36Z</time></trkpt>
   <trkpt lat="30.789343" lon="34.75611"><ele>528.8</ele><name>TP02686</name><time>2021-12-16T22:10:37Z</time></trkpt>
   <trkpt lat="30.7894" lon="34.756107"><ele>528.8</ele><name>TP02687</name><time>2021-12-16T22:10:39Z</time></trkpt>
   <trkpt lat="30.789615" lon="34.756041"><ele>528</ele><name>TP02688</name><time>2021-12-16T22:10:46Z</time></trkpt>
   <trkpt lat="30.78967" lon="34.756028"><ele>527.6</ele><name>TP02689</name><time>2021-12-16T22:10:48Z</time></trkpt>
   <trkpt lat="30.789805" lon="34.75599"><ele>527</ele><name>TP02690</name><time>2021-12-16T22:10:53Z</time></trkpt>
   <trkpt lat="30.789888" lon="34.756"><ele>527</ele><name>TP02691</name><time>2021-12-16T22:10:56Z</time></trkpt>
   <trkpt lat="30.789923" lon="34.756035"><ele>527</ele><name>TP02692</name><time>2021-12-16T22:10:57Z</time></trkpt>
   <trkpt lat="30.790005" lon="34.756129"><ele>526.6</ele><name>TP02693</name><time>2021-12-16T22:10:59Z</time></trkpt>
   <trkpt lat="30.790126" lon="34.756255"><ele>525.6</ele><name>TP02694</name><time>2021-12-16T22:11:02Z</time></trkpt>
   <trkpt lat="30.790169" lon="34.756288"><ele>525.2</ele><name>TP02695</name><time>2021-12-16T22:11:03Z</time></trkpt>
   <trkpt lat="30.790298" lon="34.756336"><ele>524.8</ele><name>TP02696</name><time>2021-12-16T22:11:06Z</time></trkpt>
   <trkpt lat="30.790348" lon="34.756345"><ele>524.8</ele><name>TP02697</name><time>2021-12-16T22:11:07Z</time></trkpt>
   <trkpt lat="30.790455" lon="34.756352"><ele>524.6</ele><name>TP02698</name><time>2021-12-16T22:11:09Z</time></trkpt>
   <trkpt lat="30.790505" lon="34.756355"><ele>524.4</ele><name>TP02699</name><time>2021-12-16T22:11:10Z</time></trkpt>
   <trkpt lat="30.790691" lon="34.756383"><ele>524</ele><name>TP02700</name><time>2021-12-16T22:11:14Z</time></trkpt>
   <trkpt lat="30.790735" lon="34.756399"><ele>524.2</ele><name>TP02701</name><time>2021-12-16T22:11:15Z</time></trkpt>
   <trkpt lat="30.790811" lon="34.756439"><ele>524.2</ele><name>TP02702</name><time>2021-12-16T22:11:17Z</time></trkpt>
   <trkpt lat="30.790851" lon="34.756473"><ele>524</ele><name>TP02703</name><time>2021-12-16T22:11:18Z</time></trkpt>
   <trkpt lat="30.79093" lon="34.756628"><ele>523</ele><name>TP02704</name><time>2021-12-16T22:11:21Z</time></trkpt>
   <trkpt lat="30.790971" lon="34.756743"><ele>522.2</ele><name>TP02705</name><time>2021-12-16T22:11:23Z</time></trkpt>
   <trkpt lat="30.790985" lon="34.756808"><ele>521.6</ele><name>TP02706</name><time>2021-12-16T22:11:24Z</time></trkpt>
   <trkpt lat="30.791" lon="34.756877"><ele>521.2</ele><name>TP02707</name><time>2021-12-16T22:11:25Z</time></trkpt>
   <trkpt lat="30.791087" lon="34.757052"><ele>520.6</ele><name>TP02708</name><time>2021-12-16T22:11:28Z</time></trkpt>
   <trkpt lat="30.791111" lon="34.757103"><ele>520.6</ele><name>TP02709</name><time>2021-12-16T22:11:29Z</time></trkpt>
   <trkpt lat="30.791186" lon="34.757281"><ele>520.6</ele><name>TP02710</name><time>2021-12-16T22:11:34Z</time></trkpt>
   <trkpt lat="30.791209" lon="34.757355"><ele>521.2</ele><name>TP02711</name><time>2021-12-16T22:11:37Z</time></trkpt>
   <trkpt lat="30.791227" lon="34.757398"><ele>521.8</ele><name>TP02712</name><time>2021-12-16T22:11:39Z</time></trkpt>
   <trkpt lat="30.791237" lon="34.75742"><ele>522</ele><name>TP02713</name><time>2021-12-16T22:11:40Z</time></trkpt>
   <trkpt lat="30.791258" lon="34.757532"><ele>522.6</ele><name>TP02714</name><time>2021-12-16T22:11:46Z</time></trkpt>
   <trkpt lat="30.791263" lon="34.757566"><ele>522.8</ele><name>TP02715</name><time>2021-12-16T22:11:48Z</time></trkpt>
   <trkpt lat="30.791267" lon="34.757598"><ele>523</ele><name>TP02716</name><time>2021-12-16T22:11:50Z</time></trkpt>
   <trkpt lat="30.791264" lon="34.757642"><ele>523.2</ele><name>TP02717</name><time>2021-12-16T22:11:52Z</time></trkpt>
   <trkpt lat="30.791278" lon="34.757701"><ele>523.6</ele><name>TP02718</name><time>2021-12-16T22:11:55Z</time></trkpt>
   <trkpt lat="30.791295" lon="34.757714"><ele>523.6</ele><name>TP02719</name><time>2021-12-16T22:11:56Z</time></trkpt>
   <trkpt lat="30.791338" lon="34.75773"><ele>523.6</ele><name>TP02720</name><time>2021-12-16T22:11:58Z</time></trkpt>
   <trkpt lat="30.791406" lon="34.757775"><ele>524.6</ele><name>TP02721</name><time>2021-12-16T22:12:02Z</time></trkpt>
   <trkpt lat="30.79142" lon="34.757786"><ele>524.6</ele><name>TP02722</name><time>2021-12-16T22:12:03Z</time></trkpt>
   <trkpt lat="30.791487" lon="34.757902"><ele>525</ele><name>TP02723</name><time>2021-12-16T22:12:09Z</time></trkpt>
   <trkpt lat="30.791525" lon="34.758089"><ele>525</ele><name>TP02724</name><time>2021-12-16T22:12:16Z</time></trkpt>
   <trkpt lat="30.791516" lon="34.758281"><ele>525.2</ele><name>TP02725</name><time>2021-12-16T22:12:23Z</time></trkpt>
   <trkpt lat="30.791426" lon="34.758475"><ele>525.4</ele><name>TP02726</name><time>2021-12-16T22:12:31Z</time></trkpt>
   <trkpt lat="30.791397" lon="34.758524"><ele>525.4</ele><name>TP02727</name><time>2021-12-16T22:12:33Z</time></trkpt>
   <trkpt lat="30.79132" lon="34.758675"><ele>525.8</ele><name>TP02728</name><time>2021-12-16T22:12:39Z</time></trkpt>
   <trkpt lat="30.791243" lon="34.758902"><ele>525.8</ele><name>TP02729</name><time>2021-12-16T22:12:46Z</time></trkpt>
   <trkpt lat="30.791186" lon="34.759126"><ele>526.8</ele><name>TP02730</name><time>2021-12-16T22:12:55Z</time></trkpt>
   <trkpt lat="30.791181" lon="34.759155"><ele>526.8</ele><name>TP02731</name><time>2021-12-16T22:12:56Z</time></trkpt>
   <trkpt lat="30.791149" lon="34.75938"><ele>527</ele><name>TP02732</name><time>2021-12-16T22:13:03Z</time></trkpt>
   <trkpt lat="30.791159" lon="34.759586"><ele>527.8</ele><name>TP02733</name><time>2021-12-16T22:13:10Z</time></trkpt>
   <trkpt lat="30.791195" lon="34.759705"><ele>529</ele><name>TP02734</name><time>2021-12-16T22:13:16Z</time></trkpt>
   <trkpt lat="30.791199" lon="34.759728"><ele>529</ele><name>TP02735</name><time>2021-12-16T22:13:17Z</time></trkpt>
   <trkpt lat="30.791213" lon="34.759932"><ele>529.4</ele><name>TP02736</name><time>2021-12-16T22:13:25Z</time></trkpt>
   <trkpt lat="30.791222" lon="34.759984"><ele>529.4</ele><name>TP02737</name><time>2021-12-16T22:13:26Z</time></trkpt>
   <trkpt lat="30.79123" lon="34.760139"><ele>530.2</ele><name>TP02738</name><time>2021-12-16T22:13:33Z</time></trkpt>
   <trkpt lat="30.79124" lon="34.76029"><ele>531</ele><name>TP02739</name><time>2021-12-16T22:13:40Z</time></trkpt>
   <trkpt lat="30.791244" lon="34.760311"><ele>531.2</ele><name>TP02740</name><time>2021-12-16T22:13:41Z</time></trkpt>
   <trkpt lat="30.791266" lon="34.760438"><ele>532</ele><name>TP02741</name><time>2021-12-16T22:13:47Z</time></trkpt>
   <trkpt lat="30.791276" lon="34.760478"><ele>532.4</ele><name>TP02742</name><time>2021-12-16T22:13:48Z</time></trkpt>
   <trkpt lat="30.791301" lon="34.760617"><ele>533</ele><name>TP02743</name><time>2021-12-16T22:13:56Z</time></trkpt>
   <trkpt lat="30.791316" lon="34.760673"><ele>533.4</ele><name>TP02744</name><time>2021-12-16T22:13:59Z</time></trkpt>
   <trkpt lat="30.791337" lon="34.760786"><ele>533.6</ele><name>TP02745</name><time>2021-12-16T22:14:04Z</time></trkpt>
   <trkpt lat="30.791349" lon="34.760955"><ele>533.8</ele><name>TP02746</name><time>2021-12-16T22:14:10Z</time></trkpt>
   <trkpt lat="30.791361" lon="34.761002"><ele>533.8</ele><name>TP02747</name><time>2021-12-16T22:14:12Z</time></trkpt>
   <trkpt lat="30.791368" lon="34.761086"><ele>533.8</ele><name>TP02748</name><time>2021-12-16T22:14:17Z</time></trkpt>
   <trkpt lat="30.791383" lon="34.761203"><ele>534.4</ele><name>TP02749</name><time>2021-12-16T22:14:21Z</time></trkpt>
   <trkpt lat="30.791392" lon="34.761279"><ele>534.2</ele><name>TP02750</name><time>2021-12-16T22:14:25Z</time></trkpt>
   <trkpt lat="30.791411" lon="34.761528"><ele>534.4</ele><name>TP02751</name><time>2021-12-16T22:14:33Z</time></trkpt>
   <trkpt lat="30.791377" lon="34.761773"><ele>535.2</ele><name>TP02752</name><time>2021-12-16T22:14:42Z</time></trkpt>
   <trkpt lat="30.791377" lon="34.761773"><ele>535.4</ele><name>TP02753</name><time>2021-12-16T22:14:43Z</time></trkpt>
   <trkpt lat="30.791387" lon="34.761936"><ele>536.4</ele><name>TP02754</name><time>2021-12-16T22:14:49Z</time></trkpt>
   <trkpt lat="30.791409" lon="34.762044"><ele>537</ele><name>TP02755</name><time>2021-12-16T22:14:52Z</time></trkpt>
   <trkpt lat="30.791415" lon="34.762178"><ele>537.4</ele><name>TP02756</name><time>2021-12-16T22:14:57Z</time></trkpt>
   <trkpt lat="30.791418" lon="34.762258"><ele>538.4</ele><name>TP02757</name><time>2021-12-16T22:15:01Z</time></trkpt>
   <trkpt lat="30.791426" lon="34.762351"><ele>538.8</ele><name>TP02758</name><time>2021-12-16T22:15:04Z</time></trkpt>
   <trkpt lat="30.79144" lon="34.762456"><ele>539.4</ele><name>TP02759</name><time>2021-12-16T22:15:08Z</time></trkpt>
   <trkpt lat="30.791443" lon="34.762504"><ele>539.6</ele><name>TP02760</name><time>2021-12-16T22:15:10Z</time></trkpt>
   <trkpt lat="30.791443" lon="34.762621"><ele>540.2</ele><name>TP02761</name><time>2021-12-16T22:15:15Z</time></trkpt>
   <trkpt lat="30.791451" lon="34.762793"><ele>540</ele><name>TP02762</name><time>2021-12-16T22:15:23Z</time></trkpt>
   <trkpt lat="30.791452" lon="34.762994"><ele>540</ele><name>TP02763</name><time>2021-12-16T22:15:30Z</time></trkpt>
   <trkpt lat="30.791427" lon="34.763165"><ele>539.8</ele><name>TP02764</name><time>2021-12-16T22:15:37Z</time></trkpt>
   <trkpt lat="30.791353" lon="34.763433"><ele>540.4</ele><name>TP02765</name><time>2021-12-16T22:15:45Z</time></trkpt>
   <trkpt lat="30.791299" lon="34.763641"><ele>541</ele><name>TP02766</name><time>2021-12-16T22:15:52Z</time></trkpt>
   <trkpt lat="30.791267" lon="34.76377"><ele>542</ele><name>TP02767</name><time>2021-12-16T22:15:57Z</time></trkpt>
   <trkpt lat="30.791241" lon="34.763839"><ele>543.2</ele><name>TP02768</name><time>2021-12-16T22:16:00Z</time></trkpt>
   <trkpt lat="30.791241" lon="34.763839"><ele>543.6</ele><name>TP02769</name><time>2021-12-16T22:16:01Z</time></trkpt>
   <trkpt lat="30.791203" lon="34.763933"><ele>544</ele><name>TP02770</name><time>2021-12-16T22:16:05Z</time></trkpt>
   <trkpt lat="30.791191" lon="34.76398"><ele>544.6</ele><name>TP02771</name><time>2021-12-16T22:16:07Z</time></trkpt>
   <trkpt lat="30.791172" lon="34.764046"><ele>545.6</ele><name>TP02772</name><time>2021-12-16T22:16:11Z</time></trkpt>
   <trkpt lat="30.791168" lon="34.764076"><ele>545.8</ele><name>TP02773</name><time>2021-12-16T22:16:12Z</time></trkpt>
   <trkpt lat="30.791117" lon="34.764196"><ele>545.8</ele><name>TP02774</name><time>2021-12-16T22:16:20Z</time></trkpt>
   <trkpt lat="30.791086" lon="34.764363"><ele>545.6</ele><name>TP02775</name><time>2021-12-16T22:16:26Z</time></trkpt>
   <trkpt lat="30.791055" lon="34.764645"><ele>544.6</ele><name>TP02776</name><time>2021-12-16T22:16:32Z</time></trkpt>
   <trkpt lat="30.791007" lon="34.764865"><ele>543.4</ele><name>TP02777</name><time>2021-12-16T22:16:36Z</time></trkpt>
   <trkpt lat="30.790975" lon="34.765042"><ele>541.8</ele><name>TP02778</name><time>2021-12-16T22:16:39Z</time></trkpt>
   <trkpt lat="30.790955" lon="34.76521"><ele>541</ele><name>TP02779</name><time>2021-12-16T22:16:43Z</time></trkpt>
   <trkpt lat="30.790947" lon="34.765308"><ele>540.6</ele><name>TP02780</name><time>2021-12-16T22:16:44Z</time></trkpt>
   <trkpt lat="30.790937" lon="34.765402"><ele>540.4</ele><name>TP02781</name><time>2021-12-16T22:16:47Z</time></trkpt>
   <trkpt lat="30.790931" lon="34.765493"><ele>540.4</ele><name>TP02782</name><time>2021-12-16T22:16:48Z</time></trkpt>
   <trkpt lat="30.790921" lon="34.76559"><ele>540.2</ele><name>TP02783</name><time>2021-12-16T22:16:50Z</time></trkpt>
   <trkpt lat="30.790905" lon="34.765678"><ele>540.2</ele><name>TP02784</name><time>2021-12-16T22:16:52Z</time></trkpt>
   <trkpt lat="30.790883" lon="34.765938"><ele>539.8</ele><name>TP02785</name><time>2021-12-16T22:16:57Z</time></trkpt>
   <trkpt lat="30.790881" lon="34.765993"><ele>538.6</ele><name>TP02786</name><time>2021-12-16T22:16:58Z</time></trkpt>
   <trkpt lat="30.79089" lon="34.766101"><ele>537.2</ele><name>TP02787</name><time>2021-12-16T22:17:00Z</time></trkpt>
   <trkpt lat="30.790908" lon="34.766204"><ele>537</ele><name>TP02788</name><time>2021-12-16T22:17:02Z</time></trkpt>
   <trkpt lat="30.790937" lon="34.766299"><ele>536.8</ele><name>TP02789</name><time>2021-12-16T22:17:05Z</time></trkpt>
   <trkpt lat="30.790964" lon="34.766381"><ele>536.6</ele><name>TP02790</name><time>2021-12-16T22:17:06Z</time></trkpt>
   <trkpt lat="30.790994" lon="34.766537"><ele>536.2</ele><name>TP02791</name><time>2021-12-16T22:17:10Z</time></trkpt>
   <trkpt lat="30.791002" lon="34.766683"><ele>536.4</ele><name>TP02792</name><time>2021-12-16T22:17:14Z</time></trkpt>
   <trkpt lat="30.790983" lon="34.766896"><ele>536.6</ele><name>TP02793</name><time>2021-12-16T22:17:20Z</time></trkpt>
   <trkpt lat="30.79099" lon="34.76717"><ele>535.8</ele><name>TP02794</name><time>2021-12-16T22:17:27Z</time></trkpt>
   <trkpt lat="30.790995" lon="34.767288"><ele>536</ele><name>TP02795</name><time>2021-12-16T22:17:30Z</time></trkpt>
   <trkpt lat="30.791022" lon="34.767428"><ele>536.2</ele><name>TP02796</name><time>2021-12-16T22:17:35Z</time></trkpt>
   <trkpt lat="30.791091" lon="34.767627"><ele>536.4</ele><name>TP02797</name><time>2021-12-16T22:17:41Z</time></trkpt>
   <trkpt lat="30.791143" lon="34.767761"><ele>536.6</ele><name>TP02798</name><time>2021-12-16T22:17:44Z</time></trkpt>
   <trkpt lat="30.791195" lon="34.767798"><ele>536.8</ele><name>TP02799</name><time>2021-12-16T22:17:46Z</time></trkpt>
   <trkpt lat="30.791292" lon="34.767821"><ele>536.8</ele><name>TP02800</name><time>2021-12-16T22:17:50Z</time></trkpt>
   <trkpt lat="30.791329" lon="34.767814"><ele>536.8</ele><name>TP02801</name><time>2021-12-16T22:17:52Z</time></trkpt>
   <trkpt lat="30.791451" lon="34.767796"><ele>536.8</ele><name>TP02802</name><time>2021-12-16T22:18:00Z</time></trkpt>
   <trkpt lat="30.791451" lon="34.767796"><ele>536.8</ele><name>TP02803</name><time>2021-12-16T22:18:01Z</time></trkpt>
   <trkpt lat="30.791478" lon="34.767826"><ele>536.8</ele><name>TP02804</name><time>2021-12-16T22:18:02Z</time></trkpt>
   <trkpt lat="30.791521" lon="34.767912"><ele>536.8</ele><name>TP02805</name><time>2021-12-16T22:18:06Z</time></trkpt>
   <trkpt lat="30.791592" lon="34.768007"><ele>536.4</ele><name>TP02806</name><time>2021-12-16T22:18:11Z</time></trkpt>
   <trkpt lat="30.791626" lon="34.768065"><ele>536.2</ele><name>TP02807</name><time>2021-12-16T22:18:12Z</time></trkpt>
   <trkpt lat="30.791691" lon="34.768263"><ele>535.6</ele><name>TP02808</name><time>2021-12-16T22:18:19Z</time></trkpt>
   <trkpt lat="30.791781" lon="34.768434"><ele>536</ele><name>TP02809</name><time>2021-12-16T22:18:24Z</time></trkpt>
   <trkpt lat="30.791781" lon="34.768434"><ele>536.2</ele><name>TP02810</name><time>2021-12-16T22:18:25Z</time></trkpt>
   <trkpt lat="30.791835" lon="34.768442"><ele>536.4</ele><name>TP02811</name><time>2021-12-16T22:18:26Z</time></trkpt>
   <trkpt lat="30.791941" lon="34.768423"><ele>537</ele><name>TP02812</name><time>2021-12-16T22:18:30Z</time></trkpt>
   <trkpt lat="30.791995" lon="34.768434"><ele>537</ele><name>TP02813</name><time>2021-12-16T22:18:32Z</time></trkpt>
   <trkpt lat="30.792049" lon="34.768454"><ele>536.8</ele><name>TP02814</name><time>2021-12-16T22:18:35Z</time></trkpt>
   <trkpt lat="30.792095" lon="34.768485"><ele>536.8</ele><name>TP02815</name><time>2021-12-16T22:18:36Z</time></trkpt>
   <trkpt lat="30.792118" lon="34.768531"><ele>536.8</ele><name>TP02816</name><time>2021-12-16T22:18:38Z</time></trkpt>
   <trkpt lat="30.792127" lon="34.768556"><ele>536.8</ele><name>TP02817</name><time>2021-12-16T22:18:39Z</time></trkpt>
   <trkpt lat="30.792171" lon="34.768673"><ele>537.2</ele><name>TP02818</name><time>2021-12-16T22:18:44Z</time></trkpt>
   <trkpt lat="30.792187" lon="34.768717"><ele>537.2</ele><name>TP02819</name><time>2021-12-16T22:18:46Z</time></trkpt>
   <trkpt lat="30.792207" lon="34.768757"><ele>537.2</ele><name>TP02820</name><time>2021-12-16T22:18:48Z</time></trkpt>
   <trkpt lat="30.792233" lon="34.768772"><ele>537.2</ele><name>TP02821</name><time>2021-12-16T22:18:51Z</time></trkpt>
  </trkseg>
 </trk>
</gpx>
